<?xml version="1.0" encoding="UTF-8" standalone="no" ?>
<gpx xmlns="http://www.topografix.com/GPX/1/1" xmlns:xsi="http://www.w3.org/2001/XMLSchema-instance" xsi:schemaLocation="http://www.topografix.com/GPX/1/1 http://www.topografix.com/GPX/1/1/gpx.xsd" version="1.1" creator="VisuGPX - https://www.visugpx.com">
  <metadata>
    <name>Rando Mandrin Biol</name>
    <desc><![CDATA[Rando équestre à Biol ]]></desc>
  </metadata>
  <trk>
    <name><![CDATA[Rando Mandrin Biol_1]]></name>
    <trkseg>
      <trkpt lat="45.50442" lon="5.39934">
        <ele>459.9</ele>
        <time>2015-05-02T09:38:05Z</time>
      </trkpt>
      <trkpt lat="45.50441" lon="5.39934">
        <ele>459.9</ele>
        <time>2015-05-02T09:38:10Z</time>
      </trkpt>
      <trkpt lat="45.50435" lon="5.39926">
        <ele>459.9</ele>
        <time>2015-05-02T09:38:15Z</time>
      </trkpt>
      <trkpt lat="45.5043" lon="5.39925">
        <ele>462.4467</ele>
        <time>2015-05-02T09:38:20Z</time>
      </trkpt>
      <trkpt lat="45.50424" lon="5.3992">
        <ele>462.4467</ele>
        <time>2015-05-02T09:38:25Z</time>
      </trkpt>
      <trkpt lat="45.50418" lon="5.39914">
        <ele>465.07526</ele>
        <time>2015-05-02T09:38:30Z</time>
      </trkpt>
      <trkpt lat="45.50414" lon="5.39907">
        <ele>465.07526</ele>
        <time>2015-05-02T09:38:35Z</time>
      </trkpt>
      <trkpt lat="45.50409" lon="5.39903">
        <ele>466.90207</ele>
        <time>2015-05-02T09:38:40Z</time>
      </trkpt>
      <trkpt lat="45.50403" lon="5.39897">
        <ele>466.90207</ele>
        <time>2015-05-02T09:38:45Z</time>
      </trkpt>
      <trkpt lat="45.50398" lon="5.39891">
        <ele>469.41248</ele>
        <time>2015-05-02T09:38:50Z</time>
      </trkpt>
      <trkpt lat="45.50393" lon="5.39887">
        <ele>469.41248</ele>
        <time>2015-05-02T09:38:55Z</time>
      </trkpt>
      <trkpt lat="45.50386" lon="5.39881">
        <ele>470.10815</ele>
        <time>2015-05-02T09:39:00Z</time>
      </trkpt>
      <trkpt lat="45.50381" lon="5.39871">
        <ele>470.10815</ele>
        <time>2015-05-02T09:39:05Z</time>
      </trkpt>
      <trkpt lat="45.50375" lon="5.39865">
        <ele>470.85452</ele>
        <time>2015-05-02T09:39:10Z</time>
      </trkpt>
      <trkpt lat="45.50371" lon="5.3986">
        <ele>470.85452</ele>
        <time>2015-05-02T09:39:15Z</time>
      </trkpt>
      <trkpt lat="45.50363" lon="5.39852">
        <ele>471.5915</ele>
        <time>2015-05-02T09:39:20Z</time>
      </trkpt>
      <trkpt lat="45.50356" lon="5.39845">
        <ele>471.5915</ele>
        <time>2015-05-02T09:39:25Z</time>
      </trkpt>
      <trkpt lat="45.5035" lon="5.39839">
        <ele>471.75858</ele>
        <time>2015-05-02T09:39:30Z</time>
      </trkpt>
      <trkpt lat="45.50345" lon="5.39833">
        <ele>471.75858</ele>
        <time>2015-05-02T09:39:35Z</time>
      </trkpt>
      <trkpt lat="45.5034" lon="5.39826">
        <ele>471.4858</ele>
        <time>2015-05-02T09:39:40Z</time>
      </trkpt>
      <trkpt lat="45.50336" lon="5.39818">
        <ele>471.4858</ele>
        <time>2015-05-02T09:39:45Z</time>
      </trkpt>
      <trkpt lat="45.50332" lon="5.39811">
        <ele>470.97562</ele>
        <time>2015-05-02T09:39:50Z</time>
      </trkpt>
      <trkpt lat="45.50328" lon="5.39803">
        <ele>470.97562</ele>
        <time>2015-05-02T09:39:55Z</time>
      </trkpt>
      <trkpt lat="45.50323" lon="5.39794">
        <ele>470.17877</ele>
        <time>2015-05-02T09:40:00Z</time>
      </trkpt>
      <trkpt lat="45.5032" lon="5.39785">
        <ele>470.17877</ele>
        <time>2015-05-02T09:40:05Z</time>
      </trkpt>
      <trkpt lat="45.50316" lon="5.39776">
        <ele>468.99597</ele>
        <time>2015-05-02T09:40:11Z</time>
      </trkpt>
      <trkpt lat="45.50312" lon="5.39767">
        <ele>468.99597</ele>
        <time>2015-05-02T09:40:16Z</time>
      </trkpt>
      <trkpt lat="45.50307" lon="5.39756">
        <ele>467.60492</ele>
        <time>2015-05-02T09:40:21Z</time>
      </trkpt>
      <trkpt lat="45.50304" lon="5.39749">
        <ele>467.60492</ele>
        <time>2015-05-02T09:40:26Z</time>
      </trkpt>
      <trkpt lat="45.50301" lon="5.39738">
        <ele>465.92773</ele>
        <time>2015-05-02T09:40:32Z</time>
      </trkpt>
      <trkpt lat="45.50298" lon="5.39729">
        <ele>465.92773</ele>
        <time>2015-05-02T09:40:37Z</time>
      </trkpt>
      <trkpt lat="45.50295" lon="5.39723">
        <ele>464.41217</ele>
        <time>2015-05-02T09:40:40Z</time>
      </trkpt>
      <trkpt lat="45.50291" lon="5.39714">
        <ele>464.41217</ele>
        <time>2015-05-02T09:40:46Z</time>
      </trkpt>
      <trkpt lat="45.5029" lon="5.39707">
        <ele>463.01114</ele>
        <time>2015-05-02T09:40:50Z</time>
      </trkpt>
      <trkpt lat="45.50288" lon="5.39698">
        <ele>463.01114</ele>
        <time>2015-05-02T09:40:55Z</time>
      </trkpt>
      <trkpt lat="45.50285" lon="5.39687">
        <ele>461.75702</ele>
        <time>2015-05-02T09:41:00Z</time>
      </trkpt>
      <trkpt lat="45.50284" lon="5.39682">
        <ele>461.75702</ele>
        <time>2015-05-02T09:41:05Z</time>
      </trkpt>
      <trkpt lat="45.50283" lon="5.39673">
        <ele>460.60678</ele>
        <time>2015-05-02T09:41:10Z</time>
      </trkpt>
      <trkpt lat="45.50283" lon="5.39664">
        <ele>460.60678</ele>
        <time>2015-05-02T09:41:15Z</time>
      </trkpt>
      <trkpt lat="45.50281" lon="5.39654">
        <ele>459.4852</ele>
        <time>2015-05-02T09:41:20Z</time>
      </trkpt>
      <trkpt lat="45.50278" lon="5.39644">
        <ele>459.4852</ele>
        <time>2015-05-02T09:41:25Z</time>
      </trkpt>
      <trkpt lat="45.50279" lon="5.39633">
        <ele>458.44812</ele>
        <time>2015-05-02T09:41:30Z</time>
      </trkpt>
      <trkpt lat="45.50279" lon="5.39624">
        <ele>458.44812</ele>
        <time>2015-05-02T09:41:35Z</time>
      </trkpt>
      <trkpt lat="45.50279" lon="5.39614">
        <ele>457.54077</ele>
        <time>2015-05-02T09:41:40Z</time>
      </trkpt>
      <trkpt lat="45.50278" lon="5.39604">
        <ele>457.54077</ele>
        <time>2015-05-02T09:41:45Z</time>
      </trkpt>
      <trkpt lat="45.50278" lon="5.39594">
        <ele>457.04303</ele>
        <time>2015-05-02T09:41:50Z</time>
      </trkpt>
      <trkpt lat="45.50277" lon="5.39584">
        <ele>457.04303</ele>
        <time>2015-05-02T09:41:55Z</time>
      </trkpt>
      <trkpt lat="45.50276" lon="5.39575">
        <ele>456.7013</ele>
        <time>2015-05-02T09:42:00Z</time>
      </trkpt>
      <trkpt lat="45.50275" lon="5.39566">
        <ele>456.7013</ele>
        <time>2015-05-02T09:42:05Z</time>
      </trkpt>
      <trkpt lat="45.50274" lon="5.39557">
        <ele>456.46997</ele>
        <time>2015-05-02T09:42:10Z</time>
      </trkpt>
      <trkpt lat="45.50273" lon="5.39546">
        <ele>456.46997</ele>
        <time>2015-05-02T09:42:15Z</time>
      </trkpt>
      <trkpt lat="45.50278" lon="5.39544">
        <ele>455.8857</ele>
        <time>2015-05-02T09:42:20Z</time>
      </trkpt>
      <trkpt lat="45.50283" lon="5.39549">
        <ele>455.8857</ele>
        <time>2015-05-02T09:42:25Z</time>
      </trkpt>
      <trkpt lat="45.50287" lon="5.39555">
        <ele>455.4177</ele>
        <time>2015-05-02T09:42:30Z</time>
      </trkpt>
      <trkpt lat="45.50288" lon="5.39564">
        <ele>455.4177</ele>
        <time>2015-05-02T09:42:35Z</time>
      </trkpt>
      <trkpt lat="45.5029" lon="5.39573">
        <ele>455.2959</ele>
        <time>2015-05-02T09:42:40Z</time>
      </trkpt>
      <trkpt lat="45.50291" lon="5.3958">
        <ele>455.2959</ele>
        <time>2015-05-02T09:42:45Z</time>
      </trkpt>
      <trkpt lat="45.50291" lon="5.39579">
        <ele>455.2959</ele>
        <time>2015-05-02T09:42:50Z</time>
      </trkpt>
      <trkpt lat="45.50291" lon="5.39578">
        <ele>455.2959</ele>
        <time>2015-05-02T09:42:55Z</time>
      </trkpt>
      <trkpt lat="45.50291" lon="5.39578">
        <ele>455.2959</ele>
        <time>2015-05-02T09:43:02Z</time>
      </trkpt>
      <trkpt lat="45.50291" lon="5.39578">
        <ele>455.2959</ele>
        <time>2015-05-02T09:43:07Z</time>
      </trkpt>
      <trkpt lat="45.50291" lon="5.39578">
        <ele>455.2959</ele>
        <time>2015-05-02T09:43:11Z</time>
      </trkpt>
      <trkpt lat="45.50292" lon="5.39578">
        <ele>455.2959</ele>
        <time>2015-05-02T09:43:17Z</time>
      </trkpt>
      <trkpt lat="45.50292" lon="5.39581">
        <ele>455.64136</ele>
        <time>2015-05-02T09:43:20Z</time>
      </trkpt>
      <trkpt lat="45.5029" lon="5.3958">
        <ele>455.64136</ele>
        <time>2015-05-02T09:43:25Z</time>
      </trkpt>
      <trkpt lat="45.50289" lon="5.3958">
        <ele>455.64136</ele>
        <time>2015-05-02T09:43:30Z</time>
      </trkpt>
      <trkpt lat="45.50288" lon="5.39579">
        <ele>455.64136</ele>
        <time>2015-05-02T09:43:37Z</time>
      </trkpt>
      <trkpt lat="45.50288" lon="5.39577">
        <ele>455.64136</ele>
        <time>2015-05-02T09:43:42Z</time>
      </trkpt>
      <trkpt lat="45.50288" lon="5.39578">
        <ele>455.64136</ele>
        <time>2015-05-02T09:43:47Z</time>
      </trkpt>
      <trkpt lat="45.50288" lon="5.39577">
        <ele>455.64136</ele>
        <time>2015-05-02T09:43:50Z</time>
      </trkpt>
      <trkpt lat="45.50288" lon="5.39577">
        <ele>455.64136</ele>
        <time>2015-05-02T09:43:57Z</time>
      </trkpt>
      <trkpt lat="45.50287" lon="5.39576">
        <ele>455.64136</ele>
        <time>2015-05-02T09:44:02Z</time>
      </trkpt>
      <trkpt lat="45.50287" lon="5.39576">
        <ele>455.64136</ele>
        <time>2015-05-02T09:44:06Z</time>
      </trkpt>
      <trkpt lat="45.50289" lon="5.39578">
        <ele>456.43826</ele>
        <time>2015-05-02T09:44:12Z</time>
      </trkpt>
      <trkpt lat="45.50289" lon="5.39578">
        <ele>456.43826</ele>
        <time>2015-05-02T09:44:17Z</time>
      </trkpt>
      <trkpt lat="45.50289" lon="5.39578">
        <ele>456.43826</ele>
        <time>2015-05-02T09:44:20Z</time>
      </trkpt>
      <trkpt lat="45.50291" lon="5.39582">
        <ele>456.43826</ele>
        <time>2015-05-02T09:44:27Z</time>
      </trkpt>
      <trkpt lat="45.50292" lon="5.39582">
        <ele>456.43826</ele>
        <time>2015-05-02T09:44:31Z</time>
      </trkpt>
      <trkpt lat="45.50292" lon="5.39583">
        <ele>456.43826</ele>
        <time>2015-05-02T09:44:35Z</time>
      </trkpt>
      <trkpt lat="45.50293" lon="5.39584">
        <ele>456.43826</ele>
        <time>2015-05-02T09:44:41Z</time>
      </trkpt>
      <trkpt lat="45.50293" lon="5.39584">
        <ele>456.43826</ele>
        <time>2015-05-02T09:44:47Z</time>
      </trkpt>
      <trkpt lat="45.50293" lon="5.39584">
        <ele>456.43826</ele>
        <time>2015-05-02T09:44:52Z</time>
      </trkpt>
      <trkpt lat="45.50293" lon="5.39584">
        <ele>456.43826</ele>
        <time>2015-05-02T09:44:57Z</time>
      </trkpt>
      <trkpt lat="45.50292" lon="5.39584">
        <ele>456.43826</ele>
        <time>2015-05-02T09:45:02Z</time>
      </trkpt>
      <trkpt lat="45.50292" lon="5.39584">
        <ele>456.43826</ele>
        <time>2015-05-02T09:45:06Z</time>
      </trkpt>
      <trkpt lat="45.50292" lon="5.39585">
        <ele>456.43826</ele>
        <time>2015-05-02T09:45:11Z</time>
      </trkpt>
      <trkpt lat="45.50292" lon="5.39585">
        <ele>456.43826</ele>
        <time>2015-05-02T09:45:16Z</time>
      </trkpt>
      <trkpt lat="45.50292" lon="5.39585">
        <ele>456.43826</ele>
        <time>2015-05-02T09:45:22Z</time>
      </trkpt>
      <trkpt lat="45.50291" lon="5.39585">
        <ele>457.14447</ele>
        <time>2015-05-02T09:45:26Z</time>
      </trkpt>
      <trkpt lat="45.50292" lon="5.39585">
        <ele>457.14447</ele>
        <time>2015-05-02T09:45:32Z</time>
      </trkpt>
      <trkpt lat="45.50292" lon="5.39585">
        <ele>457.14447</ele>
        <time>2015-05-02T09:45:36Z</time>
      </trkpt>
      <trkpt lat="45.50293" lon="5.39585">
        <ele>457.14447</ele>
        <time>2015-05-02T09:45:41Z</time>
      </trkpt>
      <trkpt lat="45.50293" lon="5.39585">
        <ele>457.14447</ele>
        <time>2015-05-02T09:45:46Z</time>
      </trkpt>
      <trkpt lat="45.50293" lon="5.39585">
        <ele>457.14447</ele>
        <time>2015-05-02T09:45:52Z</time>
      </trkpt>
      <trkpt lat="45.50293" lon="5.39584">
        <ele>457.14447</ele>
        <time>2015-05-02T09:45:56Z</time>
      </trkpt>
      <trkpt lat="45.50296" lon="5.39587">
        <ele>457.14447</ele>
        <time>2015-05-02T09:46:02Z</time>
      </trkpt>
      <trkpt lat="45.50302" lon="5.39588">
        <ele>457.73868</ele>
        <time>2015-05-02T09:46:07Z</time>
      </trkpt>
      <trkpt lat="45.50309" lon="5.39585">
        <ele>457.73868</ele>
        <time>2015-05-02T09:46:12Z</time>
      </trkpt>
      <trkpt lat="45.50316" lon="5.39582">
        <ele>458.0758</ele>
        <time>2015-05-02T09:46:17Z</time>
      </trkpt>
      <trkpt lat="45.50323" lon="5.39579">
        <ele>458.0758</ele>
        <time>2015-05-02T09:46:22Z</time>
      </trkpt>
      <trkpt lat="45.50329" lon="5.39577">
        <ele>458.1873</ele>
        <time>2015-05-02T09:46:26Z</time>
      </trkpt>
      <trkpt lat="45.50335" lon="5.39574">
        <ele>458.1873</ele>
        <time>2015-05-02T09:46:30Z</time>
      </trkpt>
      <trkpt lat="45.5034" lon="5.39573">
        <ele>458.324</ele>
        <time>2015-05-02T09:46:35Z</time>
      </trkpt>
      <trkpt lat="45.50339" lon="5.39573">
        <ele>458.324</ele>
        <time>2015-05-02T09:46:42Z</time>
      </trkpt>
      <trkpt lat="45.50338" lon="5.39571">
        <ele>458.324</ele>
        <time>2015-05-02T09:46:47Z</time>
      </trkpt>
      <trkpt lat="45.50335" lon="5.3956">
        <ele>458.41367</ele>
        <time>2015-05-02T09:46:52Z</time>
      </trkpt>
      <trkpt lat="45.50334" lon="5.39554">
        <ele>458.41367</ele>
        <time>2015-05-02T09:46:55Z</time>
      </trkpt>
      <trkpt lat="45.50331" lon="5.39542">
        <ele>458.31845</ele>
        <time>2015-05-02T09:47:00Z</time>
      </trkpt>
      <trkpt lat="45.50328" lon="5.3953">
        <ele>458.31845</ele>
        <time>2015-05-02T09:47:05Z</time>
      </trkpt>
      <trkpt lat="45.50325" lon="5.3952">
        <ele>458.88074</ele>
        <time>2015-05-02T09:47:10Z</time>
      </trkpt>
      <trkpt lat="45.50321" lon="5.3951">
        <ele>458.88074</ele>
        <time>2015-05-02T09:47:15Z</time>
      </trkpt>
      <trkpt lat="45.50318" lon="5.39499">
        <ele>459.55075</ele>
        <time>2015-05-02T09:47:20Z</time>
      </trkpt>
      <trkpt lat="45.50315" lon="5.39488">
        <ele>459.55075</ele>
        <time>2015-05-02T09:47:25Z</time>
      </trkpt>
      <trkpt lat="45.50312" lon="5.39482">
        <ele>460.5064</ele>
        <time>2015-05-02T09:47:30Z</time>
      </trkpt>
      <trkpt lat="45.50308" lon="5.39474">
        <ele>460.5064</ele>
        <time>2015-05-02T09:47:35Z</time>
      </trkpt>
      <trkpt lat="45.50306" lon="5.39464">
        <ele>460.90976</ele>
        <time>2015-05-02T09:47:40Z</time>
      </trkpt>
      <trkpt lat="45.50313" lon="5.39462">
        <ele>460.90976</ele>
        <time>2015-05-02T09:47:45Z</time>
      </trkpt>
      <trkpt lat="45.50315" lon="5.39462">
        <ele>460.90976</ele>
        <time>2015-05-02T09:47:50Z</time>
      </trkpt>
      <trkpt lat="45.5032" lon="5.39458">
        <ele>460.9648</ele>
        <time>2015-05-02T09:47:55Z</time>
      </trkpt>
      <trkpt lat="45.50328" lon="5.39461">
        <ele>460.9648</ele>
        <time>2015-05-02T09:48:00Z</time>
      </trkpt>
      <trkpt lat="45.50335" lon="5.39464">
        <ele>461.0565</ele>
        <time>2015-05-02T09:48:05Z</time>
      </trkpt>
      <trkpt lat="45.50343" lon="5.39467">
        <ele>461.0565</ele>
        <time>2015-05-02T09:48:10Z</time>
      </trkpt>
      <trkpt lat="45.5035" lon="5.39471">
        <ele>461.22748</ele>
        <time>2015-05-02T09:48:15Z</time>
      </trkpt>
      <trkpt lat="45.50358" lon="5.39474">
        <ele>461.22748</ele>
        <time>2015-05-02T09:48:20Z</time>
      </trkpt>
      <trkpt lat="45.50365" lon="5.39477">
        <ele>461.53265</ele>
        <time>2015-05-02T09:48:25Z</time>
      </trkpt>
      <trkpt lat="45.50372" lon="5.3948">
        <ele>461.53265</ele>
        <time>2015-05-02T09:48:30Z</time>
      </trkpt>
      <trkpt lat="45.50379" lon="5.39484">
        <ele>461.94904</ele>
        <time>2015-05-02T09:48:35Z</time>
      </trkpt>
      <trkpt lat="45.50386" lon="5.39487">
        <ele>461.94904</ele>
        <time>2015-05-02T09:48:40Z</time>
      </trkpt>
      <trkpt lat="45.50393" lon="5.39492">
        <ele>462.30533</ele>
        <time>2015-05-02T09:48:45Z</time>
      </trkpt>
      <trkpt lat="45.504" lon="5.39495">
        <ele>462.30533</ele>
        <time>2015-05-02T09:48:50Z</time>
      </trkpt>
      <trkpt lat="45.50408" lon="5.39498">
        <ele>462.81473</ele>
        <time>2015-05-02T09:48:56Z</time>
      </trkpt>
      <trkpt lat="45.50413" lon="5.395">
        <ele>462.81473</ele>
        <time>2015-05-02T09:49:01Z</time>
      </trkpt>
      <trkpt lat="45.50423" lon="5.39505">
        <ele>463.42117</ele>
        <time>2015-05-02T09:49:07Z</time>
      </trkpt>
      <trkpt lat="45.50429" lon="5.39509">
        <ele>463.42117</ele>
        <time>2015-05-02T09:49:10Z</time>
      </trkpt>
      <trkpt lat="45.50436" lon="5.39512">
        <ele>464.29733</ele>
        <time>2015-05-02T09:49:15Z</time>
      </trkpt>
      <trkpt lat="45.50444" lon="5.39517">
        <ele>464.29733</ele>
        <time>2015-05-02T09:49:20Z</time>
      </trkpt>
      <trkpt lat="45.5045" lon="5.3952">
        <ele>465.30115</ele>
        <time>2015-05-02T09:49:25Z</time>
      </trkpt>
      <trkpt lat="45.50457" lon="5.39524">
        <ele>465.30115</ele>
        <time>2015-05-02T09:49:30Z</time>
      </trkpt>
      <trkpt lat="45.50464" lon="5.39527">
        <ele>465.9227</ele>
        <time>2015-05-02T09:49:35Z</time>
      </trkpt>
      <trkpt lat="45.5047" lon="5.3953">
        <ele>465.9227</ele>
        <time>2015-05-02T09:49:40Z</time>
      </trkpt>
      <trkpt lat="45.50478" lon="5.39533">
        <ele>466.85376</ele>
        <time>2015-05-02T09:49:45Z</time>
      </trkpt>
      <trkpt lat="45.50485" lon="5.39536">
        <ele>466.85376</ele>
        <time>2015-05-02T09:49:50Z</time>
      </trkpt>
      <trkpt lat="45.50492" lon="5.39538">
        <ele>467.66107</ele>
        <time>2015-05-02T09:49:55Z</time>
      </trkpt>
      <trkpt lat="45.505" lon="5.39539">
        <ele>467.66107</ele>
        <time>2015-05-02T09:50:00Z</time>
      </trkpt>
      <trkpt lat="45.50507" lon="5.39541">
        <ele>468.60916</ele>
        <time>2015-05-02T09:50:05Z</time>
      </trkpt>
      <trkpt lat="45.50514" lon="5.39541">
        <ele>468.60916</ele>
        <time>2015-05-02T09:50:10Z</time>
      </trkpt>
      <trkpt lat="45.50521" lon="5.39541">
        <ele>469.51923</ele>
        <time>2015-05-02T09:50:15Z</time>
      </trkpt>
      <trkpt lat="45.50528" lon="5.39541">
        <ele>469.51923</ele>
        <time>2015-05-02T09:50:20Z</time>
      </trkpt>
      <trkpt lat="45.50535" lon="5.3954">
        <ele>470.212</ele>
        <time>2015-05-02T09:50:25Z</time>
      </trkpt>
      <trkpt lat="45.50542" lon="5.3954">
        <ele>470.212</ele>
        <time>2015-05-02T09:50:30Z</time>
      </trkpt>
      <trkpt lat="45.5055" lon="5.39539">
        <ele>470.86942</ele>
        <time>2015-05-02T09:50:35Z</time>
      </trkpt>
      <trkpt lat="45.50557" lon="5.39539">
        <ele>470.86942</ele>
        <time>2015-05-02T09:50:40Z</time>
      </trkpt>
      <trkpt lat="45.50564" lon="5.39539">
        <ele>471.40363</ele>
        <time>2015-05-02T09:50:45Z</time>
      </trkpt>
      <trkpt lat="45.50566" lon="5.39539">
        <ele>471.40363</ele>
        <time>2015-05-02T09:50:50Z</time>
      </trkpt>
      <trkpt lat="45.50566" lon="5.39538">
        <ele>471.40363</ele>
        <time>2015-05-02T09:50:55Z</time>
      </trkpt>
      <trkpt lat="45.50566" lon="5.39538">
        <ele>471.40363</ele>
        <time>2015-05-02T09:51:00Z</time>
      </trkpt>
      <trkpt lat="45.5057" lon="5.39538">
        <ele>471.40363</ele>
        <time>2015-05-02T09:51:05Z</time>
      </trkpt>
      <trkpt lat="45.50573" lon="5.39532">
        <ele>471.79456</ele>
        <time>2015-05-02T09:51:10Z</time>
      </trkpt>
      <trkpt lat="45.50579" lon="5.39526">
        <ele>471.79456</ele>
        <time>2015-05-02T09:51:15Z</time>
      </trkpt>
      <trkpt lat="45.50584" lon="5.3952">
        <ele>472.08398</ele>
        <time>2015-05-02T09:51:20Z</time>
      </trkpt>
      <trkpt lat="45.50588" lon="5.39512">
        <ele>472.08398</ele>
        <time>2015-05-02T09:51:25Z</time>
      </trkpt>
      <trkpt lat="45.50591" lon="5.39504">
        <ele>472.37012</ele>
        <time>2015-05-02T09:51:30Z</time>
      </trkpt>
      <trkpt lat="45.50594" lon="5.39495">
        <ele>472.37012</ele>
        <time>2015-05-02T09:51:35Z</time>
      </trkpt>
      <trkpt lat="45.50598" lon="5.39485">
        <ele>472.86172</ele>
        <time>2015-05-02T09:51:40Z</time>
      </trkpt>
      <trkpt lat="45.50601" lon="5.39477">
        <ele>472.86172</ele>
        <time>2015-05-02T09:51:45Z</time>
      </trkpt>
      <trkpt lat="45.50604" lon="5.39467">
        <ele>473.40857</ele>
        <time>2015-05-02T09:51:50Z</time>
      </trkpt>
      <trkpt lat="45.50607" lon="5.39459">
        <ele>473.40857</ele>
        <time>2015-05-02T09:51:55Z</time>
      </trkpt>
      <trkpt lat="45.5061" lon="5.39449">
        <ele>474.4051</ele>
        <time>2015-05-02T09:52:00Z</time>
      </trkpt>
      <trkpt lat="45.50614" lon="5.3944">
        <ele>474.4051</ele>
        <time>2015-05-02T09:52:05Z</time>
      </trkpt>
      <trkpt lat="45.50617" lon="5.39432">
        <ele>475.37085</ele>
        <time>2015-05-02T09:52:10Z</time>
      </trkpt>
      <trkpt lat="45.5062" lon="5.39423">
        <ele>475.37085</ele>
        <time>2015-05-02T09:52:15Z</time>
      </trkpt>
      <trkpt lat="45.50623" lon="5.39413">
        <ele>476.4101</ele>
        <time>2015-05-02T09:52:20Z</time>
      </trkpt>
      <trkpt lat="45.50625" lon="5.39403">
        <ele>476.4101</ele>
        <time>2015-05-02T09:52:25Z</time>
      </trkpt>
      <trkpt lat="45.50627" lon="5.39395">
        <ele>477.77966</ele>
        <time>2015-05-02T09:52:30Z</time>
      </trkpt>
      <trkpt lat="45.5063" lon="5.39386">
        <ele>477.77966</ele>
        <time>2015-05-02T09:52:35Z</time>
      </trkpt>
      <trkpt lat="45.50632" lon="5.39376">
        <ele>479.20187</ele>
        <time>2015-05-02T09:52:40Z</time>
      </trkpt>
      <trkpt lat="45.50628" lon="5.39368">
        <ele>479.20187</ele>
        <time>2015-05-02T09:52:45Z</time>
      </trkpt>
      <trkpt lat="45.50627" lon="5.39359">
        <ele>481.06485</ele>
        <time>2015-05-02T09:52:50Z</time>
      </trkpt>
      <trkpt lat="45.5063" lon="5.3935">
        <ele>481.06485</ele>
        <time>2015-05-02T09:52:55Z</time>
      </trkpt>
      <trkpt lat="45.50633" lon="5.39341">
        <ele>483.08228</ele>
        <time>2015-05-02T09:53:00Z</time>
      </trkpt>
      <trkpt lat="45.50636" lon="5.39333">
        <ele>483.08228</ele>
        <time>2015-05-02T09:53:05Z</time>
      </trkpt>
      <trkpt lat="45.50638" lon="5.39325">
        <ele>485.1654</ele>
        <time>2015-05-02T09:53:10Z</time>
      </trkpt>
      <trkpt lat="45.50642" lon="5.39319">
        <ele>485.1654</ele>
        <time>2015-05-02T09:53:15Z</time>
      </trkpt>
      <trkpt lat="45.50648" lon="5.39314">
        <ele>487.34894</ele>
        <time>2015-05-02T09:53:20Z</time>
      </trkpt>
      <trkpt lat="45.50654" lon="5.39309">
        <ele>487.34894</ele>
        <time>2015-05-02T09:53:25Z</time>
      </trkpt>
      <trkpt lat="45.50662" lon="5.393">
        <ele>489.54837</ele>
        <time>2015-05-02T09:53:32Z</time>
      </trkpt>
      <trkpt lat="45.50667" lon="5.39295">
        <ele>489.54837</ele>
        <time>2015-05-02T09:53:36Z</time>
      </trkpt>
      <trkpt lat="45.50671" lon="5.39292">
        <ele>491.7149</ele>
        <time>2015-05-02T09:53:40Z</time>
      </trkpt>
      <trkpt lat="45.50677" lon="5.39288">
        <ele>491.7149</ele>
        <time>2015-05-02T09:53:45Z</time>
      </trkpt>
      <trkpt lat="45.50684" lon="5.39282">
        <ele>494.05002</ele>
        <time>2015-05-02T09:53:52Z</time>
      </trkpt>
      <trkpt lat="45.50688" lon="5.39279">
        <ele>494.05002</ele>
        <time>2015-05-02T09:53:55Z</time>
      </trkpt>
      <trkpt lat="45.50693" lon="5.39275">
        <ele>495.84177</ele>
        <time>2015-05-02T09:54:00Z</time>
      </trkpt>
      <trkpt lat="45.50698" lon="5.39264">
        <ele>497.72153</ele>
        <time>2015-05-02T09:54:06Z</time>
      </trkpt>
      <trkpt lat="45.50702" lon="5.39254">
        <ele>497.72153</ele>
        <time>2015-05-02T09:54:12Z</time>
      </trkpt>
      <trkpt lat="45.50704" lon="5.39247">
        <ele>500.012</ele>
        <time>2015-05-02T09:54:15Z</time>
      </trkpt>
      <trkpt lat="45.50708" lon="5.39238">
        <ele>500.012</ele>
        <time>2015-05-02T09:54:20Z</time>
      </trkpt>
      <trkpt lat="45.5071" lon="5.39227">
        <ele>502.25937</ele>
        <time>2015-05-02T09:54:25Z</time>
      </trkpt>
      <trkpt lat="45.50711" lon="5.39218">
        <ele>502.25937</ele>
        <time>2015-05-02T09:54:30Z</time>
      </trkpt>
      <trkpt lat="45.5071" lon="5.39207">
        <ele>504.78067</ele>
        <time>2015-05-02T09:54:35Z</time>
      </trkpt>
      <trkpt lat="45.5071" lon="5.39196">
        <ele>504.78067</ele>
        <time>2015-05-02T09:54:40Z</time>
      </trkpt>
      <trkpt lat="45.5071" lon="5.39186">
        <ele>507.29117</ele>
        <time>2015-05-02T09:54:45Z</time>
      </trkpt>
      <trkpt lat="45.50711" lon="5.39175">
        <ele>507.29117</ele>
        <time>2015-05-02T09:54:50Z</time>
      </trkpt>
      <trkpt lat="45.50712" lon="5.39165">
        <ele>509.57098</ele>
        <time>2015-05-02T09:54:55Z</time>
      </trkpt>
      <trkpt lat="45.50713" lon="5.39155">
        <ele>509.57098</ele>
        <time>2015-05-02T09:55:00Z</time>
      </trkpt>
      <trkpt lat="45.50713" lon="5.39145">
        <ele>511.83542</ele>
        <time>2015-05-02T09:55:05Z</time>
      </trkpt>
      <trkpt lat="45.50714" lon="5.39137">
        <ele>511.83542</ele>
        <time>2015-05-02T09:55:10Z</time>
      </trkpt>
      <trkpt lat="45.50715" lon="5.39111">
        <ele>513.8226</ele>
        <time>2015-05-02T09:55:15Z</time>
      </trkpt>
      <trkpt lat="45.50694" lon="5.39088">
        <ele>515.57904</ele>
        <time>2015-05-02T09:55:20Z</time>
      </trkpt>
      <trkpt lat="45.50675" lon="5.39071">
        <ele>516.8749</ele>
        <time>2015-05-02T09:55:25Z</time>
      </trkpt>
      <trkpt lat="45.50659" lon="5.3906">
        <ele>518.1038</ele>
        <time>2015-05-02T09:55:30Z</time>
      </trkpt>
      <trkpt lat="45.50649" lon="5.39061">
        <ele>520.0492</ele>
        <time>2015-05-02T09:55:35Z</time>
      </trkpt>
      <trkpt lat="45.50648" lon="5.39059">
        <ele>520.0492</ele>
        <time>2015-05-02T09:55:40Z</time>
      </trkpt>
      <trkpt lat="45.5065" lon="5.39059">
        <ele>520.0492</ele>
        <time>2015-05-02T09:55:45Z</time>
      </trkpt>
      <trkpt lat="45.50652" lon="5.39054">
        <ele>520.0492</ele>
        <time>2015-05-02T09:55:50Z</time>
      </trkpt>
      <trkpt lat="45.50654" lon="5.39043">
        <ele>521.53156</ele>
        <time>2015-05-02T09:55:55Z</time>
      </trkpt>
      <trkpt lat="45.50656" lon="5.39033">
        <ele>521.53156</ele>
        <time>2015-05-02T09:56:00Z</time>
      </trkpt>
      <trkpt lat="45.50659" lon="5.39024">
        <ele>523.04565</ele>
        <time>2015-05-02T09:56:05Z</time>
      </trkpt>
      <trkpt lat="45.50663" lon="5.39015">
        <ele>523.04565</ele>
        <time>2015-05-02T09:56:10Z</time>
      </trkpt>
      <trkpt lat="45.50667" lon="5.39006">
        <ele>524.7326</ele>
        <time>2015-05-02T09:56:15Z</time>
      </trkpt>
      <trkpt lat="45.50669" lon="5.38996">
        <ele>524.7326</ele>
        <time>2015-05-02T09:56:20Z</time>
      </trkpt>
      <trkpt lat="45.50674" lon="5.38988">
        <ele>526.2615</ele>
        <time>2015-05-02T09:56:26Z</time>
      </trkpt>
      <trkpt lat="45.50676" lon="5.38977">
        <ele>526.2615</ele>
        <time>2015-05-02T09:56:31Z</time>
      </trkpt>
      <trkpt lat="45.5068" lon="5.38965">
        <ele>528.0326</ele>
        <time>2015-05-02T09:56:36Z</time>
      </trkpt>
      <trkpt lat="45.50681" lon="5.38955">
        <ele>528.0326</ele>
        <time>2015-05-02T09:56:42Z</time>
      </trkpt>
      <trkpt lat="45.50684" lon="5.38946">
        <ele>530.04144</ele>
        <time>2015-05-02T09:56:47Z</time>
      </trkpt>
      <trkpt lat="45.50687" lon="5.38938">
        <ele>530.04144</ele>
        <time>2015-05-02T09:56:51Z</time>
      </trkpt>
      <trkpt lat="45.50691" lon="5.38926">
        <ele>532.0093</ele>
        <time>2015-05-02T09:56:57Z</time>
      </trkpt>
      <trkpt lat="45.50692" lon="5.38919">
        <ele>532.0093</ele>
        <time>2015-05-02T09:57:02Z</time>
      </trkpt>
      <trkpt lat="45.50695" lon="5.38911">
        <ele>533.96643</ele>
        <time>2015-05-02T09:57:05Z</time>
      </trkpt>
      <trkpt lat="45.50699" lon="5.38903">
        <ele>533.96643</ele>
        <time>2015-05-02T09:57:10Z</time>
      </trkpt>
      <trkpt lat="45.50703" lon="5.38892">
        <ele>535.7391</ele>
        <time>2015-05-02T09:57:17Z</time>
      </trkpt>
      <trkpt lat="45.50707" lon="5.38884">
        <ele>535.7391</ele>
        <time>2015-05-02T09:57:22Z</time>
      </trkpt>
      <trkpt lat="45.5071" lon="5.38874">
        <ele>537.2535</ele>
        <time>2015-05-02T09:57:27Z</time>
      </trkpt>
      <trkpt lat="45.50712" lon="5.38867">
        <ele>537.2535</ele>
        <time>2015-05-02T09:57:30Z</time>
      </trkpt>
      <trkpt lat="45.50716" lon="5.38859">
        <ele>538.65826</ele>
        <time>2015-05-02T09:57:36Z</time>
      </trkpt>
      <trkpt lat="45.5072" lon="5.38848">
        <ele>538.65826</ele>
        <time>2015-05-02T09:57:42Z</time>
      </trkpt>
      <trkpt lat="45.50724" lon="5.38839">
        <ele>540.17834</ele>
        <time>2015-05-02T09:57:46Z</time>
      </trkpt>
      <trkpt lat="45.50726" lon="5.38831">
        <ele>540.17834</ele>
        <time>2015-05-02T09:57:51Z</time>
      </trkpt>
      <trkpt lat="45.50728" lon="5.38823">
        <ele>542.0504</ele>
        <time>2015-05-02T09:57:55Z</time>
      </trkpt>
      <trkpt lat="45.50731" lon="5.38815">
        <ele>542.0504</ele>
        <time>2015-05-02T09:58:01Z</time>
      </trkpt>
      <trkpt lat="45.50731" lon="5.38806">
        <ele>543.48334</ele>
        <time>2015-05-02T09:58:07Z</time>
      </trkpt>
      <trkpt lat="45.50727" lon="5.38801">
        <ele>543.48334</ele>
        <time>2015-05-02T09:58:10Z</time>
      </trkpt>
      <trkpt lat="45.50724" lon="5.38796">
        <ele>544.87036</ele>
        <time>2015-05-02T09:58:15Z</time>
      </trkpt>
      <trkpt lat="45.50718" lon="5.38787">
        <ele>544.87036</ele>
        <time>2015-05-02T09:58:20Z</time>
      </trkpt>
      <trkpt lat="45.50714" lon="5.38782">
        <ele>545.7828</ele>
        <time>2015-05-02T09:58:25Z</time>
      </trkpt>
      <trkpt lat="45.50712" lon="5.38779">
        <ele>545.7828</ele>
        <time>2015-05-02T09:58:30Z</time>
      </trkpt>
      <trkpt lat="45.50707" lon="5.38772">
        <ele>546.60364</ele>
        <time>2015-05-02T09:58:35Z</time>
      </trkpt>
      <trkpt lat="45.50704" lon="5.38766">
        <ele>546.60364</ele>
        <time>2015-05-02T09:58:40Z</time>
      </trkpt>
      <trkpt lat="45.50698" lon="5.38755">
        <ele>547.2987</ele>
        <time>2015-05-02T09:58:45Z</time>
      </trkpt>
      <trkpt lat="45.50693" lon="5.38747">
        <ele>547.2987</ele>
        <time>2015-05-02T09:58:50Z</time>
      </trkpt>
      <trkpt lat="45.50688" lon="5.38741">
        <ele>548.0818</ele>
        <time>2015-05-02T09:58:55Z</time>
      </trkpt>
      <trkpt lat="45.50681" lon="5.38732">
        <ele>548.79016</ele>
        <time>2015-05-02T09:59:00Z</time>
      </trkpt>
      <trkpt lat="45.50675" lon="5.38723">
        <ele>548.79016</ele>
        <time>2015-05-02T09:59:05Z</time>
      </trkpt>
      <trkpt lat="45.5067" lon="5.38714">
        <ele>549.89343</ele>
        <time>2015-05-02T09:59:10Z</time>
      </trkpt>
      <trkpt lat="45.50667" lon="5.38712">
        <ele>549.89343</ele>
        <time>2015-05-02T09:59:15Z</time>
      </trkpt>
      <trkpt lat="45.50664" lon="5.38707">
        <ele>549.89343</ele>
        <time>2015-05-02T09:59:20Z</time>
      </trkpt>
      <trkpt lat="45.50663" lon="5.38702">
        <ele>550.6719</ele>
        <time>2015-05-02T09:59:25Z</time>
      </trkpt>
      <trkpt lat="45.50669" lon="5.38696">
        <ele>550.6719</ele>
        <time>2015-05-02T09:59:30Z</time>
      </trkpt>
      <trkpt lat="45.50673" lon="5.38693">
        <ele>551.642</ele>
        <time>2015-05-02T09:59:35Z</time>
      </trkpt>
      <trkpt lat="45.50679" lon="5.38691">
        <ele>551.642</ele>
        <time>2015-05-02T09:59:40Z</time>
      </trkpt>
      <trkpt lat="45.50685" lon="5.38687">
        <ele>552.5898</ele>
        <time>2015-05-02T09:59:45Z</time>
      </trkpt>
      <trkpt lat="45.50689" lon="5.38684">
        <ele>552.5898</ele>
        <time>2015-05-02T09:59:50Z</time>
      </trkpt>
      <trkpt lat="45.50695" lon="5.38677">
        <ele>553.5764</ele>
        <time>2015-05-02T09:59:55Z</time>
      </trkpt>
      <trkpt lat="45.50703" lon="5.38669">
        <ele>554.64404</ele>
        <time>2015-05-02T10:00:00Z</time>
      </trkpt>
      <trkpt lat="45.50712" lon="5.3866">
        <ele>555.6441</ele>
        <time>2015-05-02T10:00:05Z</time>
      </trkpt>
      <trkpt lat="45.50719" lon="5.3865">
        <ele>556.48236</ele>
        <time>2015-05-02T10:00:10Z</time>
      </trkpt>
      <trkpt lat="45.50725" lon="5.38643">
        <ele>556.48236</ele>
        <time>2015-05-02T10:00:15Z</time>
      </trkpt>
      <trkpt lat="45.5073" lon="5.38635">
        <ele>557.4322</ele>
        <time>2015-05-02T10:00:20Z</time>
      </trkpt>
      <trkpt lat="45.50735" lon="5.38626">
        <ele>557.4322</ele>
        <time>2015-05-02T10:00:25Z</time>
      </trkpt>
      <trkpt lat="45.50741" lon="5.38619">
        <ele>558.4584</ele>
        <time>2015-05-02T10:00:30Z</time>
      </trkpt>
      <trkpt lat="45.50747" lon="5.38614">
        <ele>558.4584</ele>
        <time>2015-05-02T10:00:35Z</time>
      </trkpt>
      <trkpt lat="45.50753" lon="5.38608">
        <ele>559.6145</ele>
        <time>2015-05-02T10:00:40Z</time>
      </trkpt>
      <trkpt lat="45.50759" lon="5.38605">
        <ele>559.6145</ele>
        <time>2015-05-02T10:00:45Z</time>
      </trkpt>
      <trkpt lat="45.50765" lon="5.38597">
        <ele>560.8632</ele>
        <time>2015-05-02T10:00:50Z</time>
      </trkpt>
      <trkpt lat="45.50771" lon="5.38591">
        <ele>560.8632</ele>
        <time>2015-05-02T10:00:55Z</time>
      </trkpt>
      <trkpt lat="45.50778" lon="5.38584">
        <ele>562.11206</ele>
        <time>2015-05-02T10:01:00Z</time>
      </trkpt>
      <trkpt lat="45.50784" lon="5.38579">
        <ele>562.11206</ele>
        <time>2015-05-02T10:01:05Z</time>
      </trkpt>
      <trkpt lat="45.5079" lon="5.38574">
        <ele>563.26086</ele>
        <time>2015-05-02T10:01:10Z</time>
      </trkpt>
      <trkpt lat="45.50797" lon="5.38569">
        <ele>563.26086</ele>
        <time>2015-05-02T10:01:15Z</time>
      </trkpt>
      <trkpt lat="45.50806" lon="5.38571">
        <ele>564.04425</ele>
        <time>2015-05-02T10:01:20Z</time>
      </trkpt>
      <trkpt lat="45.50812" lon="5.38566">
        <ele>564.04425</ele>
        <time>2015-05-02T10:01:25Z</time>
      </trkpt>
      <trkpt lat="45.5082" lon="5.38563">
        <ele>565.2404</ele>
        <time>2015-05-02T10:01:30Z</time>
      </trkpt>
      <trkpt lat="45.50828" lon="5.38561">
        <ele>565.2404</ele>
        <time>2015-05-02T10:01:35Z</time>
      </trkpt>
      <trkpt lat="45.50837" lon="5.38558">
        <ele>566.301</ele>
        <time>2015-05-02T10:01:40Z</time>
      </trkpt>
      <trkpt lat="45.50844" lon="5.38555">
        <ele>566.301</ele>
        <time>2015-05-02T10:01:45Z</time>
      </trkpt>
      <trkpt lat="45.50851" lon="5.38553">
        <ele>567.1075</ele>
        <time>2015-05-02T10:01:50Z</time>
      </trkpt>
      <trkpt lat="45.50859" lon="5.38551">
        <ele>567.1075</ele>
        <time>2015-05-02T10:01:55Z</time>
      </trkpt>
      <trkpt lat="45.50868" lon="5.38547">
        <ele>567.6658</ele>
        <time>2015-05-02T10:02:00Z</time>
      </trkpt>
      <trkpt lat="45.50892" lon="5.38538">
        <ele>568.2128</ele>
        <time>2015-05-02T10:02:05Z</time>
      </trkpt>
      <trkpt lat="45.50916" lon="5.38529">
        <ele>568.8816</ele>
        <time>2015-05-02T10:02:10Z</time>
      </trkpt>
      <trkpt lat="45.50932" lon="5.3852">
        <ele>568.9446</ele>
        <time>2015-05-02T10:02:15Z</time>
      </trkpt>
      <trkpt lat="45.50961" lon="5.38508">
        <ele>568.6518</ele>
        <time>2015-05-02T10:02:20Z</time>
      </trkpt>
      <trkpt lat="45.50991" lon="5.38491">
        <ele>568.98505</ele>
        <time>2015-05-02T10:02:25Z</time>
      </trkpt>
      <trkpt lat="45.51017" lon="5.38472">
        <ele>569.3392</ele>
        <time>2015-05-02T10:02:30Z</time>
      </trkpt>
      <trkpt lat="45.51038" lon="5.38457">
        <ele>569.4847</ele>
        <time>2015-05-02T10:02:35Z</time>
      </trkpt>
      <trkpt lat="45.51051" lon="5.38447">
        <ele>569.469</ele>
        <time>2015-05-02T10:02:40Z</time>
      </trkpt>
      <trkpt lat="45.51058" lon="5.38443">
        <ele>569.469</ele>
        <time>2015-05-02T10:02:45Z</time>
      </trkpt>
      <trkpt lat="45.51066" lon="5.3844">
        <ele>569.3506</ele>
        <time>2015-05-02T10:02:50Z</time>
      </trkpt>
      <trkpt lat="45.51072" lon="5.38434">
        <ele>569.3506</ele>
        <time>2015-05-02T10:02:55Z</time>
      </trkpt>
      <trkpt lat="45.51079" lon="5.38429">
        <ele>569.04</ele>
        <time>2015-05-02T10:03:00Z</time>
      </trkpt>
      <trkpt lat="45.51085" lon="5.38425">
        <ele>569.04</ele>
        <time>2015-05-02T10:03:05Z</time>
      </trkpt>
      <trkpt lat="45.51092" lon="5.3842">
        <ele>568.8293</ele>
        <time>2015-05-02T10:03:10Z</time>
      </trkpt>
      <trkpt lat="45.511" lon="5.38417">
        <ele>568.8293</ele>
        <time>2015-05-02T10:03:15Z</time>
      </trkpt>
      <trkpt lat="45.51107" lon="5.38418">
        <ele>568.1385</ele>
        <time>2015-05-02T10:03:21Z</time>
      </trkpt>
      <trkpt lat="45.51116" lon="5.38416">
        <ele>567.54126</ele>
        <time>2015-05-02T10:03:27Z</time>
      </trkpt>
      <trkpt lat="45.51125" lon="5.38415">
        <ele>567.54126</ele>
        <time>2015-05-02T10:03:32Z</time>
      </trkpt>
      <trkpt lat="45.5113" lon="5.38415">
        <ele>566.6318</ele>
        <time>2015-05-02T10:03:35Z</time>
      </trkpt>
      <trkpt lat="45.51137" lon="5.38414">
        <ele>566.6318</ele>
        <time>2015-05-02T10:03:41Z</time>
      </trkpt>
      <trkpt lat="45.51138" lon="5.38413">
        <ele>566.6318</ele>
        <time>2015-05-02T10:03:45Z</time>
      </trkpt>
      <trkpt lat="45.51148" lon="5.38412">
        <ele>565.69794</ele>
        <time>2015-05-02T10:03:52Z</time>
      </trkpt>
      <trkpt lat="45.51157" lon="5.38409">
        <ele>564.9342</ele>
        <time>2015-05-02T10:03:57Z</time>
      </trkpt>
      <trkpt lat="45.51164" lon="5.38408">
        <ele>564.9342</ele>
        <time>2015-05-02T10:04:02Z</time>
      </trkpt>
      <trkpt lat="45.51172" lon="5.38404">
        <ele>564.03033</ele>
        <time>2015-05-02T10:04:06Z</time>
      </trkpt>
      <trkpt lat="45.51181" lon="5.384">
        <ele>563.21783</ele>
        <time>2015-05-02T10:04:12Z</time>
      </trkpt>
      <trkpt lat="45.51188" lon="5.38395">
        <ele>563.21783</ele>
        <time>2015-05-02T10:04:17Z</time>
      </trkpt>
      <trkpt lat="45.51195" lon="5.3839">
        <ele>562.5956</ele>
        <time>2015-05-02T10:04:22Z</time>
      </trkpt>
      <trkpt lat="45.51203" lon="5.38386">
        <ele>562.5956</ele>
        <time>2015-05-02T10:04:27Z</time>
      </trkpt>
      <trkpt lat="45.5121" lon="5.38385">
        <ele>561.8076</ele>
        <time>2015-05-02T10:04:30Z</time>
      </trkpt>
      <trkpt lat="45.51219" lon="5.38384">
        <ele>561.12994</ele>
        <time>2015-05-02T10:04:37Z</time>
      </trkpt>
      <trkpt lat="45.51226" lon="5.38383">
        <ele>561.12994</ele>
        <time>2015-05-02T10:04:41Z</time>
      </trkpt>
      <trkpt lat="45.51235" lon="5.38381">
        <ele>560.7168</ele>
        <time>2015-05-02T10:04:46Z</time>
      </trkpt>
      <trkpt lat="45.51239" lon="5.3838">
        <ele>560.7168</ele>
        <time>2015-05-02T10:04:50Z</time>
      </trkpt>
      <trkpt lat="45.51244" lon="5.38379">
        <ele>560.7168</ele>
        <time>2015-05-02T10:04:55Z</time>
      </trkpt>
      <trkpt lat="45.51253" lon="5.38378">
        <ele>560.68146</ele>
        <time>2015-05-02T10:05:00Z</time>
      </trkpt>
      <trkpt lat="45.51259" lon="5.38379">
        <ele>560.68146</ele>
        <time>2015-05-02T10:05:05Z</time>
      </trkpt>
      <trkpt lat="45.51267" lon="5.38378">
        <ele>560.79614</ele>
        <time>2015-05-02T10:05:10Z</time>
      </trkpt>
      <trkpt lat="45.51275" lon="5.38377">
        <ele>560.79614</ele>
        <time>2015-05-02T10:05:15Z</time>
      </trkpt>
      <trkpt lat="45.51282" lon="5.38373">
        <ele>560.83496</ele>
        <time>2015-05-02T10:05:20Z</time>
      </trkpt>
      <trkpt lat="45.51289" lon="5.38368">
        <ele>560.83496</ele>
        <time>2015-05-02T10:05:25Z</time>
      </trkpt>
      <trkpt lat="45.51296" lon="5.38364">
        <ele>561.0497</ele>
        <time>2015-05-02T10:05:30Z</time>
      </trkpt>
      <trkpt lat="45.51303" lon="5.38363">
        <ele>561.0497</ele>
        <time>2015-05-02T10:05:35Z</time>
      </trkpt>
      <trkpt lat="45.5131" lon="5.38359">
        <ele>561.3561</ele>
        <time>2015-05-02T10:05:40Z</time>
      </trkpt>
      <trkpt lat="45.51317" lon="5.38357">
        <ele>561.3561</ele>
        <time>2015-05-02T10:05:45Z</time>
      </trkpt>
      <trkpt lat="45.51322" lon="5.38355">
        <ele>561.66125</ele>
        <time>2015-05-02T10:05:50Z</time>
      </trkpt>
      <trkpt lat="45.51323" lon="5.38354">
        <ele>561.66125</ele>
        <time>2015-05-02T10:05:55Z</time>
      </trkpt>
      <trkpt lat="45.51328" lon="5.3835">
        <ele>561.66125</ele>
        <time>2015-05-02T10:06:00Z</time>
      </trkpt>
      <trkpt lat="45.51335" lon="5.38344">
        <ele>562.4123</ele>
        <time>2015-05-02T10:06:05Z</time>
      </trkpt>
      <trkpt lat="45.51341" lon="5.38338">
        <ele>562.4123</ele>
        <time>2015-05-02T10:06:10Z</time>
      </trkpt>
      <trkpt lat="45.51348" lon="5.38333">
        <ele>563.4023</ele>
        <time>2015-05-02T10:06:15Z</time>
      </trkpt>
      <trkpt lat="45.51348" lon="5.38324">
        <ele>563.4023</ele>
        <time>2015-05-02T10:06:20Z</time>
      </trkpt>
      <trkpt lat="45.51347" lon="5.38313">
        <ele>564.19385</ele>
        <time>2015-05-02T10:06:25Z</time>
      </trkpt>
      <trkpt lat="45.51346" lon="5.38303">
        <ele>564.19385</ele>
        <time>2015-05-02T10:06:30Z</time>
      </trkpt>
      <trkpt lat="45.51345" lon="5.38294">
        <ele>564.9875</ele>
        <time>2015-05-02T10:06:35Z</time>
      </trkpt>
      <trkpt lat="45.51344" lon="5.38284">
        <ele>564.9875</ele>
        <time>2015-05-02T10:06:40Z</time>
      </trkpt>
      <trkpt lat="45.51343" lon="5.38274">
        <ele>565.76715</ele>
        <time>2015-05-02T10:06:45Z</time>
      </trkpt>
      <trkpt lat="45.51341" lon="5.38264">
        <ele>565.76715</ele>
        <time>2015-05-02T10:06:50Z</time>
      </trkpt>
      <trkpt lat="45.51339" lon="5.38253">
        <ele>566.48914</ele>
        <time>2015-05-02T10:06:56Z</time>
      </trkpt>
      <trkpt lat="45.51338" lon="5.38245">
        <ele>566.48914</ele>
        <time>2015-05-02T10:07:00Z</time>
      </trkpt>
      <trkpt lat="45.5134" lon="5.38234">
        <ele>567.41565</ele>
        <time>2015-05-02T10:07:05Z</time>
      </trkpt>
      <trkpt lat="45.51343" lon="5.38226">
        <ele>567.41565</ele>
        <time>2015-05-02T10:07:10Z</time>
      </trkpt>
      <trkpt lat="45.51345" lon="5.38215">
        <ele>568.3422</ele>
        <time>2015-05-02T10:07:15Z</time>
      </trkpt>
      <trkpt lat="45.51347" lon="5.38205">
        <ele>568.3422</ele>
        <time>2015-05-02T10:07:20Z</time>
      </trkpt>
      <trkpt lat="45.5135" lon="5.38198">
        <ele>569.3246</ele>
        <time>2015-05-02T10:07:25Z</time>
      </trkpt>
      <trkpt lat="45.51357" lon="5.38193">
        <ele>569.3246</ele>
        <time>2015-05-02T10:07:30Z</time>
      </trkpt>
      <trkpt lat="45.51364" lon="5.3819">
        <ele>570.52924</ele>
        <time>2015-05-02T10:07:35Z</time>
      </trkpt>
      <trkpt lat="45.51372" lon="5.38189">
        <ele>570.52924</ele>
        <time>2015-05-02T10:07:40Z</time>
      </trkpt>
      <trkpt lat="45.51379" lon="5.38189">
        <ele>571.37494</ele>
        <time>2015-05-02T10:07:45Z</time>
      </trkpt>
      <trkpt lat="45.51387" lon="5.38187">
        <ele>571.37494</ele>
        <time>2015-05-02T10:07:50Z</time>
      </trkpt>
      <trkpt lat="45.51394" lon="5.38186">
        <ele>572.0736</ele>
        <time>2015-05-02T10:07:55Z</time>
      </trkpt>
      <trkpt lat="45.51402" lon="5.38184">
        <ele>572.0736</ele>
        <time>2015-05-02T10:08:00Z</time>
      </trkpt>
      <trkpt lat="45.5141" lon="5.38181">
        <ele>572.70654</ele>
        <time>2015-05-02T10:08:05Z</time>
      </trkpt>
      <trkpt lat="45.51417" lon="5.38179">
        <ele>572.70654</ele>
        <time>2015-05-02T10:08:10Z</time>
      </trkpt>
      <trkpt lat="45.51424" lon="5.38176">
        <ele>573.50793</ele>
        <time>2015-05-02T10:08:15Z</time>
      </trkpt>
      <trkpt lat="45.51431" lon="5.38173">
        <ele>573.50793</ele>
        <time>2015-05-02T10:08:20Z</time>
      </trkpt>
      <trkpt lat="45.51438" lon="5.38171">
        <ele>574.50696</ele>
        <time>2015-05-02T10:08:25Z</time>
      </trkpt>
      <trkpt lat="45.51445" lon="5.38169">
        <ele>574.50696</ele>
        <time>2015-05-02T10:08:30Z</time>
      </trkpt>
      <trkpt lat="45.51453" lon="5.38167">
        <ele>575.3553</ele>
        <time>2015-05-02T10:08:35Z</time>
      </trkpt>
      <trkpt lat="45.51459" lon="5.38164">
        <ele>575.3553</ele>
        <time>2015-05-02T10:08:40Z</time>
      </trkpt>
      <trkpt lat="45.51467" lon="5.38163">
        <ele>576.1486</ele>
        <time>2015-05-02T10:08:45Z</time>
      </trkpt>
      <trkpt lat="45.51474" lon="5.38161">
        <ele>576.1486</ele>
        <time>2015-05-02T10:08:50Z</time>
      </trkpt>
      <trkpt lat="45.51481" lon="5.38161">
        <ele>576.6876</ele>
        <time>2015-05-02T10:08:55Z</time>
      </trkpt>
      <trkpt lat="45.51488" lon="5.38158">
        <ele>576.6876</ele>
        <time>2015-05-02T10:09:00Z</time>
      </trkpt>
      <trkpt lat="45.51495" lon="5.38156">
        <ele>577.33594</ele>
        <time>2015-05-02T10:09:05Z</time>
      </trkpt>
      <trkpt lat="45.51504" lon="5.38153">
        <ele>577.8105</ele>
        <time>2015-05-02T10:09:10Z</time>
      </trkpt>
      <trkpt lat="45.51512" lon="5.38151">
        <ele>577.8105</ele>
        <time>2015-05-02T10:09:17Z</time>
      </trkpt>
      <trkpt lat="45.51519" lon="5.38149">
        <ele>578.426</ele>
        <time>2015-05-02T10:09:22Z</time>
      </trkpt>
      <trkpt lat="45.51526" lon="5.38147">
        <ele>578.426</ele>
        <time>2015-05-02T10:09:27Z</time>
      </trkpt>
      <trkpt lat="45.51533" lon="5.38145">
        <ele>579.0991</ele>
        <time>2015-05-02T10:09:31Z</time>
      </trkpt>
      <trkpt lat="45.5154" lon="5.38144">
        <ele>579.0991</ele>
        <time>2015-05-02T10:09:35Z</time>
      </trkpt>
      <trkpt lat="45.51546" lon="5.38142">
        <ele>579.52167</ele>
        <time>2015-05-02T10:09:40Z</time>
      </trkpt>
      <trkpt lat="45.51552" lon="5.38136">
        <ele>579.52167</ele>
        <time>2015-05-02T10:09:45Z</time>
      </trkpt>
      <trkpt lat="45.51549" lon="5.38127">
        <ele>579.82697</ele>
        <time>2015-05-02T10:09:50Z</time>
      </trkpt>
      <trkpt lat="45.51548" lon="5.38117">
        <ele>579.82697</ele>
        <time>2015-05-02T10:09:55Z</time>
      </trkpt>
      <trkpt lat="45.51543" lon="5.38108">
        <ele>580.3405</ele>
        <time>2015-05-02T10:10:00Z</time>
      </trkpt>
      <trkpt lat="45.51533" lon="5.38094">
        <ele>580.64294</ele>
        <time>2015-05-02T10:10:05Z</time>
      </trkpt>
      <trkpt lat="45.51515" lon="5.38063">
        <ele>581.2829</ele>
        <time>2015-05-02T10:10:10Z</time>
      </trkpt>
      <trkpt lat="45.51496" lon="5.38035">
        <ele>582.06177</ele>
        <time>2015-05-02T10:10:15Z</time>
      </trkpt>
      <trkpt lat="45.5148" lon="5.38004">
        <ele>582.53564</ele>
        <time>2015-05-02T10:10:20Z</time>
      </trkpt>
      <trkpt lat="45.51459" lon="5.37968">
        <ele>582.8562</ele>
        <time>2015-05-02T10:10:25Z</time>
      </trkpt>
      <trkpt lat="45.51437" lon="5.37936">
        <ele>583.1069</ele>
        <time>2015-05-02T10:10:30Z</time>
      </trkpt>
      <trkpt lat="45.51415" lon="5.3791">
        <ele>583.58124</ele>
        <time>2015-05-02T10:10:35Z</time>
      </trkpt>
      <trkpt lat="45.51408" lon="5.37893">
        <ele>583.15283</ele>
        <time>2015-05-02T10:10:40Z</time>
      </trkpt>
      <trkpt lat="45.51405" lon="5.37884">
        <ele>583.15283</ele>
        <time>2015-05-02T10:10:45Z</time>
      </trkpt>
      <trkpt lat="45.51404" lon="5.3788">
        <ele>582.5675</ele>
        <time>2015-05-02T10:10:50Z</time>
      </trkpt>
      <trkpt lat="45.51402" lon="5.37874">
        <ele>582.5675</ele>
        <time>2015-05-02T10:10:55Z</time>
      </trkpt>
      <trkpt lat="45.514" lon="5.37865">
        <ele>582.6033</ele>
        <time>2015-05-02T10:11:00Z</time>
      </trkpt>
      <trkpt lat="45.51398" lon="5.3786">
        <ele>582.6033</ele>
        <time>2015-05-02T10:11:05Z</time>
      </trkpt>
      <trkpt lat="45.51397" lon="5.37854">
        <ele>582.6033</ele>
        <time>2015-05-02T10:11:10Z</time>
      </trkpt>
      <trkpt lat="45.51392" lon="5.37843">
        <ele>583.0568</ele>
        <time>2015-05-02T10:11:15Z</time>
      </trkpt>
      <trkpt lat="45.51391" lon="5.37833">
        <ele>583.0568</ele>
        <time>2015-05-02T10:11:20Z</time>
      </trkpt>
      <trkpt lat="45.51387" lon="5.37822">
        <ele>583.3497</ele>
        <time>2015-05-02T10:11:25Z</time>
      </trkpt>
      <trkpt lat="45.51384" lon="5.37815">
        <ele>583.3497</ele>
        <time>2015-05-02T10:11:30Z</time>
      </trkpt>
      <trkpt lat="45.51381" lon="5.37809">
        <ele>583.96936</ele>
        <time>2015-05-02T10:11:35Z</time>
      </trkpt>
      <trkpt lat="45.5138" lon="5.37805">
        <ele>583.96936</ele>
        <time>2015-05-02T10:11:40Z</time>
      </trkpt>
      <trkpt lat="45.51377" lon="5.37799">
        <ele>583.96936</ele>
        <time>2015-05-02T10:11:45Z</time>
      </trkpt>
      <trkpt lat="45.51375" lon="5.37786">
        <ele>584.0409</ele>
        <time>2015-05-02T10:11:50Z</time>
      </trkpt>
      <trkpt lat="45.5137" lon="5.37776">
        <ele>584.0409</ele>
        <time>2015-05-02T10:11:55Z</time>
      </trkpt>
      <trkpt lat="45.51357" lon="5.37758">
        <ele>582.68317</ele>
        <time>2015-05-02T10:12:00Z</time>
      </trkpt>
      <trkpt lat="45.51342" lon="5.37723">
        <ele>580.78406</ele>
        <time>2015-05-02T10:12:05Z</time>
      </trkpt>
      <trkpt lat="45.51322" lon="5.37698">
        <ele>578.505</ele>
        <time>2015-05-02T10:12:11Z</time>
      </trkpt>
      <trkpt lat="45.51316" lon="5.3769">
        <ele>578.505</ele>
        <time>2015-05-02T10:12:16Z</time>
      </trkpt>
      <trkpt lat="45.51307" lon="5.37671">
        <ele>576.7172</ele>
        <time>2015-05-02T10:12:22Z</time>
      </trkpt>
      <trkpt lat="45.51301" lon="5.37661">
        <ele>575.27515</ele>
        <time>2015-05-02T10:12:26Z</time>
      </trkpt>
      <trkpt lat="45.51292" lon="5.37638">
        <ele>574.86444</ele>
        <time>2015-05-02T10:12:30Z</time>
      </trkpt>
      <trkpt lat="45.51286" lon="5.37624">
        <ele>575.2961</ele>
        <time>2015-05-02T10:12:35Z</time>
      </trkpt>
      <trkpt lat="45.51279" lon="5.37611">
        <ele>576.23376</ele>
        <time>2015-05-02T10:12:41Z</time>
      </trkpt>
      <trkpt lat="45.51272" lon="5.37598">
        <ele>577.4079</ele>
        <time>2015-05-02T10:12:47Z</time>
      </trkpt>
      <trkpt lat="45.51265" lon="5.37587">
        <ele>578.76953</ele>
        <time>2015-05-02T10:12:50Z</time>
      </trkpt>
      <trkpt lat="45.5126" lon="5.37578">
        <ele>578.76953</ele>
        <time>2015-05-02T10:12:56Z</time>
      </trkpt>
      <trkpt lat="45.51252" lon="5.37567">
        <ele>580.43134</ele>
        <time>2015-05-02T10:13:02Z</time>
      </trkpt>
      <trkpt lat="45.51248" lon="5.37558">
        <ele>580.43134</ele>
        <time>2015-05-02T10:13:07Z</time>
      </trkpt>
      <trkpt lat="45.51244" lon="5.3755">
        <ele>582.00684</ele>
        <time>2015-05-02T10:13:10Z</time>
      </trkpt>
      <trkpt lat="45.51239" lon="5.3754">
        <ele>582.00684</ele>
        <time>2015-05-02T10:13:17Z</time>
      </trkpt>
      <trkpt lat="45.51235" lon="5.37532">
        <ele>583.57056</ele>
        <time>2015-05-02T10:13:22Z</time>
      </trkpt>
      <trkpt lat="45.5123" lon="5.37522">
        <ele>583.57056</ele>
        <time>2015-05-02T10:13:27Z</time>
      </trkpt>
      <trkpt lat="45.51225" lon="5.37514">
        <ele>585.35</ele>
        <time>2015-05-02T10:13:32Z</time>
      </trkpt>
      <trkpt lat="45.51221" lon="5.37505">
        <ele>585.35</ele>
        <time>2015-05-02T10:13:37Z</time>
      </trkpt>
      <trkpt lat="45.51216" lon="5.37497">
        <ele>586.979</ele>
        <time>2015-05-02T10:13:42Z</time>
      </trkpt>
      <trkpt lat="45.51213" lon="5.37491">
        <ele>586.979</ele>
        <time>2015-05-02T10:13:47Z</time>
      </trkpt>
      <trkpt lat="45.51209" lon="5.37483">
        <ele>588.3781</ele>
        <time>2015-05-02T10:13:52Z</time>
      </trkpt>
      <trkpt lat="45.51204" lon="5.37474">
        <ele>588.3781</ele>
        <time>2015-05-02T10:13:55Z</time>
      </trkpt>
      <trkpt lat="45.51198" lon="5.37467">
        <ele>589.53204</ele>
        <time>2015-05-02T10:14:00Z</time>
      </trkpt>
      <trkpt lat="45.5119" lon="5.37459">
        <ele>590.65796</ele>
        <time>2015-05-02T10:14:07Z</time>
      </trkpt>
      <trkpt lat="45.51184" lon="5.37452">
        <ele>590.65796</ele>
        <time>2015-05-02T10:14:11Z</time>
      </trkpt>
      <trkpt lat="45.51178" lon="5.37445">
        <ele>591.885</ele>
        <time>2015-05-02T10:14:16Z</time>
      </trkpt>
      <trkpt lat="45.51172" lon="5.37438">
        <ele>591.885</ele>
        <time>2015-05-02T10:14:21Z</time>
      </trkpt>
      <trkpt lat="45.51167" lon="5.3743">
        <ele>593.01575</ele>
        <time>2015-05-02T10:14:26Z</time>
      </trkpt>
      <trkpt lat="45.51161" lon="5.37422">
        <ele>593.01575</ele>
        <time>2015-05-02T10:14:31Z</time>
      </trkpt>
      <trkpt lat="45.51155" lon="5.37415">
        <ele>594.3863</ele>
        <time>2015-05-02T10:14:36Z</time>
      </trkpt>
      <trkpt lat="45.5115" lon="5.37406">
        <ele>594.3863</ele>
        <time>2015-05-02T10:14:41Z</time>
      </trkpt>
      <trkpt lat="45.51145" lon="5.37398">
        <ele>595.5148</ele>
        <time>2015-05-02T10:14:46Z</time>
      </trkpt>
      <trkpt lat="45.51141" lon="5.3739">
        <ele>595.5148</ele>
        <time>2015-05-02T10:14:51Z</time>
      </trkpt>
      <trkpt lat="45.51136" lon="5.37383">
        <ele>596.6184</ele>
        <time>2015-05-02T10:14:56Z</time>
      </trkpt>
      <trkpt lat="45.51129" lon="5.37376">
        <ele>596.6184</ele>
        <time>2015-05-02T10:15:02Z</time>
      </trkpt>
      <trkpt lat="45.51123" lon="5.37369">
        <ele>597.769</ele>
        <time>2015-05-02T10:15:07Z</time>
      </trkpt>
      <trkpt lat="45.51116" lon="5.37362">
        <ele>597.769</ele>
        <time>2015-05-02T10:15:12Z</time>
      </trkpt>
      <trkpt lat="45.51111" lon="5.37357">
        <ele>598.8455</ele>
        <time>2015-05-02T10:15:16Z</time>
      </trkpt>
      <trkpt lat="45.51103" lon="5.3735">
        <ele>598.8455</ele>
        <time>2015-05-02T10:15:22Z</time>
      </trkpt>
      <trkpt lat="45.51098" lon="5.37342">
        <ele>599.57764</ele>
        <time>2015-05-02T10:15:27Z</time>
      </trkpt>
      <trkpt lat="45.51093" lon="5.37335">
        <ele>599.57764</ele>
        <time>2015-05-02T10:15:32Z</time>
      </trkpt>
      <trkpt lat="45.51088" lon="5.37333">
        <ele>600.0762</ele>
        <time>2015-05-02T10:15:37Z</time>
      </trkpt>
      <trkpt lat="45.51082" lon="5.37327">
        <ele>600.0762</ele>
        <time>2015-05-02T10:15:40Z</time>
      </trkpt>
      <trkpt lat="45.51079" lon="5.37324">
        <ele>600.63196</ele>
        <time>2015-05-02T10:15:45Z</time>
      </trkpt>
      <trkpt lat="45.51072" lon="5.37317">
        <ele>600.63196</ele>
        <time>2015-05-02T10:15:50Z</time>
      </trkpt>
      <trkpt lat="45.51066" lon="5.3731">
        <ele>601.02423</ele>
        <time>2015-05-02T10:15:55Z</time>
      </trkpt>
      <trkpt lat="45.51061" lon="5.37302">
        <ele>601.02423</ele>
        <time>2015-05-02T10:16:00Z</time>
      </trkpt>
      <trkpt lat="45.51054" lon="5.37295">
        <ele>601.2509</ele>
        <time>2015-05-02T10:16:05Z</time>
      </trkpt>
      <trkpt lat="45.51046" lon="5.37289">
        <ele>601.2509</ele>
        <time>2015-05-02T10:16:10Z</time>
      </trkpt>
      <trkpt lat="45.51039" lon="5.37281">
        <ele>601.9156</ele>
        <time>2015-05-02T10:16:15Z</time>
      </trkpt>
      <trkpt lat="45.51033" lon="5.37276">
        <ele>601.9156</ele>
        <time>2015-05-02T10:16:20Z</time>
      </trkpt>
      <trkpt lat="45.51026" lon="5.37266">
        <ele>602.4525</ele>
        <time>2015-05-02T10:16:25Z</time>
      </trkpt>
      <trkpt lat="45.51019" lon="5.37257">
        <ele>602.6981</ele>
        <time>2015-05-02T10:16:30Z</time>
      </trkpt>
      <trkpt lat="45.51011" lon="5.37249">
        <ele>602.83307</ele>
        <time>2015-05-02T10:16:35Z</time>
      </trkpt>
      <trkpt lat="45.51007" lon="5.37243">
        <ele>602.83307</ele>
        <time>2015-05-02T10:16:40Z</time>
      </trkpt>
      <trkpt lat="45.51002" lon="5.37233">
        <ele>602.66486</ele>
        <time>2015-05-02T10:16:45Z</time>
      </trkpt>
      <trkpt lat="45.50997" lon="5.37224">
        <ele>602.66486</ele>
        <time>2015-05-02T10:16:50Z</time>
      </trkpt>
      <trkpt lat="45.50993" lon="5.37214">
        <ele>602.434</ele>
        <time>2015-05-02T10:16:55Z</time>
      </trkpt>
      <trkpt lat="45.50989" lon="5.37204">
        <ele>602.434</ele>
        <time>2015-05-02T10:17:00Z</time>
      </trkpt>
      <trkpt lat="45.50985" lon="5.37194">
        <ele>602.01764</ele>
        <time>2015-05-02T10:17:05Z</time>
      </trkpt>
      <trkpt lat="45.50981" lon="5.37184">
        <ele>602.01764</ele>
        <time>2015-05-02T10:17:10Z</time>
      </trkpt>
      <trkpt lat="45.50978" lon="5.37175">
        <ele>601.3168</ele>
        <time>2015-05-02T10:17:15Z</time>
      </trkpt>
      <trkpt lat="45.50974" lon="5.37166">
        <ele>601.3168</ele>
        <time>2015-05-02T10:17:20Z</time>
      </trkpt>
      <trkpt lat="45.5097" lon="5.37158">
        <ele>600.41364</ele>
        <time>2015-05-02T10:17:25Z</time>
      </trkpt>
      <trkpt lat="45.50964" lon="5.37154">
        <ele>600.41364</ele>
        <time>2015-05-02T10:17:30Z</time>
      </trkpt>
      <trkpt lat="45.50958" lon="5.37149">
        <ele>599.428</ele>
        <time>2015-05-02T10:17:35Z</time>
      </trkpt>
      <trkpt lat="45.50952" lon="5.37144">
        <ele>599.428</ele>
        <time>2015-05-02T10:17:40Z</time>
      </trkpt>
      <trkpt lat="45.50946" lon="5.37138">
        <ele>598.19727</ele>
        <time>2015-05-02T10:17:46Z</time>
      </trkpt>
      <trkpt lat="45.50939" lon="5.37134">
        <ele>598.19727</ele>
        <time>2015-05-02T10:17:50Z</time>
      </trkpt>
      <trkpt lat="45.50932" lon="5.37129">
        <ele>597.03265</ele>
        <time>2015-05-02T10:17:55Z</time>
      </trkpt>
      <trkpt lat="45.50925" lon="5.37124">
        <ele>597.03265</ele>
        <time>2015-05-02T10:18:00Z</time>
      </trkpt>
      <trkpt lat="45.50918" lon="5.37119">
        <ele>595.53064</ele>
        <time>2015-05-02T10:18:05Z</time>
      </trkpt>
      <trkpt lat="45.50912" lon="5.37114">
        <ele>595.53064</ele>
        <time>2015-05-02T10:18:10Z</time>
      </trkpt>
      <trkpt lat="45.50904" lon="5.37109">
        <ele>593.92334</ele>
        <time>2015-05-02T10:18:15Z</time>
      </trkpt>
      <trkpt lat="45.50898" lon="5.37104">
        <ele>593.92334</ele>
        <time>2015-05-02T10:18:20Z</time>
      </trkpt>
      <trkpt lat="45.50892" lon="5.37098">
        <ele>592.39734</ele>
        <time>2015-05-02T10:18:25Z</time>
      </trkpt>
      <trkpt lat="45.50885" lon="5.37092">
        <ele>592.39734</ele>
        <time>2015-05-02T10:18:30Z</time>
      </trkpt>
      <trkpt lat="45.50879" lon="5.37087">
        <ele>590.73596</ele>
        <time>2015-05-02T10:18:35Z</time>
      </trkpt>
      <trkpt lat="45.50873" lon="5.37081">
        <ele>590.73596</ele>
        <time>2015-05-02T10:18:40Z</time>
      </trkpt>
      <trkpt lat="45.50868" lon="5.37076">
        <ele>589.12805</ele>
        <time>2015-05-02T10:18:45Z</time>
      </trkpt>
      <trkpt lat="45.50863" lon="5.37069">
        <ele>589.12805</ele>
        <time>2015-05-02T10:18:50Z</time>
      </trkpt>
      <trkpt lat="45.50858" lon="5.37061">
        <ele>587.4887</ele>
        <time>2015-05-02T10:18:55Z</time>
      </trkpt>
      <trkpt lat="45.50852" lon="5.37054">
        <ele>587.4887</ele>
        <time>2015-05-02T10:19:00Z</time>
      </trkpt>
      <trkpt lat="45.50848" lon="5.37046">
        <ele>585.8691</ele>
        <time>2015-05-02T10:19:05Z</time>
      </trkpt>
      <trkpt lat="45.50849" lon="5.37047">
        <ele>585.8691</ele>
        <time>2015-05-02T10:19:10Z</time>
      </trkpt>
      <trkpt lat="45.50848" lon="5.37045">
        <ele>585.8691</ele>
        <time>2015-05-02T10:19:15Z</time>
      </trkpt>
      <trkpt lat="45.50845" lon="5.37039">
        <ele>585.8691</ele>
        <time>2015-05-02T10:19:20Z</time>
      </trkpt>
      <trkpt lat="45.50841" lon="5.37029">
        <ele>584.6334</ele>
        <time>2015-05-02T10:19:25Z</time>
      </trkpt>
      <trkpt lat="45.50841" lon="5.37019">
        <ele>584.6334</ele>
        <time>2015-05-02T10:19:30Z</time>
      </trkpt>
      <trkpt lat="45.50844" lon="5.37009">
        <ele>583.38306</ele>
        <time>2015-05-02T10:19:35Z</time>
      </trkpt>
      <trkpt lat="45.50845" lon="5.36998">
        <ele>583.38306</ele>
        <time>2015-05-02T10:19:40Z</time>
      </trkpt>
      <trkpt lat="45.50845" lon="5.36986">
        <ele>582.51227</ele>
        <time>2015-05-02T10:19:45Z</time>
      </trkpt>
      <trkpt lat="45.50843" lon="5.36976">
        <ele>582.51227</ele>
        <time>2015-05-02T10:19:50Z</time>
      </trkpt>
      <trkpt lat="45.50842" lon="5.36967">
        <ele>582.0537</ele>
        <time>2015-05-02T10:19:56Z</time>
      </trkpt>
      <trkpt lat="45.50842" lon="5.36963">
        <ele>582.0537</ele>
        <time>2015-05-02T10:20:02Z</time>
      </trkpt>
      <trkpt lat="45.50843" lon="5.36958">
        <ele>582.0537</ele>
        <time>2015-05-02T10:20:07Z</time>
      </trkpt>
      <trkpt lat="45.50843" lon="5.36958">
        <ele>582.0537</ele>
        <time>2015-05-02T10:20:11Z</time>
      </trkpt>
      <trkpt lat="45.50843" lon="5.3696">
        <ele>582.0537</ele>
        <time>2015-05-02T10:20:16Z</time>
      </trkpt>
      <trkpt lat="45.50843" lon="5.36958">
        <ele>581.57526</ele>
        <time>2015-05-02T10:20:22Z</time>
      </trkpt>
      <trkpt lat="45.5084" lon="5.36959">
        <ele>581.57526</ele>
        <time>2015-05-02T10:20:26Z</time>
      </trkpt>
      <trkpt lat="45.50837" lon="5.36951">
        <ele>581.4113</ele>
        <time>2015-05-02T10:20:32Z</time>
      </trkpt>
      <trkpt lat="45.50839" lon="5.36944">
        <ele>581.4113</ele>
        <time>2015-05-02T10:20:37Z</time>
      </trkpt>
      <trkpt lat="45.50837" lon="5.36933">
        <ele>581.8421</ele>
        <time>2015-05-02T10:20:41Z</time>
      </trkpt>
      <trkpt lat="45.50836" lon="5.36926">
        <ele>581.8421</ele>
        <time>2015-05-02T10:20:45Z</time>
      </trkpt>
      <trkpt lat="45.50834" lon="5.36915">
        <ele>582.44794</ele>
        <time>2015-05-02T10:20:50Z</time>
      </trkpt>
      <trkpt lat="45.50831" lon="5.36904">
        <ele>582.44794</ele>
        <time>2015-05-02T10:20:55Z</time>
      </trkpt>
      <trkpt lat="45.50829" lon="5.3689">
        <ele>582.8827</ele>
        <time>2015-05-02T10:21:01Z</time>
      </trkpt>
      <trkpt lat="45.50827" lon="5.36882">
        <ele>582.8827</ele>
        <time>2015-05-02T10:21:05Z</time>
      </trkpt>
      <trkpt lat="45.50826" lon="5.36871">
        <ele>583.4314</ele>
        <time>2015-05-02T10:21:10Z</time>
      </trkpt>
      <trkpt lat="45.50826" lon="5.3686">
        <ele>583.4314</ele>
        <time>2015-05-02T10:21:15Z</time>
      </trkpt>
      <trkpt lat="45.50826" lon="5.36849">
        <ele>584.0838</ele>
        <time>2015-05-02T10:21:20Z</time>
      </trkpt>
      <trkpt lat="45.50826" lon="5.36838">
        <ele>584.0838</ele>
        <time>2015-05-02T10:21:25Z</time>
      </trkpt>
      <trkpt lat="45.50825" lon="5.36827">
        <ele>584.1817</ele>
        <time>2015-05-02T10:21:30Z</time>
      </trkpt>
      <trkpt lat="45.50826" lon="5.36817">
        <ele>584.1817</ele>
        <time>2015-05-02T10:21:35Z</time>
      </trkpt>
      <trkpt lat="45.50824" lon="5.36806">
        <ele>584.48566</ele>
        <time>2015-05-02T10:21:40Z</time>
      </trkpt>
      <trkpt lat="45.50822" lon="5.36796">
        <ele>584.48566</ele>
        <time>2015-05-02T10:21:45Z</time>
      </trkpt>
      <trkpt lat="45.50821" lon="5.36786">
        <ele>584.74866</ele>
        <time>2015-05-02T10:21:50Z</time>
      </trkpt>
      <trkpt lat="45.50818" lon="5.36776">
        <ele>584.74866</ele>
        <time>2015-05-02T10:21:55Z</time>
      </trkpt>
      <trkpt lat="45.50816" lon="5.36765">
        <ele>584.9869</ele>
        <time>2015-05-02T10:22:00Z</time>
      </trkpt>
      <trkpt lat="45.50814" lon="5.36755">
        <ele>584.9869</ele>
        <time>2015-05-02T10:22:05Z</time>
      </trkpt>
      <trkpt lat="45.50813" lon="5.36745">
        <ele>584.956</ele>
        <time>2015-05-02T10:22:10Z</time>
      </trkpt>
      <trkpt lat="45.50811" lon="5.36735">
        <ele>584.956</ele>
        <time>2015-05-02T10:22:15Z</time>
      </trkpt>
      <trkpt lat="45.50808" lon="5.36724">
        <ele>584.86273</ele>
        <time>2015-05-02T10:22:20Z</time>
      </trkpt>
      <trkpt lat="45.50806" lon="5.36713">
        <ele>584.86273</ele>
        <time>2015-05-02T10:22:25Z</time>
      </trkpt>
      <trkpt lat="45.50805" lon="5.36702">
        <ele>584.89856</ele>
        <time>2015-05-02T10:22:30Z</time>
      </trkpt>
      <trkpt lat="45.50803" lon="5.36692">
        <ele>584.89856</ele>
        <time>2015-05-02T10:22:35Z</time>
      </trkpt>
      <trkpt lat="45.50801" lon="5.3668">
        <ele>584.9381</ele>
        <time>2015-05-02T10:22:40Z</time>
      </trkpt>
      <trkpt lat="45.508" lon="5.36669">
        <ele>584.9381</ele>
        <time>2015-05-02T10:22:45Z</time>
      </trkpt>
      <trkpt lat="45.508" lon="5.36658">
        <ele>584.7354</ele>
        <time>2015-05-02T10:22:50Z</time>
      </trkpt>
      <trkpt lat="45.50801" lon="5.36648">
        <ele>584.7354</ele>
        <time>2015-05-02T10:22:55Z</time>
      </trkpt>
      <trkpt lat="45.50798" lon="5.36638">
        <ele>584.6108</ele>
        <time>2015-05-02T10:23:00Z</time>
      </trkpt>
      <trkpt lat="45.50797" lon="5.36628">
        <ele>584.6108</ele>
        <time>2015-05-02T10:23:05Z</time>
      </trkpt>
      <trkpt lat="45.50796" lon="5.36615">
        <ele>584.48615</ele>
        <time>2015-05-02T10:23:11Z</time>
      </trkpt>
      <trkpt lat="45.50796" lon="5.36607">
        <ele>584.48615</ele>
        <time>2015-05-02T10:23:15Z</time>
      </trkpt>
      <trkpt lat="45.50794" lon="5.36596">
        <ele>584.1883</ele>
        <time>2015-05-02T10:23:22Z</time>
      </trkpt>
      <trkpt lat="45.50793" lon="5.36582">
        <ele>583.8022</ele>
        <time>2015-05-02T10:23:27Z</time>
      </trkpt>
      <trkpt lat="45.50792" lon="5.36572">
        <ele>583.8022</ele>
        <time>2015-05-02T10:23:32Z</time>
      </trkpt>
      <trkpt lat="45.50791" lon="5.3656">
        <ele>583.40674</ele>
        <time>2015-05-02T10:23:36Z</time>
      </trkpt>
      <trkpt lat="45.50791" lon="5.36551">
        <ele>583.40674</ele>
        <time>2015-05-02T10:23:41Z</time>
      </trkpt>
      <trkpt lat="45.50789" lon="5.36537">
        <ele>583.0175</ele>
        <time>2015-05-02T10:23:47Z</time>
      </trkpt>
      <trkpt lat="45.50789" lon="5.36528">
        <ele>583.0175</ele>
        <time>2015-05-02T10:23:52Z</time>
      </trkpt>
      <trkpt lat="45.50788" lon="5.36515">
        <ele>582.64886</ele>
        <time>2015-05-02T10:23:57Z</time>
      </trkpt>
      <trkpt lat="45.50787" lon="5.36505">
        <ele>582.64886</ele>
        <time>2015-05-02T10:24:02Z</time>
      </trkpt>
      <trkpt lat="45.50786" lon="5.36494">
        <ele>582.05457</ele>
        <time>2015-05-02T10:24:06Z</time>
      </trkpt>
      <trkpt lat="45.50784" lon="5.36482">
        <ele>582.05457</ele>
        <time>2015-05-02T10:24:12Z</time>
      </trkpt>
      <trkpt lat="45.50784" lon="5.36472">
        <ele>581.55493</ele>
        <time>2015-05-02T10:24:17Z</time>
      </trkpt>
      <trkpt lat="45.50785" lon="5.36463">
        <ele>581.55493</ele>
        <time>2015-05-02T10:24:20Z</time>
      </trkpt>
      <trkpt lat="45.50786" lon="5.3645">
        <ele>581.1579</ele>
        <time>2015-05-02T10:24:27Z</time>
      </trkpt>
      <trkpt lat="45.50787" lon="5.3644">
        <ele>581.1579</ele>
        <time>2015-05-02T10:24:32Z</time>
      </trkpt>
      <trkpt lat="45.50788" lon="5.36431">
        <ele>580.77</ele>
        <time>2015-05-02T10:24:36Z</time>
      </trkpt>
      <trkpt lat="45.50786" lon="5.36425">
        <ele>580.77</ele>
        <time>2015-05-02T10:24:41Z</time>
      </trkpt>
      <trkpt lat="45.50787" lon="5.36425">
        <ele>580.77</ele>
        <time>2015-05-02T10:24:47Z</time>
      </trkpt>
      <trkpt lat="45.5079" lon="5.36416">
        <ele>580.46295</ele>
        <time>2015-05-02T10:24:52Z</time>
      </trkpt>
      <trkpt lat="45.50793" lon="5.36407">
        <ele>580.46295</ele>
        <time>2015-05-02T10:24:57Z</time>
      </trkpt>
      <trkpt lat="45.50795" lon="5.36396">
        <ele>580.0867</ele>
        <time>2015-05-02T10:25:02Z</time>
      </trkpt>
      <trkpt lat="45.50799" lon="5.36386">
        <ele>580.0867</ele>
        <time>2015-05-02T10:25:05Z</time>
      </trkpt>
      <trkpt lat="45.50801" lon="5.36375">
        <ele>579.6178</ele>
        <time>2015-05-02T10:25:12Z</time>
      </trkpt>
      <trkpt lat="45.50803" lon="5.36364">
        <ele>579.6178</ele>
        <time>2015-05-02T10:25:17Z</time>
      </trkpt>
      <trkpt lat="45.50804" lon="5.36353">
        <ele>579.06366</ele>
        <time>2015-05-02T10:25:22Z</time>
      </trkpt>
      <trkpt lat="45.50806" lon="5.36342">
        <ele>579.06366</ele>
        <time>2015-05-02T10:25:27Z</time>
      </trkpt>
      <trkpt lat="45.50808" lon="5.3633">
        <ele>578.6042</ele>
        <time>2015-05-02T10:25:32Z</time>
      </trkpt>
      <trkpt lat="45.5081" lon="5.36319">
        <ele>578.6042</ele>
        <time>2015-05-02T10:25:37Z</time>
      </trkpt>
      <trkpt lat="45.50811" lon="5.36307">
        <ele>578.2473</ele>
        <time>2015-05-02T10:25:41Z</time>
      </trkpt>
      <trkpt lat="45.50811" lon="5.36295">
        <ele>578.2473</ele>
        <time>2015-05-02T10:25:47Z</time>
      </trkpt>
      <trkpt lat="45.50813" lon="5.36284">
        <ele>578.0433</ele>
        <time>2015-05-02T10:25:52Z</time>
      </trkpt>
      <trkpt lat="45.50814" lon="5.36275">
        <ele>578.0433</ele>
        <time>2015-05-02T10:25:56Z</time>
      </trkpt>
      <trkpt lat="45.50816" lon="5.36263">
        <ele>577.8221</ele>
        <time>2015-05-02T10:26:00Z</time>
      </trkpt>
      <trkpt lat="45.50817" lon="5.3625">
        <ele>577.6568</ele>
        <time>2015-05-02T10:26:07Z</time>
      </trkpt>
      <trkpt lat="45.50818" lon="5.3624">
        <ele>577.6568</ele>
        <time>2015-05-02T10:26:11Z</time>
      </trkpt>
      <trkpt lat="45.50818" lon="5.36225">
        <ele>577.6294</ele>
        <time>2015-05-02T10:26:17Z</time>
      </trkpt>
      <trkpt lat="45.50819" lon="5.36214">
        <ele>577.6294</ele>
        <time>2015-05-02T10:26:22Z</time>
      </trkpt>
      <trkpt lat="45.5082" lon="5.36202">
        <ele>577.6425</ele>
        <time>2015-05-02T10:26:26Z</time>
      </trkpt>
      <trkpt lat="45.5082" lon="5.3619">
        <ele>577.6425</ele>
        <time>2015-05-02T10:26:32Z</time>
      </trkpt>
      <trkpt lat="45.50821" lon="5.36179">
        <ele>577.72095</ele>
        <time>2015-05-02T10:26:37Z</time>
      </trkpt>
      <trkpt lat="45.50821" lon="5.36174">
        <ele>577.72095</ele>
        <time>2015-05-02T10:26:41Z</time>
      </trkpt>
      <trkpt lat="45.50821" lon="5.36174">
        <ele>577.72095</ele>
        <time>2015-05-02T10:26:47Z</time>
      </trkpt>
      <trkpt lat="45.50822" lon="5.36174">
        <ele>577.72095</ele>
        <time>2015-05-02T10:26:52Z</time>
      </trkpt>
      <trkpt lat="45.50822" lon="5.36171">
        <ele>577.72095</ele>
        <time>2015-05-02T10:26:56Z</time>
      </trkpt>
      <trkpt lat="45.50822" lon="5.36171">
        <ele>577.72095</ele>
        <time>2015-05-02T10:27:02Z</time>
      </trkpt>
      <trkpt lat="45.50823" lon="5.36171">
        <ele>577.72095</ele>
        <time>2015-05-02T10:27:07Z</time>
      </trkpt>
      <trkpt lat="45.50822" lon="5.36169">
        <ele>577.72095</ele>
        <time>2015-05-02T10:27:12Z</time>
      </trkpt>
      <trkpt lat="45.50822" lon="5.36164">
        <ele>577.83014</ele>
        <time>2015-05-02T10:27:16Z</time>
      </trkpt>
      <trkpt lat="45.50822" lon="5.36154">
        <ele>577.83014</ele>
        <time>2015-05-02T10:27:20Z</time>
      </trkpt>
      <trkpt lat="45.50823" lon="5.36146">
        <ele>578.1827</ele>
        <time>2015-05-02T10:27:26Z</time>
      </trkpt>
      <trkpt lat="45.50825" lon="5.36135">
        <ele>578.1827</ele>
        <time>2015-05-02T10:27:32Z</time>
      </trkpt>
      <trkpt lat="45.50827" lon="5.36124">
        <ele>578.06714</ele>
        <time>2015-05-02T10:27:37Z</time>
      </trkpt>
      <trkpt lat="45.50828" lon="5.36114">
        <ele>578.06714</ele>
        <time>2015-05-02T10:27:41Z</time>
      </trkpt>
      <trkpt lat="45.50828" lon="5.36103">
        <ele>578.03613</ele>
        <time>2015-05-02T10:27:47Z</time>
      </trkpt>
      <trkpt lat="45.50829" lon="5.36094">
        <ele>578.03613</ele>
        <time>2015-05-02T10:27:51Z</time>
      </trkpt>
      <trkpt lat="45.50828" lon="5.3609">
        <ele>578.0683</ele>
        <time>2015-05-02T10:27:57Z</time>
      </trkpt>
      <trkpt lat="45.50826" lon="5.36082">
        <ele>578.0683</ele>
        <time>2015-05-02T10:28:01Z</time>
      </trkpt>
      <trkpt lat="45.50826" lon="5.36073">
        <ele>578.11487</ele>
        <time>2015-05-02T10:28:07Z</time>
      </trkpt>
      <trkpt lat="45.50826" lon="5.36064">
        <ele>578.11487</ele>
        <time>2015-05-02T10:28:11Z</time>
      </trkpt>
      <trkpt lat="45.50825" lon="5.36049">
        <ele>578.2313</ele>
        <time>2015-05-02T10:28:17Z</time>
      </trkpt>
      <trkpt lat="45.50825" lon="5.36042">
        <ele>578.2313</ele>
        <time>2015-05-02T10:28:21Z</time>
      </trkpt>
      <trkpt lat="45.50825" lon="5.36029">
        <ele>578.2962</ele>
        <time>2015-05-02T10:28:27Z</time>
      </trkpt>
      <trkpt lat="45.50826" lon="5.36018">
        <ele>578.2962</ele>
        <time>2015-05-02T10:28:32Z</time>
      </trkpt>
      <trkpt lat="45.50828" lon="5.36007">
        <ele>578.38434</ele>
        <time>2015-05-02T10:28:37Z</time>
      </trkpt>
      <trkpt lat="45.50829" lon="5.35997">
        <ele>578.38434</ele>
        <time>2015-05-02T10:28:41Z</time>
      </trkpt>
      <trkpt lat="45.5083" lon="5.35989">
        <ele>578.42096</ele>
        <time>2015-05-02T10:28:46Z</time>
      </trkpt>
      <trkpt lat="45.50832" lon="5.35977">
        <ele>578.42096</ele>
        <time>2015-05-02T10:28:52Z</time>
      </trkpt>
      <trkpt lat="45.50836" lon="5.35968">
        <ele>578.5243</ele>
        <time>2015-05-02T10:28:57Z</time>
      </trkpt>
      <trkpt lat="45.50837" lon="5.3596">
        <ele>578.5243</ele>
        <time>2015-05-02T10:29:01Z</time>
      </trkpt>
      <trkpt lat="45.50838" lon="5.3595">
        <ele>578.57306</ele>
        <time>2015-05-02T10:29:06Z</time>
      </trkpt>
      <trkpt lat="45.50838" lon="5.35946">
        <ele>578.57306</ele>
        <time>2015-05-02T10:29:10Z</time>
      </trkpt>
      <trkpt lat="45.50838" lon="5.35946">
        <ele>578.57306</ele>
        <time>2015-05-02T10:29:16Z</time>
      </trkpt>
      <trkpt lat="45.50839" lon="5.35945">
        <ele>578.57306</ele>
        <time>2015-05-02T10:29:21Z</time>
      </trkpt>
      <trkpt lat="45.50839" lon="5.35941">
        <ele>578.57306</ele>
        <time>2015-05-02T10:29:26Z</time>
      </trkpt>
      <trkpt lat="45.50837" lon="5.35934">
        <ele>579.3631</ele>
        <time>2015-05-02T10:29:31Z</time>
      </trkpt>
      <trkpt lat="45.50838" lon="5.35923">
        <ele>579.3631</ele>
        <time>2015-05-02T10:29:36Z</time>
      </trkpt>
      <trkpt lat="45.50841" lon="5.35916">
        <ele>579.74176</ele>
        <time>2015-05-02T10:29:42Z</time>
      </trkpt>
      <trkpt lat="45.50841" lon="5.35908">
        <ele>579.74176</ele>
        <time>2015-05-02T10:29:47Z</time>
      </trkpt>
      <trkpt lat="45.50841" lon="5.35897">
        <ele>579.86725</ele>
        <time>2015-05-02T10:29:51Z</time>
      </trkpt>
      <trkpt lat="45.50843" lon="5.35887">
        <ele>579.86725</ele>
        <time>2015-05-02T10:29:57Z</time>
      </trkpt>
      <trkpt lat="45.50841" lon="5.35878">
        <ele>580.0455</ele>
        <time>2015-05-02T10:30:00Z</time>
      </trkpt>
      <trkpt lat="45.5084" lon="5.35867">
        <ele>580.0455</ele>
        <time>2015-05-02T10:30:07Z</time>
      </trkpt>
      <trkpt lat="45.5084" lon="5.35858">
        <ele>579.8967</ele>
        <time>2015-05-02T10:30:10Z</time>
      </trkpt>
      <trkpt lat="45.5084" lon="5.35845">
        <ele>579.9204</ele>
        <time>2015-05-02T10:30:16Z</time>
      </trkpt>
      <trkpt lat="45.50837" lon="5.3583">
        <ele>580.14667</ele>
        <time>2015-05-02T10:30:21Z</time>
      </trkpt>
      <trkpt lat="45.50839" lon="5.35824">
        <ele>580.14667</ele>
        <time>2015-05-02T10:30:26Z</time>
      </trkpt>
      <trkpt lat="45.5084" lon="5.35812">
        <ele>580.05493</ele>
        <time>2015-05-02T10:30:30Z</time>
      </trkpt>
      <trkpt lat="45.50841" lon="5.35799">
        <ele>580.10077</ele>
        <time>2015-05-02T10:30:35Z</time>
      </trkpt>
      <trkpt lat="45.50841" lon="5.35787">
        <ele>580.10077</ele>
        <time>2015-05-02T10:30:40Z</time>
      </trkpt>
      <trkpt lat="45.50841" lon="5.35777">
        <ele>579.76917</ele>
        <time>2015-05-02T10:30:45Z</time>
      </trkpt>
      <trkpt lat="45.50842" lon="5.35768">
        <ele>579.76917</ele>
        <time>2015-05-02T10:30:50Z</time>
      </trkpt>
      <trkpt lat="45.50844" lon="5.35757">
        <ele>579.2469</ele>
        <time>2015-05-02T10:30:55Z</time>
      </trkpt>
      <trkpt lat="45.50844" lon="5.35746">
        <ele>579.2469</ele>
        <time>2015-05-02T10:31:00Z</time>
      </trkpt>
      <trkpt lat="45.50847" lon="5.35735">
        <ele>578.6066</ele>
        <time>2015-05-02T10:31:05Z</time>
      </trkpt>
      <trkpt lat="45.50848" lon="5.35726">
        <ele>578.6066</ele>
        <time>2015-05-02T10:31:10Z</time>
      </trkpt>
      <trkpt lat="45.5085" lon="5.35717">
        <ele>577.9306</ele>
        <time>2015-05-02T10:31:15Z</time>
      </trkpt>
      <trkpt lat="45.50852" lon="5.35707">
        <ele>577.9306</ele>
        <time>2015-05-02T10:31:20Z</time>
      </trkpt>
      <trkpt lat="45.50853" lon="5.35698">
        <ele>577.7274</ele>
        <time>2015-05-02T10:31:25Z</time>
      </trkpt>
      <trkpt lat="45.50852" lon="5.35689">
        <ele>577.7274</ele>
        <time>2015-05-02T10:31:30Z</time>
      </trkpt>
      <trkpt lat="45.50849" lon="5.35679">
        <ele>577.51575</ele>
        <time>2015-05-02T10:31:35Z</time>
      </trkpt>
      <trkpt lat="45.50847" lon="5.3567">
        <ele>577.51575</ele>
        <time>2015-05-02T10:31:40Z</time>
      </trkpt>
      <trkpt lat="45.50844" lon="5.35661">
        <ele>577.5992</ele>
        <time>2015-05-02T10:31:45Z</time>
      </trkpt>
      <trkpt lat="45.50843" lon="5.35653">
        <ele>577.5992</ele>
        <time>2015-05-02T10:31:50Z</time>
      </trkpt>
      <trkpt lat="45.50838" lon="5.35638">
        <ele>577.76825</ele>
        <time>2015-05-02T10:31:55Z</time>
      </trkpt>
      <trkpt lat="45.50835" lon="5.35625">
        <ele>578.03015</ele>
        <time>2015-05-02T10:32:00Z</time>
      </trkpt>
      <trkpt lat="45.50833" lon="5.35617">
        <ele>578.03015</ele>
        <time>2015-05-02T10:32:05Z</time>
      </trkpt>
      <trkpt lat="45.5083" lon="5.35607">
        <ele>578.31946</ele>
        <time>2015-05-02T10:32:10Z</time>
      </trkpt>
      <trkpt lat="45.50831" lon="5.35599">
        <ele>578.31946</ele>
        <time>2015-05-02T10:32:15Z</time>
      </trkpt>
      <trkpt lat="45.50828" lon="5.35589">
        <ele>578.18634</ele>
        <time>2015-05-02T10:32:20Z</time>
      </trkpt>
      <trkpt lat="45.50827" lon="5.3558">
        <ele>578.18634</ele>
        <time>2015-05-02T10:32:25Z</time>
      </trkpt>
      <trkpt lat="45.50825" lon="5.35572">
        <ele>577.7196</ele>
        <time>2015-05-02T10:32:30Z</time>
      </trkpt>
      <trkpt lat="45.50823" lon="5.35562">
        <ele>577.7196</ele>
        <time>2015-05-02T10:32:35Z</time>
      </trkpt>
      <trkpt lat="45.50824" lon="5.35548">
        <ele>577.20416</ele>
        <time>2015-05-02T10:32:40Z</time>
      </trkpt>
      <trkpt lat="45.50822" lon="5.35539">
        <ele>577.20416</ele>
        <time>2015-05-02T10:32:45Z</time>
      </trkpt>
      <trkpt lat="45.50822" lon="5.35526">
        <ele>576.35657</ele>
        <time>2015-05-02T10:32:50Z</time>
      </trkpt>
      <trkpt lat="45.50822" lon="5.35511">
        <ele>576.03925</ele>
        <time>2015-05-02T10:32:55Z</time>
      </trkpt>
      <trkpt lat="45.50823" lon="5.35499">
        <ele>576.03925</ele>
        <time>2015-05-02T10:33:00Z</time>
      </trkpt>
      <trkpt lat="45.50824" lon="5.35486">
        <ele>575.89685</ele>
        <time>2015-05-02T10:33:05Z</time>
      </trkpt>
      <trkpt lat="45.50826" lon="5.35469">
        <ele>575.95984</ele>
        <time>2015-05-02T10:33:10Z</time>
      </trkpt>
      <trkpt lat="45.5083" lon="5.35432">
        <ele>576.18396</ele>
        <time>2015-05-02T10:33:15Z</time>
      </trkpt>
      <trkpt lat="45.50833" lon="5.35394">
        <ele>576.52765</ele>
        <time>2015-05-02T10:33:20Z</time>
      </trkpt>
      <trkpt lat="45.50836" lon="5.35352">
        <ele>576.9377</ele>
        <time>2015-05-02T10:33:25Z</time>
      </trkpt>
      <trkpt lat="45.50837" lon="5.35324">
        <ele>577.49426</ele>
        <time>2015-05-02T10:33:30Z</time>
      </trkpt>
      <trkpt lat="45.50837" lon="5.35317">
        <ele>577.49426</ele>
        <time>2015-05-02T10:33:35Z</time>
      </trkpt>
      <trkpt lat="45.50837" lon="5.35315">
        <ele>577.49426</ele>
        <time>2015-05-02T10:33:40Z</time>
      </trkpt>
      <trkpt lat="45.50837" lon="5.35307">
        <ele>578.1416</ele>
        <time>2015-05-02T10:33:45Z</time>
      </trkpt>
      <trkpt lat="45.50837" lon="5.35296">
        <ele>578.1416</ele>
        <time>2015-05-02T10:33:50Z</time>
      </trkpt>
      <trkpt lat="45.50836" lon="5.35286">
        <ele>578.6259</ele>
        <time>2015-05-02T10:33:55Z</time>
      </trkpt>
      <trkpt lat="45.50834" lon="5.35275">
        <ele>578.6259</ele>
        <time>2015-05-02T10:34:00Z</time>
      </trkpt>
      <trkpt lat="45.50832" lon="5.35263">
        <ele>579.1451</ele>
        <time>2015-05-02T10:34:05Z</time>
      </trkpt>
      <trkpt lat="45.5083" lon="5.35251">
        <ele>579.1451</ele>
        <time>2015-05-02T10:34:10Z</time>
      </trkpt>
      <trkpt lat="45.50825" lon="5.3524">
        <ele>579.7525</ele>
        <time>2015-05-02T10:34:15Z</time>
      </trkpt>
      <trkpt lat="45.50822" lon="5.35229">
        <ele>579.7525</ele>
        <time>2015-05-02T10:34:20Z</time>
      </trkpt>
      <trkpt lat="45.50819" lon="5.35218">
        <ele>580.25244</ele>
        <time>2015-05-02T10:34:25Z</time>
      </trkpt>
      <trkpt lat="45.50816" lon="5.35208">
        <ele>580.25244</ele>
        <time>2015-05-02T10:34:30Z</time>
      </trkpt>
      <trkpt lat="45.50815" lon="5.35198">
        <ele>580.5936</ele>
        <time>2015-05-02T10:34:35Z</time>
      </trkpt>
      <trkpt lat="45.50813" lon="5.35184">
        <ele>580.91644</ele>
        <time>2015-05-02T10:34:41Z</time>
      </trkpt>
      <trkpt lat="45.50812" lon="5.35172">
        <ele>580.91644</ele>
        <time>2015-05-02T10:34:47Z</time>
      </trkpt>
      <trkpt lat="45.5081" lon="5.35161">
        <ele>581.09143</ele>
        <time>2015-05-02T10:34:52Z</time>
      </trkpt>
      <trkpt lat="45.50808" lon="5.35149">
        <ele>581.09143</ele>
        <time>2015-05-02T10:34:57Z</time>
      </trkpt>
      <trkpt lat="45.50806" lon="5.35139">
        <ele>581.46045</ele>
        <time>2015-05-02T10:35:02Z</time>
      </trkpt>
      <trkpt lat="45.50804" lon="5.3513">
        <ele>581.46045</ele>
        <time>2015-05-02T10:35:07Z</time>
      </trkpt>
      <trkpt lat="45.50802" lon="5.35119">
        <ele>581.93616</ele>
        <time>2015-05-02T10:35:11Z</time>
      </trkpt>
      <trkpt lat="45.50799" lon="5.35109">
        <ele>581.93616</ele>
        <time>2015-05-02T10:35:17Z</time>
      </trkpt>
      <trkpt lat="45.50795" lon="5.35099">
        <ele>582.4085</ele>
        <time>2015-05-02T10:35:21Z</time>
      </trkpt>
      <trkpt lat="45.50793" lon="5.35091">
        <ele>582.4085</ele>
        <time>2015-05-02T10:35:26Z</time>
      </trkpt>
      <trkpt lat="45.50789" lon="5.35079">
        <ele>583.07825</ele>
        <time>2015-05-02T10:35:32Z</time>
      </trkpt>
      <trkpt lat="45.50786" lon="5.35069">
        <ele>583.07825</ele>
        <time>2015-05-02T10:35:37Z</time>
      </trkpt>
      <trkpt lat="45.50783" lon="5.35057">
        <ele>583.8714</ele>
        <time>2015-05-02T10:35:42Z</time>
      </trkpt>
      <trkpt lat="45.50781" lon="5.35049">
        <ele>583.8714</ele>
        <time>2015-05-02T10:35:45Z</time>
      </trkpt>
      <trkpt lat="45.50778" lon="5.35036">
        <ele>584.54626</ele>
        <time>2015-05-02T10:35:52Z</time>
      </trkpt>
      <trkpt lat="45.50776" lon="5.35026">
        <ele>584.54626</ele>
        <time>2015-05-02T10:35:57Z</time>
      </trkpt>
      <trkpt lat="45.50776" lon="5.35018">
        <ele>585.0954</ele>
        <time>2015-05-02T10:36:00Z</time>
      </trkpt>
      <trkpt lat="45.50776" lon="5.35007">
        <ele>585.0954</ele>
        <time>2015-05-02T10:36:07Z</time>
      </trkpt>
      <trkpt lat="45.50776" lon="5.34997">
        <ele>585.38257</ele>
        <time>2015-05-02T10:36:11Z</time>
      </trkpt>
      <trkpt lat="45.50775" lon="5.34989">
        <ele>585.38257</ele>
        <time>2015-05-02T10:36:15Z</time>
      </trkpt>
      <trkpt lat="45.50772" lon="5.34975">
        <ele>585.93097</ele>
        <time>2015-05-02T10:36:22Z</time>
      </trkpt>
      <trkpt lat="45.5077" lon="5.34966">
        <ele>585.93097</ele>
        <time>2015-05-02T10:36:27Z</time>
      </trkpt>
      <trkpt lat="45.50766" lon="5.34958">
        <ele>586.67676</ele>
        <time>2015-05-02T10:36:31Z</time>
      </trkpt>
      <trkpt lat="45.50762" lon="5.3495">
        <ele>586.67676</ele>
        <time>2015-05-02T10:36:36Z</time>
      </trkpt>
      <trkpt lat="45.5076" lon="5.34941">
        <ele>587.2292</ele>
        <time>2015-05-02T10:36:42Z</time>
      </trkpt>
      <trkpt lat="45.50758" lon="5.34934">
        <ele>587.2292</ele>
        <time>2015-05-02T10:36:45Z</time>
      </trkpt>
      <trkpt lat="45.5076" lon="5.34919">
        <ele>587.25525</ele>
        <time>2015-05-02T10:36:51Z</time>
      </trkpt>
      <trkpt lat="45.50761" lon="5.34911">
        <ele>587.25525</ele>
        <time>2015-05-02T10:36:55Z</time>
      </trkpt>
      <trkpt lat="45.50758" lon="5.34902">
        <ele>587.35614</ele>
        <time>2015-05-02T10:37:00Z</time>
      </trkpt>
      <trkpt lat="45.50757" lon="5.34892">
        <ele>587.35614</ele>
        <time>2015-05-02T10:37:05Z</time>
      </trkpt>
      <trkpt lat="45.50753" lon="5.34879">
        <ele>587.8003</ele>
        <time>2015-05-02T10:37:10Z</time>
      </trkpt>
      <trkpt lat="45.50751" lon="5.3487">
        <ele>587.8003</ele>
        <time>2015-05-02T10:37:15Z</time>
      </trkpt>
      <trkpt lat="45.50751" lon="5.34864">
        <ele>588.36005</ele>
        <time>2015-05-02T10:37:20Z</time>
      </trkpt>
      <trkpt lat="45.50751" lon="5.34857">
        <ele>588.36005</ele>
        <time>2015-05-02T10:37:25Z</time>
      </trkpt>
      <trkpt lat="45.50749" lon="5.34849">
        <ele>588.1035</ele>
        <time>2015-05-02T10:37:30Z</time>
      </trkpt>
      <trkpt lat="45.50744" lon="5.34839">
        <ele>588.1035</ele>
        <time>2015-05-02T10:37:35Z</time>
      </trkpt>
      <trkpt lat="45.5074" lon="5.34829">
        <ele>587.8269</ele>
        <time>2015-05-02T10:37:40Z</time>
      </trkpt>
      <trkpt lat="45.50737" lon="5.34819">
        <ele>587.8269</ele>
        <time>2015-05-02T10:37:45Z</time>
      </trkpt>
      <trkpt lat="45.50736" lon="5.34812">
        <ele>586.9279</ele>
        <time>2015-05-02T10:37:50Z</time>
      </trkpt>
      <trkpt lat="45.50734" lon="5.34803">
        <ele>586.9279</ele>
        <time>2015-05-02T10:37:55Z</time>
      </trkpt>
      <trkpt lat="45.50732" lon="5.34789">
        <ele>585.7868</ele>
        <time>2015-05-02T10:38:00Z</time>
      </trkpt>
      <trkpt lat="45.50728" lon="5.34781">
        <ele>585.7868</ele>
        <time>2015-05-02T10:38:05Z</time>
      </trkpt>
      <trkpt lat="45.5072" lon="5.34771">
        <ele>585.8951</ele>
        <time>2015-05-02T10:38:10Z</time>
      </trkpt>
      <trkpt lat="45.50714" lon="5.34761">
        <ele>585.95087</ele>
        <time>2015-05-02T10:38:15Z</time>
      </trkpt>
      <trkpt lat="45.5071" lon="5.34752">
        <ele>585.95087</ele>
        <time>2015-05-02T10:38:20Z</time>
      </trkpt>
      <trkpt lat="45.50707" lon="5.34743">
        <ele>585.0217</ele>
        <time>2015-05-02T10:38:25Z</time>
      </trkpt>
      <trkpt lat="45.50703" lon="5.34733">
        <ele>585.0217</ele>
        <time>2015-05-02T10:38:30Z</time>
      </trkpt>
      <trkpt lat="45.50696" lon="5.34724">
        <ele>584.0479</ele>
        <time>2015-05-02T10:38:35Z</time>
      </trkpt>
      <trkpt lat="45.507" lon="5.34721">
        <ele>584.0479</ele>
        <time>2015-05-02T10:38:40Z</time>
      </trkpt>
      <trkpt lat="45.50706" lon="5.34725">
        <ele>582.7046</ele>
        <time>2015-05-02T10:38:45Z</time>
      </trkpt>
      <trkpt lat="45.50712" lon="5.34729">
        <ele>582.7046</ele>
        <time>2015-05-02T10:38:50Z</time>
      </trkpt>
      <trkpt lat="45.50713" lon="5.3473">
        <ele>582.7046</ele>
        <time>2015-05-02T10:38:55Z</time>
      </trkpt>
      <trkpt lat="45.50713" lon="5.3473">
        <ele>582.7046</ele>
        <time>2015-05-02T10:39:00Z</time>
      </trkpt>
      <trkpt lat="45.50712" lon="5.34731">
        <ele>581.8015</ele>
        <time>2015-05-02T10:39:06Z</time>
      </trkpt>
      <trkpt lat="45.50712" lon="5.34731">
        <ele>581.8015</ele>
        <time>2015-05-02T10:39:12Z</time>
      </trkpt>
      <trkpt lat="45.50713" lon="5.34729">
        <ele>581.8015</ele>
        <time>2015-05-02T10:39:16Z</time>
      </trkpt>
      <trkpt lat="45.50711" lon="5.34729">
        <ele>581.8015</ele>
        <time>2015-05-02T10:39:21Z</time>
      </trkpt>
      <trkpt lat="45.50711" lon="5.34729">
        <ele>581.8015</ele>
        <time>2015-05-02T10:39:25Z</time>
      </trkpt>
      <trkpt lat="45.50709" lon="5.3473">
        <ele>581.8015</ele>
        <time>2015-05-02T10:39:31Z</time>
      </trkpt>
      <trkpt lat="45.50708" lon="5.34729">
        <ele>581.8015</ele>
        <time>2015-05-02T10:39:36Z</time>
      </trkpt>
      <trkpt lat="45.50708" lon="5.34727">
        <ele>580.99243</ele>
        <time>2015-05-02T10:39:42Z</time>
      </trkpt>
      <trkpt lat="45.50707" lon="5.34726">
        <ele>580.99243</ele>
        <time>2015-05-02T10:39:47Z</time>
      </trkpt>
      <trkpt lat="45.50706" lon="5.34723">
        <ele>580.99243</ele>
        <time>2015-05-02T10:39:51Z</time>
      </trkpt>
      <trkpt lat="45.50702" lon="5.34719">
        <ele>580.99243</ele>
        <time>2015-05-02T10:39:56Z</time>
      </trkpt>
      <trkpt lat="45.50695" lon="5.3472">
        <ele>580.33075</ele>
        <time>2015-05-02T10:40:02Z</time>
      </trkpt>
      <trkpt lat="45.50689" lon="5.34719">
        <ele>580.33075</ele>
        <time>2015-05-02T10:40:06Z</time>
      </trkpt>
      <trkpt lat="45.50685" lon="5.34706">
        <ele>579.4911</ele>
        <time>2015-05-02T10:40:12Z</time>
      </trkpt>
      <trkpt lat="45.50682" lon="5.34696">
        <ele>579.4911</ele>
        <time>2015-05-02T10:40:17Z</time>
      </trkpt>
      <trkpt lat="45.50679" lon="5.34685">
        <ele>578.5469</ele>
        <time>2015-05-02T10:40:22Z</time>
      </trkpt>
      <trkpt lat="45.5068" lon="5.34674">
        <ele>578.5469</ele>
        <time>2015-05-02T10:40:25Z</time>
      </trkpt>
      <trkpt lat="45.5068" lon="5.34666">
        <ele>577.0188</ele>
        <time>2015-05-02T10:40:30Z</time>
      </trkpt>
      <trkpt lat="45.50677" lon="5.34655">
        <ele>577.0188</ele>
        <time>2015-05-02T10:40:35Z</time>
      </trkpt>
      <trkpt lat="45.50675" lon="5.34643">
        <ele>576.0497</ele>
        <time>2015-05-02T10:40:40Z</time>
      </trkpt>
      <trkpt lat="45.50674" lon="5.34631">
        <ele>576.0497</ele>
        <time>2015-05-02T10:40:45Z</time>
      </trkpt>
      <trkpt lat="45.50672" lon="5.3462">
        <ele>574.98175</ele>
        <time>2015-05-02T10:40:50Z</time>
      </trkpt>
      <trkpt lat="45.50671" lon="5.34608">
        <ele>574.98175</ele>
        <time>2015-05-02T10:40:55Z</time>
      </trkpt>
      <trkpt lat="45.50671" lon="5.34597">
        <ele>573.7677</ele>
        <time>2015-05-02T10:41:00Z</time>
      </trkpt>
      <trkpt lat="45.50672" lon="5.34586">
        <ele>573.7677</ele>
        <time>2015-05-02T10:41:05Z</time>
      </trkpt>
      <trkpt lat="45.50673" lon="5.34575">
        <ele>572.1481</ele>
        <time>2015-05-02T10:41:10Z</time>
      </trkpt>
      <trkpt lat="45.50672" lon="5.34564">
        <ele>572.1481</ele>
        <time>2015-05-02T10:41:15Z</time>
      </trkpt>
      <trkpt lat="45.50673" lon="5.34554">
        <ele>570.27246</ele>
        <time>2015-05-02T10:41:20Z</time>
      </trkpt>
      <trkpt lat="45.50672" lon="5.34541">
        <ele>570.27246</ele>
        <time>2015-05-02T10:41:25Z</time>
      </trkpt>
      <trkpt lat="45.50671" lon="5.34529">
        <ele>568.4531</ele>
        <time>2015-05-02T10:41:30Z</time>
      </trkpt>
      <trkpt lat="45.50668" lon="5.34516">
        <ele>567.0511</ele>
        <time>2015-05-02T10:41:35Z</time>
      </trkpt>
      <trkpt lat="45.50668" lon="5.34506">
        <ele>567.0511</ele>
        <time>2015-05-02T10:41:40Z</time>
      </trkpt>
      <trkpt lat="45.50668" lon="5.34496">
        <ele>565.67914</ele>
        <time>2015-05-02T10:41:45Z</time>
      </trkpt>
      <trkpt lat="45.50664" lon="5.34489">
        <ele>565.67914</ele>
        <time>2015-05-02T10:41:50Z</time>
      </trkpt>
      <trkpt lat="45.50659" lon="5.3448">
        <ele>564.5114</ele>
        <time>2015-05-02T10:41:55Z</time>
      </trkpt>
      <trkpt lat="45.50652" lon="5.34475">
        <ele>564.5114</ele>
        <time>2015-05-02T10:42:00Z</time>
      </trkpt>
      <trkpt lat="45.50644" lon="5.34467">
        <ele>563.4493</ele>
        <time>2015-05-02T10:42:05Z</time>
      </trkpt>
      <trkpt lat="45.5064" lon="5.34463">
        <ele>563.4493</ele>
        <time>2015-05-02T10:42:10Z</time>
      </trkpt>
      <trkpt lat="45.50634" lon="5.34459">
        <ele>562.5018</ele>
        <time>2015-05-02T10:42:15Z</time>
      </trkpt>
      <trkpt lat="45.50629" lon="5.34454">
        <ele>562.5018</ele>
        <time>2015-05-02T10:42:20Z</time>
      </trkpt>
      <trkpt lat="45.50626" lon="5.34449">
        <ele>561.9795</ele>
        <time>2015-05-02T10:42:25Z</time>
      </trkpt>
      <trkpt lat="45.50623" lon="5.34444">
        <ele>561.9795</ele>
        <time>2015-05-02T10:42:30Z</time>
      </trkpt>
      <trkpt lat="45.50618" lon="5.34437">
        <ele>561.67883</ele>
        <time>2015-05-02T10:42:35Z</time>
      </trkpt>
      <trkpt lat="45.50617" lon="5.34434">
        <ele>561.67883</ele>
        <time>2015-05-02T10:42:40Z</time>
      </trkpt>
      <trkpt lat="45.50613" lon="5.34431">
        <ele>561.67883</ele>
        <time>2015-05-02T10:42:45Z</time>
      </trkpt>
      <trkpt lat="45.50613" lon="5.34428">
        <ele>561.03595</ele>
        <time>2015-05-02T10:42:50Z</time>
      </trkpt>
      <trkpt lat="45.50611" lon="5.34416">
        <ele>561.03595</ele>
        <time>2015-05-02T10:42:55Z</time>
      </trkpt>
      <trkpt lat="45.50603" lon="5.34407">
        <ele>559.51465</ele>
        <time>2015-05-02T10:43:00Z</time>
      </trkpt>
      <trkpt lat="45.50595" lon="5.34397">
        <ele>557.2836</ele>
        <time>2015-05-02T10:43:05Z</time>
      </trkpt>
      <trkpt lat="45.5059" lon="5.34388">
        <ele>557.2836</ele>
        <time>2015-05-02T10:43:10Z</time>
      </trkpt>
      <trkpt lat="45.50585" lon="5.34381">
        <ele>554.60175</ele>
        <time>2015-05-02T10:43:15Z</time>
      </trkpt>
      <trkpt lat="45.50583" lon="5.34367">
        <ele>552.17126</ele>
        <time>2015-05-02T10:43:20Z</time>
      </trkpt>
      <trkpt lat="45.50581" lon="5.34347">
        <ele>550.5844</ele>
        <time>2015-05-02T10:43:25Z</time>
      </trkpt>
      <trkpt lat="45.5058" lon="5.34333">
        <ele>549.55164</ele>
        <time>2015-05-02T10:43:30Z</time>
      </trkpt>
      <trkpt lat="45.50577" lon="5.34316">
        <ele>549.50903</ele>
        <time>2015-05-02T10:43:35Z</time>
      </trkpt>
      <trkpt lat="45.50576" lon="5.34304">
        <ele>549.50903</ele>
        <time>2015-05-02T10:43:40Z</time>
      </trkpt>
      <trkpt lat="45.50572" lon="5.3429">
        <ele>550.1949</ele>
        <time>2015-05-02T10:43:45Z</time>
      </trkpt>
      <trkpt lat="45.50571" lon="5.34279">
        <ele>550.1949</ele>
        <time>2015-05-02T10:43:50Z</time>
      </trkpt>
      <trkpt lat="45.50571" lon="5.34276">
        <ele>550.80255</ele>
        <time>2015-05-02T10:43:56Z</time>
      </trkpt>
      <trkpt lat="45.5057" lon="5.34275">
        <ele>550.80255</ele>
        <time>2015-05-02T10:44:01Z</time>
      </trkpt>
      <trkpt lat="45.50569" lon="5.3427">
        <ele>550.80255</ele>
        <time>2015-05-02T10:44:06Z</time>
      </trkpt>
      <trkpt lat="45.50567" lon="5.34262">
        <ele>551.3486</ele>
        <time>2015-05-02T10:44:12Z</time>
      </trkpt>
      <trkpt lat="45.50563" lon="5.34251">
        <ele>551.3486</ele>
        <time>2015-05-02T10:44:15Z</time>
      </trkpt>
      <trkpt lat="45.50562" lon="5.34247">
        <ele>551.9205</ele>
        <time>2015-05-02T10:44:21Z</time>
      </trkpt>
      <trkpt lat="45.50558" lon="5.34239">
        <ele>551.9205</ele>
        <time>2015-05-02T10:44:26Z</time>
      </trkpt>
      <trkpt lat="45.50554" lon="5.3423">
        <ele>552.78656</ele>
        <time>2015-05-02T10:44:30Z</time>
      </trkpt>
      <trkpt lat="45.50552" lon="5.34223">
        <ele>552.78656</ele>
        <time>2015-05-02T10:44:36Z</time>
      </trkpt>
      <trkpt lat="45.50548" lon="5.34212">
        <ele>553.41626</ele>
        <time>2015-05-02T10:44:41Z</time>
      </trkpt>
      <trkpt lat="45.50545" lon="5.34204">
        <ele>553.41626</ele>
        <time>2015-05-02T10:44:46Z</time>
      </trkpt>
      <trkpt lat="45.5054" lon="5.34192">
        <ele>554.1113</ele>
        <time>2015-05-02T10:44:51Z</time>
      </trkpt>
      <trkpt lat="45.50537" lon="5.34183">
        <ele>554.1113</ele>
        <time>2015-05-02T10:44:56Z</time>
      </trkpt>
      <trkpt lat="45.50535" lon="5.34174">
        <ele>554.7477</ele>
        <time>2015-05-02T10:45:01Z</time>
      </trkpt>
      <trkpt lat="45.50531" lon="5.34161">
        <ele>555.4555</ele>
        <time>2015-05-02T10:45:07Z</time>
      </trkpt>
      <trkpt lat="45.50531" lon="5.34151">
        <ele>555.4555</ele>
        <time>2015-05-02T10:45:12Z</time>
      </trkpt>
      <trkpt lat="45.50528" lon="5.34141">
        <ele>555.8075</ele>
        <time>2015-05-02T10:45:17Z</time>
      </trkpt>
      <trkpt lat="45.50525" lon="5.34129">
        <ele>555.8075</ele>
        <time>2015-05-02T10:45:21Z</time>
      </trkpt>
      <trkpt lat="45.50524" lon="5.34121">
        <ele>556.5618</ele>
        <time>2015-05-02T10:45:25Z</time>
      </trkpt>
      <trkpt lat="45.50523" lon="5.34115">
        <ele>556.5618</ele>
        <time>2015-05-02T10:45:30Z</time>
      </trkpt>
      <trkpt lat="45.50519" lon="5.34107">
        <ele>557.2669</ele>
        <time>2015-05-02T10:45:35Z</time>
      </trkpt>
      <trkpt lat="45.50515" lon="5.34097">
        <ele>557.2669</ele>
        <time>2015-05-02T10:45:40Z</time>
      </trkpt>
      <trkpt lat="45.50511" lon="5.34086">
        <ele>557.8359</ele>
        <time>2015-05-02T10:45:45Z</time>
      </trkpt>
      <trkpt lat="45.50509" lon="5.34076">
        <ele>557.8359</ele>
        <time>2015-05-02T10:45:50Z</time>
      </trkpt>
      <trkpt lat="45.50505" lon="5.34066">
        <ele>558.1601</ele>
        <time>2015-05-02T10:45:55Z</time>
      </trkpt>
      <trkpt lat="45.50503" lon="5.34055">
        <ele>558.1601</ele>
        <time>2015-05-02T10:46:00Z</time>
      </trkpt>
      <trkpt lat="45.50499" lon="5.34044">
        <ele>558.4709</ele>
        <time>2015-05-02T10:46:05Z</time>
      </trkpt>
      <trkpt lat="45.50495" lon="5.34033">
        <ele>558.4709</ele>
        <time>2015-05-02T10:46:10Z</time>
      </trkpt>
      <trkpt lat="45.50491" lon="5.34023">
        <ele>558.853</ele>
        <time>2015-05-02T10:46:15Z</time>
      </trkpt>
      <trkpt lat="45.50489" lon="5.34014">
        <ele>558.853</ele>
        <time>2015-05-02T10:46:20Z</time>
      </trkpt>
      <trkpt lat="45.50487" lon="5.34003">
        <ele>558.96716</ele>
        <time>2015-05-02T10:46:25Z</time>
      </trkpt>
      <trkpt lat="45.50484" lon="5.33992">
        <ele>558.96716</ele>
        <time>2015-05-02T10:46:30Z</time>
      </trkpt>
      <trkpt lat="45.50483" lon="5.33982">
        <ele>559.0327</ele>
        <time>2015-05-02T10:46:35Z</time>
      </trkpt>
      <trkpt lat="45.50482" lon="5.33969">
        <ele>559.0327</ele>
        <time>2015-05-02T10:46:40Z</time>
      </trkpt>
      <trkpt lat="45.50481" lon="5.3396">
        <ele>559.0515</ele>
        <time>2015-05-02T10:46:45Z</time>
      </trkpt>
      <trkpt lat="45.50479" lon="5.33949">
        <ele>559.0515</ele>
        <time>2015-05-02T10:46:50Z</time>
      </trkpt>
      <trkpt lat="45.50477" lon="5.33938">
        <ele>559.18396</ele>
        <time>2015-05-02T10:46:55Z</time>
      </trkpt>
      <trkpt lat="45.50474" lon="5.33926">
        <ele>559.18396</ele>
        <time>2015-05-02T10:47:00Z</time>
      </trkpt>
      <trkpt lat="45.50472" lon="5.33914">
        <ele>559.3623</ele>
        <time>2015-05-02T10:47:05Z</time>
      </trkpt>
      <trkpt lat="45.5047" lon="5.33902">
        <ele>559.3623</ele>
        <time>2015-05-02T10:47:10Z</time>
      </trkpt>
      <trkpt lat="45.50469" lon="5.33892">
        <ele>559.59576</ele>
        <time>2015-05-02T10:47:15Z</time>
      </trkpt>
      <trkpt lat="45.50468" lon="5.33882">
        <ele>559.59576</ele>
        <time>2015-05-02T10:47:20Z</time>
      </trkpt>
      <trkpt lat="45.50468" lon="5.3387">
        <ele>559.8351</ele>
        <time>2015-05-02T10:47:25Z</time>
      </trkpt>
      <trkpt lat="45.50465" lon="5.3386">
        <ele>559.8351</ele>
        <time>2015-05-02T10:47:30Z</time>
      </trkpt>
      <trkpt lat="45.50462" lon="5.33846">
        <ele>559.9483</ele>
        <time>2015-05-02T10:47:37Z</time>
      </trkpt>
      <trkpt lat="45.50458" lon="5.33838">
        <ele>559.9483</ele>
        <time>2015-05-02T10:47:42Z</time>
      </trkpt>
      <trkpt lat="45.50456" lon="5.33831">
        <ele>560.1449</ele>
        <time>2015-05-02T10:47:45Z</time>
      </trkpt>
      <trkpt lat="45.50454" lon="5.33824">
        <ele>560.1449</ele>
        <time>2015-05-02T10:47:50Z</time>
      </trkpt>
      <trkpt lat="45.5045" lon="5.33813">
        <ele>560.17224</ele>
        <time>2015-05-02T10:47:55Z</time>
      </trkpt>
      <trkpt lat="45.50446" lon="5.33803">
        <ele>560.17224</ele>
        <time>2015-05-02T10:48:00Z</time>
      </trkpt>
      <trkpt lat="45.50443" lon="5.33793">
        <ele>560.0417</ele>
        <time>2015-05-02T10:48:05Z</time>
      </trkpt>
      <trkpt lat="45.50443" lon="5.33784">
        <ele>560.0417</ele>
        <time>2015-05-02T10:48:10Z</time>
      </trkpt>
      <trkpt lat="45.50442" lon="5.33773">
        <ele>559.18774</ele>
        <time>2015-05-02T10:48:15Z</time>
      </trkpt>
      <trkpt lat="45.50442" lon="5.33761">
        <ele>559.18774</ele>
        <time>2015-05-02T10:48:20Z</time>
      </trkpt>
      <trkpt lat="45.50442" lon="5.33749">
        <ele>558.09753</ele>
        <time>2015-05-02T10:48:25Z</time>
      </trkpt>
      <trkpt lat="45.50444" lon="5.33738">
        <ele>558.09753</ele>
        <time>2015-05-02T10:48:30Z</time>
      </trkpt>
      <trkpt lat="45.50444" lon="5.33727">
        <ele>556.7185</ele>
        <time>2015-05-02T10:48:35Z</time>
      </trkpt>
      <trkpt lat="45.50442" lon="5.33716">
        <ele>556.7185</ele>
        <time>2015-05-02T10:48:40Z</time>
      </trkpt>
      <trkpt lat="45.50442" lon="5.33713">
        <ele>555.5217</ele>
        <time>2015-05-02T10:48:45Z</time>
      </trkpt>
      <trkpt lat="45.50442" lon="5.33703">
        <ele>555.5217</ele>
        <time>2015-05-02T10:48:50Z</time>
      </trkpt>
      <trkpt lat="45.5044" lon="5.33692">
        <ele>554.35236</ele>
        <time>2015-05-02T10:48:55Z</time>
      </trkpt>
      <trkpt lat="45.50439" lon="5.33682">
        <ele>554.35236</ele>
        <time>2015-05-02T10:49:00Z</time>
      </trkpt>
      <trkpt lat="45.50441" lon="5.33675">
        <ele>553.08124</ele>
        <time>2015-05-02T10:49:05Z</time>
      </trkpt>
      <trkpt lat="45.50441" lon="5.33665">
        <ele>553.08124</ele>
        <time>2015-05-02T10:49:10Z</time>
      </trkpt>
      <trkpt lat="45.50441" lon="5.33654">
        <ele>551.344</ele>
        <time>2015-05-02T10:49:15Z</time>
      </trkpt>
      <trkpt lat="45.50439" lon="5.33646">
        <ele>551.344</ele>
        <time>2015-05-02T10:49:20Z</time>
      </trkpt>
      <trkpt lat="45.50437" lon="5.33636">
        <ele>549.6402</ele>
        <time>2015-05-02T10:49:25Z</time>
      </trkpt>
      <trkpt lat="45.50433" lon="5.33624">
        <ele>548.2453</ele>
        <time>2015-05-02T10:49:30Z</time>
      </trkpt>
      <trkpt lat="45.50429" lon="5.33611">
        <ele>546.7074</ele>
        <time>2015-05-02T10:49:35Z</time>
      </trkpt>
      <trkpt lat="45.50426" lon="5.33601">
        <ele>546.7074</ele>
        <time>2015-05-02T10:49:40Z</time>
      </trkpt>
      <trkpt lat="45.50427" lon="5.3359">
        <ele>545.6602</ele>
        <time>2015-05-02T10:49:45Z</time>
      </trkpt>
      <trkpt lat="45.50425" lon="5.3358">
        <ele>545.6602</ele>
        <time>2015-05-02T10:49:50Z</time>
      </trkpt>
      <trkpt lat="45.50423" lon="5.33569">
        <ele>545.01227</ele>
        <time>2015-05-02T10:49:56Z</time>
      </trkpt>
      <trkpt lat="45.50418" lon="5.33554">
        <ele>544.3749</ele>
        <time>2015-05-02T10:50:00Z</time>
      </trkpt>
      <trkpt lat="45.50417" lon="5.33541">
        <ele>543.6617</ele>
        <time>2015-05-02T10:50:07Z</time>
      </trkpt>
      <trkpt lat="45.50413" lon="5.33529">
        <ele>543.2396</ele>
        <time>2015-05-02T10:50:12Z</time>
      </trkpt>
      <trkpt lat="45.5041" lon="5.33517">
        <ele>542.9291</ele>
        <time>2015-05-02T10:50:15Z</time>
      </trkpt>
      <trkpt lat="45.50407" lon="5.33508">
        <ele>542.9291</ele>
        <time>2015-05-02T10:50:21Z</time>
      </trkpt>
      <trkpt lat="45.50402" lon="5.33497">
        <ele>543.3701</ele>
        <time>2015-05-02T10:50:27Z</time>
      </trkpt>
      <trkpt lat="45.50399" lon="5.33487">
        <ele>543.3701</ele>
        <time>2015-05-02T10:50:32Z</time>
      </trkpt>
      <trkpt lat="45.50397" lon="5.33478">
        <ele>543.6262</ele>
        <time>2015-05-02T10:50:36Z</time>
      </trkpt>
      <trkpt lat="45.50393" lon="5.33467">
        <ele>543.6262</ele>
        <time>2015-05-02T10:50:40Z</time>
      </trkpt>
      <trkpt lat="45.50389" lon="5.33455">
        <ele>543.9254</ele>
        <time>2015-05-02T10:50:47Z</time>
      </trkpt>
      <trkpt lat="45.50386" lon="5.33448">
        <ele>543.9254</ele>
        <time>2015-05-02T10:50:52Z</time>
      </trkpt>
      <trkpt lat="45.50384" lon="5.33442">
        <ele>543.84467</ele>
        <time>2015-05-02T10:50:56Z</time>
      </trkpt>
      <trkpt lat="45.5038" lon="5.33431">
        <ele>543.84467</ele>
        <time>2015-05-02T10:51:02Z</time>
      </trkpt>
      <trkpt lat="45.50376" lon="5.33421">
        <ele>543.8289</ele>
        <time>2015-05-02T10:51:07Z</time>
      </trkpt>
      <trkpt lat="45.50371" lon="5.33421">
        <ele>543.8289</ele>
        <time>2015-05-02T10:51:11Z</time>
      </trkpt>
      <trkpt lat="45.50365" lon="5.33428">
        <ele>543.6417</ele>
        <time>2015-05-02T10:51:17Z</time>
      </trkpt>
      <trkpt lat="45.50359" lon="5.33435">
        <ele>543.6417</ele>
        <time>2015-05-02T10:51:21Z</time>
      </trkpt>
      <trkpt lat="45.50352" lon="5.33441">
        <ele>543.41046</ele>
        <time>2015-05-02T10:51:27Z</time>
      </trkpt>
      <trkpt lat="45.50346" lon="5.33445">
        <ele>543.41046</ele>
        <time>2015-05-02T10:51:31Z</time>
      </trkpt>
      <trkpt lat="45.50337" lon="5.33452">
        <ele>543.5558</ele>
        <time>2015-05-02T10:51:37Z</time>
      </trkpt>
      <trkpt lat="45.50331" lon="5.33459">
        <ele>543.5558</ele>
        <time>2015-05-02T10:51:42Z</time>
      </trkpt>
      <trkpt lat="45.50325" lon="5.33465">
        <ele>543.8901</ele>
        <time>2015-05-02T10:51:46Z</time>
      </trkpt>
      <trkpt lat="45.50319" lon="5.33471">
        <ele>543.8901</ele>
        <time>2015-05-02T10:51:51Z</time>
      </trkpt>
      <trkpt lat="45.50312" lon="5.33478">
        <ele>544.4261</ele>
        <time>2015-05-02T10:51:57Z</time>
      </trkpt>
      <trkpt lat="45.50307" lon="5.33484">
        <ele>544.4261</ele>
        <time>2015-05-02T10:52:00Z</time>
      </trkpt>
      <trkpt lat="45.503" lon="5.3349">
        <ele>545.20416</ele>
        <time>2015-05-02T10:52:06Z</time>
      </trkpt>
      <trkpt lat="45.50295" lon="5.33497">
        <ele>545.20416</ele>
        <time>2015-05-02T10:52:12Z</time>
      </trkpt>
      <trkpt lat="45.50287" lon="5.33504">
        <ele>546.0591</ele>
        <time>2015-05-02T10:52:17Z</time>
      </trkpt>
      <trkpt lat="45.5028" lon="5.3351">
        <ele>546.0591</ele>
        <time>2015-05-02T10:52:22Z</time>
      </trkpt>
      <trkpt lat="45.50275" lon="5.33514">
        <ele>547.0683</ele>
        <time>2015-05-02T10:52:26Z</time>
      </trkpt>
      <trkpt lat="45.50266" lon="5.33519">
        <ele>548.01483</ele>
        <time>2015-05-02T10:52:31Z</time>
      </trkpt>
      <trkpt lat="45.50262" lon="5.33521">
        <ele>548.01483</ele>
        <time>2015-05-02T10:52:35Z</time>
      </trkpt>
      <trkpt lat="45.50253" lon="5.33526">
        <ele>549.21674</ele>
        <time>2015-05-02T10:52:42Z</time>
      </trkpt>
      <trkpt lat="45.50247" lon="5.33528">
        <ele>549.21674</ele>
        <time>2015-05-02T10:52:46Z</time>
      </trkpt>
      <trkpt lat="45.50238" lon="5.33532">
        <ele>550.59326</ele>
        <time>2015-05-02T10:52:52Z</time>
      </trkpt>
      <trkpt lat="45.50231" lon="5.33536">
        <ele>550.59326</ele>
        <time>2015-05-02T10:52:57Z</time>
      </trkpt>
      <trkpt lat="45.50224" lon="5.33541">
        <ele>552.02606</ele>
        <time>2015-05-02T10:53:02Z</time>
      </trkpt>
      <trkpt lat="45.50218" lon="5.33546">
        <ele>552.02606</ele>
        <time>2015-05-02T10:53:05Z</time>
      </trkpt>
      <trkpt lat="45.50209" lon="5.33553">
        <ele>553.4053</ele>
        <time>2015-05-02T10:53:13Z</time>
      </trkpt>
      <trkpt lat="45.50205" lon="5.33556">
        <ele>553.4053</ele>
        <time>2015-05-02T10:53:16Z</time>
      </trkpt>
      <trkpt lat="45.50199" lon="5.3356">
        <ele>554.932</ele>
        <time>2015-05-02T10:53:20Z</time>
      </trkpt>
      <trkpt lat="45.50192" lon="5.33561">
        <ele>554.932</ele>
        <time>2015-05-02T10:53:26Z</time>
      </trkpt>
      <trkpt lat="45.50185" lon="5.33553">
        <ele>556.8787</ele>
        <time>2015-05-02T10:53:30Z</time>
      </trkpt>
      <trkpt lat="45.50182" lon="5.33543">
        <ele>556.8787</ele>
        <time>2015-05-02T10:53:36Z</time>
      </trkpt>
      <trkpt lat="45.50182" lon="5.33538">
        <ele>558.3296</ele>
        <time>2015-05-02T10:53:42Z</time>
      </trkpt>
      <trkpt lat="45.5018" lon="5.3353">
        <ele>558.3296</ele>
        <time>2015-05-02T10:53:46Z</time>
      </trkpt>
      <trkpt lat="45.50173" lon="5.33517">
        <ele>559.547</ele>
        <time>2015-05-02T10:53:51Z</time>
      </trkpt>
      <trkpt lat="45.50169" lon="5.33506">
        <ele>559.547</ele>
        <time>2015-05-02T10:53:55Z</time>
      </trkpt>
      <trkpt lat="45.50165" lon="5.33497">
        <ele>560.8759</ele>
        <time>2015-05-02T10:54:02Z</time>
      </trkpt>
      <trkpt lat="45.50162" lon="5.33487">
        <ele>560.8759</ele>
        <time>2015-05-02T10:54:06Z</time>
      </trkpt>
      <trkpt lat="45.50158" lon="5.33478">
        <ele>562.1169</ele>
        <time>2015-05-02T10:54:12Z</time>
      </trkpt>
      <trkpt lat="45.50155" lon="5.3347">
        <ele>562.1169</ele>
        <time>2015-05-02T10:54:17Z</time>
      </trkpt>
      <trkpt lat="45.5015" lon="5.33461">
        <ele>563.3015</ele>
        <time>2015-05-02T10:54:22Z</time>
      </trkpt>
      <trkpt lat="45.50147" lon="5.33453">
        <ele>563.3015</ele>
        <time>2015-05-02T10:54:25Z</time>
      </trkpt>
      <trkpt lat="45.50141" lon="5.33442">
        <ele>564.2723</ele>
        <time>2015-05-02T10:54:32Z</time>
      </trkpt>
      <trkpt lat="45.50136" lon="5.33434">
        <ele>564.2723</ele>
        <time>2015-05-02T10:54:36Z</time>
      </trkpt>
      <trkpt lat="45.50133" lon="5.33427">
        <ele>565.08545</ele>
        <time>2015-05-02T10:54:40Z</time>
      </trkpt>
      <trkpt lat="45.50127" lon="5.33416">
        <ele>565.8659</ele>
        <time>2015-05-02T10:54:46Z</time>
      </trkpt>
      <trkpt lat="45.50125" lon="5.3341">
        <ele>565.8659</ele>
        <time>2015-05-02T10:54:50Z</time>
      </trkpt>
      <trkpt lat="45.5012" lon="5.33401">
        <ele>566.39813</ele>
        <time>2015-05-02T10:54:55Z</time>
      </trkpt>
      <trkpt lat="45.50116" lon="5.33393">
        <ele>566.39813</ele>
        <time>2015-05-02T10:55:00Z</time>
      </trkpt>
      <trkpt lat="45.50112" lon="5.33386">
        <ele>566.52637</ele>
        <time>2015-05-02T10:55:05Z</time>
      </trkpt>
      <trkpt lat="45.50107" lon="5.33378">
        <ele>566.52637</ele>
        <time>2015-05-02T10:55:10Z</time>
      </trkpt>
      <trkpt lat="45.50103" lon="5.33369">
        <ele>566.5687</ele>
        <time>2015-05-02T10:55:15Z</time>
      </trkpt>
      <trkpt lat="45.50098" lon="5.33361">
        <ele>566.5687</ele>
        <time>2015-05-02T10:55:20Z</time>
      </trkpt>
      <trkpt lat="45.50091" lon="5.3335">
        <ele>566.56104</ele>
        <time>2015-05-02T10:55:25Z</time>
      </trkpt>
      <trkpt lat="45.50086" lon="5.33341">
        <ele>566.56104</ele>
        <time>2015-05-02T10:55:30Z</time>
      </trkpt>
      <trkpt lat="45.50081" lon="5.33332">
        <ele>566.2483</ele>
        <time>2015-05-02T10:55:35Z</time>
      </trkpt>
      <trkpt lat="45.50076" lon="5.33323">
        <ele>566.2483</ele>
        <time>2015-05-02T10:55:40Z</time>
      </trkpt>
      <trkpt lat="45.50071" lon="5.33315">
        <ele>565.66907</ele>
        <time>2015-05-02T10:55:45Z</time>
      </trkpt>
      <trkpt lat="45.50066" lon="5.33304">
        <ele>565.66907</ele>
        <time>2015-05-02T10:55:50Z</time>
      </trkpt>
      <trkpt lat="45.50062" lon="5.33294">
        <ele>564.93195</ele>
        <time>2015-05-02T10:55:55Z</time>
      </trkpt>
      <trkpt lat="45.50058" lon="5.33285">
        <ele>564.93195</ele>
        <time>2015-05-02T10:56:00Z</time>
      </trkpt>
      <trkpt lat="45.50056" lon="5.33275">
        <ele>564.0228</ele>
        <time>2015-05-02T10:56:05Z</time>
      </trkpt>
      <trkpt lat="45.50053" lon="5.33266">
        <ele>564.0228</ele>
        <time>2015-05-02T10:56:10Z</time>
      </trkpt>
      <trkpt lat="45.50049" lon="5.33256">
        <ele>563.174</ele>
        <time>2015-05-02T10:56:15Z</time>
      </trkpt>
      <trkpt lat="45.50047" lon="5.33246">
        <ele>563.174</ele>
        <time>2015-05-02T10:56:20Z</time>
      </trkpt>
      <trkpt lat="45.50046" lon="5.33238">
        <ele>562.5286</ele>
        <time>2015-05-02T10:56:25Z</time>
      </trkpt>
      <trkpt lat="45.50042" lon="5.33228">
        <ele>562.5286</ele>
        <time>2015-05-02T10:56:30Z</time>
      </trkpt>
      <trkpt lat="45.50039" lon="5.33217">
        <ele>561.8873</ele>
        <time>2015-05-02T10:56:35Z</time>
      </trkpt>
      <trkpt lat="45.50037" lon="5.33208">
        <ele>561.8873</ele>
        <time>2015-05-02T10:56:40Z</time>
      </trkpt>
      <trkpt lat="45.50035" lon="5.33198">
        <ele>561.4256</ele>
        <time>2015-05-02T10:56:45Z</time>
      </trkpt>
      <trkpt lat="45.50033" lon="5.33186">
        <ele>561.4256</ele>
        <time>2015-05-02T10:56:50Z</time>
      </trkpt>
      <trkpt lat="45.50032" lon="5.33177">
        <ele>561.0173</ele>
        <time>2015-05-02T10:56:55Z</time>
      </trkpt>
      <trkpt lat="45.5003" lon="5.33165">
        <ele>561.0173</ele>
        <time>2015-05-02T10:57:00Z</time>
      </trkpt>
      <trkpt lat="45.50026" lon="5.33154">
        <ele>560.4589</ele>
        <time>2015-05-02T10:57:05Z</time>
      </trkpt>
      <trkpt lat="45.50023" lon="5.33143">
        <ele>560.4589</ele>
        <time>2015-05-02T10:57:10Z</time>
      </trkpt>
      <trkpt lat="45.5002" lon="5.33135">
        <ele>559.80743</ele>
        <time>2015-05-02T10:57:15Z</time>
      </trkpt>
      <trkpt lat="45.50016" lon="5.33125">
        <ele>559.80743</ele>
        <time>2015-05-02T10:57:20Z</time>
      </trkpt>
      <trkpt lat="45.50013" lon="5.33114">
        <ele>559.1878</ele>
        <time>2015-05-02T10:57:25Z</time>
      </trkpt>
      <trkpt lat="45.5001" lon="5.33104">
        <ele>559.1878</ele>
        <time>2015-05-02T10:57:30Z</time>
      </trkpt>
      <trkpt lat="45.50006" lon="5.33094">
        <ele>558.4851</ele>
        <time>2015-05-02T10:57:35Z</time>
      </trkpt>
      <trkpt lat="45.50002" lon="5.33083">
        <ele>558.4851</ele>
        <time>2015-05-02T10:57:40Z</time>
      </trkpt>
      <trkpt lat="45.5" lon="5.33071">
        <ele>557.5931</ele>
        <time>2015-05-02T10:57:46Z</time>
      </trkpt>
      <trkpt lat="45.49996" lon="5.3306">
        <ele>557.5931</ele>
        <time>2015-05-02T10:57:52Z</time>
      </trkpt>
      <trkpt lat="45.49993" lon="5.33049">
        <ele>556.74524</ele>
        <time>2015-05-02T10:57:57Z</time>
      </trkpt>
      <trkpt lat="45.49991" lon="5.33038">
        <ele>556.74524</ele>
        <time>2015-05-02T10:58:02Z</time>
      </trkpt>
      <trkpt lat="45.49988" lon="5.33029">
        <ele>555.783</ele>
        <time>2015-05-02T10:58:07Z</time>
      </trkpt>
      <trkpt lat="45.49985" lon="5.33018">
        <ele>555.783</ele>
        <time>2015-05-02T10:58:12Z</time>
      </trkpt>
      <trkpt lat="45.49983" lon="5.33011">
        <ele>554.8337</ele>
        <time>2015-05-02T10:58:16Z</time>
      </trkpt>
      <trkpt lat="45.4998" lon="5.32997">
        <ele>553.84204</ele>
        <time>2015-05-02T10:58:22Z</time>
      </trkpt>
      <trkpt lat="45.49977" lon="5.32988">
        <ele>553.84204</ele>
        <time>2015-05-02T10:58:27Z</time>
      </trkpt>
      <trkpt lat="45.49973" lon="5.32977">
        <ele>553.04517</ele>
        <time>2015-05-02T10:58:32Z</time>
      </trkpt>
      <trkpt lat="45.49971" lon="5.3297">
        <ele>553.04517</ele>
        <time>2015-05-02T10:58:35Z</time>
      </trkpt>
      <trkpt lat="45.49968" lon="5.32959">
        <ele>552.4605</ele>
        <time>2015-05-02T10:58:40Z</time>
      </trkpt>
      <trkpt lat="45.49965" lon="5.32946">
        <ele>551.82965</ele>
        <time>2015-05-02T10:58:47Z</time>
      </trkpt>
      <trkpt lat="45.49962" lon="5.32936">
        <ele>551.82965</ele>
        <time>2015-05-02T10:58:52Z</time>
      </trkpt>
      <trkpt lat="45.49955" lon="5.3293">
        <ele>551.4032</ele>
        <time>2015-05-02T10:58:57Z</time>
      </trkpt>
      <trkpt lat="45.49948" lon="5.32927">
        <ele>551.4032</ele>
        <time>2015-05-02T10:59:02Z</time>
      </trkpt>
      <trkpt lat="45.49941" lon="5.32923">
        <ele>551.38385</ele>
        <time>2015-05-02T10:59:06Z</time>
      </trkpt>
      <trkpt lat="45.49935" lon="5.32919">
        <ele>551.38385</ele>
        <time>2015-05-02T10:59:11Z</time>
      </trkpt>
      <trkpt lat="45.49926" lon="5.32916">
        <ele>551.49713</ele>
        <time>2015-05-02T10:59:17Z</time>
      </trkpt>
      <trkpt lat="45.49918" lon="5.32913">
        <ele>551.49713</ele>
        <time>2015-05-02T10:59:22Z</time>
      </trkpt>
      <trkpt lat="45.49911" lon="5.32909">
        <ele>551.67554</ele>
        <time>2015-05-02T10:59:27Z</time>
      </trkpt>
      <trkpt lat="45.49904" lon="5.32905">
        <ele>551.67554</ele>
        <time>2015-05-02T10:59:32Z</time>
      </trkpt>
      <trkpt lat="45.49896" lon="5.32902">
        <ele>552.1014</ele>
        <time>2015-05-02T10:59:36Z</time>
      </trkpt>
      <trkpt lat="45.49891" lon="5.329">
        <ele>552.1014</ele>
        <time>2015-05-02T10:59:40Z</time>
      </trkpt>
      <trkpt lat="45.49885" lon="5.32898">
        <ele>552.46704</ele>
        <time>2015-05-02T10:59:46Z</time>
      </trkpt>
      <trkpt lat="45.49878" lon="5.32897">
        <ele>552.46704</ele>
        <time>2015-05-02T10:59:52Z</time>
      </trkpt>
      <trkpt lat="45.49873" lon="5.32895">
        <ele>552.93463</ele>
        <time>2015-05-02T10:59:55Z</time>
      </trkpt>
      <trkpt lat="45.49868" lon="5.32891">
        <ele>552.93463</ele>
        <time>2015-05-02T11:00:02Z</time>
      </trkpt>
      <trkpt lat="45.49861" lon="5.3289">
        <ele>552.9477</ele>
        <time>2015-05-02T11:00:06Z</time>
      </trkpt>
      <trkpt lat="45.49855" lon="5.32886">
        <ele>552.9477</ele>
        <time>2015-05-02T11:00:10Z</time>
      </trkpt>
      <trkpt lat="45.4985" lon="5.32888">
        <ele>553.34656</ele>
        <time>2015-05-02T11:00:15Z</time>
      </trkpt>
      <trkpt lat="45.49843" lon="5.32886">
        <ele>553.34656</ele>
        <time>2015-05-02T11:00:20Z</time>
      </trkpt>
      <trkpt lat="45.49834" lon="5.32886">
        <ele>553.79913</ele>
        <time>2015-05-02T11:00:25Z</time>
      </trkpt>
      <trkpt lat="45.49823" lon="5.32884">
        <ele>554.5163</ele>
        <time>2015-05-02T11:00:30Z</time>
      </trkpt>
      <trkpt lat="45.49813" lon="5.32882">
        <ele>555.4476</ele>
        <time>2015-05-02T11:00:35Z</time>
      </trkpt>
      <trkpt lat="45.49804" lon="5.32876">
        <ele>556.38727</ele>
        <time>2015-05-02T11:00:40Z</time>
      </trkpt>
      <trkpt lat="45.49796" lon="5.32873">
        <ele>556.38727</ele>
        <time>2015-05-02T11:00:45Z</time>
      </trkpt>
      <trkpt lat="45.49784" lon="5.32864">
        <ele>557.02936</ele>
        <time>2015-05-02T11:00:50Z</time>
      </trkpt>
      <trkpt lat="45.49762" lon="5.32847">
        <ele>557.55225</ele>
        <time>2015-05-02T11:00:55Z</time>
      </trkpt>
      <trkpt lat="45.49737" lon="5.32827">
        <ele>558.0784</ele>
        <time>2015-05-02T11:01:00Z</time>
      </trkpt>
      <trkpt lat="45.49711" lon="5.32811">
        <ele>558.41876</ele>
        <time>2015-05-02T11:01:05Z</time>
      </trkpt>
      <trkpt lat="45.49681" lon="5.32805">
        <ele>558.7443</ele>
        <time>2015-05-02T11:01:10Z</time>
      </trkpt>
      <trkpt lat="45.49652" lon="5.32801">
        <ele>559.113</ele>
        <time>2015-05-02T11:01:15Z</time>
      </trkpt>
      <trkpt lat="45.49639" lon="5.32798">
        <ele>559.578</ele>
        <time>2015-05-02T11:01:20Z</time>
      </trkpt>
      <trkpt lat="45.49631" lon="5.32795">
        <ele>559.578</ele>
        <time>2015-05-02T11:01:25Z</time>
      </trkpt>
      <trkpt lat="45.49624" lon="5.32792">
        <ele>559.97253</ele>
        <time>2015-05-02T11:01:30Z</time>
      </trkpt>
      <trkpt lat="45.49617" lon="5.32788">
        <ele>559.97253</ele>
        <time>2015-05-02T11:01:35Z</time>
      </trkpt>
      <trkpt lat="45.4961" lon="5.32786">
        <ele>560.44476</ele>
        <time>2015-05-02T11:01:40Z</time>
      </trkpt>
      <trkpt lat="45.49603" lon="5.32783">
        <ele>560.44476</ele>
        <time>2015-05-02T11:01:45Z</time>
      </trkpt>
      <trkpt lat="45.49595" lon="5.32782">
        <ele>560.7571</ele>
        <time>2015-05-02T11:01:50Z</time>
      </trkpt>
      <trkpt lat="45.49589" lon="5.32779">
        <ele>560.7571</ele>
        <time>2015-05-02T11:01:55Z</time>
      </trkpt>
      <trkpt lat="45.49584" lon="5.32777">
        <ele>560.7907</ele>
        <time>2015-05-02T11:02:00Z</time>
      </trkpt>
      <trkpt lat="45.4958" lon="5.32774">
        <ele>560.7907</ele>
        <time>2015-05-02T11:02:05Z</time>
      </trkpt>
      <trkpt lat="45.49575" lon="5.32771">
        <ele>560.4653</ele>
        <time>2015-05-02T11:02:10Z</time>
      </trkpt>
      <trkpt lat="45.49566" lon="5.32764">
        <ele>560.2549</ele>
        <time>2015-05-02T11:02:17Z</time>
      </trkpt>
      <trkpt lat="45.49561" lon="5.32761">
        <ele>560.2549</ele>
        <time>2015-05-02T11:02:21Z</time>
      </trkpt>
      <trkpt lat="45.49553" lon="5.32754">
        <ele>560.2527</ele>
        <time>2015-05-02T11:02:27Z</time>
      </trkpt>
      <trkpt lat="45.49547" lon="5.3275">
        <ele>560.2527</ele>
        <time>2015-05-02T11:02:32Z</time>
      </trkpt>
      <trkpt lat="45.4954" lon="5.32747">
        <ele>560.2706</ele>
        <time>2015-05-02T11:02:37Z</time>
      </trkpt>
      <trkpt lat="45.49535" lon="5.32744">
        <ele>560.2706</ele>
        <time>2015-05-02T11:02:40Z</time>
      </trkpt>
      <trkpt lat="45.49527" lon="5.32741">
        <ele>560.26404</ele>
        <time>2015-05-02T11:02:45Z</time>
      </trkpt>
      <trkpt lat="45.49518" lon="5.32741">
        <ele>560.26404</ele>
        <time>2015-05-02T11:02:51Z</time>
      </trkpt>
      <trkpt lat="45.49511" lon="5.32741">
        <ele>560.63855</ele>
        <time>2015-05-02T11:02:56Z</time>
      </trkpt>
      <trkpt lat="45.49502" lon="5.3274">
        <ele>561.3652</ele>
        <time>2015-05-02T11:03:02Z</time>
      </trkpt>
      <trkpt lat="45.49495" lon="5.3274">
        <ele>561.3652</ele>
        <time>2015-05-02T11:03:05Z</time>
      </trkpt>
      <trkpt lat="45.49485" lon="5.32738">
        <ele>562.45953</ele>
        <time>2015-05-02T11:03:11Z</time>
      </trkpt>
      <trkpt lat="45.49478" lon="5.32735">
        <ele>562.45953</ele>
        <time>2015-05-02T11:03:17Z</time>
      </trkpt>
      <trkpt lat="45.49472" lon="5.32733">
        <ele>563.9062</ele>
        <time>2015-05-02T11:03:20Z</time>
      </trkpt>
      <trkpt lat="45.49462" lon="5.32729">
        <ele>565.47363</ele>
        <time>2015-05-02T11:03:26Z</time>
      </trkpt>
      <trkpt lat="45.49457" lon="5.32727">
        <ele>565.47363</ele>
        <time>2015-05-02T11:03:30Z</time>
      </trkpt>
      <trkpt lat="45.49451" lon="5.32722">
        <ele>566.976</ele>
        <time>2015-05-02T11:03:35Z</time>
      </trkpt>
      <trkpt lat="45.49443" lon="5.3272">
        <ele>566.976</ele>
        <time>2015-05-02T11:03:40Z</time>
      </trkpt>
      <trkpt lat="45.49435" lon="5.32716">
        <ele>568.18365</ele>
        <time>2015-05-02T11:03:45Z</time>
      </trkpt>
      <trkpt lat="45.49428" lon="5.32713">
        <ele>568.18365</ele>
        <time>2015-05-02T11:03:50Z</time>
      </trkpt>
      <trkpt lat="45.4942" lon="5.32709">
        <ele>568.82697</ele>
        <time>2015-05-02T11:03:55Z</time>
      </trkpt>
      <trkpt lat="45.49415" lon="5.32706">
        <ele>568.82697</ele>
        <time>2015-05-02T11:04:00Z</time>
      </trkpt>
      <trkpt lat="45.49409" lon="5.32704">
        <ele>569.45044</ele>
        <time>2015-05-02T11:04:05Z</time>
      </trkpt>
      <trkpt lat="45.49403" lon="5.327">
        <ele>569.45044</ele>
        <time>2015-05-02T11:04:10Z</time>
      </trkpt>
      <trkpt lat="45.49396" lon="5.32695">
        <ele>570.21277</ele>
        <time>2015-05-02T11:04:15Z</time>
      </trkpt>
      <trkpt lat="45.4939" lon="5.32689">
        <ele>570.21277</ele>
        <time>2015-05-02T11:04:20Z</time>
      </trkpt>
      <trkpt lat="45.49384" lon="5.32684">
        <ele>571.36163</ele>
        <time>2015-05-02T11:04:25Z</time>
      </trkpt>
      <trkpt lat="45.4938" lon="5.32679">
        <ele>571.36163</ele>
        <time>2015-05-02T11:04:30Z</time>
      </trkpt>
      <trkpt lat="45.49375" lon="5.32675">
        <ele>572.17426</ele>
        <time>2015-05-02T11:04:35Z</time>
      </trkpt>
      <trkpt lat="45.49369" lon="5.32669">
        <ele>572.17426</ele>
        <time>2015-05-02T11:04:40Z</time>
      </trkpt>
      <trkpt lat="45.49364" lon="5.32662">
        <ele>572.88995</ele>
        <time>2015-05-02T11:04:45Z</time>
      </trkpt>
      <trkpt lat="45.49358" lon="5.32655">
        <ele>572.88995</ele>
        <time>2015-05-02T11:04:50Z</time>
      </trkpt>
      <trkpt lat="45.49355" lon="5.32651">
        <ele>573.74506</ele>
        <time>2015-05-02T11:04:55Z</time>
      </trkpt>
      <trkpt lat="45.4935" lon="5.32645">
        <ele>573.74506</ele>
        <time>2015-05-02T11:05:00Z</time>
      </trkpt>
      <trkpt lat="45.49344" lon="5.32641">
        <ele>574.39636</ele>
        <time>2015-05-02T11:05:05Z</time>
      </trkpt>
      <trkpt lat="45.49336" lon="5.32632">
        <ele>575.16046</ele>
        <time>2015-05-02T11:05:10Z</time>
      </trkpt>
      <trkpt lat="45.49328" lon="5.32625">
        <ele>576.1287</ele>
        <time>2015-05-02T11:05:15Z</time>
      </trkpt>
      <trkpt lat="45.4932" lon="5.32619">
        <ele>576.1287</ele>
        <time>2015-05-02T11:05:20Z</time>
      </trkpt>
      <trkpt lat="45.49314" lon="5.32613">
        <ele>577.37085</ele>
        <time>2015-05-02T11:05:25Z</time>
      </trkpt>
      <trkpt lat="45.49307" lon="5.32609">
        <ele>577.37085</ele>
        <time>2015-05-02T11:05:30Z</time>
      </trkpt>
      <trkpt lat="45.493" lon="5.32608">
        <ele>577.9132</ele>
        <time>2015-05-02T11:05:35Z</time>
      </trkpt>
      <trkpt lat="45.49293" lon="5.32603">
        <ele>577.9132</ele>
        <time>2015-05-02T11:05:40Z</time>
      </trkpt>
      <trkpt lat="45.49285" lon="5.32596">
        <ele>578.71466</ele>
        <time>2015-05-02T11:05:45Z</time>
      </trkpt>
      <trkpt lat="45.49277" lon="5.32592">
        <ele>579.6974</ele>
        <time>2015-05-02T11:05:50Z</time>
      </trkpt>
      <trkpt lat="45.4927" lon="5.32588">
        <ele>579.6974</ele>
        <time>2015-05-02T11:05:55Z</time>
      </trkpt>
      <trkpt lat="45.49264" lon="5.32586">
        <ele>580.47186</ele>
        <time>2015-05-02T11:06:00Z</time>
      </trkpt>
      <trkpt lat="45.49257" lon="5.32582">
        <ele>580.47186</ele>
        <time>2015-05-02T11:06:05Z</time>
      </trkpt>
      <trkpt lat="45.49249" lon="5.32578">
        <ele>581.29755</ele>
        <time>2015-05-02T11:06:10Z</time>
      </trkpt>
      <trkpt lat="45.49241" lon="5.32574">
        <ele>581.29755</ele>
        <time>2015-05-02T11:06:15Z</time>
      </trkpt>
      <trkpt lat="45.49233" lon="5.32569">
        <ele>582.57306</ele>
        <time>2015-05-02T11:06:20Z</time>
      </trkpt>
      <trkpt lat="45.49227" lon="5.32563">
        <ele>582.57306</ele>
        <time>2015-05-02T11:06:25Z</time>
      </trkpt>
      <trkpt lat="45.4922" lon="5.32558">
        <ele>583.658</ele>
        <time>2015-05-02T11:06:30Z</time>
      </trkpt>
      <trkpt lat="45.49214" lon="5.32555">
        <ele>583.658</ele>
        <time>2015-05-02T11:06:35Z</time>
      </trkpt>
      <trkpt lat="45.49209" lon="5.32562">
        <ele>584.46387</ele>
        <time>2015-05-02T11:06:40Z</time>
      </trkpt>
      <trkpt lat="45.49202" lon="5.32569">
        <ele>584.46387</ele>
        <time>2015-05-02T11:06:45Z</time>
      </trkpt>
      <trkpt lat="45.49196" lon="5.32575">
        <ele>584.9239</ele>
        <time>2015-05-02T11:06:50Z</time>
      </trkpt>
      <trkpt lat="45.4919" lon="5.32581">
        <ele>584.9239</ele>
        <time>2015-05-02T11:06:55Z</time>
      </trkpt>
      <trkpt lat="45.49183" lon="5.32587">
        <ele>585.15027</ele>
        <time>2015-05-02T11:07:00Z</time>
      </trkpt>
      <trkpt lat="45.49178" lon="5.32592">
        <ele>585.15027</ele>
        <time>2015-05-02T11:07:05Z</time>
      </trkpt>
      <trkpt lat="45.49172" lon="5.32597">
        <ele>585.1034</ele>
        <time>2015-05-02T11:07:10Z</time>
      </trkpt>
      <trkpt lat="45.49165" lon="5.32603">
        <ele>585.1034</ele>
        <time>2015-05-02T11:07:15Z</time>
      </trkpt>
      <trkpt lat="45.49159" lon="5.32611">
        <ele>585.15106</ele>
        <time>2015-05-02T11:07:20Z</time>
      </trkpt>
      <trkpt lat="45.49152" lon="5.32616">
        <ele>585.15106</ele>
        <time>2015-05-02T11:07:25Z</time>
      </trkpt>
      <trkpt lat="45.49147" lon="5.32621">
        <ele>584.97076</ele>
        <time>2015-05-02T11:07:31Z</time>
      </trkpt>
      <trkpt lat="45.4914" lon="5.32628">
        <ele>584.97076</ele>
        <time>2015-05-02T11:07:37Z</time>
      </trkpt>
      <trkpt lat="45.49134" lon="5.32634">
        <ele>585.18677</ele>
        <time>2015-05-02T11:07:42Z</time>
      </trkpt>
      <trkpt lat="45.49129" lon="5.3264">
        <ele>585.18677</ele>
        <time>2015-05-02T11:07:45Z</time>
      </trkpt>
      <trkpt lat="45.49123" lon="5.32646">
        <ele>585.8287</ele>
        <time>2015-05-02T11:07:50Z</time>
      </trkpt>
      <trkpt lat="45.49116" lon="5.32654">
        <ele>586.57697</ele>
        <time>2015-05-02T11:07:55Z</time>
      </trkpt>
      <trkpt lat="45.49111" lon="5.32658">
        <ele>586.57697</ele>
        <time>2015-05-02T11:08:01Z</time>
      </trkpt>
      <trkpt lat="45.49104" lon="5.32665">
        <ele>587.09204</ele>
        <time>2015-05-02T11:08:07Z</time>
      </trkpt>
      <trkpt lat="45.49099" lon="5.32669">
        <ele>587.09204</ele>
        <time>2015-05-02T11:08:12Z</time>
      </trkpt>
      <trkpt lat="45.49094" lon="5.32673">
        <ele>587.52094</ele>
        <time>2015-05-02T11:08:17Z</time>
      </trkpt>
      <trkpt lat="45.49087" lon="5.32679">
        <ele>587.52094</ele>
        <time>2015-05-02T11:08:20Z</time>
      </trkpt>
      <trkpt lat="45.49081" lon="5.32684">
        <ele>587.97156</ele>
        <time>2015-05-02T11:08:27Z</time>
      </trkpt>
      <trkpt lat="45.49074" lon="5.32688">
        <ele>587.97156</ele>
        <time>2015-05-02T11:08:31Z</time>
      </trkpt>
      <trkpt lat="45.49067" lon="5.32687">
        <ele>588.2555</ele>
        <time>2015-05-02T11:08:37Z</time>
      </trkpt>
      <trkpt lat="45.49064" lon="5.32684">
        <ele>588.2555</ele>
        <time>2015-05-02T11:08:41Z</time>
      </trkpt>
      <trkpt lat="45.4906" lon="5.32679">
        <ele>588.53</ele>
        <time>2015-05-02T11:08:45Z</time>
      </trkpt>
      <trkpt lat="45.49054" lon="5.32672">
        <ele>588.53</ele>
        <time>2015-05-02T11:08:50Z</time>
      </trkpt>
      <trkpt lat="45.4905" lon="5.32662">
        <ele>589.3445</ele>
        <time>2015-05-02T11:08:55Z</time>
      </trkpt>
      <trkpt lat="45.49046" lon="5.32655">
        <ele>589.3445</ele>
        <time>2015-05-02T11:09:00Z</time>
      </trkpt>
      <trkpt lat="45.49042" lon="5.32649">
        <ele>590.87494</ele>
        <time>2015-05-02T11:09:05Z</time>
      </trkpt>
      <trkpt lat="45.49038" lon="5.3264">
        <ele>590.87494</ele>
        <time>2015-05-02T11:09:10Z</time>
      </trkpt>
      <trkpt lat="45.49033" lon="5.32633">
        <ele>592.1728</ele>
        <time>2015-05-02T11:09:15Z</time>
      </trkpt>
      <trkpt lat="45.49024" lon="5.32619">
        <ele>593.68567</ele>
        <time>2015-05-02T11:09:20Z</time>
      </trkpt>
      <trkpt lat="45.49012" lon="5.32594">
        <ele>594.24243</ele>
        <time>2015-05-02T11:09:25Z</time>
      </trkpt>
      <trkpt lat="45.49" lon="5.32576">
        <ele>594.07214</ele>
        <time>2015-05-02T11:09:30Z</time>
      </trkpt>
      <trkpt lat="45.48992" lon="5.32563">
        <ele>594.13837</ele>
        <time>2015-05-02T11:09:35Z</time>
      </trkpt>
      <trkpt lat="45.48984" lon="5.3255">
        <ele>594.39667</ele>
        <time>2015-05-02T11:09:40Z</time>
      </trkpt>
      <trkpt lat="45.48978" lon="5.3254">
        <ele>594.56024</ele>
        <time>2015-05-02T11:09:45Z</time>
      </trkpt>
      <trkpt lat="45.4898" lon="5.3254">
        <ele>594.56024</ele>
        <time>2015-05-02T11:09:50Z</time>
      </trkpt>
      <trkpt lat="45.48977" lon="5.32535">
        <ele>594.56024</ele>
        <time>2015-05-02T11:09:55Z</time>
      </trkpt>
      <trkpt lat="45.48959" lon="5.32507">
        <ele>594.43567</ele>
        <time>2015-05-02T11:10:00Z</time>
      </trkpt>
      <trkpt lat="45.4894" lon="5.32482">
        <ele>594.2193</ele>
        <time>2015-05-02T11:10:05Z</time>
      </trkpt>
      <trkpt lat="45.48924" lon="5.32457">
        <ele>593.84827</ele>
        <time>2015-05-02T11:10:10Z</time>
      </trkpt>
      <trkpt lat="45.48908" lon="5.32428">
        <ele>593.3224</ele>
        <time>2015-05-02T11:10:15Z</time>
      </trkpt>
      <trkpt lat="45.48893" lon="5.32396">
        <ele>592.5842</ele>
        <time>2015-05-02T11:10:20Z</time>
      </trkpt>
      <trkpt lat="45.48878" lon="5.32367">
        <ele>591.86945</ele>
        <time>2015-05-02T11:10:25Z</time>
      </trkpt>
      <trkpt lat="45.48865" lon="5.32338">
        <ele>591.0647</ele>
        <time>2015-05-02T11:10:30Z</time>
      </trkpt>
      <trkpt lat="45.48864" lon="5.32322">
        <ele>590.3535</ele>
        <time>2015-05-02T11:10:35Z</time>
      </trkpt>
      <trkpt lat="45.48869" lon="5.32312">
        <ele>590.3535</ele>
        <time>2015-05-02T11:10:40Z</time>
      </trkpt>
      <trkpt lat="45.48873" lon="5.32304">
        <ele>589.8047</ele>
        <time>2015-05-02T11:10:45Z</time>
      </trkpt>
      <trkpt lat="45.48878" lon="5.32296">
        <ele>589.8047</ele>
        <time>2015-05-02T11:10:50Z</time>
      </trkpt>
      <trkpt lat="45.48881" lon="5.3229">
        <ele>589.26526</ele>
        <time>2015-05-02T11:10:56Z</time>
      </trkpt>
      <trkpt lat="45.48878" lon="5.32282">
        <ele>589.26526</ele>
        <time>2015-05-02T11:11:01Z</time>
      </trkpt>
      <trkpt lat="45.4887" lon="5.32283">
        <ele>588.62225</ele>
        <time>2015-05-02T11:11:05Z</time>
      </trkpt>
      <trkpt lat="45.48863" lon="5.32283">
        <ele>588.62225</ele>
        <time>2015-05-02T11:11:10Z</time>
      </trkpt>
      <trkpt lat="45.48855" lon="5.32281">
        <ele>588.1171</ele>
        <time>2015-05-02T11:11:15Z</time>
      </trkpt>
      <trkpt lat="45.48848" lon="5.32276">
        <ele>588.1171</ele>
        <time>2015-05-02T11:11:20Z</time>
      </trkpt>
      <trkpt lat="45.4884" lon="5.32268">
        <ele>587.48303</ele>
        <time>2015-05-02T11:11:25Z</time>
      </trkpt>
      <trkpt lat="45.48836" lon="5.32257">
        <ele>587.48303</ele>
        <time>2015-05-02T11:11:30Z</time>
      </trkpt>
      <trkpt lat="45.48831" lon="5.32246">
        <ele>586.93427</ele>
        <time>2015-05-02T11:11:35Z</time>
      </trkpt>
      <trkpt lat="45.48827" lon="5.32236">
        <ele>586.93427</ele>
        <time>2015-05-02T11:11:40Z</time>
      </trkpt>
      <trkpt lat="45.48824" lon="5.32226">
        <ele>586.5105</ele>
        <time>2015-05-02T11:11:45Z</time>
      </trkpt>
      <trkpt lat="45.48821" lon="5.32215">
        <ele>586.5105</ele>
        <time>2015-05-02T11:11:50Z</time>
      </trkpt>
      <trkpt lat="45.48818" lon="5.32204">
        <ele>586.2193</ele>
        <time>2015-05-02T11:11:55Z</time>
      </trkpt>
      <trkpt lat="45.48815" lon="5.32193">
        <ele>586.2193</ele>
        <time>2015-05-02T11:12:00Z</time>
      </trkpt>
      <trkpt lat="45.48813" lon="5.3218">
        <ele>585.7933</ele>
        <time>2015-05-02T11:12:05Z</time>
      </trkpt>
      <trkpt lat="45.4881" lon="5.32169">
        <ele>585.7933</ele>
        <time>2015-05-02T11:12:10Z</time>
      </trkpt>
      <trkpt lat="45.48808" lon="5.32158">
        <ele>585.33093</ele>
        <time>2015-05-02T11:12:15Z</time>
      </trkpt>
      <trkpt lat="45.48806" lon="5.32147">
        <ele>585.33093</ele>
        <time>2015-05-02T11:12:20Z</time>
      </trkpt>
      <trkpt lat="45.48804" lon="5.32136">
        <ele>584.86597</ele>
        <time>2015-05-02T11:12:25Z</time>
      </trkpt>
      <trkpt lat="45.48801" lon="5.32125">
        <ele>584.86597</ele>
        <time>2015-05-02T11:12:30Z</time>
      </trkpt>
      <trkpt lat="45.48799" lon="5.32114">
        <ele>584.2853</ele>
        <time>2015-05-02T11:12:35Z</time>
      </trkpt>
      <trkpt lat="45.48797" lon="5.32104">
        <ele>584.2853</ele>
        <time>2015-05-02T11:12:40Z</time>
      </trkpt>
      <trkpt lat="45.48796" lon="5.32093">
        <ele>583.55646</ele>
        <time>2015-05-02T11:12:45Z</time>
      </trkpt>
      <trkpt lat="45.48793" lon="5.32083">
        <ele>583.55646</ele>
        <time>2015-05-02T11:12:50Z</time>
      </trkpt>
      <trkpt lat="45.48791" lon="5.32073">
        <ele>582.7362</ele>
        <time>2015-05-02T11:12:55Z</time>
      </trkpt>
      <trkpt lat="45.48789" lon="5.32062">
        <ele>582.7362</ele>
        <time>2015-05-02T11:13:00Z</time>
      </trkpt>
      <trkpt lat="45.48787" lon="5.3205">
        <ele>581.9062</ele>
        <time>2015-05-02T11:13:05Z</time>
      </trkpt>
      <trkpt lat="45.48783" lon="5.32038">
        <ele>581.1418</ele>
        <time>2015-05-02T11:13:12Z</time>
      </trkpt>
      <trkpt lat="45.4878" lon="5.32027">
        <ele>581.1418</ele>
        <time>2015-05-02T11:13:17Z</time>
      </trkpt>
      <trkpt lat="45.48777" lon="5.32016">
        <ele>580.3831</ele>
        <time>2015-05-02T11:13:22Z</time>
      </trkpt>
      <trkpt lat="45.48774" lon="5.32006">
        <ele>580.3831</ele>
        <time>2015-05-02T11:13:27Z</time>
      </trkpt>
      <trkpt lat="45.48772" lon="5.31996">
        <ele>579.67535</ele>
        <time>2015-05-02T11:13:31Z</time>
      </trkpt>
      <trkpt lat="45.48769" lon="5.31986">
        <ele>579.67535</ele>
        <time>2015-05-02T11:13:35Z</time>
      </trkpt>
      <trkpt lat="45.48766" lon="5.31976">
        <ele>579.0024</ele>
        <time>2015-05-02T11:13:42Z</time>
      </trkpt>
      <trkpt lat="45.48764" lon="5.31968">
        <ele>579.0024</ele>
        <time>2015-05-02T11:13:46Z</time>
      </trkpt>
      <trkpt lat="45.48761" lon="5.31955">
        <ele>578.46454</ele>
        <time>2015-05-02T11:13:52Z</time>
      </trkpt>
      <trkpt lat="45.48759" lon="5.31945">
        <ele>578.46454</ele>
        <time>2015-05-02T11:13:55Z</time>
      </trkpt>
      <trkpt lat="45.48756" lon="5.31937">
        <ele>578.18304</ele>
        <time>2015-05-02T11:14:02Z</time>
      </trkpt>
      <trkpt lat="45.48753" lon="5.31928">
        <ele>578.18304</ele>
        <time>2015-05-02T11:14:06Z</time>
      </trkpt>
      <trkpt lat="45.48751" lon="5.31914">
        <ele>577.7939</ele>
        <time>2015-05-02T11:14:12Z</time>
      </trkpt>
      <trkpt lat="45.48748" lon="5.31903">
        <ele>577.7939</ele>
        <time>2015-05-02T11:14:16Z</time>
      </trkpt>
      <trkpt lat="45.48746" lon="5.31895">
        <ele>577.4211</ele>
        <time>2015-05-02T11:14:21Z</time>
      </trkpt>
      <trkpt lat="45.48743" lon="5.31882">
        <ele>577.06433</ele>
        <time>2015-05-02T11:14:27Z</time>
      </trkpt>
      <trkpt lat="45.48741" lon="5.31871">
        <ele>577.06433</ele>
        <time>2015-05-02T11:14:31Z</time>
      </trkpt>
      <trkpt lat="45.48738" lon="5.31863">
        <ele>576.78064</ele>
        <time>2015-05-02T11:14:36Z</time>
      </trkpt>
      <trkpt lat="45.48735" lon="5.3185">
        <ele>576.5506</ele>
        <time>2015-05-02T11:14:41Z</time>
      </trkpt>
      <trkpt lat="45.48732" lon="5.31841">
        <ele>576.5506</ele>
        <time>2015-05-02T11:14:47Z</time>
      </trkpt>
      <trkpt lat="45.48731" lon="5.31832">
        <ele>576.6154</ele>
        <time>2015-05-02T11:14:50Z</time>
      </trkpt>
      <trkpt lat="45.48729" lon="5.31824">
        <ele>576.6154</ele>
        <time>2015-05-02T11:14:55Z</time>
      </trkpt>
      <trkpt lat="45.48726" lon="5.31813">
        <ele>576.67896</ele>
        <time>2015-05-02T11:15:00Z</time>
      </trkpt>
      <trkpt lat="45.48725" lon="5.31803">
        <ele>576.67896</ele>
        <time>2015-05-02T11:15:05Z</time>
      </trkpt>
      <trkpt lat="45.48721" lon="5.31792">
        <ele>576.7981</ele>
        <time>2015-05-02T11:15:12Z</time>
      </trkpt>
      <trkpt lat="45.48718" lon="5.31782">
        <ele>576.7981</ele>
        <time>2015-05-02T11:15:17Z</time>
      </trkpt>
      <trkpt lat="45.48717" lon="5.3177">
        <ele>576.8237</ele>
        <time>2015-05-02T11:15:22Z</time>
      </trkpt>
      <trkpt lat="45.48714" lon="5.31761">
        <ele>576.8237</ele>
        <time>2015-05-02T11:15:27Z</time>
      </trkpt>
      <trkpt lat="45.48713" lon="5.31751">
        <ele>576.79065</ele>
        <time>2015-05-02T11:15:32Z</time>
      </trkpt>
      <trkpt lat="45.48711" lon="5.31742">
        <ele>576.79065</ele>
        <time>2015-05-02T11:15:35Z</time>
      </trkpt>
      <trkpt lat="45.48707" lon="5.31732">
        <ele>576.86115</ele>
        <time>2015-05-02T11:15:40Z</time>
      </trkpt>
      <trkpt lat="45.48705" lon="5.3172">
        <ele>576.86115</ele>
        <time>2015-05-02T11:15:45Z</time>
      </trkpt>
      <trkpt lat="45.48706" lon="5.3171">
        <ele>577.1419</ele>
        <time>2015-05-02T11:15:50Z</time>
      </trkpt>
      <trkpt lat="45.48703" lon="5.31702">
        <ele>577.1419</ele>
        <time>2015-05-02T11:15:55Z</time>
      </trkpt>
      <trkpt lat="45.48701" lon="5.31696">
        <ele>578.10583</ele>
        <time>2015-05-02T11:16:00Z</time>
      </trkpt>
      <trkpt lat="45.48698" lon="5.31687">
        <ele>578.10583</ele>
        <time>2015-05-02T11:16:05Z</time>
      </trkpt>
      <trkpt lat="45.48694" lon="5.31677">
        <ele>578.18616</ele>
        <time>2015-05-02T11:16:10Z</time>
      </trkpt>
      <trkpt lat="45.48682" lon="5.31665">
        <ele>578.2537</ele>
        <time>2015-05-02T11:16:15Z</time>
      </trkpt>
      <trkpt lat="45.48682" lon="5.31655">
        <ele>578.2537</ele>
        <time>2015-05-02T11:16:20Z</time>
      </trkpt>
      <trkpt lat="45.48677" lon="5.31645">
        <ele>578.2364</ele>
        <time>2015-05-02T11:16:25Z</time>
      </trkpt>
      <trkpt lat="45.48674" lon="5.31635">
        <ele>578.2364</ele>
        <time>2015-05-02T11:16:30Z</time>
      </trkpt>
      <trkpt lat="45.48671" lon="5.31626">
        <ele>578.082</ele>
        <time>2015-05-02T11:16:35Z</time>
      </trkpt>
      <trkpt lat="45.48666" lon="5.31616">
        <ele>578.082</ele>
        <time>2015-05-02T11:16:40Z</time>
      </trkpt>
      <trkpt lat="45.4866" lon="5.31606">
        <ele>578.2036</ele>
        <time>2015-05-02T11:16:45Z</time>
      </trkpt>
      <trkpt lat="45.48656" lon="5.31595">
        <ele>578.335</ele>
        <time>2015-05-02T11:16:50Z</time>
      </trkpt>
      <trkpt lat="45.48654" lon="5.31583">
        <ele>578.335</ele>
        <time>2015-05-02T11:16:55Z</time>
      </trkpt>
      <trkpt lat="45.4865" lon="5.31572">
        <ele>578.33</ele>
        <time>2015-05-02T11:17:00Z</time>
      </trkpt>
      <trkpt lat="45.48648" lon="5.31562">
        <ele>578.33</ele>
        <time>2015-05-02T11:17:05Z</time>
      </trkpt>
      <trkpt lat="45.48647" lon="5.31551">
        <ele>578.1691</ele>
        <time>2015-05-02T11:17:10Z</time>
      </trkpt>
      <trkpt lat="45.48645" lon="5.31541">
        <ele>578.1691</ele>
        <time>2015-05-02T11:17:15Z</time>
      </trkpt>
      <trkpt lat="45.48643" lon="5.3153">
        <ele>577.99304</ele>
        <time>2015-05-02T11:17:20Z</time>
      </trkpt>
      <trkpt lat="45.48637" lon="5.3151">
        <ele>577.80273</ele>
        <time>2015-05-02T11:17:25Z</time>
      </trkpt>
      <trkpt lat="45.48627" lon="5.31477">
        <ele>577.69977</ele>
        <time>2015-05-02T11:17:30Z</time>
      </trkpt>
      <trkpt lat="45.48616" lon="5.31443">
        <ele>577.6197</ele>
        <time>2015-05-02T11:17:35Z</time>
      </trkpt>
      <trkpt lat="45.48605" lon="5.31407">
        <ele>577.7332</ele>
        <time>2015-05-02T11:17:40Z</time>
      </trkpt>
      <trkpt lat="45.48595" lon="5.31384">
        <ele>577.82324</ele>
        <time>2015-05-02T11:17:45Z</time>
      </trkpt>
      <trkpt lat="45.48591" lon="5.31373">
        <ele>577.82324</ele>
        <time>2015-05-02T11:17:50Z</time>
      </trkpt>
      <trkpt lat="45.48587" lon="5.31363">
        <ele>578.0635</ele>
        <time>2015-05-02T11:17:55Z</time>
      </trkpt>
      <trkpt lat="45.48583" lon="5.31353">
        <ele>578.0635</ele>
        <time>2015-05-02T11:18:00Z</time>
      </trkpt>
      <trkpt lat="45.4858" lon="5.31343">
        <ele>578.3984</ele>
        <time>2015-05-02T11:18:05Z</time>
      </trkpt>
      <trkpt lat="45.48578" lon="5.31333">
        <ele>578.3984</ele>
        <time>2015-05-02T11:18:10Z</time>
      </trkpt>
      <trkpt lat="45.48575" lon="5.31325">
        <ele>578.9057</ele>
        <time>2015-05-02T11:18:15Z</time>
      </trkpt>
      <trkpt lat="45.48571" lon="5.31316">
        <ele>578.9057</ele>
        <time>2015-05-02T11:18:21Z</time>
      </trkpt>
      <trkpt lat="45.48566" lon="5.3131">
        <ele>579.1961</ele>
        <time>2015-05-02T11:18:27Z</time>
      </trkpt>
      <trkpt lat="45.48559" lon="5.3131">
        <ele>579.1961</ele>
        <time>2015-05-02T11:18:31Z</time>
      </trkpt>
      <trkpt lat="45.48553" lon="5.3131">
        <ele>580.0334</ele>
        <time>2015-05-02T11:18:35Z</time>
      </trkpt>
      <trkpt lat="45.48548" lon="5.31305">
        <ele>580.0334</ele>
        <time>2015-05-02T11:18:42Z</time>
      </trkpt>
      <trkpt lat="45.48538" lon="5.31287">
        <ele>580.9421</ele>
        <time>2015-05-02T11:18:47Z</time>
      </trkpt>
      <trkpt lat="45.48526" lon="5.3127">
        <ele>581.71216</ele>
        <time>2015-05-02T11:18:50Z</time>
      </trkpt>
      <trkpt lat="45.48499" lon="5.31249">
        <ele>582.3943</ele>
        <time>2015-05-02T11:18:55Z</time>
      </trkpt>
      <trkpt lat="45.48476" lon="5.31222">
        <ele>582.517</ele>
        <time>2015-05-02T11:19:02Z</time>
      </trkpt>
      <trkpt lat="45.48464" lon="5.31184">
        <ele>583.0141</ele>
        <time>2015-05-02T11:19:07Z</time>
      </trkpt>
      <trkpt lat="45.48454" lon="5.31145">
        <ele>582.7467</ele>
        <time>2015-05-02T11:19:11Z</time>
      </trkpt>
      <trkpt lat="45.48441" lon="5.31122">
        <ele>582.3477</ele>
        <time>2015-05-02T11:19:17Z</time>
      </trkpt>
      <trkpt lat="45.48437" lon="5.31124">
        <ele>582.3477</ele>
        <time>2015-05-02T11:19:21Z</time>
      </trkpt>
      <trkpt lat="45.48435" lon="5.31134">
        <ele>582.11597</ele>
        <time>2015-05-02T11:19:27Z</time>
      </trkpt>
      <trkpt lat="45.48432" lon="5.31145">
        <ele>582.11597</ele>
        <time>2015-05-02T11:19:32Z</time>
      </trkpt>
      <trkpt lat="45.48428" lon="5.31155">
        <ele>581.78015</ele>
        <time>2015-05-02T11:19:35Z</time>
      </trkpt>
      <trkpt lat="45.48425" lon="5.31161">
        <ele>581.78015</ele>
        <time>2015-05-02T11:19:41Z</time>
      </trkpt>
      <trkpt lat="45.4842" lon="5.31166">
        <ele>581.26215</ele>
        <time>2015-05-02T11:19:47Z</time>
      </trkpt>
      <trkpt lat="45.48415" lon="5.31173">
        <ele>581.26215</ele>
        <time>2015-05-02T11:19:51Z</time>
      </trkpt>
      <trkpt lat="45.48411" lon="5.31178">
        <ele>580.59106</ele>
        <time>2015-05-02T11:19:55Z</time>
      </trkpt>
      <trkpt lat="45.48406" lon="5.31185">
        <ele>580.59106</ele>
        <time>2015-05-02T11:20:01Z</time>
      </trkpt>
      <trkpt lat="45.48398" lon="5.31196">
        <ele>580.6013</ele>
        <time>2015-05-02T11:20:07Z</time>
      </trkpt>
      <trkpt lat="45.48394" lon="5.31202">
        <ele>580.6013</ele>
        <time>2015-05-02T11:20:12Z</time>
      </trkpt>
      <trkpt lat="45.48391" lon="5.31206">
        <ele>580.4789</ele>
        <time>2015-05-02T11:20:15Z</time>
      </trkpt>
      <trkpt lat="45.48384" lon="5.31215">
        <ele>580.2337</ele>
        <time>2015-05-02T11:20:20Z</time>
      </trkpt>
      <trkpt lat="45.48377" lon="5.31222">
        <ele>580.2337</ele>
        <time>2015-05-02T11:20:25Z</time>
      </trkpt>
      <trkpt lat="45.48372" lon="5.31226">
        <ele>580.8698</ele>
        <time>2015-05-02T11:20:30Z</time>
      </trkpt>
      <trkpt lat="45.48365" lon="5.31229">
        <ele>580.8698</ele>
        <time>2015-05-02T11:20:35Z</time>
      </trkpt>
      <trkpt lat="45.48358" lon="5.31232">
        <ele>581.15326</ele>
        <time>2015-05-02T11:20:40Z</time>
      </trkpt>
      <trkpt lat="45.48354" lon="5.31235">
        <ele>581.15326</ele>
        <time>2015-05-02T11:20:45Z</time>
      </trkpt>
      <trkpt lat="45.48345" lon="5.3124">
        <ele>581.39734</ele>
        <time>2015-05-02T11:20:50Z</time>
      </trkpt>
      <trkpt lat="45.48341" lon="5.31242">
        <ele>581.39734</ele>
        <time>2015-05-02T11:20:55Z</time>
      </trkpt>
      <trkpt lat="45.48332" lon="5.31245">
        <ele>580.5234</ele>
        <time>2015-05-02T11:21:00Z</time>
      </trkpt>
      <trkpt lat="45.48324" lon="5.31247">
        <ele>580.5234</ele>
        <time>2015-05-02T11:21:05Z</time>
      </trkpt>
      <trkpt lat="45.48314" lon="5.31252">
        <ele>578.9041</ele>
        <time>2015-05-02T11:21:10Z</time>
      </trkpt>
      <trkpt lat="45.48306" lon="5.31258">
        <ele>577.7949</ele>
        <time>2015-05-02T11:21:15Z</time>
      </trkpt>
      <trkpt lat="45.48299" lon="5.31266">
        <ele>577.7949</ele>
        <time>2015-05-02T11:21:20Z</time>
      </trkpt>
      <trkpt lat="45.48296" lon="5.31276">
        <ele>577.5938</ele>
        <time>2015-05-02T11:21:25Z</time>
      </trkpt>
      <trkpt lat="45.48294" lon="5.31287">
        <ele>577.5938</ele>
        <time>2015-05-02T11:21:30Z</time>
      </trkpt>
      <trkpt lat="45.48295" lon="5.31313">
        <ele>577.6868</ele>
        <time>2015-05-02T11:21:35Z</time>
      </trkpt>
      <trkpt lat="45.48295" lon="5.31348">
        <ele>577.7784</ele>
        <time>2015-05-02T11:21:40Z</time>
      </trkpt>
      <trkpt lat="45.48296" lon="5.3138">
        <ele>578.4014</ele>
        <time>2015-05-02T11:21:45Z</time>
      </trkpt>
      <trkpt lat="45.48297" lon="5.31397">
        <ele>579.22687</ele>
        <time>2015-05-02T11:21:50Z</time>
      </trkpt>
      <trkpt lat="45.48297" lon="5.31405">
        <ele>579.22687</ele>
        <time>2015-05-02T11:21:55Z</time>
      </trkpt>
      <trkpt lat="45.48296" lon="5.3141">
        <ele>579.22687</ele>
        <time>2015-05-02T11:22:00Z</time>
      </trkpt>
      <trkpt lat="45.48297" lon="5.3142">
        <ele>579.38715</ele>
        <time>2015-05-02T11:22:05Z</time>
      </trkpt>
      <trkpt lat="45.48296" lon="5.31429">
        <ele>579.38715</ele>
        <time>2015-05-02T11:22:10Z</time>
      </trkpt>
      <trkpt lat="45.48297" lon="5.3144">
        <ele>580.17004</ele>
        <time>2015-05-02T11:22:15Z</time>
      </trkpt>
      <trkpt lat="45.48296" lon="5.31449">
        <ele>580.17004</ele>
        <time>2015-05-02T11:22:20Z</time>
      </trkpt>
      <trkpt lat="45.48297" lon="5.31456">
        <ele>581.05194</ele>
        <time>2015-05-02T11:22:25Z</time>
      </trkpt>
      <trkpt lat="45.48297" lon="5.31464">
        <ele>581.05194</ele>
        <time>2015-05-02T11:22:30Z</time>
      </trkpt>
      <trkpt lat="45.48299" lon="5.31473">
        <ele>581.389</ele>
        <time>2015-05-02T11:22:35Z</time>
      </trkpt>
      <trkpt lat="45.483" lon="5.31479">
        <ele>581.389</ele>
        <time>2015-05-02T11:22:40Z</time>
      </trkpt>
      <trkpt lat="45.48299" lon="5.31487">
        <ele>581.75336</ele>
        <time>2015-05-02T11:22:45Z</time>
      </trkpt>
      <trkpt lat="45.48299" lon="5.31496">
        <ele>581.75336</ele>
        <time>2015-05-02T11:22:50Z</time>
      </trkpt>
      <trkpt lat="45.48301" lon="5.31505">
        <ele>581.23413</ele>
        <time>2015-05-02T11:22:55Z</time>
      </trkpt>
      <trkpt lat="45.48301" lon="5.31513">
        <ele>581.23413</ele>
        <time>2015-05-02T11:23:00Z</time>
      </trkpt>
      <trkpt lat="45.48299" lon="5.31523">
        <ele>581.1515</ele>
        <time>2015-05-02T11:23:05Z</time>
      </trkpt>
      <trkpt lat="45.48293" lon="5.31536">
        <ele>581.0845</ele>
        <time>2015-05-02T11:23:10Z</time>
      </trkpt>
      <trkpt lat="45.48284" lon="5.3155">
        <ele>581.1906</ele>
        <time>2015-05-02T11:23:15Z</time>
      </trkpt>
      <trkpt lat="45.48277" lon="5.31554">
        <ele>581.1906</ele>
        <time>2015-05-02T11:23:20Z</time>
      </trkpt>
      <trkpt lat="45.48268" lon="5.31552">
        <ele>581.7741</ele>
        <time>2015-05-02T11:23:25Z</time>
      </trkpt>
      <trkpt lat="45.4826" lon="5.31552">
        <ele>581.7741</ele>
        <time>2015-05-02T11:23:30Z</time>
      </trkpt>
      <trkpt lat="45.48255" lon="5.31549">
        <ele>582.87024</ele>
        <time>2015-05-02T11:23:35Z</time>
      </trkpt>
      <trkpt lat="45.48248" lon="5.31544">
        <ele>582.87024</ele>
        <time>2015-05-02T11:23:40Z</time>
      </trkpt>
      <trkpt lat="45.48245" lon="5.31542">
        <ele>584.3375</ele>
        <time>2015-05-02T11:23:45Z</time>
      </trkpt>
      <trkpt lat="45.48238" lon="5.31537">
        <ele>584.3375</ele>
        <time>2015-05-02T11:23:50Z</time>
      </trkpt>
      <trkpt lat="45.48233" lon="5.31531">
        <ele>585.81323</ele>
        <time>2015-05-02T11:23:55Z</time>
      </trkpt>
      <trkpt lat="45.48226" lon="5.31526">
        <ele>585.81323</ele>
        <time>2015-05-02T11:24:00Z</time>
      </trkpt>
      <trkpt lat="45.48218" lon="5.31519">
        <ele>586.846</ele>
        <time>2015-05-02T11:24:06Z</time>
      </trkpt>
      <trkpt lat="45.48212" lon="5.31517">
        <ele>586.846</ele>
        <time>2015-05-02T11:24:11Z</time>
      </trkpt>
      <trkpt lat="45.48205" lon="5.31524">
        <ele>587.85474</ele>
        <time>2015-05-02T11:24:17Z</time>
      </trkpt>
      <trkpt lat="45.48202" lon="5.31528">
        <ele>587.85474</ele>
        <time>2015-05-02T11:24:20Z</time>
      </trkpt>
      <trkpt lat="45.48197" lon="5.31535">
        <ele>588.83856</ele>
        <time>2015-05-02T11:24:25Z</time>
      </trkpt>
      <trkpt lat="45.4819" lon="5.31542">
        <ele>588.83856</ele>
        <time>2015-05-02T11:24:30Z</time>
      </trkpt>
      <trkpt lat="45.48182" lon="5.31552">
        <ele>590.27246</ele>
        <time>2015-05-02T11:24:35Z</time>
      </trkpt>
      <trkpt lat="45.48177" lon="5.31559">
        <ele>590.27246</ele>
        <time>2015-05-02T11:24:40Z</time>
      </trkpt>
      <trkpt lat="45.48173" lon="5.31562">
        <ele>590.75055</ele>
        <time>2015-05-02T11:24:45Z</time>
      </trkpt>
      <trkpt lat="45.48167" lon="5.31569">
        <ele>590.75055</ele>
        <time>2015-05-02T11:24:50Z</time>
      </trkpt>
      <trkpt lat="45.4816" lon="5.31576">
        <ele>591.48065</ele>
        <time>2015-05-02T11:24:55Z</time>
      </trkpt>
      <trkpt lat="45.48153" lon="5.31578">
        <ele>591.48065</ele>
        <time>2015-05-02T11:25:00Z</time>
      </trkpt>
      <trkpt lat="45.48146" lon="5.31579">
        <ele>592.1399</ele>
        <time>2015-05-02T11:25:05Z</time>
      </trkpt>
      <trkpt lat="45.48138" lon="5.31577">
        <ele>592.1399</ele>
        <time>2015-05-02T11:25:10Z</time>
      </trkpt>
      <trkpt lat="45.48131" lon="5.31575">
        <ele>592.4585</ele>
        <time>2015-05-02T11:25:15Z</time>
      </trkpt>
      <trkpt lat="45.48124" lon="5.31574">
        <ele>592.4585</ele>
        <time>2015-05-02T11:25:20Z</time>
      </trkpt>
      <trkpt lat="45.48116" lon="5.31571">
        <ele>592.951</ele>
        <time>2015-05-02T11:25:25Z</time>
      </trkpt>
      <trkpt lat="45.48109" lon="5.3157">
        <ele>592.951</ele>
        <time>2015-05-02T11:25:30Z</time>
      </trkpt>
      <trkpt lat="45.481" lon="5.31567">
        <ele>593.21484</ele>
        <time>2015-05-02T11:25:35Z</time>
      </trkpt>
      <trkpt lat="45.48091" lon="5.31565">
        <ele>593.7567</ele>
        <time>2015-05-02T11:25:40Z</time>
      </trkpt>
      <trkpt lat="45.48084" lon="5.31562">
        <ele>593.7567</ele>
        <time>2015-05-02T11:25:45Z</time>
      </trkpt>
      <trkpt lat="45.48076" lon="5.31559">
        <ele>593.8349</ele>
        <time>2015-05-02T11:25:50Z</time>
      </trkpt>
      <trkpt lat="45.48068" lon="5.31556">
        <ele>593.8349</ele>
        <time>2015-05-02T11:25:55Z</time>
      </trkpt>
      <trkpt lat="45.4806" lon="5.31553">
        <ele>593.70013</ele>
        <time>2015-05-02T11:26:00Z</time>
      </trkpt>
      <trkpt lat="45.48052" lon="5.31549">
        <ele>593.70013</ele>
        <time>2015-05-02T11:26:05Z</time>
      </trkpt>
      <trkpt lat="45.48045" lon="5.31544">
        <ele>593.42694</ele>
        <time>2015-05-02T11:26:10Z</time>
      </trkpt>
      <trkpt lat="45.48038" lon="5.31539">
        <ele>593.42694</ele>
        <time>2015-05-02T11:26:15Z</time>
      </trkpt>
      <trkpt lat="45.48031" lon="5.31535">
        <ele>593.4882</ele>
        <time>2015-05-02T11:26:20Z</time>
      </trkpt>
      <trkpt lat="45.48026" lon="5.31531">
        <ele>593.4882</ele>
        <time>2015-05-02T11:26:25Z</time>
      </trkpt>
      <trkpt lat="45.48021" lon="5.31527">
        <ele>593.42786</ele>
        <time>2015-05-02T11:26:30Z</time>
      </trkpt>
      <trkpt lat="45.48013" lon="5.31523">
        <ele>593.42786</ele>
        <time>2015-05-02T11:26:35Z</time>
      </trkpt>
      <trkpt lat="45.48004" lon="5.31521">
        <ele>593.1982</ele>
        <time>2015-05-02T11:26:40Z</time>
      </trkpt>
      <trkpt lat="45.47996" lon="5.31523">
        <ele>593.1982</ele>
        <time>2015-05-02T11:26:45Z</time>
      </trkpt>
      <trkpt lat="45.47986" lon="5.31524">
        <ele>593.20233</ele>
        <time>2015-05-02T11:26:50Z</time>
      </trkpt>
      <trkpt lat="45.47979" lon="5.31527">
        <ele>593.20233</ele>
        <time>2015-05-02T11:26:55Z</time>
      </trkpt>
      <trkpt lat="45.47972" lon="5.31529">
        <ele>593.2511</ele>
        <time>2015-05-02T11:27:00Z</time>
      </trkpt>
      <trkpt lat="45.47964" lon="5.31532">
        <ele>593.2511</ele>
        <time>2015-05-02T11:27:05Z</time>
      </trkpt>
      <trkpt lat="45.47956" lon="5.31534">
        <ele>593.09705</ele>
        <time>2015-05-02T11:27:10Z</time>
      </trkpt>
      <trkpt lat="45.47949" lon="5.31536">
        <ele>593.09705</ele>
        <time>2015-05-02T11:27:15Z</time>
      </trkpt>
      <trkpt lat="45.47941" lon="5.31538">
        <ele>592.75653</ele>
        <time>2015-05-02T11:27:20Z</time>
      </trkpt>
      <trkpt lat="45.47934" lon="5.31539">
        <ele>592.75653</ele>
        <time>2015-05-02T11:27:25Z</time>
      </trkpt>
      <trkpt lat="45.47926" lon="5.3154">
        <ele>592.3172</ele>
        <time>2015-05-02T11:27:30Z</time>
      </trkpt>
      <trkpt lat="45.47918" lon="5.3154">
        <ele>592.3172</ele>
        <time>2015-05-02T11:27:35Z</time>
      </trkpt>
      <trkpt lat="45.4791" lon="5.31541">
        <ele>591.8605</ele>
        <time>2015-05-02T11:27:40Z</time>
      </trkpt>
      <trkpt lat="45.47902" lon="5.31541">
        <ele>591.8605</ele>
        <time>2015-05-02T11:27:45Z</time>
      </trkpt>
      <trkpt lat="45.47894" lon="5.31541">
        <ele>591.37555</ele>
        <time>2015-05-02T11:27:50Z</time>
      </trkpt>
      <trkpt lat="45.47886" lon="5.3154">
        <ele>591.37555</ele>
        <time>2015-05-02T11:27:55Z</time>
      </trkpt>
      <trkpt lat="45.47878" lon="5.31539">
        <ele>590.91003</ele>
        <time>2015-05-02T11:28:00Z</time>
      </trkpt>
      <trkpt lat="45.4787" lon="5.31539">
        <ele>590.91003</ele>
        <time>2015-05-02T11:28:05Z</time>
      </trkpt>
      <trkpt lat="45.47862" lon="5.31539">
        <ele>590.5223</ele>
        <time>2015-05-02T11:28:10Z</time>
      </trkpt>
      <trkpt lat="45.47855" lon="5.31539">
        <ele>590.5223</ele>
        <time>2015-05-02T11:28:15Z</time>
      </trkpt>
      <trkpt lat="45.47846" lon="5.3154">
        <ele>590.1077</ele>
        <time>2015-05-02T11:28:20Z</time>
      </trkpt>
      <trkpt lat="45.47837" lon="5.31542">
        <ele>589.88654</ele>
        <time>2015-05-02T11:28:25Z</time>
      </trkpt>
      <trkpt lat="45.47829" lon="5.31545">
        <ele>589.88654</ele>
        <time>2015-05-02T11:28:30Z</time>
      </trkpt>
      <trkpt lat="45.47821" lon="5.31547">
        <ele>589.745</ele>
        <time>2015-05-02T11:28:36Z</time>
      </trkpt>
      <trkpt lat="45.47812" lon="5.31549">
        <ele>589.63525</ele>
        <time>2015-05-02T11:28:42Z</time>
      </trkpt>
      <trkpt lat="45.47804" lon="5.31551">
        <ele>589.63525</ele>
        <time>2015-05-02T11:28:47Z</time>
      </trkpt>
      <trkpt lat="45.47798" lon="5.31551">
        <ele>589.58484</ele>
        <time>2015-05-02T11:28:51Z</time>
      </trkpt>
      <trkpt lat="45.47797" lon="5.31552">
        <ele>589.58484</ele>
        <time>2015-05-02T11:28:56Z</time>
      </trkpt>
      <trkpt lat="45.47798" lon="5.31552">
        <ele>589.58484</ele>
        <time>2015-05-02T11:29:02Z</time>
      </trkpt>
      <trkpt lat="45.47798" lon="5.31551">
        <ele>589.58484</ele>
        <time>2015-05-02T11:29:06Z</time>
      </trkpt>
      <trkpt lat="45.47798" lon="5.31551">
        <ele>589.58484</ele>
        <time>2015-05-02T11:29:12Z</time>
      </trkpt>
      <trkpt lat="45.478" lon="5.31552">
        <ele>589.58484</ele>
        <time>2015-05-02T11:29:17Z</time>
      </trkpt>
      <trkpt lat="45.478" lon="5.31551">
        <ele>589.58484</ele>
        <time>2015-05-02T11:29:20Z</time>
      </trkpt>
      <trkpt lat="45.47803" lon="5.31553">
        <ele>589.58484</ele>
        <time>2015-05-02T11:29:25Z</time>
      </trkpt>
      <trkpt lat="45.47805" lon="5.31555">
        <ele>589.24445</ele>
        <time>2015-05-02T11:29:31Z</time>
      </trkpt>
      <trkpt lat="45.47806" lon="5.31556">
        <ele>589.24445</ele>
        <time>2015-05-02T11:29:35Z</time>
      </trkpt>
      <trkpt lat="45.47807" lon="5.31557">
        <ele>589.24445</ele>
        <time>2015-05-02T11:29:42Z</time>
      </trkpt>
      <trkpt lat="45.47806" lon="5.31555">
        <ele>589.24445</ele>
        <time>2015-05-02T11:29:47Z</time>
      </trkpt>
      <trkpt lat="45.47803" lon="5.31552">
        <ele>589.24445</ele>
        <time>2015-05-02T11:29:52Z</time>
      </trkpt>
      <trkpt lat="45.47804" lon="5.31551">
        <ele>589.24445</ele>
        <time>2015-05-02T11:29:57Z</time>
      </trkpt>
      <trkpt lat="45.47803" lon="5.31552">
        <ele>588.8386</ele>
        <time>2015-05-02T11:30:02Z</time>
      </trkpt>
      <trkpt lat="45.47803" lon="5.31552">
        <ele>588.8386</ele>
        <time>2015-05-02T11:30:06Z</time>
      </trkpt>
      <trkpt lat="45.47806" lon="5.31552">
        <ele>588.8386</ele>
        <time>2015-05-02T11:30:12Z</time>
      </trkpt>
      <trkpt lat="45.47807" lon="5.31553">
        <ele>588.8386</ele>
        <time>2015-05-02T11:30:16Z</time>
      </trkpt>
      <trkpt lat="45.47807" lon="5.31553">
        <ele>588.8386</ele>
        <time>2015-05-02T11:30:20Z</time>
      </trkpt>
      <trkpt lat="45.47825" lon="5.3161">
        <ele>588.864</ele>
        <time>2015-05-02T11:43:54Z</time>
      </trkpt>
      <trkpt lat="45.47825" lon="5.3161">
        <ele>588.864</ele>
        <time>2015-05-02T11:43:59Z</time>
      </trkpt>
      <trkpt lat="45.47825" lon="5.3161">
        <ele>588.864</ele>
        <time>2015-05-02T11:44:04Z</time>
      </trkpt>
      <trkpt lat="45.47825" lon="5.3161">
        <ele>588.864</ele>
        <time>2015-05-02T11:44:09Z</time>
      </trkpt>
      <trkpt lat="45.47825" lon="5.31611">
        <ele>588.864</ele>
        <time>2015-05-02T11:44:14Z</time>
      </trkpt>
      <trkpt lat="45.47824" lon="5.31613">
        <ele>588.864</ele>
        <time>2015-05-02T11:44:19Z</time>
      </trkpt>
      <trkpt lat="45.47824" lon="5.31615">
        <ele>588.864</ele>
        <time>2015-05-02T11:44:24Z</time>
      </trkpt>
      <trkpt lat="45.47824" lon="5.31618">
        <ele>588.864</ele>
        <time>2015-05-02T11:44:29Z</time>
      </trkpt>
      <trkpt lat="45.47825" lon="5.31616">
        <ele>588.864</ele>
        <time>2015-05-02T11:44:34Z</time>
      </trkpt>
      <trkpt lat="45.47826" lon="5.31615">
        <ele>588.864</ele>
        <time>2015-05-02T11:44:39Z</time>
      </trkpt>
      <trkpt lat="45.47828" lon="5.31619">
        <ele>589.8371</ele>
        <time>2015-05-02T11:44:44Z</time>
      </trkpt>
      <trkpt lat="45.47829" lon="5.31631">
        <ele>589.8371</ele>
        <time>2015-05-02T11:44:49Z</time>
      </trkpt>
      <trkpt lat="45.47831" lon="5.31639">
        <ele>590.82135</ele>
        <time>2015-05-02T11:44:54Z</time>
      </trkpt>
      <trkpt lat="45.47831" lon="5.31647">
        <ele>590.82135</ele>
        <time>2015-05-02T11:44:59Z</time>
      </trkpt>
      <trkpt lat="45.47832" lon="5.31662">
        <ele>591.1365</ele>
        <time>2015-05-02T11:45:04Z</time>
      </trkpt>
      <trkpt lat="45.47832" lon="5.31673">
        <ele>591.1365</ele>
        <time>2015-05-02T11:45:09Z</time>
      </trkpt>
      <trkpt lat="45.47832" lon="5.31684">
        <ele>591.29236</ele>
        <time>2015-05-02T11:45:14Z</time>
      </trkpt>
      <trkpt lat="45.47841" lon="5.31694">
        <ele>591.86273</ele>
        <time>2015-05-02T11:45:19Z</time>
      </trkpt>
      <trkpt lat="45.47845" lon="5.31704">
        <ele>591.86273</ele>
        <time>2015-05-02T11:45:24Z</time>
      </trkpt>
      <trkpt lat="45.47854" lon="5.31712">
        <ele>593.1475</ele>
        <time>2015-05-02T11:45:29Z</time>
      </trkpt>
      <trkpt lat="45.47857" lon="5.3172">
        <ele>593.1475</ele>
        <time>2015-05-02T11:45:34Z</time>
      </trkpt>
      <trkpt lat="45.47862" lon="5.31727">
        <ele>594.5003</ele>
        <time>2015-05-02T11:45:39Z</time>
      </trkpt>
      <trkpt lat="45.47868" lon="5.31737">
        <ele>595.8406</ele>
        <time>2015-05-02T11:45:44Z</time>
      </trkpt>
      <trkpt lat="45.47867" lon="5.3175">
        <ele>596.4166</ele>
        <time>2015-05-02T11:45:49Z</time>
      </trkpt>
      <trkpt lat="45.47868" lon="5.31763">
        <ele>596.85986</ele>
        <time>2015-05-02T11:45:54Z</time>
      </trkpt>
      <trkpt lat="45.47873" lon="5.31772">
        <ele>596.85986</ele>
        <time>2015-05-02T11:45:59Z</time>
      </trkpt>
      <trkpt lat="45.47875" lon="5.31783">
        <ele>598.62054</ele>
        <time>2015-05-02T11:46:04Z</time>
      </trkpt>
      <trkpt lat="45.47878" lon="5.31796">
        <ele>600.0986</ele>
        <time>2015-05-02T11:46:09Z</time>
      </trkpt>
      <trkpt lat="45.4788" lon="5.31807">
        <ele>600.0986</ele>
        <time>2015-05-02T11:46:14Z</time>
      </trkpt>
      <trkpt lat="45.4788" lon="5.31818">
        <ele>601.6426</ele>
        <time>2015-05-02T11:46:19Z</time>
      </trkpt>
      <trkpt lat="45.47884" lon="5.31826">
        <ele>601.6426</ele>
        <time>2015-05-02T11:46:24Z</time>
      </trkpt>
      <trkpt lat="45.47886" lon="5.31835">
        <ele>602.7541</ele>
        <time>2015-05-02T11:46:29Z</time>
      </trkpt>
      <trkpt lat="45.47888" lon="5.31839">
        <ele>602.7541</ele>
        <time>2015-05-02T11:46:34Z</time>
      </trkpt>
      <trkpt lat="45.47892" lon="5.31856">
        <ele>602.7418</ele>
        <time>2015-05-02T11:46:39Z</time>
      </trkpt>
      <trkpt lat="45.47901" lon="5.31881">
        <ele>602.19336</ele>
        <time>2015-05-02T11:46:44Z</time>
      </trkpt>
      <trkpt lat="45.47908" lon="5.31911">
        <ele>602.05835</ele>
        <time>2015-05-02T11:46:49Z</time>
      </trkpt>
      <trkpt lat="45.47915" lon="5.31945">
        <ele>601.3564</ele>
        <time>2015-05-02T11:46:54Z</time>
      </trkpt>
      <trkpt lat="45.47927" lon="5.3198">
        <ele>600.521</ele>
        <time>2015-05-02T11:46:59Z</time>
      </trkpt>
      <trkpt lat="45.47934" lon="5.32005">
        <ele>599.55066</ele>
        <time>2015-05-02T11:47:04Z</time>
      </trkpt>
      <trkpt lat="45.47944" lon="5.3203">
        <ele>598.40125</ele>
        <time>2015-05-02T11:47:09Z</time>
      </trkpt>
      <trkpt lat="45.47957" lon="5.32057">
        <ele>597.1764</ele>
        <time>2015-05-02T11:47:14Z</time>
      </trkpt>
      <trkpt lat="45.47962" lon="5.32079">
        <ele>596.4047</ele>
        <time>2015-05-02T11:47:19Z</time>
      </trkpt>
      <trkpt lat="45.47969" lon="5.32116">
        <ele>595.0182</ele>
        <time>2015-05-02T11:47:24Z</time>
      </trkpt>
      <trkpt lat="45.47971" lon="5.32146">
        <ele>593.7296</ele>
        <time>2015-05-02T11:47:29Z</time>
      </trkpt>
      <trkpt lat="45.47972" lon="5.32177">
        <ele>593.3574</ele>
        <time>2015-05-02T11:47:34Z</time>
      </trkpt>
      <trkpt lat="45.47969" lon="5.32204">
        <ele>593.14435</ele>
        <time>2015-05-02T11:47:39Z</time>
      </trkpt>
      <trkpt lat="45.47969" lon="5.32217">
        <ele>592.8493</ele>
        <time>2015-05-02T11:47:44Z</time>
      </trkpt>
      <trkpt lat="45.47966" lon="5.32223">
        <ele>592.8493</ele>
        <time>2015-05-02T11:47:49Z</time>
      </trkpt>
      <trkpt lat="45.47964" lon="5.32228">
        <ele>593.2579</ele>
        <time>2015-05-02T11:47:54Z</time>
      </trkpt>
      <trkpt lat="45.47957" lon="5.3224">
        <ele>593.6836</ele>
        <time>2015-05-02T11:47:59Z</time>
      </trkpt>
      <trkpt lat="45.47948" lon="5.32251">
        <ele>594.05237</ele>
        <time>2015-05-02T11:48:04Z</time>
      </trkpt>
      <trkpt lat="45.47942" lon="5.32259">
        <ele>594.05237</ele>
        <time>2015-05-02T11:48:09Z</time>
      </trkpt>
      <trkpt lat="45.47934" lon="5.32267">
        <ele>594.4543</ele>
        <time>2015-05-02T11:48:14Z</time>
      </trkpt>
      <trkpt lat="45.47929" lon="5.32269">
        <ele>594.4543</ele>
        <time>2015-05-02T11:48:19Z</time>
      </trkpt>
      <trkpt lat="45.47921" lon="5.32274">
        <ele>595.0158</ele>
        <time>2015-05-02T11:48:24Z</time>
      </trkpt>
      <trkpt lat="45.47916" lon="5.32279">
        <ele>595.0158</ele>
        <time>2015-05-02T11:48:29Z</time>
      </trkpt>
      <trkpt lat="45.47911" lon="5.3228">
        <ele>595.39246</ele>
        <time>2015-05-02T11:48:34Z</time>
      </trkpt>
      <trkpt lat="45.47905" lon="5.32281">
        <ele>595.39246</ele>
        <time>2015-05-02T11:48:39Z</time>
      </trkpt>
      <trkpt lat="45.47901" lon="5.32282">
        <ele>595.6836</ele>
        <time>2015-05-02T11:48:44Z</time>
      </trkpt>
      <trkpt lat="45.47895" lon="5.32286">
        <ele>595.6836</ele>
        <time>2015-05-02T11:48:49Z</time>
      </trkpt>
      <trkpt lat="45.4789" lon="5.32289">
        <ele>596.54346</ele>
        <time>2015-05-02T11:48:54Z</time>
      </trkpt>
      <trkpt lat="45.47884" lon="5.32294">
        <ele>596.54346</ele>
        <time>2015-05-02T11:48:59Z</time>
      </trkpt>
      <trkpt lat="45.47879" lon="5.32296">
        <ele>596.64545</ele>
        <time>2015-05-02T11:49:04Z</time>
      </trkpt>
      <trkpt lat="45.4787" lon="5.32303">
        <ele>596.7803</ele>
        <time>2015-05-02T11:49:09Z</time>
      </trkpt>
      <trkpt lat="45.47864" lon="5.32306">
        <ele>596.7803</ele>
        <time>2015-05-02T11:49:14Z</time>
      </trkpt>
      <trkpt lat="45.47858" lon="5.3231">
        <ele>596.05176</ele>
        <time>2015-05-02T11:49:19Z</time>
      </trkpt>
      <trkpt lat="45.47849" lon="5.32316">
        <ele>595.82275</ele>
        <time>2015-05-02T11:49:24Z</time>
      </trkpt>
      <trkpt lat="45.47841" lon="5.32321">
        <ele>595.36554</ele>
        <time>2015-05-02T11:49:29Z</time>
      </trkpt>
      <trkpt lat="45.47834" lon="5.32322">
        <ele>595.36554</ele>
        <time>2015-05-02T11:49:34Z</time>
      </trkpt>
      <trkpt lat="45.47827" lon="5.32321">
        <ele>594.7128</ele>
        <time>2015-05-02T11:49:39Z</time>
      </trkpt>
      <trkpt lat="45.4782" lon="5.32321">
        <ele>594.7128</ele>
        <time>2015-05-02T11:49:44Z</time>
      </trkpt>
      <trkpt lat="45.47813" lon="5.32322">
        <ele>593.0163</ele>
        <time>2015-05-02T11:49:49Z</time>
      </trkpt>
      <trkpt lat="45.47804" lon="5.32323">
        <ele>593.0163</ele>
        <time>2015-05-02T11:49:54Z</time>
      </trkpt>
      <trkpt lat="45.47797" lon="5.32323">
        <ele>591.2943</ele>
        <time>2015-05-02T11:49:59Z</time>
      </trkpt>
      <trkpt lat="45.47795" lon="5.32323">
        <ele>591.2943</ele>
        <time>2015-05-02T11:50:05Z</time>
      </trkpt>
      <trkpt lat="45.47782" lon="5.32325">
        <ele>589.6977</ele>
        <time>2015-05-02T11:50:11Z</time>
      </trkpt>
      <trkpt lat="45.47774" lon="5.32325">
        <ele>589.6977</ele>
        <time>2015-05-02T11:50:16Z</time>
      </trkpt>
      <trkpt lat="45.47766" lon="5.32323">
        <ele>588.827</ele>
        <time>2015-05-02T11:50:21Z</time>
      </trkpt>
      <trkpt lat="45.47758" lon="5.32319">
        <ele>588.827</ele>
        <time>2015-05-02T11:50:25Z</time>
      </trkpt>
      <trkpt lat="45.47751" lon="5.32315">
        <ele>588.04065</ele>
        <time>2015-05-02T11:50:31Z</time>
      </trkpt>
      <trkpt lat="45.47747" lon="5.32313">
        <ele>588.04065</ele>
        <time>2015-05-02T11:50:35Z</time>
      </trkpt>
      <trkpt lat="45.47736" lon="5.32309">
        <ele>587.7092</ele>
        <time>2015-05-02T11:50:42Z</time>
      </trkpt>
      <trkpt lat="45.47731" lon="5.32308">
        <ele>587.7092</ele>
        <time>2015-05-02T11:50:46Z</time>
      </trkpt>
      <trkpt lat="45.47724" lon="5.32306">
        <ele>587.38214</ele>
        <time>2015-05-02T11:50:50Z</time>
      </trkpt>
      <trkpt lat="45.47717" lon="5.32306">
        <ele>587.38214</ele>
        <time>2015-05-02T11:50:56Z</time>
      </trkpt>
      <trkpt lat="45.47711" lon="5.32303">
        <ele>587.0454</ele>
        <time>2015-05-02T11:51:01Z</time>
      </trkpt>
      <trkpt lat="45.47706" lon="5.32298">
        <ele>587.0454</ele>
        <time>2015-05-02T11:51:07Z</time>
      </trkpt>
      <trkpt lat="45.477" lon="5.32295">
        <ele>586.5708</ele>
        <time>2015-05-02T11:51:11Z</time>
      </trkpt>
      <trkpt lat="45.47695" lon="5.32289">
        <ele>586.5708</ele>
        <time>2015-05-02T11:51:15Z</time>
      </trkpt>
      <trkpt lat="45.47689" lon="5.32287">
        <ele>586.0847</ele>
        <time>2015-05-02T11:51:21Z</time>
      </trkpt>
      <trkpt lat="45.47684" lon="5.32283">
        <ele>586.0847</ele>
        <time>2015-05-02T11:51:26Z</time>
      </trkpt>
      <trkpt lat="45.47678" lon="5.32274">
        <ele>585.1423</ele>
        <time>2015-05-02T11:51:31Z</time>
      </trkpt>
      <trkpt lat="45.47672" lon="5.32269">
        <ele>585.1423</ele>
        <time>2015-05-02T11:51:35Z</time>
      </trkpt>
      <trkpt lat="45.47666" lon="5.3226">
        <ele>584.5142</ele>
        <time>2015-05-02T11:51:41Z</time>
      </trkpt>
      <trkpt lat="45.47659" lon="5.32251">
        <ele>584.25085</ele>
        <time>2015-05-02T11:51:45Z</time>
      </trkpt>
      <trkpt lat="45.4765" lon="5.32241">
        <ele>584.5993</ele>
        <time>2015-05-02T11:51:52Z</time>
      </trkpt>
      <trkpt lat="45.47645" lon="5.32238">
        <ele>584.5993</ele>
        <time>2015-05-02T11:51:56Z</time>
      </trkpt>
      <trkpt lat="45.4764" lon="5.32232">
        <ele>584.5765</ele>
        <time>2015-05-02T11:52:00Z</time>
      </trkpt>
      <trkpt lat="45.47633" lon="5.32224">
        <ele>584.5765</ele>
        <time>2015-05-02T11:52:05Z</time>
      </trkpt>
      <trkpt lat="45.47627" lon="5.32219">
        <ele>584.05054</ele>
        <time>2015-05-02T11:52:09Z</time>
      </trkpt>
      <trkpt lat="45.47621" lon="5.32211">
        <ele>584.05054</ele>
        <time>2015-05-02T11:52:14Z</time>
      </trkpt>
      <trkpt lat="45.47616" lon="5.32202">
        <ele>583.016</ele>
        <time>2015-05-02T11:52:19Z</time>
      </trkpt>
      <trkpt lat="45.47612" lon="5.32195">
        <ele>583.016</ele>
        <time>2015-05-02T11:52:24Z</time>
      </trkpt>
      <trkpt lat="45.47607" lon="5.32189">
        <ele>582.1465</ele>
        <time>2015-05-02T11:52:29Z</time>
      </trkpt>
      <trkpt lat="45.47602" lon="5.32182">
        <ele>582.1465</ele>
        <time>2015-05-02T11:52:34Z</time>
      </trkpt>
      <trkpt lat="45.47596" lon="5.32175">
        <ele>582.2675</ele>
        <time>2015-05-02T11:52:39Z</time>
      </trkpt>
      <trkpt lat="45.4759" lon="5.32168">
        <ele>582.2675</ele>
        <time>2015-05-02T11:52:44Z</time>
      </trkpt>
      <trkpt lat="45.47584" lon="5.32163">
        <ele>582.527</ele>
        <time>2015-05-02T11:52:49Z</time>
      </trkpt>
      <trkpt lat="45.47577" lon="5.32165">
        <ele>582.527</ele>
        <time>2015-05-02T11:52:54Z</time>
      </trkpt>
      <trkpt lat="45.47574" lon="5.32173">
        <ele>583.27344</ele>
        <time>2015-05-02T11:52:59Z</time>
      </trkpt>
      <trkpt lat="45.47572" lon="5.32182">
        <ele>583.27344</ele>
        <time>2015-05-02T11:53:04Z</time>
      </trkpt>
      <trkpt lat="45.4757" lon="5.32195">
        <ele>584.26636</ele>
        <time>2015-05-02T11:53:09Z</time>
      </trkpt>
      <trkpt lat="45.4757" lon="5.32204">
        <ele>584.26636</ele>
        <time>2015-05-02T11:53:14Z</time>
      </trkpt>
      <trkpt lat="45.47569" lon="5.32214">
        <ele>585.61383</ele>
        <time>2015-05-02T11:53:19Z</time>
      </trkpt>
      <trkpt lat="45.47567" lon="5.32224">
        <ele>585.61383</ele>
        <time>2015-05-02T11:53:24Z</time>
      </trkpt>
      <trkpt lat="45.47567" lon="5.32232">
        <ele>586.88153</ele>
        <time>2015-05-02T11:53:29Z</time>
      </trkpt>
      <trkpt lat="45.47565" lon="5.32242">
        <ele>586.88153</ele>
        <time>2015-05-02T11:53:34Z</time>
      </trkpt>
      <trkpt lat="45.47564" lon="5.32252">
        <ele>587.98456</ele>
        <time>2015-05-02T11:53:39Z</time>
      </trkpt>
      <trkpt lat="45.47561" lon="5.32262">
        <ele>587.98456</ele>
        <time>2015-05-02T11:53:44Z</time>
      </trkpt>
      <trkpt lat="45.47559" lon="5.32274">
        <ele>589.43536</ele>
        <time>2015-05-02T11:53:49Z</time>
      </trkpt>
      <trkpt lat="45.47557" lon="5.32283">
        <ele>589.43536</ele>
        <time>2015-05-02T11:53:54Z</time>
      </trkpt>
      <trkpt lat="45.47555" lon="5.32291">
        <ele>590.46857</ele>
        <time>2015-05-02T11:53:59Z</time>
      </trkpt>
      <trkpt lat="45.47553" lon="5.32302">
        <ele>590.46857</ele>
        <time>2015-05-02T11:54:04Z</time>
      </trkpt>
      <trkpt lat="45.47552" lon="5.32312">
        <ele>591.18335</ele>
        <time>2015-05-02T11:54:09Z</time>
      </trkpt>
      <trkpt lat="45.47551" lon="5.32322">
        <ele>591.18335</ele>
        <time>2015-05-02T11:54:14Z</time>
      </trkpt>
      <trkpt lat="45.4755" lon="5.32334">
        <ele>591.5138</ele>
        <time>2015-05-02T11:54:19Z</time>
      </trkpt>
      <trkpt lat="45.47549" lon="5.32342">
        <ele>591.5138</ele>
        <time>2015-05-02T11:54:24Z</time>
      </trkpt>
      <trkpt lat="45.47549" lon="5.3235">
        <ele>592.3657</ele>
        <time>2015-05-02T11:54:29Z</time>
      </trkpt>
      <trkpt lat="45.47549" lon="5.32357">
        <ele>592.3657</ele>
        <time>2015-05-02T11:54:34Z</time>
      </trkpt>
      <trkpt lat="45.47551" lon="5.32364">
        <ele>592.37195</ele>
        <time>2015-05-02T11:54:39Z</time>
      </trkpt>
      <trkpt lat="45.47553" lon="5.32373">
        <ele>592.37195</ele>
        <time>2015-05-02T11:54:44Z</time>
      </trkpt>
      <trkpt lat="45.47553" lon="5.32386">
        <ele>592.35785</ele>
        <time>2015-05-02T11:54:49Z</time>
      </trkpt>
      <trkpt lat="45.47555" lon="5.324">
        <ele>592.39655</ele>
        <time>2015-05-02T11:54:55Z</time>
      </trkpt>
      <trkpt lat="45.47557" lon="5.32412">
        <ele>592.39655</ele>
        <time>2015-05-02T11:55:01Z</time>
      </trkpt>
      <trkpt lat="45.47558" lon="5.32424">
        <ele>593.7806</ele>
        <time>2015-05-02T11:55:06Z</time>
      </trkpt>
      <trkpt lat="45.4756" lon="5.32434">
        <ele>593.7806</ele>
        <time>2015-05-02T11:55:10Z</time>
      </trkpt>
      <trkpt lat="45.47558" lon="5.32449">
        <ele>594.6343</ele>
        <time>2015-05-02T11:55:14Z</time>
      </trkpt>
      <trkpt lat="45.47559" lon="5.32461">
        <ele>594.6343</ele>
        <time>2015-05-02T11:55:19Z</time>
      </trkpt>
      <trkpt lat="45.47559" lon="5.32469">
        <ele>595.45514</ele>
        <time>2015-05-02T11:55:24Z</time>
      </trkpt>
      <trkpt lat="45.47559" lon="5.32479">
        <ele>595.45514</ele>
        <time>2015-05-02T11:55:29Z</time>
      </trkpt>
      <trkpt lat="45.47562" lon="5.32493">
        <ele>596.5023</ele>
        <time>2015-05-02T11:55:34Z</time>
      </trkpt>
      <trkpt lat="45.47564" lon="5.32503">
        <ele>596.5023</ele>
        <time>2015-05-02T11:55:39Z</time>
      </trkpt>
      <trkpt lat="45.47566" lon="5.32513">
        <ele>597.55444</ele>
        <time>2015-05-02T11:55:44Z</time>
      </trkpt>
      <trkpt lat="45.47569" lon="5.32522">
        <ele>597.55444</ele>
        <time>2015-05-02T11:55:49Z</time>
      </trkpt>
      <trkpt lat="45.4757" lon="5.32533">
        <ele>598.68</ele>
        <time>2015-05-02T11:55:54Z</time>
      </trkpt>
      <trkpt lat="45.47572" lon="5.32542">
        <ele>598.68</ele>
        <time>2015-05-02T11:55:59Z</time>
      </trkpt>
      <trkpt lat="45.47573" lon="5.32552">
        <ele>599.75525</ele>
        <time>2015-05-02T11:56:04Z</time>
      </trkpt>
      <trkpt lat="45.47573" lon="5.32563">
        <ele>599.75525</ele>
        <time>2015-05-02T11:56:09Z</time>
      </trkpt>
      <trkpt lat="45.47573" lon="5.32574">
        <ele>600.69434</ele>
        <time>2015-05-02T11:56:14Z</time>
      </trkpt>
      <trkpt lat="45.47572" lon="5.32585">
        <ele>600.69434</ele>
        <time>2015-05-02T11:56:19Z</time>
      </trkpt>
      <trkpt lat="45.47572" lon="5.32596">
        <ele>601.2887</ele>
        <time>2015-05-02T11:56:24Z</time>
      </trkpt>
      <trkpt lat="45.47571" lon="5.32607">
        <ele>601.2887</ele>
        <time>2015-05-02T11:56:29Z</time>
      </trkpt>
      <trkpt lat="45.47571" lon="5.32617">
        <ele>602.19617</ele>
        <time>2015-05-02T11:56:34Z</time>
      </trkpt>
      <trkpt lat="45.47571" lon="5.32616">
        <ele>602.19617</ele>
        <time>2015-05-02T11:56:39Z</time>
      </trkpt>
      <trkpt lat="45.47572" lon="5.32609">
        <ele>602.19617</ele>
        <time>2015-05-02T11:56:44Z</time>
      </trkpt>
      <trkpt lat="45.47573" lon="5.32598">
        <ele>602.5414</ele>
        <time>2015-05-02T11:56:49Z</time>
      </trkpt>
      <trkpt lat="45.47574" lon="5.32588">
        <ele>602.5414</ele>
        <time>2015-05-02T11:56:54Z</time>
      </trkpt>
      <trkpt lat="45.47573" lon="5.32573">
        <ele>602.7396</ele>
        <time>2015-05-02T11:56:59Z</time>
      </trkpt>
      <trkpt lat="45.47573" lon="5.32561">
        <ele>602.7396</ele>
        <time>2015-05-02T11:57:04Z</time>
      </trkpt>
      <trkpt lat="45.47576" lon="5.32554">
        <ele>602.8304</ele>
        <time>2015-05-02T11:57:09Z</time>
      </trkpt>
      <trkpt lat="45.47576" lon="5.32553">
        <ele>602.8304</ele>
        <time>2015-05-02T11:57:15Z</time>
      </trkpt>
      <trkpt lat="45.47576" lon="5.32552">
        <ele>602.8304</ele>
        <time>2015-05-02T11:57:21Z</time>
      </trkpt>
      <trkpt lat="45.47574" lon="5.32559">
        <ele>602.8304</ele>
        <time>2015-05-02T11:57:26Z</time>
      </trkpt>
      <trkpt lat="45.47573" lon="5.32571">
        <ele>603.08136</ele>
        <time>2015-05-02T11:57:30Z</time>
      </trkpt>
      <trkpt lat="45.47573" lon="5.32596">
        <ele>603.75433</ele>
        <time>2015-05-02T11:57:37Z</time>
      </trkpt>
      <trkpt lat="45.47573" lon="5.32614">
        <ele>604.32715</ele>
        <time>2015-05-02T11:57:41Z</time>
      </trkpt>
      <trkpt lat="45.4757" lon="5.32635">
        <ele>604.86395</ele>
        <time>2015-05-02T11:57:44Z</time>
      </trkpt>
      <trkpt lat="45.47568" lon="5.32653">
        <ele>605.5251</ele>
        <time>2015-05-02T11:57:50Z</time>
      </trkpt>
      <trkpt lat="45.47567" lon="5.32666">
        <ele>606.1131</ele>
        <time>2015-05-02T11:57:56Z</time>
      </trkpt>
      <trkpt lat="45.47565" lon="5.32678">
        <ele>606.1131</ele>
        <time>2015-05-02T11:58:01Z</time>
      </trkpt>
      <trkpt lat="45.47562" lon="5.32693">
        <ele>606.70465</ele>
        <time>2015-05-02T11:58:06Z</time>
      </trkpt>
      <trkpt lat="45.4756" lon="5.32703">
        <ele>606.70465</ele>
        <time>2015-05-02T11:58:10Z</time>
      </trkpt>
      <trkpt lat="45.4756" lon="5.32712">
        <ele>607.80316</ele>
        <time>2015-05-02T11:58:16Z</time>
      </trkpt>
      <trkpt lat="45.47556" lon="5.32724">
        <ele>608.85046</ele>
        <time>2015-05-02T11:58:20Z</time>
      </trkpt>
      <trkpt lat="45.47552" lon="5.32733">
        <ele>608.85046</ele>
        <time>2015-05-02T11:58:27Z</time>
      </trkpt>
      <trkpt lat="45.47549" lon="5.32739">
        <ele>609.63226</ele>
        <time>2015-05-02T11:58:29Z</time>
      </trkpt>
      <trkpt lat="45.47543" lon="5.32749">
        <ele>610.2678</ele>
        <time>2015-05-02T11:58:37Z</time>
      </trkpt>
      <trkpt lat="45.4754" lon="5.32755">
        <ele>610.2678</ele>
        <time>2015-05-02T11:58:41Z</time>
      </trkpt>
      <trkpt lat="45.47534" lon="5.3276">
        <ele>611.12756</ele>
        <time>2015-05-02T11:58:45Z</time>
      </trkpt>
      <trkpt lat="45.47525" lon="5.32767">
        <ele>611.3003</ele>
        <time>2015-05-02T11:58:49Z</time>
      </trkpt>
      <trkpt lat="45.4752" lon="5.32773">
        <ele>611.3003</ele>
        <time>2015-05-02T11:58:54Z</time>
      </trkpt>
      <trkpt lat="45.47513" lon="5.3278">
        <ele>611.6299</ele>
        <time>2015-05-02T11:58:59Z</time>
      </trkpt>
      <trkpt lat="45.47506" lon="5.32787">
        <ele>611.65845</ele>
        <time>2015-05-02T11:59:04Z</time>
      </trkpt>
      <trkpt lat="45.47498" lon="5.32797">
        <ele>611.3661</ele>
        <time>2015-05-02T11:59:09Z</time>
      </trkpt>
      <trkpt lat="45.47492" lon="5.32803">
        <ele>611.3661</ele>
        <time>2015-05-02T11:59:14Z</time>
      </trkpt>
      <trkpt lat="45.47487" lon="5.32809">
        <ele>611.02356</ele>
        <time>2015-05-02T11:59:19Z</time>
      </trkpt>
      <trkpt lat="45.4748" lon="5.32815">
        <ele>611.02356</ele>
        <time>2015-05-02T11:59:24Z</time>
      </trkpt>
      <trkpt lat="45.47475" lon="5.32821">
        <ele>610.5216</ele>
        <time>2015-05-02T11:59:29Z</time>
      </trkpt>
      <trkpt lat="45.47471" lon="5.32827">
        <ele>610.5216</ele>
        <time>2015-05-02T11:59:34Z</time>
      </trkpt>
      <trkpt lat="45.47466" lon="5.32835">
        <ele>609.9468</ele>
        <time>2015-05-02T11:59:39Z</time>
      </trkpt>
      <trkpt lat="45.47461" lon="5.32844">
        <ele>609.9468</ele>
        <time>2015-05-02T11:59:44Z</time>
      </trkpt>
      <trkpt lat="45.47457" lon="5.3285">
        <ele>609.24994</ele>
        <time>2015-05-02T11:59:49Z</time>
      </trkpt>
      <trkpt lat="45.47455" lon="5.32862">
        <ele>609.24994</ele>
        <time>2015-05-02T11:59:54Z</time>
      </trkpt>
      <trkpt lat="45.47455" lon="5.32873">
        <ele>608.8612</ele>
        <time>2015-05-02T11:59:59Z</time>
      </trkpt>
      <trkpt lat="45.47454" lon="5.32883">
        <ele>608.8612</ele>
        <time>2015-05-02T12:00:04Z</time>
      </trkpt>
      <trkpt lat="45.47452" lon="5.32894">
        <ele>608.4434</ele>
        <time>2015-05-02T12:00:09Z</time>
      </trkpt>
      <trkpt lat="45.4745" lon="5.32904">
        <ele>608.4434</ele>
        <time>2015-05-02T12:00:14Z</time>
      </trkpt>
      <trkpt lat="45.47446" lon="5.32912">
        <ele>607.8716</ele>
        <time>2015-05-02T12:00:19Z</time>
      </trkpt>
      <trkpt lat="45.47443" lon="5.3292">
        <ele>607.8716</ele>
        <time>2015-05-02T12:00:24Z</time>
      </trkpt>
      <trkpt lat="45.47438" lon="5.32928">
        <ele>607.3041</ele>
        <time>2015-05-02T12:00:29Z</time>
      </trkpt>
      <trkpt lat="45.47433" lon="5.32936">
        <ele>607.3041</ele>
        <time>2015-05-02T12:00:34Z</time>
      </trkpt>
      <trkpt lat="45.47425" lon="5.32942">
        <ele>606.23914</ele>
        <time>2015-05-02T12:00:39Z</time>
      </trkpt>
      <trkpt lat="45.47417" lon="5.32947">
        <ele>606.23914</ele>
        <time>2015-05-02T12:00:44Z</time>
      </trkpt>
      <trkpt lat="45.4741" lon="5.3295">
        <ele>604.74634</ele>
        <time>2015-05-02T12:00:50Z</time>
      </trkpt>
      <trkpt lat="45.47399" lon="5.32956">
        <ele>603.1363</ele>
        <time>2015-05-02T12:00:56Z</time>
      </trkpt>
      <trkpt lat="45.47391" lon="5.32959">
        <ele>603.1363</ele>
        <time>2015-05-02T12:00:59Z</time>
      </trkpt>
      <trkpt lat="45.47384" lon="5.32963">
        <ele>601.4955</ele>
        <time>2015-05-02T12:01:04Z</time>
      </trkpt>
      <trkpt lat="45.47377" lon="5.32968">
        <ele>601.4955</ele>
        <time>2015-05-02T12:01:09Z</time>
      </trkpt>
      <trkpt lat="45.4737" lon="5.32973">
        <ele>600.12</ele>
        <time>2015-05-02T12:01:14Z</time>
      </trkpt>
      <trkpt lat="45.47363" lon="5.32978">
        <ele>600.12</ele>
        <time>2015-05-02T12:01:19Z</time>
      </trkpt>
      <trkpt lat="45.47358" lon="5.32982">
        <ele>598.8943</ele>
        <time>2015-05-02T12:01:24Z</time>
      </trkpt>
      <trkpt lat="45.47352" lon="5.32989">
        <ele>598.8943</ele>
        <time>2015-05-02T12:01:29Z</time>
      </trkpt>
      <trkpt lat="45.47346" lon="5.32996">
        <ele>597.97034</ele>
        <time>2015-05-02T12:01:34Z</time>
      </trkpt>
      <trkpt lat="45.47339" lon="5.33001">
        <ele>597.97034</ele>
        <time>2015-05-02T12:01:39Z</time>
      </trkpt>
      <trkpt lat="45.47333" lon="5.33008">
        <ele>597.3581</ele>
        <time>2015-05-02T12:01:44Z</time>
      </trkpt>
      <trkpt lat="45.47328" lon="5.33011">
        <ele>597.3581</ele>
        <time>2015-05-02T12:01:49Z</time>
      </trkpt>
      <trkpt lat="45.47322" lon="5.33016">
        <ele>596.82104</ele>
        <time>2015-05-02T12:01:54Z</time>
      </trkpt>
      <trkpt lat="45.4732" lon="5.33013">
        <ele>596.82104</ele>
        <time>2015-05-02T12:01:59Z</time>
      </trkpt>
      <trkpt lat="45.47313" lon="5.3301">
        <ele>596.2692</ele>
        <time>2015-05-02T12:02:04Z</time>
      </trkpt>
      <trkpt lat="45.47306" lon="5.33006">
        <ele>596.2692</ele>
        <time>2015-05-02T12:02:09Z</time>
      </trkpt>
      <trkpt lat="45.47297" lon="5.32997">
        <ele>595.44635</ele>
        <time>2015-05-02T12:02:14Z</time>
      </trkpt>
      <trkpt lat="45.47287" lon="5.32989">
        <ele>594.3896</ele>
        <time>2015-05-02T12:02:19Z</time>
      </trkpt>
      <trkpt lat="45.47274" lon="5.32977">
        <ele>593.79663</ele>
        <time>2015-05-02T12:02:24Z</time>
      </trkpt>
      <trkpt lat="45.47264" lon="5.32964">
        <ele>593.5056</ele>
        <time>2015-05-02T12:02:29Z</time>
      </trkpt>
      <trkpt lat="45.47258" lon="5.32953">
        <ele>593.26465</ele>
        <time>2015-05-02T12:02:34Z</time>
      </trkpt>
      <trkpt lat="45.47252" lon="5.32946">
        <ele>593.26465</ele>
        <time>2015-05-02T12:02:39Z</time>
      </trkpt>
      <trkpt lat="45.47247" lon="5.32941">
        <ele>592.8547</ele>
        <time>2015-05-02T12:02:44Z</time>
      </trkpt>
      <trkpt lat="45.47245" lon="5.32939">
        <ele>592.8547</ele>
        <time>2015-05-02T12:02:49Z</time>
      </trkpt>
      <trkpt lat="45.4724" lon="5.32932">
        <ele>592.8944</ele>
        <time>2015-05-02T12:02:54Z</time>
      </trkpt>
      <trkpt lat="45.47236" lon="5.32928">
        <ele>592.8944</ele>
        <time>2015-05-02T12:02:59Z</time>
      </trkpt>
      <trkpt lat="45.47229" lon="5.32919">
        <ele>592.8029</ele>
        <time>2015-05-02T12:03:04Z</time>
      </trkpt>
      <trkpt lat="45.47224" lon="5.32916">
        <ele>592.8029</ele>
        <time>2015-05-02T12:03:09Z</time>
      </trkpt>
      <trkpt lat="45.47216" lon="5.32908">
        <ele>592.87805</ele>
        <time>2015-05-02T12:03:14Z</time>
      </trkpt>
      <trkpt lat="45.47211" lon="5.32903">
        <ele>592.87805</ele>
        <time>2015-05-02T12:03:19Z</time>
      </trkpt>
      <trkpt lat="45.47201" lon="5.32895">
        <ele>591.86774</ele>
        <time>2015-05-02T12:03:24Z</time>
      </trkpt>
      <trkpt lat="45.47192" lon="5.3289">
        <ele>590.863</ele>
        <time>2015-05-02T12:03:29Z</time>
      </trkpt>
      <trkpt lat="45.47185" lon="5.32886">
        <ele>590.863</ele>
        <time>2015-05-02T12:03:34Z</time>
      </trkpt>
      <trkpt lat="45.47177" lon="5.32879">
        <ele>589.7792</ele>
        <time>2015-05-02T12:03:39Z</time>
      </trkpt>
      <trkpt lat="45.47171" lon="5.32876">
        <ele>589.7792</ele>
        <time>2015-05-02T12:03:46Z</time>
      </trkpt>
      <trkpt lat="45.47162" lon="5.32872">
        <ele>589.0138</ele>
        <time>2015-05-02T12:03:50Z</time>
      </trkpt>
      <trkpt lat="45.47155" lon="5.32867">
        <ele>589.0138</ele>
        <time>2015-05-02T12:03:55Z</time>
      </trkpt>
      <trkpt lat="45.4715" lon="5.32865">
        <ele>588.2568</ele>
        <time>2015-05-02T12:04:01Z</time>
      </trkpt>
      <trkpt lat="45.47147" lon="5.32859">
        <ele>588.2568</ele>
        <time>2015-05-02T12:04:05Z</time>
      </trkpt>
      <trkpt lat="45.4714" lon="5.32857">
        <ele>587.7107</ele>
        <time>2015-05-02T12:04:09Z</time>
      </trkpt>
      <trkpt lat="45.4713" lon="5.3285">
        <ele>587.0295</ele>
        <time>2015-05-02T12:04:15Z</time>
      </trkpt>
      <trkpt lat="45.47104" lon="5.32842">
        <ele>585.84937</ele>
        <time>2015-05-02T12:04:20Z</time>
      </trkpt>
      <trkpt lat="45.4708" lon="5.32832">
        <ele>584.75714</ele>
        <time>2015-05-02T12:04:25Z</time>
      </trkpt>
      <trkpt lat="45.47044" lon="5.32817">
        <ele>584.4546</ele>
        <time>2015-05-02T12:04:31Z</time>
      </trkpt>
      <trkpt lat="45.47011" lon="5.328">
        <ele>583.7163</ele>
        <time>2015-05-02T12:04:35Z</time>
      </trkpt>
      <trkpt lat="45.46992" lon="5.32792">
        <ele>582.9355</ele>
        <time>2015-05-02T12:04:39Z</time>
      </trkpt>
      <trkpt lat="45.46952" lon="5.32765">
        <ele>582.14514</ele>
        <time>2015-05-02T12:04:47Z</time>
      </trkpt>
      <trkpt lat="45.46939" lon="5.32758">
        <ele>581.50555</ele>
        <time>2015-05-02T12:04:50Z</time>
      </trkpt>
      <trkpt lat="45.46902" lon="5.32738">
        <ele>581.1503</ele>
        <time>2015-05-02T12:04:56Z</time>
      </trkpt>
      <trkpt lat="45.46895" lon="5.32734">
        <ele>581.1503</ele>
        <time>2015-05-02T12:05:01Z</time>
      </trkpt>
      <trkpt lat="45.46889" lon="5.32731">
        <ele>581.0582</ele>
        <time>2015-05-02T12:05:06Z</time>
      </trkpt>
      <trkpt lat="45.46885" lon="5.32731">
        <ele>581.0582</ele>
        <time>2015-05-02T12:05:11Z</time>
      </trkpt>
      <trkpt lat="45.46879" lon="5.32729">
        <ele>580.2001</ele>
        <time>2015-05-02T12:05:16Z</time>
      </trkpt>
      <trkpt lat="45.46872" lon="5.32721">
        <ele>579.3969</ele>
        <time>2015-05-02T12:05:21Z</time>
      </trkpt>
      <trkpt lat="45.46868" lon="5.32717">
        <ele>579.3969</ele>
        <time>2015-05-02T12:05:26Z</time>
      </trkpt>
      <trkpt lat="45.46858" lon="5.32708">
        <ele>579.0202</ele>
        <time>2015-05-02T12:05:29Z</time>
      </trkpt>
      <trkpt lat="45.46845" lon="5.32707">
        <ele>578.5338</ele>
        <time>2015-05-02T12:05:34Z</time>
      </trkpt>
      <trkpt lat="45.46836" lon="5.32699">
        <ele>578.2771</ele>
        <time>2015-05-02T12:05:39Z</time>
      </trkpt>
      <trkpt lat="45.4683" lon="5.32696">
        <ele>578.2771</ele>
        <time>2015-05-02T12:05:44Z</time>
      </trkpt>
      <trkpt lat="45.46822" lon="5.32692">
        <ele>578.6935</ele>
        <time>2015-05-02T12:05:49Z</time>
      </trkpt>
      <trkpt lat="45.46815" lon="5.32689">
        <ele>578.6935</ele>
        <time>2015-05-02T12:05:54Z</time>
      </trkpt>
      <trkpt lat="45.46809" lon="5.32688">
        <ele>579.41376</ele>
        <time>2015-05-02T12:05:59Z</time>
      </trkpt>
      <trkpt lat="45.46803" lon="5.32684">
        <ele>579.41376</ele>
        <time>2015-05-02T12:06:04Z</time>
      </trkpt>
      <trkpt lat="45.46798" lon="5.32683">
        <ele>580.8443</ele>
        <time>2015-05-02T12:06:09Z</time>
      </trkpt>
      <trkpt lat="45.46794" lon="5.32681">
        <ele>580.8443</ele>
        <time>2015-05-02T12:06:14Z</time>
      </trkpt>
      <trkpt lat="45.46788" lon="5.32676">
        <ele>581.5727</ele>
        <time>2015-05-02T12:06:19Z</time>
      </trkpt>
      <trkpt lat="45.46782" lon="5.32677">
        <ele>581.5727</ele>
        <time>2015-05-02T12:06:24Z</time>
      </trkpt>
      <trkpt lat="45.46776" lon="5.32676">
        <ele>581.863</ele>
        <time>2015-05-02T12:06:29Z</time>
      </trkpt>
      <trkpt lat="45.46772" lon="5.32676">
        <ele>581.863</ele>
        <time>2015-05-02T12:06:34Z</time>
      </trkpt>
      <trkpt lat="45.46765" lon="5.32673">
        <ele>581.88916</ele>
        <time>2015-05-02T12:06:39Z</time>
      </trkpt>
      <trkpt lat="45.46761" lon="5.32669">
        <ele>581.88916</ele>
        <time>2015-05-02T12:06:44Z</time>
      </trkpt>
      <trkpt lat="45.46754" lon="5.32665">
        <ele>581.65454</ele>
        <time>2015-05-02T12:06:49Z</time>
      </trkpt>
      <trkpt lat="45.46751" lon="5.32663">
        <ele>581.65454</ele>
        <time>2015-05-02T12:06:54Z</time>
      </trkpt>
      <trkpt lat="45.46747" lon="5.32661">
        <ele>581.65454</ele>
        <time>2015-05-02T12:06:59Z</time>
      </trkpt>
      <trkpt lat="45.46746" lon="5.32665">
        <ele>581.99884</ele>
        <time>2015-05-02T12:07:04Z</time>
      </trkpt>
      <trkpt lat="45.46744" lon="5.32672">
        <ele>581.99884</ele>
        <time>2015-05-02T12:07:09Z</time>
      </trkpt>
      <trkpt lat="45.46744" lon="5.3268">
        <ele>581.76746</ele>
        <time>2015-05-02T12:07:14Z</time>
      </trkpt>
      <trkpt lat="45.46744" lon="5.32688">
        <ele>581.76746</ele>
        <time>2015-05-02T12:07:19Z</time>
      </trkpt>
      <trkpt lat="45.46744" lon="5.32696">
        <ele>581.80884</ele>
        <time>2015-05-02T12:07:24Z</time>
      </trkpt>
      <trkpt lat="45.46743" lon="5.32705">
        <ele>581.80884</ele>
        <time>2015-05-02T12:07:29Z</time>
      </trkpt>
      <trkpt lat="45.46743" lon="5.32711">
        <ele>582.10144</ele>
        <time>2015-05-02T12:07:34Z</time>
      </trkpt>
      <trkpt lat="45.46739" lon="5.32723">
        <ele>582.7399</ele>
        <time>2015-05-02T12:07:39Z</time>
      </trkpt>
      <trkpt lat="45.46737" lon="5.32729">
        <ele>582.7399</ele>
        <time>2015-05-02T12:07:44Z</time>
      </trkpt>
      <trkpt lat="45.46738" lon="5.32744">
        <ele>583.5804</ele>
        <time>2015-05-02T12:07:49Z</time>
      </trkpt>
      <trkpt lat="45.4674" lon="5.32753">
        <ele>583.5804</ele>
        <time>2015-05-02T12:07:54Z</time>
      </trkpt>
      <trkpt lat="45.4674" lon="5.32761">
        <ele>584.86383</ele>
        <time>2015-05-02T12:07:59Z</time>
      </trkpt>
      <trkpt lat="45.46739" lon="5.32768">
        <ele>584.86383</ele>
        <time>2015-05-02T12:08:04Z</time>
      </trkpt>
      <trkpt lat="45.46739" lon="5.32774">
        <ele>586.6681</ele>
        <time>2015-05-02T12:08:09Z</time>
      </trkpt>
      <trkpt lat="45.46738" lon="5.32782">
        <ele>586.6681</ele>
        <time>2015-05-02T12:08:14Z</time>
      </trkpt>
      <trkpt lat="45.46738" lon="5.32787">
        <ele>588.02637</ele>
        <time>2015-05-02T12:08:19Z</time>
      </trkpt>
      <trkpt lat="45.46737" lon="5.32791">
        <ele>588.02637</ele>
        <time>2015-05-02T12:08:24Z</time>
      </trkpt>
      <trkpt lat="45.46737" lon="5.32796">
        <ele>588.02637</ele>
        <time>2015-05-02T12:08:29Z</time>
      </trkpt>
      <trkpt lat="45.46737" lon="5.32804">
        <ele>590.39325</ele>
        <time>2015-05-02T12:08:34Z</time>
      </trkpt>
      <trkpt lat="45.46738" lon="5.32809">
        <ele>590.39325</ele>
        <time>2015-05-02T12:08:39Z</time>
      </trkpt>
      <trkpt lat="45.46739" lon="5.32817">
        <ele>592.1018</ele>
        <time>2015-05-02T12:08:44Z</time>
      </trkpt>
      <trkpt lat="45.46739" lon="5.32821">
        <ele>592.1018</ele>
        <time>2015-05-02T12:08:49Z</time>
      </trkpt>
      <trkpt lat="45.46738" lon="5.32831">
        <ele>593.4974</ele>
        <time>2015-05-02T12:08:54Z</time>
      </trkpt>
      <trkpt lat="45.46738" lon="5.32846">
        <ele>594.23785</ele>
        <time>2015-05-02T12:08:59Z</time>
      </trkpt>
      <trkpt lat="45.46735" lon="5.32858">
        <ele>594.72894</ele>
        <time>2015-05-02T12:09:04Z</time>
      </trkpt>
      <trkpt lat="45.46732" lon="5.3287">
        <ele>594.72894</ele>
        <time>2015-05-02T12:09:09Z</time>
      </trkpt>
      <trkpt lat="45.46731" lon="5.32883">
        <ele>596.1399</ele>
        <time>2015-05-02T12:09:14Z</time>
      </trkpt>
      <trkpt lat="45.46729" lon="5.32892">
        <ele>596.1399</ele>
        <time>2015-05-02T12:09:19Z</time>
      </trkpt>
      <trkpt lat="45.46729" lon="5.32905">
        <ele>597.9521</ele>
        <time>2015-05-02T12:09:24Z</time>
      </trkpt>
      <trkpt lat="45.4673" lon="5.32915">
        <ele>597.9521</ele>
        <time>2015-05-02T12:09:29Z</time>
      </trkpt>
      <trkpt lat="45.46728" lon="5.32923">
        <ele>599.77026</ele>
        <time>2015-05-02T12:09:34Z</time>
      </trkpt>
      <trkpt lat="45.46727" lon="5.3293">
        <ele>599.77026</ele>
        <time>2015-05-02T12:09:39Z</time>
      </trkpt>
      <trkpt lat="45.46726" lon="5.32937">
        <ele>601.7617</ele>
        <time>2015-05-02T12:09:44Z</time>
      </trkpt>
      <trkpt lat="45.46722" lon="5.32943">
        <ele>601.7617</ele>
        <time>2015-05-02T12:09:49Z</time>
      </trkpt>
      <trkpt lat="45.46721" lon="5.32946">
        <ele>601.7617</ele>
        <time>2015-05-02T12:09:55Z</time>
      </trkpt>
      <trkpt lat="45.46718" lon="5.32957">
        <ele>603.21625</ele>
        <time>2015-05-02T12:10:00Z</time>
      </trkpt>
      <trkpt lat="45.46717" lon="5.32969">
        <ele>603.21625</ele>
        <time>2015-05-02T12:10:04Z</time>
      </trkpt>
      <trkpt lat="45.46716" lon="5.32977">
        <ele>605.207</ele>
        <time>2015-05-02T12:10:10Z</time>
      </trkpt>
      <trkpt lat="45.46714" lon="5.32987">
        <ele>605.207</ele>
        <time>2015-05-02T12:10:15Z</time>
      </trkpt>
      <trkpt lat="45.46716" lon="5.32993">
        <ele>606.59393</ele>
        <time>2015-05-02T12:10:19Z</time>
      </trkpt>
      <trkpt lat="45.4672" lon="5.32999">
        <ele>606.59393</ele>
        <time>2015-05-02T12:10:24Z</time>
      </trkpt>
      <trkpt lat="45.46722" lon="5.33003">
        <ele>607.17285</ele>
        <time>2015-05-02T12:10:29Z</time>
      </trkpt>
      <trkpt lat="45.46725" lon="5.33008">
        <ele>607.17285</ele>
        <time>2015-05-02T12:10:34Z</time>
      </trkpt>
      <trkpt lat="45.4673" lon="5.33015">
        <ele>607.1318</ele>
        <time>2015-05-02T12:10:39Z</time>
      </trkpt>
      <trkpt lat="45.46732" lon="5.33025">
        <ele>607.1318</ele>
        <time>2015-05-02T12:10:44Z</time>
      </trkpt>
      <trkpt lat="45.46734" lon="5.33033">
        <ele>606.21436</ele>
        <time>2015-05-02T12:10:49Z</time>
      </trkpt>
      <trkpt lat="45.46739" lon="5.33044">
        <ele>605.18</ele>
        <time>2015-05-02T12:10:54Z</time>
      </trkpt>
      <trkpt lat="45.46741" lon="5.33056">
        <ele>605.18</ele>
        <time>2015-05-02T12:10:59Z</time>
      </trkpt>
      <trkpt lat="45.46744" lon="5.33066">
        <ele>604.25726</ele>
        <time>2015-05-02T12:11:04Z</time>
      </trkpt>
      <trkpt lat="45.46749" lon="5.33071">
        <ele>604.25726</ele>
        <time>2015-05-02T12:11:09Z</time>
      </trkpt>
      <trkpt lat="45.4675" lon="5.33077">
        <ele>604.66644</ele>
        <time>2015-05-02T12:11:14Z</time>
      </trkpt>
      <trkpt lat="45.46749" lon="5.33083">
        <ele>604.66644</ele>
        <time>2015-05-02T12:11:19Z</time>
      </trkpt>
      <trkpt lat="45.46744" lon="5.33091">
        <ele>605.12787</ele>
        <time>2015-05-02T12:11:24Z</time>
      </trkpt>
      <trkpt lat="45.4674" lon="5.33095">
        <ele>605.12787</ele>
        <time>2015-05-02T12:11:29Z</time>
      </trkpt>
      <trkpt lat="45.46739" lon="5.331">
        <ele>605.12787</ele>
        <time>2015-05-02T12:11:34Z</time>
      </trkpt>
      <trkpt lat="45.46739" lon="5.33101">
        <ele>606.1851</ele>
        <time>2015-05-02T12:11:39Z</time>
      </trkpt>
      <trkpt lat="45.46739" lon="5.331">
        <ele>606.1851</ele>
        <time>2015-05-02T12:11:44Z</time>
      </trkpt>
      <trkpt lat="45.46738" lon="5.33102">
        <ele>606.1851</ele>
        <time>2015-05-02T12:11:49Z</time>
      </trkpt>
      <trkpt lat="45.46736" lon="5.33102">
        <ele>606.1851</ele>
        <time>2015-05-02T12:11:54Z</time>
      </trkpt>
      <trkpt lat="45.46736" lon="5.33103">
        <ele>606.1851</ele>
        <time>2015-05-02T12:11:59Z</time>
      </trkpt>
      <trkpt lat="45.46738" lon="5.33103">
        <ele>606.1851</ele>
        <time>2015-05-02T12:12:04Z</time>
      </trkpt>
      <trkpt lat="45.46738" lon="5.33105">
        <ele>606.1851</ele>
        <time>2015-05-02T12:12:09Z</time>
      </trkpt>
      <trkpt lat="45.46737" lon="5.33107">
        <ele>607.562</ele>
        <time>2015-05-02T12:12:14Z</time>
      </trkpt>
      <trkpt lat="45.46738" lon="5.3311">
        <ele>607.562</ele>
        <time>2015-05-02T12:12:19Z</time>
      </trkpt>
      <trkpt lat="45.46737" lon="5.33117">
        <ele>607.562</ele>
        <time>2015-05-02T12:12:24Z</time>
      </trkpt>
      <trkpt lat="45.46736" lon="5.33124">
        <ele>607.83466</ele>
        <time>2015-05-02T12:12:29Z</time>
      </trkpt>
      <trkpt lat="45.46732" lon="5.33134">
        <ele>607.83466</ele>
        <time>2015-05-02T12:12:34Z</time>
      </trkpt>
      <trkpt lat="45.46731" lon="5.33148">
        <ele>607.86285</ele>
        <time>2015-05-02T12:12:39Z</time>
      </trkpt>
      <trkpt lat="45.46731" lon="5.33161">
        <ele>607.86285</ele>
        <time>2015-05-02T12:12:46Z</time>
      </trkpt>
      <trkpt lat="45.46731" lon="5.33173">
        <ele>607.98285</ele>
        <time>2015-05-02T12:12:50Z</time>
      </trkpt>
      <trkpt lat="45.46734" lon="5.33186">
        <ele>607.98285</ele>
        <time>2015-05-02T12:12:56Z</time>
      </trkpt>
      <trkpt lat="45.46736" lon="5.33194">
        <ele>607.6701</ele>
        <time>2015-05-02T12:13:01Z</time>
      </trkpt>
      <trkpt lat="45.46739" lon="5.33206">
        <ele>607.6701</ele>
        <time>2015-05-02T12:13:06Z</time>
      </trkpt>
      <trkpt lat="45.46739" lon="5.33216">
        <ele>607.5208</ele>
        <time>2015-05-02T12:13:09Z</time>
      </trkpt>
      <trkpt lat="45.4674" lon="5.33227">
        <ele>607.5208</ele>
        <time>2015-05-02T12:13:15Z</time>
      </trkpt>
      <trkpt lat="45.4674" lon="5.3324">
        <ele>607.2943</ele>
        <time>2015-05-02T12:13:21Z</time>
      </trkpt>
      <trkpt lat="45.46743" lon="5.33247">
        <ele>607.2943</ele>
        <time>2015-05-02T12:13:26Z</time>
      </trkpt>
      <trkpt lat="45.46744" lon="5.33257">
        <ele>607.2289</ele>
        <time>2015-05-02T12:13:30Z</time>
      </trkpt>
      <trkpt lat="45.46745" lon="5.33267">
        <ele>607.2289</ele>
        <time>2015-05-02T12:13:36Z</time>
      </trkpt>
      <trkpt lat="45.46755" lon="5.33295">
        <ele>607.0262</ele>
        <time>2015-05-02T12:13:41Z</time>
      </trkpt>
      <trkpt lat="45.46758" lon="5.33314">
        <ele>607.4478</ele>
        <time>2015-05-02T12:13:46Z</time>
      </trkpt>
      <trkpt lat="45.46763" lon="5.33325">
        <ele>607.4478</ele>
        <time>2015-05-02T12:13:51Z</time>
      </trkpt>
      <trkpt lat="45.46763" lon="5.33331">
        <ele>609.12555</ele>
        <time>2015-05-02T12:13:56Z</time>
      </trkpt>
      <trkpt lat="45.46763" lon="5.33339">
        <ele>609.12555</ele>
        <time>2015-05-02T12:14:01Z</time>
      </trkpt>
      <trkpt lat="45.46762" lon="5.33345">
        <ele>610.19135</ele>
        <time>2015-05-02T12:14:06Z</time>
      </trkpt>
      <trkpt lat="45.46764" lon="5.33353">
        <ele>610.19135</ele>
        <time>2015-05-02T12:14:11Z</time>
      </trkpt>
      <trkpt lat="45.46762" lon="5.33357">
        <ele>612.1731</ele>
        <time>2015-05-02T12:14:14Z</time>
      </trkpt>
      <trkpt lat="45.46761" lon="5.3337">
        <ele>612.1731</ele>
        <time>2015-05-02T12:14:19Z</time>
      </trkpt>
      <trkpt lat="45.46763" lon="5.33379">
        <ele>614.106</ele>
        <time>2015-05-02T12:14:24Z</time>
      </trkpt>
      <trkpt lat="45.46764" lon="5.33384">
        <ele>614.106</ele>
        <time>2015-05-02T12:14:29Z</time>
      </trkpt>
      <trkpt lat="45.46763" lon="5.33386">
        <ele>614.106</ele>
        <time>2015-05-02T12:14:34Z</time>
      </trkpt>
      <trkpt lat="45.46763" lon="5.33386">
        <ele>614.106</ele>
        <time>2015-05-02T12:14:39Z</time>
      </trkpt>
      <trkpt lat="45.46764" lon="5.33387">
        <ele>614.106</ele>
        <time>2015-05-02T12:14:44Z</time>
      </trkpt>
      <trkpt lat="45.46764" lon="5.33387">
        <ele>614.106</ele>
        <time>2015-05-02T12:14:49Z</time>
      </trkpt>
      <trkpt lat="45.46764" lon="5.33387">
        <ele>614.106</ele>
        <time>2015-05-02T12:14:54Z</time>
      </trkpt>
      <trkpt lat="45.46763" lon="5.33391">
        <ele>615.2836</ele>
        <time>2015-05-02T12:14:59Z</time>
      </trkpt>
      <trkpt lat="45.46766" lon="5.334">
        <ele>615.2836</ele>
        <time>2015-05-02T12:15:04Z</time>
      </trkpt>
      <trkpt lat="45.46763" lon="5.33407">
        <ele>616.5957</ele>
        <time>2015-05-02T12:15:09Z</time>
      </trkpt>
      <trkpt lat="45.46766" lon="5.33412">
        <ele>616.5957</ele>
        <time>2015-05-02T12:15:14Z</time>
      </trkpt>
      <trkpt lat="45.4677" lon="5.33418">
        <ele>617.742</ele>
        <time>2015-05-02T12:15:19Z</time>
      </trkpt>
      <trkpt lat="45.46768" lon="5.33427">
        <ele>617.742</ele>
        <time>2015-05-02T12:15:24Z</time>
      </trkpt>
      <trkpt lat="45.46769" lon="5.33433">
        <ele>619.7997</ele>
        <time>2015-05-02T12:15:29Z</time>
      </trkpt>
      <trkpt lat="45.46771" lon="5.33437">
        <ele>619.7997</ele>
        <time>2015-05-02T12:15:34Z</time>
      </trkpt>
      <trkpt lat="45.46773" lon="5.33441">
        <ele>619.7997</ele>
        <time>2015-05-02T12:15:39Z</time>
      </trkpt>
      <trkpt lat="45.46774" lon="5.33447">
        <ele>621.9051</ele>
        <time>2015-05-02T12:15:44Z</time>
      </trkpt>
      <trkpt lat="45.46777" lon="5.33457">
        <ele>621.9051</ele>
        <time>2015-05-02T12:15:49Z</time>
      </trkpt>
      <trkpt lat="45.4678" lon="5.33463">
        <ele>623.53186</ele>
        <time>2015-05-02T12:15:54Z</time>
      </trkpt>
      <trkpt lat="45.46789" lon="5.33475">
        <ele>624.2368</ele>
        <time>2015-05-02T12:15:59Z</time>
      </trkpt>
      <trkpt lat="45.46793" lon="5.33483">
        <ele>624.2368</ele>
        <time>2015-05-02T12:16:04Z</time>
      </trkpt>
      <trkpt lat="45.46795" lon="5.33498">
        <ele>623.7129</ele>
        <time>2015-05-02T12:16:09Z</time>
      </trkpt>
      <trkpt lat="45.46792" lon="5.33527">
        <ele>623.1347</ele>
        <time>2015-05-02T12:16:14Z</time>
      </trkpt>
      <trkpt lat="45.46785" lon="5.33558">
        <ele>622.61066</ele>
        <time>2015-05-02T12:16:19Z</time>
      </trkpt>
      <trkpt lat="45.46786" lon="5.33576">
        <ele>623.14905</ele>
        <time>2015-05-02T12:16:24Z</time>
      </trkpt>
      <trkpt lat="45.46787" lon="5.33589">
        <ele>624.4419</ele>
        <time>2015-05-02T12:16:29Z</time>
      </trkpt>
      <trkpt lat="45.46789" lon="5.33591">
        <ele>624.4419</ele>
        <time>2015-05-02T12:16:34Z</time>
      </trkpt>
      <trkpt lat="45.46791" lon="5.33594">
        <ele>624.4419</ele>
        <time>2015-05-02T12:16:39Z</time>
      </trkpt>
      <trkpt lat="45.46797" lon="5.336">
        <ele>625.5818</ele>
        <time>2015-05-02T12:16:44Z</time>
      </trkpt>
      <trkpt lat="45.46816" lon="5.3361">
        <ele>626.262</ele>
        <time>2015-05-02T12:16:49Z</time>
      </trkpt>
      <trkpt lat="45.46849" lon="5.33621">
        <ele>626.73254</ele>
        <time>2015-05-02T12:16:54Z</time>
      </trkpt>
      <trkpt lat="45.46885" lon="5.33636">
        <ele>628.22015</ele>
        <time>2015-05-02T12:16:59Z</time>
      </trkpt>
      <trkpt lat="45.46908" lon="5.33639">
        <ele>629.6106</ele>
        <time>2015-05-02T12:17:04Z</time>
      </trkpt>
      <trkpt lat="45.46942" lon="5.33635">
        <ele>631.255</ele>
        <time>2015-05-02T12:17:09Z</time>
      </trkpt>
      <trkpt lat="45.46963" lon="5.33633">
        <ele>632.8729</ele>
        <time>2015-05-02T12:17:14Z</time>
      </trkpt>
      <trkpt lat="45.46981" lon="5.33629">
        <ele>634.26227</ele>
        <time>2015-05-02T12:17:19Z</time>
      </trkpt>
      <trkpt lat="45.46991" lon="5.33626">
        <ele>635.5246</ele>
        <time>2015-05-02T12:17:24Z</time>
      </trkpt>
      <trkpt lat="45.46994" lon="5.33622">
        <ele>635.5246</ele>
        <time>2015-05-02T12:17:29Z</time>
      </trkpt>
      <trkpt lat="45.47004" lon="5.33621">
        <ele>636.42303</ele>
        <time>2015-05-02T12:17:34Z</time>
      </trkpt>
      <trkpt lat="45.47013" lon="5.33619">
        <ele>637.1425</ele>
        <time>2015-05-02T12:17:39Z</time>
      </trkpt>
      <trkpt lat="45.47021" lon="5.33614">
        <ele>637.1425</ele>
        <time>2015-05-02T12:17:44Z</time>
      </trkpt>
      <trkpt lat="45.47028" lon="5.33611">
        <ele>638.44604</ele>
        <time>2015-05-02T12:17:49Z</time>
      </trkpt>
      <trkpt lat="45.47034" lon="5.33606">
        <ele>638.44604</ele>
        <time>2015-05-02T12:17:54Z</time>
      </trkpt>
      <trkpt lat="45.4704" lon="5.33601">
        <ele>639.612</ele>
        <time>2015-05-02T12:17:59Z</time>
      </trkpt>
      <trkpt lat="45.4705" lon="5.33601">
        <ele>639.9003</ele>
        <time>2015-05-02T12:18:07Z</time>
      </trkpt>
      <trkpt lat="45.47053" lon="5.33597">
        <ele>639.9003</ele>
        <time>2015-05-02T12:18:11Z</time>
      </trkpt>
      <trkpt lat="45.47054" lon="5.33594">
        <ele>639.9003</ele>
        <time>2015-05-02T12:18:17Z</time>
      </trkpt>
      <trkpt lat="45.47061" lon="5.33591">
        <ele>640.6596</ele>
        <time>2015-05-02T12:18:19Z</time>
      </trkpt>
      <trkpt lat="45.47068" lon="5.33589">
        <ele>640.6596</ele>
        <time>2015-05-02T12:18:25Z</time>
      </trkpt>
      <trkpt lat="45.4708" lon="5.33584">
        <ele>642.1872</ele>
        <time>2015-05-02T12:18:30Z</time>
      </trkpt>
      <trkpt lat="45.47085" lon="5.33582">
        <ele>642.1872</ele>
        <time>2015-05-02T12:18:35Z</time>
      </trkpt>
      <trkpt lat="45.47088" lon="5.3358">
        <ele>642.1872</ele>
        <time>2015-05-02T12:18:41Z</time>
      </trkpt>
      <trkpt lat="45.47089" lon="5.33581">
        <ele>642.1872</ele>
        <time>2015-05-02T12:18:46Z</time>
      </trkpt>
      <trkpt lat="45.4709" lon="5.3358">
        <ele>643.70416</ele>
        <time>2015-05-02T12:18:51Z</time>
      </trkpt>
      <trkpt lat="45.47098" lon="5.33578">
        <ele>643.70416</ele>
        <time>2015-05-02T12:18:56Z</time>
      </trkpt>
      <trkpt lat="45.47108" lon="5.33577">
        <ele>644.0711</ele>
        <time>2015-05-02T12:19:01Z</time>
      </trkpt>
      <trkpt lat="45.47114" lon="5.33577">
        <ele>644.0711</ele>
        <time>2015-05-02T12:19:06Z</time>
      </trkpt>
      <trkpt lat="45.47124" lon="5.33578">
        <ele>644.2676</ele>
        <time>2015-05-02T12:19:11Z</time>
      </trkpt>
      <trkpt lat="45.47135" lon="5.33585">
        <ele>644.78357</ele>
        <time>2015-05-02T12:19:14Z</time>
      </trkpt>
      <trkpt lat="45.47145" lon="5.33582">
        <ele>645.6401</ele>
        <time>2015-05-02T12:19:21Z</time>
      </trkpt>
      <trkpt lat="45.47153" lon="5.33581">
        <ele>645.6401</ele>
        <time>2015-05-02T12:19:26Z</time>
      </trkpt>
      <trkpt lat="45.47164" lon="5.33577">
        <ele>648.0948</ele>
        <time>2015-05-02T12:19:30Z</time>
      </trkpt>
      <trkpt lat="45.47171" lon="5.33576">
        <ele>648.0948</ele>
        <time>2015-05-02T12:19:34Z</time>
      </trkpt>
      <trkpt lat="45.47175" lon="5.33572">
        <ele>651.14703</ele>
        <time>2015-05-02T12:19:39Z</time>
      </trkpt>
      <trkpt lat="45.47183" lon="5.33571">
        <ele>651.14703</ele>
        <time>2015-05-02T12:19:44Z</time>
      </trkpt>
      <trkpt lat="45.4719" lon="5.33574">
        <ele>652.0952</ele>
        <time>2015-05-02T12:19:49Z</time>
      </trkpt>
      <trkpt lat="45.47196" lon="5.33576">
        <ele>652.0952</ele>
        <time>2015-05-02T12:19:54Z</time>
      </trkpt>
      <trkpt lat="45.47204" lon="5.33575">
        <ele>652.49194</ele>
        <time>2015-05-02T12:19:59Z</time>
      </trkpt>
      <trkpt lat="45.4721" lon="5.33566">
        <ele>652.49194</ele>
        <time>2015-05-02T12:20:04Z</time>
      </trkpt>
      <trkpt lat="45.47217" lon="5.33568">
        <ele>653.71936</ele>
        <time>2015-05-02T12:20:09Z</time>
      </trkpt>
      <trkpt lat="45.47224" lon="5.33566">
        <ele>653.71936</ele>
        <time>2015-05-02T12:20:14Z</time>
      </trkpt>
      <trkpt lat="45.47229" lon="5.33563">
        <ele>654.5053</ele>
        <time>2015-05-02T12:20:19Z</time>
      </trkpt>
      <trkpt lat="45.47234" lon="5.33561">
        <ele>654.5053</ele>
        <time>2015-05-02T12:20:24Z</time>
      </trkpt>
      <trkpt lat="45.47237" lon="5.33559">
        <ele>655.12775</ele>
        <time>2015-05-02T12:20:29Z</time>
      </trkpt>
      <trkpt lat="45.4724" lon="5.33558">
        <ele>655.12775</ele>
        <time>2015-05-02T12:20:34Z</time>
      </trkpt>
      <trkpt lat="45.47245" lon="5.33558">
        <ele>655.12775</ele>
        <time>2015-05-02T12:20:39Z</time>
      </trkpt>
      <trkpt lat="45.47252" lon="5.3356">
        <ele>653.9568</ele>
        <time>2015-05-02T12:20:44Z</time>
      </trkpt>
      <trkpt lat="45.47258" lon="5.33561">
        <ele>653.9568</ele>
        <time>2015-05-02T12:20:49Z</time>
      </trkpt>
      <trkpt lat="45.47267" lon="5.33561">
        <ele>652.47046</ele>
        <time>2015-05-02T12:20:54Z</time>
      </trkpt>
      <trkpt lat="45.4727" lon="5.3356">
        <ele>652.47046</ele>
        <time>2015-05-02T12:20:59Z</time>
      </trkpt>
      <trkpt lat="45.47272" lon="5.33561">
        <ele>652.47046</ele>
        <time>2015-05-02T12:21:04Z</time>
      </trkpt>
      <trkpt lat="45.47284" lon="5.33561">
        <ele>651.9671</ele>
        <time>2015-05-02T12:21:09Z</time>
      </trkpt>
      <trkpt lat="45.47291" lon="5.33562">
        <ele>651.9671</ele>
        <time>2015-05-02T12:21:14Z</time>
      </trkpt>
      <trkpt lat="45.47297" lon="5.33565">
        <ele>651.48517</ele>
        <time>2015-05-02T12:21:19Z</time>
      </trkpt>
      <trkpt lat="45.47308" lon="5.33568">
        <ele>650.148</ele>
        <time>2015-05-02T12:21:24Z</time>
      </trkpt>
      <trkpt lat="45.47316" lon="5.33571">
        <ele>650.148</ele>
        <time>2015-05-02T12:21:29Z</time>
      </trkpt>
      <trkpt lat="45.47325" lon="5.33576">
        <ele>648.83203</ele>
        <time>2015-05-02T12:21:34Z</time>
      </trkpt>
      <trkpt lat="45.47335" lon="5.33578">
        <ele>647.45544</ele>
        <time>2015-05-02T12:21:39Z</time>
      </trkpt>
      <trkpt lat="45.47341" lon="5.33579">
        <ele>647.45544</ele>
        <time>2015-05-02T12:21:44Z</time>
      </trkpt>
      <trkpt lat="45.47348" lon="5.33579">
        <ele>645.97144</ele>
        <time>2015-05-02T12:21:49Z</time>
      </trkpt>
      <trkpt lat="45.47357" lon="5.33577">
        <ele>644.4523</ele>
        <time>2015-05-02T12:21:54Z</time>
      </trkpt>
      <trkpt lat="45.47361" lon="5.33578">
        <ele>644.4523</ele>
        <time>2015-05-02T12:21:59Z</time>
      </trkpt>
      <trkpt lat="45.47367" lon="5.33581">
        <ele>642.70526</ele>
        <time>2015-05-02T12:22:04Z</time>
      </trkpt>
      <trkpt lat="45.47369" lon="5.33588">
        <ele>642.70526</ele>
        <time>2015-05-02T12:22:09Z</time>
      </trkpt>
      <trkpt lat="45.47372" lon="5.33596">
        <ele>640.4661</ele>
        <time>2015-05-02T12:22:14Z</time>
      </trkpt>
      <trkpt lat="45.47376" lon="5.33604">
        <ele>640.4661</ele>
        <time>2015-05-02T12:22:19Z</time>
      </trkpt>
      <trkpt lat="45.47382" lon="5.3361">
        <ele>638.2262</ele>
        <time>2015-05-02T12:22:24Z</time>
      </trkpt>
      <trkpt lat="45.47387" lon="5.33617">
        <ele>638.2262</ele>
        <time>2015-05-02T12:22:29Z</time>
      </trkpt>
      <trkpt lat="45.4739" lon="5.33625">
        <ele>636.354</ele>
        <time>2015-05-02T12:22:34Z</time>
      </trkpt>
      <trkpt lat="45.47395" lon="5.33638">
        <ele>634.82965</ele>
        <time>2015-05-02T12:22:39Z</time>
      </trkpt>
      <trkpt lat="45.47404" lon="5.33657">
        <ele>632.8553</ele>
        <time>2015-05-02T12:22:44Z</time>
      </trkpt>
      <trkpt lat="45.47408" lon="5.33673">
        <ele>630.9177</ele>
        <time>2015-05-02T12:22:49Z</time>
      </trkpt>
      <trkpt lat="45.47413" lon="5.3368">
        <ele>630.9177</ele>
        <time>2015-05-02T12:22:54Z</time>
      </trkpt>
      <trkpt lat="45.4742" lon="5.33702">
        <ele>628.92017</ele>
        <time>2015-05-02T12:22:59Z</time>
      </trkpt>
      <trkpt lat="45.4743" lon="5.33739">
        <ele>626.9747</ele>
        <time>2015-05-02T12:23:04Z</time>
      </trkpt>
      <trkpt lat="45.4744" lon="5.33759">
        <ele>624.9396</ele>
        <time>2015-05-02T12:23:09Z</time>
      </trkpt>
      <trkpt lat="45.4745" lon="5.33778">
        <ele>623.62054</ele>
        <time>2015-05-02T12:23:14Z</time>
      </trkpt>
      <trkpt lat="45.4746" lon="5.33804">
        <ele>623.2863</ele>
        <time>2015-05-02T12:23:19Z</time>
      </trkpt>
      <trkpt lat="45.47468" lon="5.33822">
        <ele>623.2749</ele>
        <time>2015-05-02T12:23:24Z</time>
      </trkpt>
      <trkpt lat="45.4748" lon="5.33841">
        <ele>622.9576</ele>
        <time>2015-05-02T12:23:29Z</time>
      </trkpt>
      <trkpt lat="45.47491" lon="5.33858">
        <ele>622.4874</ele>
        <time>2015-05-02T12:23:34Z</time>
      </trkpt>
      <trkpt lat="45.475" lon="5.3387">
        <ele>621.96313</ele>
        <time>2015-05-02T12:23:39Z</time>
      </trkpt>
      <trkpt lat="45.47503" lon="5.33881">
        <ele>621.96313</ele>
        <time>2015-05-02T12:23:44Z</time>
      </trkpt>
      <trkpt lat="45.47506" lon="5.33889">
        <ele>621.60614</ele>
        <time>2015-05-02T12:23:49Z</time>
      </trkpt>
      <trkpt lat="45.47508" lon="5.339">
        <ele>621.60614</ele>
        <time>2015-05-02T12:23:54Z</time>
      </trkpt>
      <trkpt lat="45.4751" lon="5.33911">
        <ele>621.24603</ele>
        <time>2015-05-02T12:23:59Z</time>
      </trkpt>
      <trkpt lat="45.47509" lon="5.33919">
        <ele>621.24603</ele>
        <time>2015-05-02T12:24:04Z</time>
      </trkpt>
      <trkpt lat="45.47509" lon="5.33922">
        <ele>621.24603</ele>
        <time>2015-05-02T12:24:09Z</time>
      </trkpt>
      <trkpt lat="45.47509" lon="5.33922">
        <ele>621.24603</ele>
        <time>2015-05-02T12:24:14Z</time>
      </trkpt>
      <trkpt lat="45.47509" lon="5.33922">
        <ele>621.24603</ele>
        <time>2015-05-02T12:24:19Z</time>
      </trkpt>
      <trkpt lat="45.4751" lon="5.33922">
        <ele>621.287</ele>
        <time>2015-05-02T12:24:24Z</time>
      </trkpt>
      <trkpt lat="45.4751" lon="5.33924">
        <ele>621.287</ele>
        <time>2015-05-02T12:24:29Z</time>
      </trkpt>
      <trkpt lat="45.4751" lon="5.33925">
        <ele>621.287</ele>
        <time>2015-05-02T12:24:34Z</time>
      </trkpt>
      <trkpt lat="45.4751" lon="5.33925">
        <ele>621.287</ele>
        <time>2015-05-02T12:24:39Z</time>
      </trkpt>
      <trkpt lat="45.4751" lon="5.33925">
        <ele>621.287</ele>
        <time>2015-05-02T12:24:44Z</time>
      </trkpt>
      <trkpt lat="45.4751" lon="5.33925">
        <ele>621.287</ele>
        <time>2015-05-02T12:24:49Z</time>
      </trkpt>
      <trkpt lat="45.4751" lon="5.33925">
        <ele>621.287</ele>
        <time>2015-05-02T12:24:54Z</time>
      </trkpt>
      <trkpt lat="45.4751" lon="5.33925">
        <ele>621.287</ele>
        <time>2015-05-02T12:24:59Z</time>
      </trkpt>
      <trkpt lat="45.4751" lon="5.33924">
        <ele>621.287</ele>
        <time>2015-05-02T12:25:04Z</time>
      </trkpt>
      <trkpt lat="45.4751" lon="5.33924">
        <ele>621.287</ele>
        <time>2015-05-02T12:25:09Z</time>
      </trkpt>
      <trkpt lat="45.4751" lon="5.33923">
        <ele>621.287</ele>
        <time>2015-05-02T12:25:14Z</time>
      </trkpt>
      <trkpt lat="45.4751" lon="5.33923">
        <ele>621.287</ele>
        <time>2015-05-02T12:25:19Z</time>
      </trkpt>
      <trkpt lat="45.4751" lon="5.33923">
        <ele>621.287</ele>
        <time>2015-05-02T12:25:24Z</time>
      </trkpt>
      <trkpt lat="45.47509" lon="5.33924">
        <ele>621.287</ele>
        <time>2015-05-02T12:25:29Z</time>
      </trkpt>
      <trkpt lat="45.47508" lon="5.33923">
        <ele>621.287</ele>
        <time>2015-05-02T12:25:34Z</time>
      </trkpt>
      <trkpt lat="45.47508" lon="5.33921">
        <ele>621.287</ele>
        <time>2015-05-02T12:25:39Z</time>
      </trkpt>
      <trkpt lat="45.47509" lon="5.3392">
        <ele>621.814</ele>
        <time>2015-05-02T12:25:44Z</time>
      </trkpt>
      <trkpt lat="45.4751" lon="5.3392">
        <ele>621.814</ele>
        <time>2015-05-02T12:25:49Z</time>
      </trkpt>
      <trkpt lat="45.47511" lon="5.33925">
        <ele>621.814</ele>
        <time>2015-05-02T12:25:54Z</time>
      </trkpt>
      <trkpt lat="45.47512" lon="5.33925">
        <ele>621.814</ele>
        <time>2015-05-02T12:25:59Z</time>
      </trkpt>
      <trkpt lat="45.47511" lon="5.33924">
        <ele>621.814</ele>
        <time>2015-05-02T12:26:04Z</time>
      </trkpt>
      <trkpt lat="45.47511" lon="5.33925">
        <ele>621.814</ele>
        <time>2015-05-02T12:26:11Z</time>
      </trkpt>
      <trkpt lat="45.4751" lon="5.33924">
        <ele>621.814</ele>
        <time>2015-05-02T12:26:16Z</time>
      </trkpt>
      <trkpt lat="45.47511" lon="5.33924">
        <ele>621.814</ele>
        <time>2015-05-02T12:26:21Z</time>
      </trkpt>
      <trkpt lat="45.47511" lon="5.33924">
        <ele>621.814</ele>
        <time>2015-05-02T12:26:26Z</time>
      </trkpt>
      <trkpt lat="45.47511" lon="5.33925">
        <ele>621.7803</ele>
        <time>2015-05-02T12:26:31Z</time>
      </trkpt>
      <trkpt lat="45.47511" lon="5.33925">
        <ele>621.7803</ele>
        <time>2015-05-02T12:26:34Z</time>
      </trkpt>
      <trkpt lat="45.47511" lon="5.33924">
        <ele>621.7803</ele>
        <time>2015-05-02T12:26:41Z</time>
      </trkpt>
      <trkpt lat="45.47511" lon="5.33924">
        <ele>621.7803</ele>
        <time>2015-05-02T12:26:44Z</time>
      </trkpt>
      <trkpt lat="45.4751" lon="5.33922">
        <ele>621.7803</ele>
        <time>2015-05-02T12:26:50Z</time>
      </trkpt>
      <trkpt lat="45.47509" lon="5.33923">
        <ele>621.7803</ele>
        <time>2015-05-02T12:26:55Z</time>
      </trkpt>
      <trkpt lat="45.47509" lon="5.33924">
        <ele>621.7803</ele>
        <time>2015-05-02T12:27:02Z</time>
      </trkpt>
      <trkpt lat="45.47509" lon="5.33922">
        <ele>621.7803</ele>
        <time>2015-05-02T12:27:05Z</time>
      </trkpt>
      <trkpt lat="45.4751" lon="5.33918">
        <ele>621.7803</ele>
        <time>2015-05-02T12:27:12Z</time>
      </trkpt>
      <trkpt lat="45.47509" lon="5.3392">
        <ele>621.81696</ele>
        <time>2015-05-02T12:27:16Z</time>
      </trkpt>
      <trkpt lat="45.4751" lon="5.33928">
        <ele>621.81696</ele>
        <time>2015-05-02T12:27:21Z</time>
      </trkpt>
      <trkpt lat="45.47512" lon="5.33936">
        <ele>621.6439</ele>
        <time>2015-05-02T12:27:25Z</time>
      </trkpt>
      <trkpt lat="45.47514" lon="5.33946">
        <ele>621.6439</ele>
        <time>2015-05-02T12:27:29Z</time>
      </trkpt>
      <trkpt lat="45.47513" lon="5.33957">
        <ele>621.67944</ele>
        <time>2015-05-02T12:27:34Z</time>
      </trkpt>
      <trkpt lat="45.47513" lon="5.33966">
        <ele>621.67944</ele>
        <time>2015-05-02T12:27:39Z</time>
      </trkpt>
      <trkpt lat="45.47512" lon="5.33977">
        <ele>621.9213</ele>
        <time>2015-05-02T12:27:44Z</time>
      </trkpt>
      <trkpt lat="45.47511" lon="5.33988">
        <ele>621.9213</ele>
        <time>2015-05-02T12:27:49Z</time>
      </trkpt>
      <trkpt lat="45.47509" lon="5.33997">
        <ele>621.949</ele>
        <time>2015-05-02T12:27:54Z</time>
      </trkpt>
      <trkpt lat="45.47505" lon="5.34008">
        <ele>621.949</ele>
        <time>2015-05-02T12:27:59Z</time>
      </trkpt>
      <trkpt lat="45.47502" lon="5.34021">
        <ele>622.71344</ele>
        <time>2015-05-02T12:28:04Z</time>
      </trkpt>
      <trkpt lat="45.47498" lon="5.34031">
        <ele>622.71344</ele>
        <time>2015-05-02T12:28:09Z</time>
      </trkpt>
      <trkpt lat="45.47493" lon="5.34043">
        <ele>623.6816</ele>
        <time>2015-05-02T12:28:14Z</time>
      </trkpt>
      <trkpt lat="45.47489" lon="5.34052">
        <ele>623.6816</ele>
        <time>2015-05-02T12:28:19Z</time>
      </trkpt>
      <trkpt lat="45.47485" lon="5.34061">
        <ele>624.69025</ele>
        <time>2015-05-02T12:28:24Z</time>
      </trkpt>
      <trkpt lat="45.47481" lon="5.3407">
        <ele>624.69025</ele>
        <time>2015-05-02T12:28:29Z</time>
      </trkpt>
      <trkpt lat="45.47477" lon="5.34079">
        <ele>625.761</ele>
        <time>2015-05-02T12:28:34Z</time>
      </trkpt>
      <trkpt lat="45.47472" lon="5.34086">
        <ele>625.761</ele>
        <time>2015-05-02T12:28:39Z</time>
      </trkpt>
      <trkpt lat="45.47468" lon="5.34092">
        <ele>626.6111</ele>
        <time>2015-05-02T12:28:44Z</time>
      </trkpt>
      <trkpt lat="45.47464" lon="5.34101">
        <ele>626.6111</ele>
        <time>2015-05-02T12:28:49Z</time>
      </trkpt>
      <trkpt lat="45.4746" lon="5.34111">
        <ele>627.65656</ele>
        <time>2015-05-02T12:28:54Z</time>
      </trkpt>
      <trkpt lat="45.47457" lon="5.34119">
        <ele>627.65656</ele>
        <time>2015-05-02T12:28:59Z</time>
      </trkpt>
      <trkpt lat="45.47453" lon="5.3413">
        <ele>628.59045</ele>
        <time>2015-05-02T12:29:04Z</time>
      </trkpt>
      <trkpt lat="45.47451" lon="5.34139">
        <ele>628.59045</ele>
        <time>2015-05-02T12:29:09Z</time>
      </trkpt>
      <trkpt lat="45.4745" lon="5.34151">
        <ele>629.48914</ele>
        <time>2015-05-02T12:29:14Z</time>
      </trkpt>
      <trkpt lat="45.47447" lon="5.3416">
        <ele>629.48914</ele>
        <time>2015-05-02T12:29:19Z</time>
      </trkpt>
      <trkpt lat="45.47446" lon="5.34168">
        <ele>630.0775</ele>
        <time>2015-05-02T12:29:24Z</time>
      </trkpt>
      <trkpt lat="45.47445" lon="5.34178">
        <ele>630.0775</ele>
        <time>2015-05-02T12:29:29Z</time>
      </trkpt>
      <trkpt lat="45.47441" lon="5.34192">
        <ele>630.9521</ele>
        <time>2015-05-02T12:29:34Z</time>
      </trkpt>
      <trkpt lat="45.4744" lon="5.34202">
        <ele>630.9521</ele>
        <time>2015-05-02T12:29:39Z</time>
      </trkpt>
      <trkpt lat="45.47439" lon="5.34211">
        <ele>631.3531</ele>
        <time>2015-05-02T12:29:44Z</time>
      </trkpt>
      <trkpt lat="45.47437" lon="5.34223">
        <ele>631.3531</ele>
        <time>2015-05-02T12:29:52Z</time>
      </trkpt>
      <trkpt lat="45.47434" lon="5.3423">
        <ele>631.37085</ele>
        <time>2015-05-02T12:29:56Z</time>
      </trkpt>
      <trkpt lat="45.47432" lon="5.34239">
        <ele>631.37085</ele>
        <time>2015-05-02T12:30:01Z</time>
      </trkpt>
      <trkpt lat="45.4743" lon="5.34251">
        <ele>631.1044</ele>
        <time>2015-05-02T12:30:06Z</time>
      </trkpt>
      <trkpt lat="45.47427" lon="5.3426">
        <ele>631.1044</ele>
        <time>2015-05-02T12:30:09Z</time>
      </trkpt>
      <trkpt lat="45.47425" lon="5.3427">
        <ele>630.9058</ele>
        <time>2015-05-02T12:30:15Z</time>
      </trkpt>
      <trkpt lat="45.47421" lon="5.34279">
        <ele>630.9058</ele>
        <time>2015-05-02T12:30:21Z</time>
      </trkpt>
      <trkpt lat="45.4742" lon="5.34293">
        <ele>630.91394</ele>
        <time>2015-05-02T12:30:27Z</time>
      </trkpt>
      <trkpt lat="45.47417" lon="5.34303">
        <ele>630.91394</ele>
        <time>2015-05-02T12:30:31Z</time>
      </trkpt>
      <trkpt lat="45.47416" lon="5.34317">
        <ele>630.7668</ele>
        <time>2015-05-02T12:30:35Z</time>
      </trkpt>
      <trkpt lat="45.47415" lon="5.34328">
        <ele>630.7668</ele>
        <time>2015-05-02T12:30:41Z</time>
      </trkpt>
      <trkpt lat="45.47415" lon="5.34339">
        <ele>630.76355</ele>
        <time>2015-05-02T12:30:46Z</time>
      </trkpt>
      <trkpt lat="45.47415" lon="5.3435">
        <ele>630.76355</ele>
        <time>2015-05-02T12:30:50Z</time>
      </trkpt>
      <trkpt lat="45.47415" lon="5.34362">
        <ele>630.86414</ele>
        <time>2015-05-02T12:30:54Z</time>
      </trkpt>
      <trkpt lat="45.47415" lon="5.34374">
        <ele>630.86414</ele>
        <time>2015-05-02T12:30:59Z</time>
      </trkpt>
      <trkpt lat="45.47416" lon="5.34383">
        <ele>630.69965</ele>
        <time>2015-05-02T12:31:04Z</time>
      </trkpt>
      <trkpt lat="45.47417" lon="5.34394">
        <ele>630.69965</ele>
        <time>2015-05-02T12:31:09Z</time>
      </trkpt>
      <trkpt lat="45.47418" lon="5.34404">
        <ele>630.4479</ele>
        <time>2015-05-02T12:31:14Z</time>
      </trkpt>
      <trkpt lat="45.47421" lon="5.34414">
        <ele>630.4479</ele>
        <time>2015-05-02T12:31:19Z</time>
      </trkpt>
      <trkpt lat="45.47423" lon="5.34425">
        <ele>630.2161</ele>
        <time>2015-05-02T12:31:24Z</time>
      </trkpt>
      <trkpt lat="45.47425" lon="5.34435">
        <ele>630.2161</ele>
        <time>2015-05-02T12:31:29Z</time>
      </trkpt>
      <trkpt lat="45.47428" lon="5.34444">
        <ele>629.57074</ele>
        <time>2015-05-02T12:31:34Z</time>
      </trkpt>
      <trkpt lat="45.47432" lon="5.34455">
        <ele>629.57074</ele>
        <time>2015-05-02T12:31:39Z</time>
      </trkpt>
      <trkpt lat="45.47435" lon="5.34465">
        <ele>628.7739</ele>
        <time>2015-05-02T12:31:44Z</time>
      </trkpt>
      <trkpt lat="45.47438" lon="5.34474">
        <ele>628.7739</ele>
        <time>2015-05-02T12:31:49Z</time>
      </trkpt>
      <trkpt lat="45.47442" lon="5.34483">
        <ele>627.8241</ele>
        <time>2015-05-02T12:31:54Z</time>
      </trkpt>
      <trkpt lat="45.47446" lon="5.34491">
        <ele>627.8241</ele>
        <time>2015-05-02T12:31:59Z</time>
      </trkpt>
      <trkpt lat="45.47454" lon="5.34492">
        <ele>626.9509</ele>
        <time>2015-05-02T12:32:04Z</time>
      </trkpt>
      <trkpt lat="45.47462" lon="5.34486">
        <ele>626.2516</ele>
        <time>2015-05-02T12:32:09Z</time>
      </trkpt>
      <trkpt lat="45.4747" lon="5.34479">
        <ele>625.7868</ele>
        <time>2015-05-02T12:32:14Z</time>
      </trkpt>
      <trkpt lat="45.47477" lon="5.34472">
        <ele>625.7868</ele>
        <time>2015-05-02T12:32:19Z</time>
      </trkpt>
      <trkpt lat="45.47483" lon="5.34464">
        <ele>625.55475</ele>
        <time>2015-05-02T12:32:24Z</time>
      </trkpt>
      <trkpt lat="45.47489" lon="5.34456">
        <ele>625.55475</ele>
        <time>2015-05-02T12:32:29Z</time>
      </trkpt>
      <trkpt lat="45.47495" lon="5.34449">
        <ele>625.279</ele>
        <time>2015-05-02T12:32:34Z</time>
      </trkpt>
      <trkpt lat="45.47502" lon="5.34442">
        <ele>625.279</ele>
        <time>2015-05-02T12:32:39Z</time>
      </trkpt>
      <trkpt lat="45.47509" lon="5.34434">
        <ele>625.1505</ele>
        <time>2015-05-02T12:32:44Z</time>
      </trkpt>
      <trkpt lat="45.47515" lon="5.34426">
        <ele>625.1505</ele>
        <time>2015-05-02T12:32:49Z</time>
      </trkpt>
      <trkpt lat="45.4752" lon="5.34417">
        <ele>625.1151</ele>
        <time>2015-05-02T12:32:54Z</time>
      </trkpt>
      <trkpt lat="45.47526" lon="5.34409">
        <ele>625.1151</ele>
        <time>2015-05-02T12:32:59Z</time>
      </trkpt>
      <trkpt lat="45.47531" lon="5.34401">
        <ele>625.1512</ele>
        <time>2015-05-02T12:33:04Z</time>
      </trkpt>
      <trkpt lat="45.47538" lon="5.34393">
        <ele>625.1512</ele>
        <time>2015-05-02T12:33:09Z</time>
      </trkpt>
      <trkpt lat="45.47543" lon="5.34386">
        <ele>624.8783</ele>
        <time>2015-05-02T12:33:14Z</time>
      </trkpt>
      <trkpt lat="45.47548" lon="5.34378">
        <ele>624.8783</ele>
        <time>2015-05-02T12:33:19Z</time>
      </trkpt>
      <trkpt lat="45.47553" lon="5.3437">
        <ele>624.6076</ele>
        <time>2015-05-02T12:33:24Z</time>
      </trkpt>
      <trkpt lat="45.47557" lon="5.34359">
        <ele>624.6076</ele>
        <time>2015-05-02T12:33:29Z</time>
      </trkpt>
      <trkpt lat="45.4756" lon="5.3435">
        <ele>624.4258</ele>
        <time>2015-05-02T12:33:34Z</time>
      </trkpt>
      <trkpt lat="45.47563" lon="5.3434">
        <ele>624.4258</ele>
        <time>2015-05-02T12:33:39Z</time>
      </trkpt>
      <trkpt lat="45.47566" lon="5.34328">
        <ele>624.58575</ele>
        <time>2015-05-02T12:33:44Z</time>
      </trkpt>
      <trkpt lat="45.4757" lon="5.3432">
        <ele>624.58575</ele>
        <time>2015-05-02T12:33:49Z</time>
      </trkpt>
      <trkpt lat="45.47572" lon="5.34308">
        <ele>624.87415</ele>
        <time>2015-05-02T12:33:54Z</time>
      </trkpt>
      <trkpt lat="45.47576" lon="5.343">
        <ele>624.87415</ele>
        <time>2015-05-02T12:33:59Z</time>
      </trkpt>
      <trkpt lat="45.4758" lon="5.34291">
        <ele>624.8047</ele>
        <time>2015-05-02T12:34:04Z</time>
      </trkpt>
      <trkpt lat="45.47584" lon="5.34281">
        <ele>624.8047</ele>
        <time>2015-05-02T12:34:09Z</time>
      </trkpt>
      <trkpt lat="45.47588" lon="5.34271">
        <ele>624.8503</ele>
        <time>2015-05-02T12:34:14Z</time>
      </trkpt>
      <trkpt lat="45.47592" lon="5.3426">
        <ele>624.8503</ele>
        <time>2015-05-02T12:34:19Z</time>
      </trkpt>
      <trkpt lat="45.47595" lon="5.34249">
        <ele>624.7568</ele>
        <time>2015-05-02T12:34:24Z</time>
      </trkpt>
      <trkpt lat="45.47599" lon="5.34239">
        <ele>624.7568</ele>
        <time>2015-05-02T12:34:29Z</time>
      </trkpt>
      <trkpt lat="45.47602" lon="5.34229">
        <ele>624.592</ele>
        <time>2015-05-02T12:34:34Z</time>
      </trkpt>
      <trkpt lat="45.47606" lon="5.34218">
        <ele>624.592</ele>
        <time>2015-05-02T12:34:39Z</time>
      </trkpt>
      <trkpt lat="45.4761" lon="5.34208">
        <ele>624.41876</ele>
        <time>2015-05-02T12:34:44Z</time>
      </trkpt>
      <trkpt lat="45.47614" lon="5.342">
        <ele>624.41876</ele>
        <time>2015-05-02T12:34:49Z</time>
      </trkpt>
      <trkpt lat="45.47616" lon="5.34198">
        <ele>624.1369</ele>
        <time>2015-05-02T12:34:54Z</time>
      </trkpt>
      <trkpt lat="45.47619" lon="5.34188">
        <ele>624.1369</ele>
        <time>2015-05-02T12:34:59Z</time>
      </trkpt>
      <trkpt lat="45.47624" lon="5.34178">
        <ele>623.9999</ele>
        <time>2015-05-02T12:35:04Z</time>
      </trkpt>
      <trkpt lat="45.47628" lon="5.3417">
        <ele>623.9999</ele>
        <time>2015-05-02T12:35:09Z</time>
      </trkpt>
      <trkpt lat="45.47633" lon="5.34163">
        <ele>623.8384</ele>
        <time>2015-05-02T12:35:14Z</time>
      </trkpt>
      <trkpt lat="45.47638" lon="5.34155">
        <ele>623.8384</ele>
        <time>2015-05-02T12:35:19Z</time>
      </trkpt>
      <trkpt lat="45.47644" lon="5.34149">
        <ele>623.5823</ele>
        <time>2015-05-02T12:35:24Z</time>
      </trkpt>
      <trkpt lat="45.47646" lon="5.34151">
        <ele>623.5823</ele>
        <time>2015-05-02T12:35:29Z</time>
      </trkpt>
      <trkpt lat="45.47646" lon="5.34151">
        <ele>623.5823</ele>
        <time>2015-05-02T12:35:34Z</time>
      </trkpt>
      <trkpt lat="45.47646" lon="5.3415">
        <ele>623.5823</ele>
        <time>2015-05-02T12:35:39Z</time>
      </trkpt>
      <trkpt lat="45.47649" lon="5.34144">
        <ele>623.1812</ele>
        <time>2015-05-02T12:35:44Z</time>
      </trkpt>
      <trkpt lat="45.47656" lon="5.34136">
        <ele>622.9924</ele>
        <time>2015-05-02T12:35:49Z</time>
      </trkpt>
      <trkpt lat="45.47661" lon="5.3413">
        <ele>622.9924</ele>
        <time>2015-05-02T12:35:54Z</time>
      </trkpt>
      <trkpt lat="45.47667" lon="5.34123">
        <ele>622.496</ele>
        <time>2015-05-02T12:35:59Z</time>
      </trkpt>
      <trkpt lat="45.47672" lon="5.34116">
        <ele>622.496</ele>
        <time>2015-05-02T12:36:04Z</time>
      </trkpt>
      <trkpt lat="45.47678" lon="5.34108">
        <ele>622.1623</ele>
        <time>2015-05-02T12:36:09Z</time>
      </trkpt>
      <trkpt lat="45.47684" lon="5.341">
        <ele>622.1623</ele>
        <time>2015-05-02T12:36:14Z</time>
      </trkpt>
      <trkpt lat="45.4769" lon="5.34094">
        <ele>621.98</ele>
        <time>2015-05-02T12:36:19Z</time>
      </trkpt>
      <trkpt lat="45.47695" lon="5.34087">
        <ele>621.98</ele>
        <time>2015-05-02T12:36:24Z</time>
      </trkpt>
      <trkpt lat="45.47698" lon="5.34088">
        <ele>621.9668</ele>
        <time>2015-05-02T12:36:29Z</time>
      </trkpt>
      <trkpt lat="45.47705" lon="5.34086">
        <ele>621.9668</ele>
        <time>2015-05-02T12:36:34Z</time>
      </trkpt>
      <trkpt lat="45.47733" lon="5.34061">
        <ele>622.0379</ele>
        <time>2015-05-02T12:36:39Z</time>
      </trkpt>
      <trkpt lat="45.47754" lon="5.3404">
        <ele>622.3162</ele>
        <time>2015-05-02T12:36:44Z</time>
      </trkpt>
      <trkpt lat="45.47769" lon="5.34025">
        <ele>622.49713</ele>
        <time>2015-05-02T12:36:49Z</time>
      </trkpt>
      <trkpt lat="45.47777" lon="5.34016">
        <ele>622.68774</ele>
        <time>2015-05-02T12:36:54Z</time>
      </trkpt>
      <trkpt lat="45.47783" lon="5.34011">
        <ele>622.68774</ele>
        <time>2015-05-02T12:36:59Z</time>
      </trkpt>
      <trkpt lat="45.47791" lon="5.34006">
        <ele>622.55493</ele>
        <time>2015-05-02T12:37:04Z</time>
      </trkpt>
      <trkpt lat="45.47798" lon="5.34001">
        <ele>622.55493</ele>
        <time>2015-05-02T12:37:09Z</time>
      </trkpt>
      <trkpt lat="45.47806" lon="5.33997">
        <ele>622.26654</ele>
        <time>2015-05-02T12:37:14Z</time>
      </trkpt>
      <trkpt lat="45.47814" lon="5.33991">
        <ele>622.26654</ele>
        <time>2015-05-02T12:37:19Z</time>
      </trkpt>
      <trkpt lat="45.47821" lon="5.33989">
        <ele>622.15155</ele>
        <time>2015-05-02T12:37:24Z</time>
      </trkpt>
      <trkpt lat="45.47829" lon="5.33985">
        <ele>622.15155</ele>
        <time>2015-05-02T12:37:29Z</time>
      </trkpt>
      <trkpt lat="45.47837" lon="5.33983">
        <ele>621.952</ele>
        <time>2015-05-02T12:37:34Z</time>
      </trkpt>
      <trkpt lat="45.47845" lon="5.3398">
        <ele>621.952</ele>
        <time>2015-05-02T12:37:39Z</time>
      </trkpt>
      <trkpt lat="45.47852" lon="5.33978">
        <ele>621.6889</ele>
        <time>2015-05-02T12:37:44Z</time>
      </trkpt>
      <trkpt lat="45.47858" lon="5.33976">
        <ele>621.6889</ele>
        <time>2015-05-02T12:37:49Z</time>
      </trkpt>
      <trkpt lat="45.47866" lon="5.33973">
        <ele>621.6122</ele>
        <time>2015-05-02T12:37:54Z</time>
      </trkpt>
      <trkpt lat="45.47872" lon="5.33972">
        <ele>621.6122</ele>
        <time>2015-05-02T12:37:59Z</time>
      </trkpt>
      <trkpt lat="45.4788" lon="5.33974">
        <ele>621.9097</ele>
        <time>2015-05-02T12:38:04Z</time>
      </trkpt>
      <trkpt lat="45.47889" lon="5.33971">
        <ele>622.2214</ele>
        <time>2015-05-02T12:38:09Z</time>
      </trkpt>
      <trkpt lat="45.47897" lon="5.33971">
        <ele>622.2214</ele>
        <time>2015-05-02T12:38:14Z</time>
      </trkpt>
      <trkpt lat="45.47905" lon="5.33969">
        <ele>622.617</ele>
        <time>2015-05-02T12:38:19Z</time>
      </trkpt>
      <trkpt lat="45.47914" lon="5.3397">
        <ele>622.74304</ele>
        <time>2015-05-02T12:38:24Z</time>
      </trkpt>
      <trkpt lat="45.4792" lon="5.33972">
        <ele>622.74304</ele>
        <time>2015-05-02T12:38:29Z</time>
      </trkpt>
      <trkpt lat="45.47928" lon="5.33975">
        <ele>622.6618</ele>
        <time>2015-05-02T12:38:34Z</time>
      </trkpt>
      <trkpt lat="45.47934" lon="5.33977">
        <ele>622.6618</ele>
        <time>2015-05-02T12:38:39Z</time>
      </trkpt>
      <trkpt lat="45.47942" lon="5.33981">
        <ele>622.28766</ele>
        <time>2015-05-02T12:38:44Z</time>
      </trkpt>
      <trkpt lat="45.47948" lon="5.33987">
        <ele>622.28766</ele>
        <time>2015-05-02T12:38:49Z</time>
      </trkpt>
      <trkpt lat="45.47953" lon="5.33992">
        <ele>622.50745</ele>
        <time>2015-05-02T12:38:54Z</time>
      </trkpt>
      <trkpt lat="45.47961" lon="5.33996">
        <ele>622.50745</ele>
        <time>2015-05-02T12:38:59Z</time>
      </trkpt>
      <trkpt lat="45.47968" lon="5.34">
        <ele>622.8299</ele>
        <time>2015-05-02T12:39:04Z</time>
      </trkpt>
      <trkpt lat="45.47973" lon="5.34005">
        <ele>622.8299</ele>
        <time>2015-05-02T12:39:09Z</time>
      </trkpt>
      <trkpt lat="45.47977" lon="5.34008">
        <ele>622.8428</ele>
        <time>2015-05-02T12:39:14Z</time>
      </trkpt>
      <trkpt lat="45.47981" lon="5.34011">
        <ele>622.8428</ele>
        <time>2015-05-02T12:39:19Z</time>
      </trkpt>
      <trkpt lat="45.47985" lon="5.34017">
        <ele>623.1449</ele>
        <time>2015-05-02T12:39:24Z</time>
      </trkpt>
      <trkpt lat="45.47989" lon="5.34019">
        <ele>623.1449</ele>
        <time>2015-05-02T12:39:29Z</time>
      </trkpt>
      <trkpt lat="45.4799" lon="5.34021">
        <ele>623.1449</ele>
        <time>2015-05-02T12:39:34Z</time>
      </trkpt>
      <trkpt lat="45.47998" lon="5.34027">
        <ele>623.36816</ele>
        <time>2015-05-02T12:39:39Z</time>
      </trkpt>
      <trkpt lat="45.48002" lon="5.34032">
        <ele>623.36816</ele>
        <time>2015-05-02T12:39:44Z</time>
      </trkpt>
      <trkpt lat="45.48013" lon="5.3404">
        <ele>622.6527</ele>
        <time>2015-05-02T12:39:49Z</time>
      </trkpt>
      <trkpt lat="45.48017" lon="5.34045">
        <ele>622.6527</ele>
        <time>2015-05-02T12:39:54Z</time>
      </trkpt>
      <trkpt lat="45.48022" lon="5.34051">
        <ele>622.0637</ele>
        <time>2015-05-02T12:39:59Z</time>
      </trkpt>
      <trkpt lat="45.4803" lon="5.34056">
        <ele>621.5789</ele>
        <time>2015-05-02T12:40:04Z</time>
      </trkpt>
      <trkpt lat="45.48034" lon="5.34061">
        <ele>621.5789</ele>
        <time>2015-05-02T12:40:09Z</time>
      </trkpt>
      <trkpt lat="45.48042" lon="5.34064">
        <ele>621.0909</ele>
        <time>2015-05-02T12:40:14Z</time>
      </trkpt>
      <trkpt lat="45.48047" lon="5.34066">
        <ele>621.0909</ele>
        <time>2015-05-02T12:40:20Z</time>
      </trkpt>
      <trkpt lat="45.48057" lon="5.34072">
        <ele>620.7019</ele>
        <time>2015-05-02T12:40:26Z</time>
      </trkpt>
      <trkpt lat="45.48065" lon="5.34074">
        <ele>620.7019</ele>
        <time>2015-05-02T12:40:31Z</time>
      </trkpt>
      <trkpt lat="45.48074" lon="5.34076">
        <ele>620.52094</ele>
        <time>2015-05-02T12:40:36Z</time>
      </trkpt>
      <trkpt lat="45.48083" lon="5.34078">
        <ele>620.52094</ele>
        <time>2015-05-02T12:40:41Z</time>
      </trkpt>
      <trkpt lat="45.48093" lon="5.34082">
        <ele>620.30237</ele>
        <time>2015-05-02T12:40:45Z</time>
      </trkpt>
      <trkpt lat="45.48102" lon="5.34083">
        <ele>620.1502</ele>
        <time>2015-05-02T12:40:49Z</time>
      </trkpt>
      <trkpt lat="45.48112" lon="5.34081">
        <ele>620.1896</ele>
        <time>2015-05-02T12:40:54Z</time>
      </trkpt>
      <trkpt lat="45.48121" lon="5.3408">
        <ele>620.4348</ele>
        <time>2015-05-02T12:40:59Z</time>
      </trkpt>
      <trkpt lat="45.48131" lon="5.34081">
        <ele>621.2302</ele>
        <time>2015-05-02T12:41:04Z</time>
      </trkpt>
      <trkpt lat="45.4814" lon="5.34079">
        <ele>621.2302</ele>
        <time>2015-05-02T12:41:09Z</time>
      </trkpt>
      <trkpt lat="45.48149" lon="5.34078">
        <ele>622.2014</ele>
        <time>2015-05-02T12:41:14Z</time>
      </trkpt>
      <trkpt lat="45.48157" lon="5.34079">
        <ele>622.2014</ele>
        <time>2015-05-02T12:41:19Z</time>
      </trkpt>
      <trkpt lat="45.48166" lon="5.34079">
        <ele>623.1741</ele>
        <time>2015-05-02T12:41:24Z</time>
      </trkpt>
      <trkpt lat="45.48175" lon="5.3408">
        <ele>623.1741</ele>
        <time>2015-05-02T12:41:29Z</time>
      </trkpt>
      <trkpt lat="45.48183" lon="5.34082">
        <ele>624.04425</ele>
        <time>2015-05-02T12:41:34Z</time>
      </trkpt>
      <trkpt lat="45.48191" lon="5.34083">
        <ele>624.04425</ele>
        <time>2015-05-02T12:41:39Z</time>
      </trkpt>
      <trkpt lat="45.48198" lon="5.34086">
        <ele>624.84564</ele>
        <time>2015-05-02T12:41:44Z</time>
      </trkpt>
      <trkpt lat="45.48202" lon="5.34087">
        <ele>624.84564</ele>
        <time>2015-05-02T12:41:49Z</time>
      </trkpt>
      <trkpt lat="45.48204" lon="5.34087">
        <ele>624.84564</ele>
        <time>2015-05-02T12:41:54Z</time>
      </trkpt>
      <trkpt lat="45.48207" lon="5.34086">
        <ele>626.0422</ele>
        <time>2015-05-02T12:41:59Z</time>
      </trkpt>
      <trkpt lat="45.48214" lon="5.34086">
        <ele>626.0422</ele>
        <time>2015-05-02T12:42:04Z</time>
      </trkpt>
      <trkpt lat="45.4822" lon="5.34085">
        <ele>627.1977</ele>
        <time>2015-05-02T12:42:09Z</time>
      </trkpt>
      <trkpt lat="45.48225" lon="5.34086">
        <ele>627.1977</ele>
        <time>2015-05-02T12:42:14Z</time>
      </trkpt>
      <trkpt lat="45.48231" lon="5.34086">
        <ele>628.00934</ele>
        <time>2015-05-02T12:42:19Z</time>
      </trkpt>
      <trkpt lat="45.4824" lon="5.34087">
        <ele>628.00934</ele>
        <time>2015-05-02T12:42:24Z</time>
      </trkpt>
      <trkpt lat="45.48245" lon="5.34088">
        <ele>628.3704</ele>
        <time>2015-05-02T12:42:29Z</time>
      </trkpt>
      <trkpt lat="45.48253" lon="5.34086">
        <ele>628.3704</ele>
        <time>2015-05-02T12:42:34Z</time>
      </trkpt>
      <trkpt lat="45.48259" lon="5.34085">
        <ele>628.5723</ele>
        <time>2015-05-02T12:42:39Z</time>
      </trkpt>
      <trkpt lat="45.48264" lon="5.34084">
        <ele>628.5723</ele>
        <time>2015-05-02T12:42:44Z</time>
      </trkpt>
      <trkpt lat="45.48268" lon="5.34086">
        <ele>628.03546</ele>
        <time>2015-05-02T12:42:49Z</time>
      </trkpt>
      <trkpt lat="45.48275" lon="5.34089">
        <ele>628.03546</ele>
        <time>2015-05-02T12:42:54Z</time>
      </trkpt>
      <trkpt lat="45.48279" lon="5.34089">
        <ele>627.6371</ele>
        <time>2015-05-02T12:42:59Z</time>
      </trkpt>
      <trkpt lat="45.48285" lon="5.34091">
        <ele>627.6371</ele>
        <time>2015-05-02T12:43:04Z</time>
      </trkpt>
      <trkpt lat="45.48294" lon="5.34092">
        <ele>626.8064</ele>
        <time>2015-05-02T12:43:09Z</time>
      </trkpt>
      <trkpt lat="45.48308" lon="5.34095">
        <ele>626.4134</ele>
        <time>2015-05-02T12:43:14Z</time>
      </trkpt>
      <trkpt lat="45.48315" lon="5.34099">
        <ele>626.4134</ele>
        <time>2015-05-02T12:43:19Z</time>
      </trkpt>
      <trkpt lat="45.48327" lon="5.34105">
        <ele>626.36957</ele>
        <time>2015-05-02T12:43:24Z</time>
      </trkpt>
      <trkpt lat="45.48343" lon="5.34106">
        <ele>626.448</ele>
        <time>2015-05-02T12:43:29Z</time>
      </trkpt>
      <trkpt lat="45.48349" lon="5.34111">
        <ele>626.448</ele>
        <time>2015-05-02T12:43:34Z</time>
      </trkpt>
      <trkpt lat="45.48353" lon="5.34116">
        <ele>626.87024</ele>
        <time>2015-05-02T12:43:39Z</time>
      </trkpt>
      <trkpt lat="45.48355" lon="5.34118">
        <ele>626.87024</ele>
        <time>2015-05-02T12:43:44Z</time>
      </trkpt>
      <trkpt lat="45.4836" lon="5.34124">
        <ele>627.3939</ele>
        <time>2015-05-02T12:43:49Z</time>
      </trkpt>
      <trkpt lat="45.48366" lon="5.3413">
        <ele>627.3939</ele>
        <time>2015-05-02T12:43:54Z</time>
      </trkpt>
      <trkpt lat="45.48373" lon="5.34137">
        <ele>628.5148</ele>
        <time>2015-05-02T12:43:59Z</time>
      </trkpt>
      <trkpt lat="45.48379" lon="5.34141">
        <ele>628.5148</ele>
        <time>2015-05-02T12:44:04Z</time>
      </trkpt>
      <trkpt lat="45.48387" lon="5.34144">
        <ele>629.36475</ele>
        <time>2015-05-02T12:44:09Z</time>
      </trkpt>
      <trkpt lat="45.48394" lon="5.34145">
        <ele>629.36475</ele>
        <time>2015-05-02T12:44:14Z</time>
      </trkpt>
      <trkpt lat="45.484" lon="5.34148">
        <ele>630.5236</ele>
        <time>2015-05-02T12:44:19Z</time>
      </trkpt>
      <trkpt lat="45.48408" lon="5.34155">
        <ele>630.4527</ele>
        <time>2015-05-02T12:44:24Z</time>
      </trkpt>
      <trkpt lat="45.48415" lon="5.34159">
        <ele>630.4527</ele>
        <time>2015-05-02T12:44:29Z</time>
      </trkpt>
      <trkpt lat="45.48429" lon="5.34157">
        <ele>630.32367</ele>
        <time>2015-05-02T12:44:34Z</time>
      </trkpt>
      <trkpt lat="45.48441" lon="5.34156">
        <ele>630.6893</ele>
        <time>2015-05-02T12:44:39Z</time>
      </trkpt>
      <trkpt lat="45.48445" lon="5.34166">
        <ele>630.6893</ele>
        <time>2015-05-02T12:44:44Z</time>
      </trkpt>
      <trkpt lat="45.48449" lon="5.34171">
        <ele>630.44617</ele>
        <time>2015-05-02T12:44:49Z</time>
      </trkpt>
      <trkpt lat="45.48454" lon="5.34178">
        <ele>630.44617</ele>
        <time>2015-05-02T12:44:54Z</time>
      </trkpt>
      <trkpt lat="45.48462" lon="5.34185">
        <ele>630.96594</ele>
        <time>2015-05-02T12:44:59Z</time>
      </trkpt>
      <trkpt lat="45.48471" lon="5.34187">
        <ele>630.96594</ele>
        <time>2015-05-02T12:45:04Z</time>
      </trkpt>
      <trkpt lat="45.48478" lon="5.34188">
        <ele>631.74493</ele>
        <time>2015-05-02T12:45:09Z</time>
      </trkpt>
      <trkpt lat="45.48486" lon="5.34191">
        <ele>631.74493</ele>
        <time>2015-05-02T12:45:14Z</time>
      </trkpt>
      <trkpt lat="45.48493" lon="5.34194">
        <ele>632.7912</ele>
        <time>2015-05-02T12:45:19Z</time>
      </trkpt>
      <trkpt lat="45.48501" lon="5.34199">
        <ele>632.7912</ele>
        <time>2015-05-02T12:45:25Z</time>
      </trkpt>
      <trkpt lat="45.48513" lon="5.342">
        <ele>633.56396</ele>
        <time>2015-05-02T12:45:31Z</time>
      </trkpt>
      <trkpt lat="45.48516" lon="5.34203">
        <ele>633.56396</ele>
        <time>2015-05-02T12:45:37Z</time>
      </trkpt>
      <trkpt lat="45.48518" lon="5.34205">
        <ele>633.56396</ele>
        <time>2015-05-02T12:45:41Z</time>
      </trkpt>
      <trkpt lat="45.4852" lon="5.34207">
        <ele>633.56396</ele>
        <time>2015-05-02T12:45:46Z</time>
      </trkpt>
      <trkpt lat="45.48522" lon="5.34209">
        <ele>633.96643</ele>
        <time>2015-05-02T12:45:51Z</time>
      </trkpt>
      <trkpt lat="45.48531" lon="5.34221">
        <ele>634.3423</ele>
        <time>2015-05-02T12:45:54Z</time>
      </trkpt>
      <trkpt lat="45.48541" lon="5.34227">
        <ele>635.06775</ele>
        <time>2015-05-02T12:46:01Z</time>
      </trkpt>
      <trkpt lat="45.48549" lon="5.3423">
        <ele>635.06775</ele>
        <time>2015-05-02T12:46:05Z</time>
      </trkpt>
      <trkpt lat="45.48555" lon="5.34233">
        <ele>636.2023</ele>
        <time>2015-05-02T12:46:11Z</time>
      </trkpt>
      <trkpt lat="45.48561" lon="5.34239">
        <ele>636.2023</ele>
        <time>2015-05-02T12:46:16Z</time>
      </trkpt>
      <trkpt lat="45.48567" lon="5.34242">
        <ele>637.67004</ele>
        <time>2015-05-02T12:46:22Z</time>
      </trkpt>
      <trkpt lat="45.48572" lon="5.34244">
        <ele>637.67004</ele>
        <time>2015-05-02T12:46:26Z</time>
      </trkpt>
      <trkpt lat="45.48579" lon="5.34245">
        <ele>638.838</ele>
        <time>2015-05-02T12:46:31Z</time>
      </trkpt>
      <trkpt lat="45.48582" lon="5.34243">
        <ele>638.838</ele>
        <time>2015-05-02T12:46:35Z</time>
      </trkpt>
      <trkpt lat="45.48593" lon="5.34241">
        <ele>639.97064</ele>
        <time>2015-05-02T12:46:41Z</time>
      </trkpt>
      <trkpt lat="45.48602" lon="5.34237">
        <ele>640.6647</ele>
        <time>2015-05-02T12:46:46Z</time>
      </trkpt>
      <trkpt lat="45.48608" lon="5.34231">
        <ele>640.6647</ele>
        <time>2015-05-02T12:46:51Z</time>
      </trkpt>
      <trkpt lat="45.4862" lon="5.34226">
        <ele>640.47577</ele>
        <time>2015-05-02T12:46:56Z</time>
      </trkpt>
      <trkpt lat="45.48634" lon="5.34226">
        <ele>640.53656</ele>
        <time>2015-05-02T12:47:01Z</time>
      </trkpt>
      <trkpt lat="45.48643" lon="5.3423">
        <ele>640.55585</ele>
        <time>2015-05-02T12:47:06Z</time>
      </trkpt>
      <trkpt lat="45.48652" lon="5.34232">
        <ele>640.4078</ele>
        <time>2015-05-02T12:47:10Z</time>
      </trkpt>
      <trkpt lat="45.48663" lon="5.34231">
        <ele>640.5529</ele>
        <time>2015-05-02T12:47:17Z</time>
      </trkpt>
      <trkpt lat="45.48671" lon="5.34235">
        <ele>640.5529</ele>
        <time>2015-05-02T12:47:20Z</time>
      </trkpt>
      <trkpt lat="45.48677" lon="5.34235">
        <ele>640.3219</ele>
        <time>2015-05-02T12:47:24Z</time>
      </trkpt>
      <trkpt lat="45.48686" lon="5.34235">
        <ele>640.14764</ele>
        <time>2015-05-02T12:47:31Z</time>
      </trkpt>
      <trkpt lat="45.48695" lon="5.34237">
        <ele>640.14764</ele>
        <time>2015-05-02T12:47:36Z</time>
      </trkpt>
      <trkpt lat="45.48702" lon="5.34241">
        <ele>640.02747</ele>
        <time>2015-05-02T12:47:41Z</time>
      </trkpt>
      <trkpt lat="45.4871" lon="5.34242">
        <ele>640.02747</ele>
        <time>2015-05-02T12:47:46Z</time>
      </trkpt>
      <trkpt lat="45.48717" lon="5.34244">
        <ele>640.3913</ele>
        <time>2015-05-02T12:47:51Z</time>
      </trkpt>
      <trkpt lat="45.48723" lon="5.34245">
        <ele>640.3913</ele>
        <time>2015-05-02T12:47:55Z</time>
      </trkpt>
      <trkpt lat="45.4873" lon="5.3425">
        <ele>641.00183</ele>
        <time>2015-05-02T12:47:59Z</time>
      </trkpt>
      <trkpt lat="45.48734" lon="5.34253">
        <ele>641.00183</ele>
        <time>2015-05-02T12:48:04Z</time>
      </trkpt>
      <trkpt lat="45.48739" lon="5.34255">
        <ele>641.336</ele>
        <time>2015-05-02T12:48:09Z</time>
      </trkpt>
      <trkpt lat="45.48743" lon="5.34258">
        <ele>641.336</ele>
        <time>2015-05-02T12:48:14Z</time>
      </trkpt>
      <trkpt lat="45.4875" lon="5.34257">
        <ele>641.8755</ele>
        <time>2015-05-02T12:48:19Z</time>
      </trkpt>
      <trkpt lat="45.48756" lon="5.34259">
        <ele>641.8755</ele>
        <time>2015-05-02T12:48:24Z</time>
      </trkpt>
      <trkpt lat="45.48763" lon="5.3426">
        <ele>641.8987</ele>
        <time>2015-05-02T12:48:29Z</time>
      </trkpt>
      <trkpt lat="45.48771" lon="5.34262">
        <ele>641.8987</ele>
        <time>2015-05-02T12:48:34Z</time>
      </trkpt>
      <trkpt lat="45.48778" lon="5.34263">
        <ele>641.3436</ele>
        <time>2015-05-02T12:48:39Z</time>
      </trkpt>
      <trkpt lat="45.48785" lon="5.34265">
        <ele>641.3436</ele>
        <time>2015-05-02T12:48:44Z</time>
      </trkpt>
      <trkpt lat="45.48801" lon="5.34263">
        <ele>642.01373</ele>
        <time>2015-05-02T12:48:49Z</time>
      </trkpt>
      <trkpt lat="45.48806" lon="5.34255">
        <ele>642.01373</ele>
        <time>2015-05-02T12:48:54Z</time>
      </trkpt>
      <trkpt lat="45.48808" lon="5.34247">
        <ele>642.36273</ele>
        <time>2015-05-02T12:48:59Z</time>
      </trkpt>
      <trkpt lat="45.48812" lon="5.3424">
        <ele>642.36273</ele>
        <time>2015-05-02T12:49:04Z</time>
      </trkpt>
      <trkpt lat="45.48813" lon="5.3424">
        <ele>642.36273</ele>
        <time>2015-05-02T12:49:09Z</time>
      </trkpt>
      <trkpt lat="45.48814" lon="5.34241">
        <ele>642.36273</ele>
        <time>2015-05-02T12:49:14Z</time>
      </trkpt>
      <trkpt lat="45.48815" lon="5.34242">
        <ele>643.19244</ele>
        <time>2015-05-02T12:49:19Z</time>
      </trkpt>
      <trkpt lat="45.48815" lon="5.34242">
        <ele>643.19244</ele>
        <time>2015-05-02T12:49:24Z</time>
      </trkpt>
      <trkpt lat="45.48816" lon="5.34242">
        <ele>643.19244</ele>
        <time>2015-05-02T12:49:29Z</time>
      </trkpt>
      <trkpt lat="45.48817" lon="5.34244">
        <ele>643.19244</ele>
        <time>2015-05-02T12:49:34Z</time>
      </trkpt>
      <trkpt lat="45.48818" lon="5.34244">
        <ele>643.19244</ele>
        <time>2015-05-02T12:49:39Z</time>
      </trkpt>
      <trkpt lat="45.48818" lon="5.34243">
        <ele>643.19244</ele>
        <time>2015-05-02T12:49:44Z</time>
      </trkpt>
      <trkpt lat="45.48814" lon="5.34241">
        <ele>643.19244</ele>
        <time>2015-05-02T12:49:49Z</time>
      </trkpt>
      <trkpt lat="45.48814" lon="5.34234">
        <ele>643.1839</ele>
        <time>2015-05-02T12:49:54Z</time>
      </trkpt>
      <trkpt lat="45.48814" lon="5.34225">
        <ele>643.1839</ele>
        <time>2015-05-02T12:49:59Z</time>
      </trkpt>
      <trkpt lat="45.48816" lon="5.3422">
        <ele>643.0482</ele>
        <time>2015-05-02T12:50:04Z</time>
      </trkpt>
      <trkpt lat="45.48818" lon="5.34222">
        <ele>643.0482</ele>
        <time>2015-05-02T12:50:09Z</time>
      </trkpt>
      <trkpt lat="45.48819" lon="5.34224">
        <ele>643.0482</ele>
        <time>2015-05-02T12:50:14Z</time>
      </trkpt>
      <trkpt lat="45.48819" lon="5.34223">
        <ele>643.0482</ele>
        <time>2015-05-02T12:50:19Z</time>
      </trkpt>
      <trkpt lat="45.48819" lon="5.34223">
        <ele>643.0482</ele>
        <time>2015-05-02T12:50:24Z</time>
      </trkpt>
      <trkpt lat="45.48818" lon="5.34223">
        <ele>643.0482</ele>
        <time>2015-05-02T12:50:29Z</time>
      </trkpt>
      <trkpt lat="45.48816" lon="5.3422">
        <ele>643.0482</ele>
        <time>2015-05-02T12:50:34Z</time>
      </trkpt>
      <trkpt lat="45.48813" lon="5.34218">
        <ele>643.05566</ele>
        <time>2015-05-02T12:50:39Z</time>
      </trkpt>
      <trkpt lat="45.48813" lon="5.34217">
        <ele>643.05566</ele>
        <time>2015-05-02T12:50:44Z</time>
      </trkpt>
      <trkpt lat="45.48815" lon="5.34219">
        <ele>643.05566</ele>
        <time>2015-05-02T12:50:49Z</time>
      </trkpt>
      <trkpt lat="45.48815" lon="5.34221">
        <ele>643.05566</ele>
        <time>2015-05-02T12:50:54Z</time>
      </trkpt>
      <trkpt lat="45.48817" lon="5.34219">
        <ele>643.05566</ele>
        <time>2015-05-02T12:50:59Z</time>
      </trkpt>
      <trkpt lat="45.48816" lon="5.34222">
        <ele>643.05566</ele>
        <time>2015-05-02T12:51:04Z</time>
      </trkpt>
      <trkpt lat="45.48816" lon="5.34222">
        <ele>643.05566</ele>
        <time>2015-05-02T12:51:09Z</time>
      </trkpt>
      <trkpt lat="45.48817" lon="5.34224">
        <ele>643.2833</ele>
        <time>2015-05-02T12:51:14Z</time>
      </trkpt>
      <trkpt lat="45.48817" lon="5.34224">
        <ele>643.2833</ele>
        <time>2015-05-02T12:51:19Z</time>
      </trkpt>
      <trkpt lat="45.48818" lon="5.34224">
        <ele>643.2833</ele>
        <time>2015-05-02T12:51:24Z</time>
      </trkpt>
      <trkpt lat="45.48816" lon="5.34229">
        <ele>643.2833</ele>
        <time>2015-05-02T15:29:34Z</time>
      </trkpt>
      <trkpt lat="45.4881" lon="5.34219">
        <ele>643.9028</ele>
        <time>2015-05-02T15:29:39Z</time>
      </trkpt>
      <trkpt lat="45.48815" lon="5.34223">
        <ele>643.9028</ele>
        <time>2015-05-02T15:29:44Z</time>
      </trkpt>
      <trkpt lat="45.48821" lon="5.34235">
        <ele>643.919</ele>
        <time>2015-05-02T15:29:49Z</time>
      </trkpt>
      <trkpt lat="45.48824" lon="5.34244">
        <ele>643.919</ele>
        <time>2015-05-02T15:29:54Z</time>
      </trkpt>
      <trkpt lat="45.48828" lon="5.3425">
        <ele>643.66565</ele>
        <time>2015-05-02T15:29:59Z</time>
      </trkpt>
      <trkpt lat="45.48832" lon="5.3426">
        <ele>643.66565</ele>
        <time>2015-05-02T15:30:04Z</time>
      </trkpt>
      <trkpt lat="45.48836" lon="5.34264">
        <ele>643.45245</ele>
        <time>2015-05-02T15:30:09Z</time>
      </trkpt>
      <trkpt lat="45.48841" lon="5.34266">
        <ele>643.45245</ele>
        <time>2015-05-02T15:30:14Z</time>
      </trkpt>
      <trkpt lat="45.48847" lon="5.34271">
        <ele>643.0908</ele>
        <time>2015-05-02T15:30:19Z</time>
      </trkpt>
      <trkpt lat="45.48856" lon="5.34272">
        <ele>642.7089</ele>
        <time>2015-05-02T15:30:24Z</time>
      </trkpt>
      <trkpt lat="45.48859" lon="5.34278">
        <ele>642.7089</ele>
        <time>2015-05-02T15:30:29Z</time>
      </trkpt>
      <trkpt lat="45.48863" lon="5.34282">
        <ele>642.0365</ele>
        <time>2015-05-02T15:30:34Z</time>
      </trkpt>
      <trkpt lat="45.48869" lon="5.34287">
        <ele>642.0365</ele>
        <time>2015-05-02T15:30:39Z</time>
      </trkpt>
      <trkpt lat="45.48873" lon="5.34293">
        <ele>641.2708</ele>
        <time>2015-05-02T15:30:44Z</time>
      </trkpt>
      <trkpt lat="45.48875" lon="5.34297">
        <ele>641.2708</ele>
        <time>2015-05-02T15:30:49Z</time>
      </trkpt>
      <trkpt lat="45.48879" lon="5.34301">
        <ele>641.2708</ele>
        <time>2015-05-02T15:30:54Z</time>
      </trkpt>
      <trkpt lat="45.48879" lon="5.34303">
        <ele>641.171</ele>
        <time>2015-05-02T15:30:59Z</time>
      </trkpt>
      <trkpt lat="45.48881" lon="5.34304">
        <ele>641.171</ele>
        <time>2015-05-02T15:31:04Z</time>
      </trkpt>
      <trkpt lat="45.48883" lon="5.34309">
        <ele>641.171</ele>
        <time>2015-05-02T15:31:09Z</time>
      </trkpt>
      <trkpt lat="45.48884" lon="5.34308">
        <ele>641.171</ele>
        <time>2015-05-02T15:31:14Z</time>
      </trkpt>
      <trkpt lat="45.48885" lon="5.34308">
        <ele>641.171</ele>
        <time>2015-05-02T15:31:19Z</time>
      </trkpt>
      <trkpt lat="45.48885" lon="5.34308">
        <ele>641.171</ele>
        <time>2015-05-02T15:31:24Z</time>
      </trkpt>
      <trkpt lat="45.48885" lon="5.34308">
        <ele>641.171</ele>
        <time>2015-05-02T15:31:29Z</time>
      </trkpt>
      <trkpt lat="45.48885" lon="5.34308">
        <ele>641.171</ele>
        <time>2015-05-02T15:31:34Z</time>
      </trkpt>
      <trkpt lat="45.48885" lon="5.34308">
        <ele>641.171</ele>
        <time>2015-05-02T15:31:39Z</time>
      </trkpt>
      <trkpt lat="45.48885" lon="5.34308">
        <ele>641.171</ele>
        <time>2015-05-02T15:31:44Z</time>
      </trkpt>
      <trkpt lat="45.48885" lon="5.34308">
        <ele>641.171</ele>
        <time>2015-05-02T15:31:49Z</time>
      </trkpt>
      <trkpt lat="45.48885" lon="5.34308">
        <ele>641.171</ele>
        <time>2015-05-02T15:31:54Z</time>
      </trkpt>
      <trkpt lat="45.48885" lon="5.34308">
        <ele>641.171</ele>
        <time>2015-05-02T15:31:59Z</time>
      </trkpt>
      <trkpt lat="45.48884" lon="5.34306">
        <ele>641.0986</ele>
        <time>2015-05-02T15:32:04Z</time>
      </trkpt>
      <trkpt lat="45.48884" lon="5.34308">
        <ele>641.0986</ele>
        <time>2015-05-02T15:32:09Z</time>
      </trkpt>
      <trkpt lat="45.48887" lon="5.3431">
        <ele>641.0986</ele>
        <time>2015-05-02T15:32:14Z</time>
      </trkpt>
      <trkpt lat="45.48887" lon="5.3431">
        <ele>641.0986</ele>
        <time>2015-05-02T15:32:19Z</time>
      </trkpt>
      <trkpt lat="45.48888" lon="5.3431">
        <ele>641.0986</ele>
        <time>2015-05-02T15:32:24Z</time>
      </trkpt>
      <trkpt lat="45.48896" lon="5.34313">
        <ele>641.64343</ele>
        <time>2015-05-02T15:32:31Z</time>
      </trkpt>
      <trkpt lat="45.489" lon="5.34315">
        <ele>641.64343</ele>
        <time>2015-05-02T15:32:36Z</time>
      </trkpt>
      <trkpt lat="45.48908" lon="5.34316">
        <ele>642.13983</ele>
        <time>2015-05-02T15:32:41Z</time>
      </trkpt>
      <trkpt lat="45.48909" lon="5.34321">
        <ele>642.13983</ele>
        <time>2015-05-02T15:32:44Z</time>
      </trkpt>
      <trkpt lat="45.48914" lon="5.34321">
        <ele>642.13983</ele>
        <time>2015-05-02T15:32:49Z</time>
      </trkpt>
      <trkpt lat="45.4892" lon="5.34322">
        <ele>642.72046</ele>
        <time>2015-05-02T15:32:54Z</time>
      </trkpt>
      <trkpt lat="45.48928" lon="5.34323">
        <ele>642.72046</ele>
        <time>2015-05-02T15:32:59Z</time>
      </trkpt>
      <trkpt lat="45.48934" lon="5.3433">
        <ele>642.3838</ele>
        <time>2015-05-02T15:33:04Z</time>
      </trkpt>
      <trkpt lat="45.48942" lon="5.34335">
        <ele>642.3838</ele>
        <time>2015-05-02T15:33:09Z</time>
      </trkpt>
      <trkpt lat="45.48948" lon="5.34342">
        <ele>642.1501</ele>
        <time>2015-05-02T15:33:14Z</time>
      </trkpt>
      <trkpt lat="45.48954" lon="5.3435">
        <ele>642.1501</ele>
        <time>2015-05-02T15:33:19Z</time>
      </trkpt>
      <trkpt lat="45.48959" lon="5.34357">
        <ele>642.08514</ele>
        <time>2015-05-02T15:33:24Z</time>
      </trkpt>
      <trkpt lat="45.48964" lon="5.34365">
        <ele>642.08514</ele>
        <time>2015-05-02T15:33:29Z</time>
      </trkpt>
      <trkpt lat="45.48968" lon="5.34373">
        <ele>642.07654</ele>
        <time>2015-05-02T15:33:34Z</time>
      </trkpt>
      <trkpt lat="45.48972" lon="5.3438">
        <ele>642.07654</ele>
        <time>2015-05-02T15:33:39Z</time>
      </trkpt>
      <trkpt lat="45.48977" lon="5.34388">
        <ele>642.1496</ele>
        <time>2015-05-02T15:33:44Z</time>
      </trkpt>
      <trkpt lat="45.48982" lon="5.34395">
        <ele>642.1496</ele>
        <time>2015-05-02T15:33:49Z</time>
      </trkpt>
      <trkpt lat="45.48987" lon="5.34402">
        <ele>642.587</ele>
        <time>2015-05-02T15:33:54Z</time>
      </trkpt>
      <trkpt lat="45.48993" lon="5.34409">
        <ele>642.587</ele>
        <time>2015-05-02T15:33:59Z</time>
      </trkpt>
      <trkpt lat="45.48999" lon="5.34414">
        <ele>643.2747</ele>
        <time>2015-05-02T15:34:04Z</time>
      </trkpt>
      <trkpt lat="45.49005" lon="5.34418">
        <ele>643.2747</ele>
        <time>2015-05-02T15:34:09Z</time>
      </trkpt>
      <trkpt lat="45.49011" lon="5.34421">
        <ele>643.9769</ele>
        <time>2015-05-02T15:34:14Z</time>
      </trkpt>
      <trkpt lat="45.49017" lon="5.34425">
        <ele>643.9769</ele>
        <time>2015-05-02T15:34:19Z</time>
      </trkpt>
      <trkpt lat="45.49024" lon="5.34427">
        <ele>644.7776</ele>
        <time>2015-05-02T15:34:24Z</time>
      </trkpt>
      <trkpt lat="45.49029" lon="5.34429">
        <ele>644.7776</ele>
        <time>2015-05-02T15:34:29Z</time>
      </trkpt>
      <trkpt lat="45.49033" lon="5.34433">
        <ele>644.63007</ele>
        <time>2015-05-02T15:34:34Z</time>
      </trkpt>
      <trkpt lat="45.49038" lon="5.34435">
        <ele>644.63007</ele>
        <time>2015-05-02T15:34:39Z</time>
      </trkpt>
      <trkpt lat="45.49042" lon="5.34443">
        <ele>643.7779</ele>
        <time>2015-05-02T15:34:44Z</time>
      </trkpt>
      <trkpt lat="45.49044" lon="5.34452">
        <ele>643.7779</ele>
        <time>2015-05-02T15:34:50Z</time>
      </trkpt>
      <trkpt lat="45.49049" lon="5.34456">
        <ele>642.9098</ele>
        <time>2015-05-02T15:34:56Z</time>
      </trkpt>
      <trkpt lat="45.49052" lon="5.34462">
        <ele>642.9098</ele>
        <time>2015-05-02T15:35:00Z</time>
      </trkpt>
      <trkpt lat="45.49054" lon="5.34466">
        <ele>641.6119</ele>
        <time>2015-05-02T15:35:05Z</time>
      </trkpt>
      <trkpt lat="45.49061" lon="5.3448">
        <ele>641.0007</ele>
        <time>2015-05-02T15:35:11Z</time>
      </trkpt>
      <trkpt lat="45.49063" lon="5.3449">
        <ele>641.0007</ele>
        <time>2015-05-02T15:35:14Z</time>
      </trkpt>
      <trkpt lat="45.49067" lon="5.345">
        <ele>640.4802</ele>
        <time>2015-05-02T15:35:21Z</time>
      </trkpt>
      <trkpt lat="45.4907" lon="5.34507">
        <ele>640.4802</ele>
        <time>2015-05-02T15:35:25Z</time>
      </trkpt>
      <trkpt lat="45.49074" lon="5.34515">
        <ele>640.651</ele>
        <time>2015-05-02T15:35:30Z</time>
      </trkpt>
      <trkpt lat="45.49079" lon="5.34522">
        <ele>640.651</ele>
        <time>2015-05-02T15:35:34Z</time>
      </trkpt>
      <trkpt lat="45.49084" lon="5.34533">
        <ele>641.1017</ele>
        <time>2015-05-02T15:35:39Z</time>
      </trkpt>
      <trkpt lat="45.4909" lon="5.34541">
        <ele>641.1017</ele>
        <time>2015-05-02T15:35:44Z</time>
      </trkpt>
      <trkpt lat="45.49092" lon="5.34549">
        <ele>642.21436</ele>
        <time>2015-05-02T15:35:49Z</time>
      </trkpt>
      <trkpt lat="45.49093" lon="5.34558">
        <ele>642.21436</ele>
        <time>2015-05-02T15:35:54Z</time>
      </trkpt>
      <trkpt lat="45.49093" lon="5.34571">
        <ele>643.2458</ele>
        <time>2015-05-02T15:35:59Z</time>
      </trkpt>
      <trkpt lat="45.49097" lon="5.3458">
        <ele>643.2458</ele>
        <time>2015-05-02T15:36:04Z</time>
      </trkpt>
      <trkpt lat="45.491" lon="5.3459">
        <ele>644.7325</ele>
        <time>2015-05-02T15:36:09Z</time>
      </trkpt>
      <trkpt lat="45.49099" lon="5.34599">
        <ele>644.7325</ele>
        <time>2015-05-02T15:36:14Z</time>
      </trkpt>
      <trkpt lat="45.49101" lon="5.34608">
        <ele>646.1326</ele>
        <time>2015-05-02T15:36:19Z</time>
      </trkpt>
      <trkpt lat="45.49103" lon="5.34615">
        <ele>646.1326</ele>
        <time>2015-05-02T15:36:24Z</time>
      </trkpt>
      <trkpt lat="45.49105" lon="5.34624">
        <ele>647.40576</ele>
        <time>2015-05-02T15:36:29Z</time>
      </trkpt>
      <trkpt lat="45.49108" lon="5.34632">
        <ele>647.40576</ele>
        <time>2015-05-02T15:36:34Z</time>
      </trkpt>
      <trkpt lat="45.4911" lon="5.34641">
        <ele>648.55786</ele>
        <time>2015-05-02T15:36:39Z</time>
      </trkpt>
      <trkpt lat="45.49114" lon="5.34649">
        <ele>648.55786</ele>
        <time>2015-05-02T15:36:44Z</time>
      </trkpt>
      <trkpt lat="45.49118" lon="5.34657">
        <ele>650.0848</ele>
        <time>2015-05-02T15:36:49Z</time>
      </trkpt>
      <trkpt lat="45.4912" lon="5.34665">
        <ele>650.0848</ele>
        <time>2015-05-02T15:36:54Z</time>
      </trkpt>
      <trkpt lat="45.49123" lon="5.34673">
        <ele>651.65247</ele>
        <time>2015-05-02T15:36:59Z</time>
      </trkpt>
      <trkpt lat="45.49128" lon="5.34681">
        <ele>651.65247</ele>
        <time>2015-05-02T15:37:04Z</time>
      </trkpt>
      <trkpt lat="45.49133" lon="5.34688">
        <ele>653.29694</ele>
        <time>2015-05-02T15:37:09Z</time>
      </trkpt>
      <trkpt lat="45.49138" lon="5.34692">
        <ele>653.29694</ele>
        <time>2015-05-02T15:37:14Z</time>
      </trkpt>
      <trkpt lat="45.49142" lon="5.34694">
        <ele>654.4032</ele>
        <time>2015-05-02T15:37:19Z</time>
      </trkpt>
      <trkpt lat="45.49149" lon="5.34695">
        <ele>654.4032</ele>
        <time>2015-05-02T15:37:24Z</time>
      </trkpt>
      <trkpt lat="45.49152" lon="5.34696">
        <ele>655.20984</ele>
        <time>2015-05-02T15:37:29Z</time>
      </trkpt>
      <trkpt lat="45.49154" lon="5.34687">
        <ele>655.20984</ele>
        <time>2015-05-02T15:37:34Z</time>
      </trkpt>
      <trkpt lat="45.49156" lon="5.34678">
        <ele>655.7659</ele>
        <time>2015-05-02T15:37:39Z</time>
      </trkpt>
      <trkpt lat="45.49158" lon="5.34666">
        <ele>655.7659</ele>
        <time>2015-05-02T15:37:44Z</time>
      </trkpt>
      <trkpt lat="45.49161" lon="5.34655">
        <ele>656.1609</ele>
        <time>2015-05-02T15:37:51Z</time>
      </trkpt>
      <trkpt lat="45.49163" lon="5.34645">
        <ele>656.1609</ele>
        <time>2015-05-02T15:37:54Z</time>
      </trkpt>
      <trkpt lat="45.49163" lon="5.34635">
        <ele>656.27637</ele>
        <time>2015-05-02T15:38:01Z</time>
      </trkpt>
      <trkpt lat="45.49165" lon="5.34624">
        <ele>656.27637</ele>
        <time>2015-05-02T15:38:06Z</time>
      </trkpt>
      <trkpt lat="45.49167" lon="5.34615">
        <ele>656.3062</ele>
        <time>2015-05-02T15:38:10Z</time>
      </trkpt>
      <trkpt lat="45.49169" lon="5.34606">
        <ele>656.3062</ele>
        <time>2015-05-02T15:38:14Z</time>
      </trkpt>
      <trkpt lat="45.49174" lon="5.34594">
        <ele>655.2918</ele>
        <time>2015-05-02T15:38:20Z</time>
      </trkpt>
      <trkpt lat="45.49177" lon="5.34585">
        <ele>655.2918</ele>
        <time>2015-05-02T15:38:24Z</time>
      </trkpt>
      <trkpt lat="45.49177" lon="5.34571">
        <ele>654.29333</ele>
        <time>2015-05-02T15:38:31Z</time>
      </trkpt>
      <trkpt lat="45.4918" lon="5.34558">
        <ele>654.29333</ele>
        <time>2015-05-02T15:38:35Z</time>
      </trkpt>
      <trkpt lat="45.49182" lon="5.34546">
        <ele>653.2557</ele>
        <time>2015-05-02T15:38:39Z</time>
      </trkpt>
      <trkpt lat="45.49183" lon="5.34535">
        <ele>653.2557</ele>
        <time>2015-05-02T15:38:46Z</time>
      </trkpt>
      <trkpt lat="45.49182" lon="5.34522">
        <ele>652.40155</ele>
        <time>2015-05-02T15:38:51Z</time>
      </trkpt>
      <trkpt lat="45.49182" lon="5.34512">
        <ele>652.40155</ele>
        <time>2015-05-02T15:38:54Z</time>
      </trkpt>
      <trkpt lat="45.49177" lon="5.34497">
        <ele>653.061</ele>
        <time>2015-05-02T15:39:01Z</time>
      </trkpt>
      <trkpt lat="45.49177" lon="5.34489">
        <ele>653.061</ele>
        <time>2015-05-02T15:39:05Z</time>
      </trkpt>
      <trkpt lat="45.49175" lon="5.34477">
        <ele>653.5508</ele>
        <time>2015-05-02T15:39:11Z</time>
      </trkpt>
      <trkpt lat="45.49174" lon="5.34471">
        <ele>653.5508</ele>
        <time>2015-05-02T15:39:14Z</time>
      </trkpt>
      <trkpt lat="45.49178" lon="5.34464">
        <ele>652.85986</ele>
        <time>2015-05-02T15:39:19Z</time>
      </trkpt>
      <trkpt lat="45.49181" lon="5.34455">
        <ele>652.85986</ele>
        <time>2015-05-02T15:39:24Z</time>
      </trkpt>
      <trkpt lat="45.4918" lon="5.34443">
        <ele>651.27936</ele>
        <time>2015-05-02T15:39:29Z</time>
      </trkpt>
      <trkpt lat="45.4918" lon="5.34431">
        <ele>651.27936</ele>
        <time>2015-05-02T15:39:34Z</time>
      </trkpt>
      <trkpt lat="45.49175" lon="5.34417">
        <ele>650.0615</ele>
        <time>2015-05-02T15:39:39Z</time>
      </trkpt>
      <trkpt lat="45.49171" lon="5.3441">
        <ele>650.0615</ele>
        <time>2015-05-02T15:39:44Z</time>
      </trkpt>
      <trkpt lat="45.49163" lon="5.34399">
        <ele>650.2216</ele>
        <time>2015-05-02T15:39:49Z</time>
      </trkpt>
      <trkpt lat="45.49159" lon="5.34389">
        <ele>650.2216</ele>
        <time>2015-05-02T15:39:54Z</time>
      </trkpt>
      <trkpt lat="45.49156" lon="5.34378">
        <ele>650.6067</ele>
        <time>2015-05-02T15:39:59Z</time>
      </trkpt>
      <trkpt lat="45.49151" lon="5.34368">
        <ele>650.6067</ele>
        <time>2015-05-02T15:40:04Z</time>
      </trkpt>
      <trkpt lat="45.49147" lon="5.34359">
        <ele>651.34393</ele>
        <time>2015-05-02T15:40:09Z</time>
      </trkpt>
      <trkpt lat="45.49148" lon="5.34348">
        <ele>651.34393</ele>
        <time>2015-05-02T15:40:14Z</time>
      </trkpt>
      <trkpt lat="45.49148" lon="5.34342">
        <ele>651.19556</ele>
        <time>2015-05-02T15:40:19Z</time>
      </trkpt>
      <trkpt lat="45.49147" lon="5.3434">
        <ele>651.19556</ele>
        <time>2015-05-02T15:40:24Z</time>
      </trkpt>
      <trkpt lat="45.49147" lon="5.34338">
        <ele>651.19556</ele>
        <time>2015-05-02T15:40:29Z</time>
      </trkpt>
      <trkpt lat="45.49153" lon="5.34323">
        <ele>650.1989</ele>
        <time>2015-05-02T15:40:34Z</time>
      </trkpt>
      <trkpt lat="45.49165" lon="5.34284">
        <ele>649.24115</ele>
        <time>2015-05-02T15:40:39Z</time>
      </trkpt>
      <trkpt lat="45.49176" lon="5.34239">
        <ele>648.19305</ele>
        <time>2015-05-02T15:40:44Z</time>
      </trkpt>
      <trkpt lat="45.4919" lon="5.34192">
        <ele>647.30975</ele>
        <time>2015-05-02T15:40:49Z</time>
      </trkpt>
      <trkpt lat="45.49208" lon="5.34157">
        <ele>646.51</ele>
        <time>2015-05-02T15:40:54Z</time>
      </trkpt>
      <trkpt lat="45.4922" lon="5.34138">
        <ele>646.51105</ele>
        <time>2015-05-02T15:40:59Z</time>
      </trkpt>
      <trkpt lat="45.49231" lon="5.34134">
        <ele>646.5338</ele>
        <time>2015-05-02T15:41:04Z</time>
      </trkpt>
      <trkpt lat="45.49241" lon="5.34122">
        <ele>646.5627</ele>
        <time>2015-05-02T15:41:09Z</time>
      </trkpt>
      <trkpt lat="45.49251" lon="5.34121">
        <ele>646.20825</ele>
        <time>2015-05-02T15:41:14Z</time>
      </trkpt>
      <trkpt lat="45.49257" lon="5.34118">
        <ele>646.20825</ele>
        <time>2015-05-02T15:41:19Z</time>
      </trkpt>
      <trkpt lat="45.49262" lon="5.34109">
        <ele>645.6297</ele>
        <time>2015-05-02T15:41:24Z</time>
      </trkpt>
      <trkpt lat="45.49268" lon="5.34108">
        <ele>645.6297</ele>
        <time>2015-05-02T15:41:29Z</time>
      </trkpt>
      <trkpt lat="45.49276" lon="5.34102">
        <ele>644.64355</ele>
        <time>2015-05-02T15:41:34Z</time>
      </trkpt>
      <trkpt lat="45.49289" lon="5.34093">
        <ele>644.63727</ele>
        <time>2015-05-02T15:41:40Z</time>
      </trkpt>
      <trkpt lat="45.49297" lon="5.3409">
        <ele>644.63727</ele>
        <time>2015-05-02T15:41:46Z</time>
      </trkpt>
      <trkpt lat="45.49301" lon="5.34087">
        <ele>644.70325</ele>
        <time>2015-05-02T15:41:51Z</time>
      </trkpt>
      <trkpt lat="45.49307" lon="5.34081">
        <ele>644.70325</ele>
        <time>2015-05-02T15:41:56Z</time>
      </trkpt>
      <trkpt lat="45.49312" lon="5.34078">
        <ele>644.4181</ele>
        <time>2015-05-02T15:41:59Z</time>
      </trkpt>
      <trkpt lat="45.49316" lon="5.34075">
        <ele>644.4181</ele>
        <time>2015-05-02T15:42:04Z</time>
      </trkpt>
      <trkpt lat="45.49324" lon="5.34071">
        <ele>643.70746</ele>
        <time>2015-05-02T15:42:09Z</time>
      </trkpt>
      <trkpt lat="45.49334" lon="5.34058">
        <ele>643.33966</ele>
        <time>2015-05-02T15:42:14Z</time>
      </trkpt>
      <trkpt lat="45.49344" lon="5.34047">
        <ele>642.64185</ele>
        <time>2015-05-02T15:42:19Z</time>
      </trkpt>
      <trkpt lat="45.49351" lon="5.34034">
        <ele>641.8707</ele>
        <time>2015-05-02T15:42:24Z</time>
      </trkpt>
      <trkpt lat="45.49352" lon="5.34022">
        <ele>641.8707</ele>
        <time>2015-05-02T15:42:29Z</time>
      </trkpt>
      <trkpt lat="45.49352" lon="5.34011">
        <ele>641.7974</ele>
        <time>2015-05-02T15:42:34Z</time>
      </trkpt>
      <trkpt lat="45.49354" lon="5.34">
        <ele>641.7974</ele>
        <time>2015-05-02T15:42:39Z</time>
      </trkpt>
      <trkpt lat="45.49359" lon="5.33977">
        <ele>641.578</ele>
        <time>2015-05-02T15:42:44Z</time>
      </trkpt>
      <trkpt lat="45.49367" lon="5.33961">
        <ele>641.4254</ele>
        <time>2015-05-02T15:42:49Z</time>
      </trkpt>
      <trkpt lat="45.49375" lon="5.33957">
        <ele>641.4254</ele>
        <time>2015-05-02T15:42:54Z</time>
      </trkpt>
      <trkpt lat="45.49377" lon="5.33943">
        <ele>641.1474</ele>
        <time>2015-05-02T15:42:59Z</time>
      </trkpt>
      <trkpt lat="45.49383" lon="5.33901">
        <ele>640.98425</ele>
        <time>2015-05-02T15:43:04Z</time>
      </trkpt>
      <trkpt lat="45.49384" lon="5.33863">
        <ele>640.3078</ele>
        <time>2015-05-02T15:43:09Z</time>
      </trkpt>
      <trkpt lat="45.49392" lon="5.33823">
        <ele>639.44556</ele>
        <time>2015-05-02T15:43:14Z</time>
      </trkpt>
      <trkpt lat="45.49403" lon="5.33785">
        <ele>638.3121</ele>
        <time>2015-05-02T15:43:19Z</time>
      </trkpt>
      <trkpt lat="45.49415" lon="5.33744">
        <ele>637.14624</ele>
        <time>2015-05-02T15:43:24Z</time>
      </trkpt>
      <trkpt lat="45.49423" lon="5.33704">
        <ele>635.78015</ele>
        <time>2015-05-02T15:43:29Z</time>
      </trkpt>
      <trkpt lat="45.49424" lon="5.33672">
        <ele>634.4622</ele>
        <time>2015-05-02T15:43:34Z</time>
      </trkpt>
      <trkpt lat="45.49419" lon="5.33651">
        <ele>633.048</ele>
        <time>2015-05-02T15:43:39Z</time>
      </trkpt>
      <trkpt lat="45.49415" lon="5.33638">
        <ele>631.57635</ele>
        <time>2015-05-02T15:43:44Z</time>
      </trkpt>
      <trkpt lat="45.49413" lon="5.33626">
        <ele>631.57635</ele>
        <time>2015-05-02T15:43:49Z</time>
      </trkpt>
      <trkpt lat="45.49415" lon="5.33612">
        <ele>629.83887</ele>
        <time>2015-05-02T15:43:54Z</time>
      </trkpt>
      <trkpt lat="45.49413" lon="5.336">
        <ele>629.83887</ele>
        <time>2015-05-02T15:43:59Z</time>
      </trkpt>
      <trkpt lat="45.49416" lon="5.33588">
        <ele>628.13275</ele>
        <time>2015-05-02T15:44:04Z</time>
      </trkpt>
      <trkpt lat="45.49418" lon="5.33576">
        <ele>628.13275</ele>
        <time>2015-05-02T15:44:09Z</time>
      </trkpt>
      <trkpt lat="45.49419" lon="5.33565">
        <ele>626.2578</ele>
        <time>2015-05-02T15:44:14Z</time>
      </trkpt>
      <trkpt lat="45.49417" lon="5.33554">
        <ele>626.2578</ele>
        <time>2015-05-02T15:44:19Z</time>
      </trkpt>
      <trkpt lat="45.49416" lon="5.33542">
        <ele>624.5045</ele>
        <time>2015-05-02T15:44:24Z</time>
      </trkpt>
      <trkpt lat="45.49415" lon="5.33532">
        <ele>624.5045</ele>
        <time>2015-05-02T15:44:29Z</time>
      </trkpt>
      <trkpt lat="45.49419" lon="5.33527">
        <ele>622.7379</ele>
        <time>2015-05-02T15:44:34Z</time>
      </trkpt>
      <trkpt lat="45.49422" lon="5.33519">
        <ele>622.7379</ele>
        <time>2015-05-02T15:44:39Z</time>
      </trkpt>
      <trkpt lat="45.49426" lon="5.3351">
        <ele>620.48724</ele>
        <time>2015-05-02T15:44:44Z</time>
      </trkpt>
      <trkpt lat="45.4943" lon="5.33499">
        <ele>618.41266</ele>
        <time>2015-05-02T15:44:49Z</time>
      </trkpt>
      <trkpt lat="45.49436" lon="5.33488">
        <ele>616.5489</ele>
        <time>2015-05-02T15:44:54Z</time>
      </trkpt>
      <trkpt lat="45.49441" lon="5.33478">
        <ele>616.5489</ele>
        <time>2015-05-02T15:44:59Z</time>
      </trkpt>
      <trkpt lat="45.49447" lon="5.33469">
        <ele>614.8264</ele>
        <time>2015-05-02T15:45:04Z</time>
      </trkpt>
      <trkpt lat="45.49452" lon="5.33459">
        <ele>614.8264</ele>
        <time>2015-05-02T15:45:09Z</time>
      </trkpt>
      <trkpt lat="45.49457" lon="5.33452">
        <ele>613.584</ele>
        <time>2015-05-02T15:45:14Z</time>
      </trkpt>
      <trkpt lat="45.49459" lon="5.33443">
        <ele>613.584</ele>
        <time>2015-05-02T15:45:19Z</time>
      </trkpt>
      <trkpt lat="45.49465" lon="5.33435">
        <ele>612.6439</ele>
        <time>2015-05-02T15:45:24Z</time>
      </trkpt>
      <trkpt lat="45.49471" lon="5.3343">
        <ele>612.6439</ele>
        <time>2015-05-02T15:45:29Z</time>
      </trkpt>
      <trkpt lat="45.49478" lon="5.33424">
        <ele>612.44586</ele>
        <time>2015-05-02T15:45:34Z</time>
      </trkpt>
      <trkpt lat="45.49482" lon="5.3343">
        <ele>612.44586</ele>
        <time>2015-05-02T15:45:39Z</time>
      </trkpt>
      <trkpt lat="45.49485" lon="5.33439">
        <ele>612.6601</ele>
        <time>2015-05-02T15:45:44Z</time>
      </trkpt>
      <trkpt lat="45.49488" lon="5.33449">
        <ele>612.6601</ele>
        <time>2015-05-02T15:45:49Z</time>
      </trkpt>
      <trkpt lat="45.4949" lon="5.33458">
        <ele>613.15283</ele>
        <time>2015-05-02T15:45:54Z</time>
      </trkpt>
      <trkpt lat="45.49491" lon="5.33463">
        <ele>613.15283</ele>
        <time>2015-05-02T15:45:59Z</time>
      </trkpt>
      <trkpt lat="45.49495" lon="5.33471">
        <ele>613.266</ele>
        <time>2015-05-02T15:46:04Z</time>
      </trkpt>
      <trkpt lat="45.49501" lon="5.33481">
        <ele>613.80304</ele>
        <time>2015-05-02T15:46:09Z</time>
      </trkpt>
      <trkpt lat="45.49507" lon="5.33488">
        <ele>613.80304</ele>
        <time>2015-05-02T15:46:14Z</time>
      </trkpt>
      <trkpt lat="45.49513" lon="5.33497">
        <ele>614.35455</ele>
        <time>2015-05-02T15:46:19Z</time>
      </trkpt>
      <trkpt lat="45.4953" lon="5.33513">
        <ele>614.9299</ele>
        <time>2015-05-02T15:46:24Z</time>
      </trkpt>
      <trkpt lat="45.49555" lon="5.33529">
        <ele>616.11426</ele>
        <time>2015-05-02T15:46:29Z</time>
      </trkpt>
      <trkpt lat="45.49582" lon="5.3354">
        <ele>617.56915</ele>
        <time>2015-05-02T15:46:34Z</time>
      </trkpt>
      <trkpt lat="45.49601" lon="5.3355">
        <ele>618.74945</ele>
        <time>2015-05-02T15:46:39Z</time>
      </trkpt>
      <trkpt lat="45.49627" lon="5.33567">
        <ele>619.64087</ele>
        <time>2015-05-02T15:46:44Z</time>
      </trkpt>
      <trkpt lat="45.49634" lon="5.33572">
        <ele>619.64087</ele>
        <time>2015-05-02T15:46:49Z</time>
      </trkpt>
      <trkpt lat="45.49642" lon="5.33581">
        <ele>619.7268</ele>
        <time>2015-05-02T15:46:54Z</time>
      </trkpt>
      <trkpt lat="45.49646" lon="5.3359">
        <ele>619.7268</ele>
        <time>2015-05-02T15:47:00Z</time>
      </trkpt>
      <trkpt lat="45.49648" lon="5.33598">
        <ele>620.5483</ele>
        <time>2015-05-02T15:47:06Z</time>
      </trkpt>
      <trkpt lat="45.49655" lon="5.33606">
        <ele>620.5483</ele>
        <time>2015-05-02T15:47:11Z</time>
      </trkpt>
      <trkpt lat="45.4966" lon="5.33615">
        <ele>621.2975</ele>
        <time>2015-05-02T15:47:14Z</time>
      </trkpt>
      <trkpt lat="45.49664" lon="5.3363">
        <ele>621.8314</ele>
        <time>2015-05-02T15:47:19Z</time>
      </trkpt>
      <trkpt lat="45.49669" lon="5.33644">
        <ele>622.0328</ele>
        <time>2015-05-02T15:47:24Z</time>
      </trkpt>
      <trkpt lat="45.49676" lon="5.3366">
        <ele>622.67285</ele>
        <time>2015-05-02T15:47:29Z</time>
      </trkpt>
      <trkpt lat="45.49677" lon="5.33673">
        <ele>623.7446</ele>
        <time>2015-05-02T15:47:34Z</time>
      </trkpt>
      <trkpt lat="45.49679" lon="5.33684">
        <ele>623.7446</ele>
        <time>2015-05-02T15:47:39Z</time>
      </trkpt>
      <trkpt lat="45.49684" lon="5.33696">
        <ele>624.60645</ele>
        <time>2015-05-02T15:47:44Z</time>
      </trkpt>
      <trkpt lat="45.4969" lon="5.33706">
        <ele>624.60645</ele>
        <time>2015-05-02T15:47:49Z</time>
      </trkpt>
      <trkpt lat="45.49693" lon="5.33715">
        <ele>625.3273</ele>
        <time>2015-05-02T15:47:54Z</time>
      </trkpt>
      <trkpt lat="45.49694" lon="5.33723">
        <ele>625.3273</ele>
        <time>2015-05-02T15:47:59Z</time>
      </trkpt>
      <trkpt lat="45.49697" lon="5.3373">
        <ele>625.85626</ele>
        <time>2015-05-02T15:48:04Z</time>
      </trkpt>
      <trkpt lat="45.49699" lon="5.33737">
        <ele>625.85626</ele>
        <time>2015-05-02T15:48:09Z</time>
      </trkpt>
      <trkpt lat="45.49702" lon="5.33746">
        <ele>626.2478</ele>
        <time>2015-05-02T15:48:14Z</time>
      </trkpt>
      <trkpt lat="45.49705" lon="5.33757">
        <ele>626.2478</ele>
        <time>2015-05-02T15:48:19Z</time>
      </trkpt>
      <trkpt lat="45.49708" lon="5.3377">
        <ele>626.524</ele>
        <time>2015-05-02T15:48:24Z</time>
      </trkpt>
      <trkpt lat="45.49709" lon="5.33787">
        <ele>626.7345</ele>
        <time>2015-05-02T15:48:29Z</time>
      </trkpt>
      <trkpt lat="45.49712" lon="5.33799">
        <ele>626.60864</ele>
        <time>2015-05-02T15:48:34Z</time>
      </trkpt>
      <trkpt lat="45.49713" lon="5.33806">
        <ele>626.60864</ele>
        <time>2015-05-02T15:48:39Z</time>
      </trkpt>
      <trkpt lat="45.49711" lon="5.33819">
        <ele>626.14166</ele>
        <time>2015-05-02T15:48:44Z</time>
      </trkpt>
      <trkpt lat="45.4971" lon="5.33826">
        <ele>626.14166</ele>
        <time>2015-05-02T15:48:49Z</time>
      </trkpt>
      <trkpt lat="45.49711" lon="5.33839">
        <ele>625.6326</ele>
        <time>2015-05-02T15:48:54Z</time>
      </trkpt>
      <trkpt lat="45.49707" lon="5.33854">
        <ele>624.7107</ele>
        <time>2015-05-02T15:48:59Z</time>
      </trkpt>
      <trkpt lat="45.49709" lon="5.33874">
        <ele>624.97864</ele>
        <time>2015-05-02T15:49:04Z</time>
      </trkpt>
      <trkpt lat="45.49708" lon="5.33885">
        <ele>624.97864</ele>
        <time>2015-05-02T15:49:09Z</time>
      </trkpt>
      <trkpt lat="45.49706" lon="5.33892">
        <ele>624.63275</ele>
        <time>2015-05-02T15:49:14Z</time>
      </trkpt>
      <trkpt lat="45.49706" lon="5.33909">
        <ele>624.74164</ele>
        <time>2015-05-02T15:49:19Z</time>
      </trkpt>
      <trkpt lat="45.49712" lon="5.33914">
        <ele>624.74164</ele>
        <time>2015-05-02T15:49:24Z</time>
      </trkpt>
      <trkpt lat="45.49715" lon="5.33905">
        <ele>624.6945</ele>
        <time>2015-05-02T15:49:29Z</time>
      </trkpt>
      <trkpt lat="45.49717" lon="5.33902">
        <ele>624.6945</ele>
        <time>2015-05-02T15:49:34Z</time>
      </trkpt>
      <trkpt lat="45.49734" lon="5.33874">
        <ele>624.2142</ele>
        <time>2015-05-02T15:49:49Z</time>
      </trkpt>
      <trkpt lat="45.4974" lon="5.33867">
        <ele>624.2142</ele>
        <time>2015-05-02T15:49:54Z</time>
      </trkpt>
      <trkpt lat="45.49748" lon="5.33858">
        <ele>623.49194</ele>
        <time>2015-05-02T15:49:59Z</time>
      </trkpt>
      <trkpt lat="45.49754" lon="5.33853">
        <ele>623.49194</ele>
        <time>2015-05-02T15:50:04Z</time>
      </trkpt>
      <trkpt lat="45.49761" lon="5.33844">
        <ele>624.27637</ele>
        <time>2015-05-02T15:50:09Z</time>
      </trkpt>
      <trkpt lat="45.49764" lon="5.33833">
        <ele>624.27637</ele>
        <time>2015-05-02T15:50:14Z</time>
      </trkpt>
      <trkpt lat="45.49768" lon="5.3382">
        <ele>623.6729</ele>
        <time>2015-05-02T15:50:19Z</time>
      </trkpt>
      <trkpt lat="45.49774" lon="5.33812">
        <ele>623.6729</ele>
        <time>2015-05-02T15:50:24Z</time>
      </trkpt>
      <trkpt lat="45.49777" lon="5.33804">
        <ele>622.46216</ele>
        <time>2015-05-02T15:50:29Z</time>
      </trkpt>
      <trkpt lat="45.49783" lon="5.33793">
        <ele>621.54205</ele>
        <time>2015-05-02T15:50:34Z</time>
      </trkpt>
      <trkpt lat="45.49791" lon="5.33782">
        <ele>620.63416</ele>
        <time>2015-05-02T15:50:39Z</time>
      </trkpt>
      <trkpt lat="45.49798" lon="5.33772">
        <ele>620.3595</ele>
        <time>2015-05-02T15:50:44Z</time>
      </trkpt>
      <trkpt lat="45.49803" lon="5.33765">
        <ele>620.3595</ele>
        <time>2015-05-02T15:50:49Z</time>
      </trkpt>
      <trkpt lat="45.49812" lon="5.3376">
        <ele>619.5191</ele>
        <time>2015-05-02T15:50:54Z</time>
      </trkpt>
      <trkpt lat="45.4982" lon="5.33761">
        <ele>619.5191</ele>
        <time>2015-05-02T15:50:59Z</time>
      </trkpt>
      <trkpt lat="45.49824" lon="5.33764">
        <ele>617.94055</ele>
        <time>2015-05-02T15:51:04Z</time>
      </trkpt>
      <trkpt lat="45.49827" lon="5.33768">
        <ele>617.94055</ele>
        <time>2015-05-02T15:51:09Z</time>
      </trkpt>
      <trkpt lat="45.49828" lon="5.33771">
        <ele>617.94055</ele>
        <time>2015-05-02T15:51:14Z</time>
      </trkpt>
      <trkpt lat="45.49844" lon="5.33776">
        <ele>615.9848</ele>
        <time>2015-05-02T15:51:19Z</time>
      </trkpt>
      <trkpt lat="45.49849" lon="5.33777">
        <ele>615.9848</ele>
        <time>2015-05-02T15:51:24Z</time>
      </trkpt>
      <trkpt lat="45.49853" lon="5.33779">
        <ele>613.97296</ele>
        <time>2015-05-02T15:51:29Z</time>
      </trkpt>
      <trkpt lat="45.49863" lon="5.33782">
        <ele>611.8569</ele>
        <time>2015-05-02T15:51:34Z</time>
      </trkpt>
      <trkpt lat="45.49877" lon="5.33784">
        <ele>610.4712</ele>
        <time>2015-05-02T15:51:39Z</time>
      </trkpt>
      <trkpt lat="45.49887" lon="5.33781">
        <ele>609.31903</ele>
        <time>2015-05-02T15:51:44Z</time>
      </trkpt>
      <trkpt lat="45.49893" lon="5.33773">
        <ele>609.31903</ele>
        <time>2015-05-02T15:51:49Z</time>
      </trkpt>
      <trkpt lat="45.49903" lon="5.33768">
        <ele>608.16974</ele>
        <time>2015-05-02T15:51:54Z</time>
      </trkpt>
      <trkpt lat="45.4991" lon="5.33764">
        <ele>608.16974</ele>
        <time>2015-05-02T15:51:59Z</time>
      </trkpt>
      <trkpt lat="45.49918" lon="5.33759">
        <ele>606.5935</ele>
        <time>2015-05-02T15:52:04Z</time>
      </trkpt>
      <trkpt lat="45.49923" lon="5.33754">
        <ele>606.5935</ele>
        <time>2015-05-02T15:52:09Z</time>
      </trkpt>
      <trkpt lat="45.49931" lon="5.3375">
        <ele>603.5735</ele>
        <time>2015-05-02T15:52:14Z</time>
      </trkpt>
      <trkpt lat="45.49938" lon="5.33747">
        <ele>603.5735</ele>
        <time>2015-05-02T15:52:19Z</time>
      </trkpt>
      <trkpt lat="45.49948" lon="5.33741">
        <ele>600.5205</ele>
        <time>2015-05-02T15:52:24Z</time>
      </trkpt>
      <trkpt lat="45.49956" lon="5.33734">
        <ele>597.83386</ele>
        <time>2015-05-02T15:52:29Z</time>
      </trkpt>
      <trkpt lat="45.49964" lon="5.33729">
        <ele>595.33484</ele>
        <time>2015-05-02T15:52:34Z</time>
      </trkpt>
      <trkpt lat="45.49972" lon="5.33725">
        <ele>595.33484</ele>
        <time>2015-05-02T15:52:39Z</time>
      </trkpt>
      <trkpt lat="45.49983" lon="5.33719">
        <ele>593.9667</ele>
        <time>2015-05-02T15:52:44Z</time>
      </trkpt>
      <trkpt lat="45.5" lon="5.3373">
        <ele>592.3953</ele>
        <time>2015-05-02T15:52:49Z</time>
      </trkpt>
      <trkpt lat="45.50017" lon="5.33746">
        <ele>590.9847</ele>
        <time>2015-05-02T15:52:54Z</time>
      </trkpt>
      <trkpt lat="45.50035" lon="5.33768">
        <ele>589.55255</ele>
        <time>2015-05-02T15:52:59Z</time>
      </trkpt>
      <trkpt lat="45.50047" lon="5.33793">
        <ele>588.2327</ele>
        <time>2015-05-02T15:53:04Z</time>
      </trkpt>
      <trkpt lat="45.50057" lon="5.33818">
        <ele>587.39374</ele>
        <time>2015-05-02T15:53:09Z</time>
      </trkpt>
      <trkpt lat="45.50065" lon="5.3384">
        <ele>587.54846</ele>
        <time>2015-05-02T15:53:14Z</time>
      </trkpt>
      <trkpt lat="45.50062" lon="5.33849">
        <ele>587.54846</ele>
        <time>2015-05-02T15:53:19Z</time>
      </trkpt>
      <trkpt lat="45.50067" lon="5.33861">
        <ele>587.36786</ele>
        <time>2015-05-02T15:53:26Z</time>
      </trkpt>
      <trkpt lat="45.50067" lon="5.3387">
        <ele>587.36786</ele>
        <time>2015-05-02T15:53:29Z</time>
      </trkpt>
      <trkpt lat="45.50072" lon="5.33882">
        <ele>586.63007</ele>
        <time>2015-05-02T15:53:36Z</time>
      </trkpt>
      <trkpt lat="45.50079" lon="5.33892">
        <ele>586.0678</ele>
        <time>2015-05-02T15:53:40Z</time>
      </trkpt>
      <trkpt lat="45.50091" lon="5.33895">
        <ele>586.31616</ele>
        <time>2015-05-02T15:53:44Z</time>
      </trkpt>
      <trkpt lat="45.50097" lon="5.3389">
        <ele>586.31616</ele>
        <time>2015-05-02T15:53:49Z</time>
      </trkpt>
      <trkpt lat="45.50102" lon="5.33881">
        <ele>586.67847</ele>
        <time>2015-05-02T15:53:54Z</time>
      </trkpt>
      <trkpt lat="45.50106" lon="5.33873">
        <ele>586.67847</ele>
        <time>2015-05-02T15:53:59Z</time>
      </trkpt>
      <trkpt lat="45.50108" lon="5.33866">
        <ele>586.16327</ele>
        <time>2015-05-02T15:54:04Z</time>
      </trkpt>
      <trkpt lat="45.50109" lon="5.33856">
        <ele>586.16327</ele>
        <time>2015-05-02T15:54:09Z</time>
      </trkpt>
      <trkpt lat="45.50111" lon="5.33843">
        <ele>585.32404</ele>
        <time>2015-05-02T15:54:14Z</time>
      </trkpt>
      <trkpt lat="45.5011" lon="5.33833">
        <ele>585.32404</ele>
        <time>2015-05-02T15:54:19Z</time>
      </trkpt>
      <trkpt lat="45.50112" lon="5.33827">
        <ele>584.9773</ele>
        <time>2015-05-02T15:54:24Z</time>
      </trkpt>
      <trkpt lat="45.50114" lon="5.33814">
        <ele>584.5233</ele>
        <time>2015-05-02T15:54:29Z</time>
      </trkpt>
      <trkpt lat="45.50116" lon="5.33802">
        <ele>584.5233</ele>
        <time>2015-05-02T15:54:34Z</time>
      </trkpt>
      <trkpt lat="45.50119" lon="5.33792">
        <ele>583.7672</ele>
        <time>2015-05-02T15:54:39Z</time>
      </trkpt>
      <trkpt lat="45.50121" lon="5.33784">
        <ele>583.7672</ele>
        <time>2015-05-02T15:54:44Z</time>
      </trkpt>
      <trkpt lat="45.50127" lon="5.33775">
        <ele>582.1111</ele>
        <time>2015-05-02T15:54:49Z</time>
      </trkpt>
      <trkpt lat="45.50132" lon="5.33769">
        <ele>582.1111</ele>
        <time>2015-05-02T15:54:54Z</time>
      </trkpt>
      <trkpt lat="45.50135" lon="5.33759">
        <ele>580.4447</ele>
        <time>2015-05-02T15:54:59Z</time>
      </trkpt>
      <trkpt lat="45.50136" lon="5.33749">
        <ele>580.4447</ele>
        <time>2015-05-02T15:55:04Z</time>
      </trkpt>
      <trkpt lat="45.50139" lon="5.3374">
        <ele>579.1601</ele>
        <time>2015-05-02T15:55:09Z</time>
      </trkpt>
      <trkpt lat="45.50142" lon="5.33731">
        <ele>579.1601</ele>
        <time>2015-05-02T15:55:14Z</time>
      </trkpt>
      <trkpt lat="45.50144" lon="5.33724">
        <ele>577.79803</ele>
        <time>2015-05-02T15:55:19Z</time>
      </trkpt>
      <trkpt lat="45.50146" lon="5.33716">
        <ele>577.79803</ele>
        <time>2015-05-02T15:55:24Z</time>
      </trkpt>
      <trkpt lat="45.50149" lon="5.33706">
        <ele>576.4807</ele>
        <time>2015-05-02T15:55:29Z</time>
      </trkpt>
      <trkpt lat="45.50152" lon="5.33697">
        <ele>576.4807</ele>
        <time>2015-05-02T15:55:34Z</time>
      </trkpt>
      <trkpt lat="45.50152" lon="5.33687">
        <ele>574.889</ele>
        <time>2015-05-02T15:55:39Z</time>
      </trkpt>
      <trkpt lat="45.50153" lon="5.33677">
        <ele>574.889</ele>
        <time>2015-05-02T15:55:44Z</time>
      </trkpt>
      <trkpt lat="45.50156" lon="5.33664">
        <ele>573.30426</ele>
        <time>2015-05-02T15:55:49Z</time>
      </trkpt>
      <trkpt lat="45.50159" lon="5.33653">
        <ele>573.30426</ele>
        <time>2015-05-02T15:55:54Z</time>
      </trkpt>
      <trkpt lat="45.50161" lon="5.33643">
        <ele>571.4828</ele>
        <time>2015-05-02T15:55:59Z</time>
      </trkpt>
      <trkpt lat="45.50162" lon="5.33631">
        <ele>569.54535</ele>
        <time>2015-05-02T15:56:04Z</time>
      </trkpt>
      <trkpt lat="45.50166" lon="5.33619">
        <ele>569.54535</ele>
        <time>2015-05-02T15:56:09Z</time>
      </trkpt>
      <trkpt lat="45.50171" lon="5.33608">
        <ele>567.47424</ele>
        <time>2015-05-02T15:56:14Z</time>
      </trkpt>
      <trkpt lat="45.50175" lon="5.33599">
        <ele>567.47424</ele>
        <time>2015-05-02T15:56:19Z</time>
      </trkpt>
      <trkpt lat="45.5018" lon="5.33589">
        <ele>565.1671</ele>
        <time>2015-05-02T15:56:24Z</time>
      </trkpt>
      <trkpt lat="45.50185" lon="5.33582">
        <ele>565.1671</ele>
        <time>2015-05-02T15:56:29Z</time>
      </trkpt>
      <trkpt lat="45.5019" lon="5.33573">
        <ele>563.06287</ele>
        <time>2015-05-02T15:56:34Z</time>
      </trkpt>
      <trkpt lat="45.50196" lon="5.33562">
        <ele>563.06287</ele>
        <time>2015-05-02T15:56:39Z</time>
      </trkpt>
      <trkpt lat="45.50203" lon="5.33557">
        <ele>560.9911</ele>
        <time>2015-05-02T15:56:45Z</time>
      </trkpt>
      <trkpt lat="45.50208" lon="5.33553">
        <ele>560.9911</ele>
        <time>2015-05-02T15:56:51Z</time>
      </trkpt>
      <trkpt lat="45.50215" lon="5.33546">
        <ele>559.5287</ele>
        <time>2015-05-02T15:56:55Z</time>
      </trkpt>
      <trkpt lat="45.50225" lon="5.33539">
        <ele>558.4734</ele>
        <time>2015-05-02T15:57:01Z</time>
      </trkpt>
      <trkpt lat="45.50233" lon="5.33533">
        <ele>557.4927</ele>
        <time>2015-05-02T15:57:05Z</time>
      </trkpt>
      <trkpt lat="45.50241" lon="5.33529">
        <ele>557.4927</ele>
        <time>2015-05-02T15:57:10Z</time>
      </trkpt>
      <trkpt lat="45.50246" lon="5.33529">
        <ele>556.0618</ele>
        <time>2015-05-02T15:57:15Z</time>
      </trkpt>
      <trkpt lat="45.50254" lon="5.33523">
        <ele>554.71906</ele>
        <time>2015-05-02T15:57:20Z</time>
      </trkpt>
      <trkpt lat="45.5026" lon="5.33521">
        <ele>554.71906</ele>
        <time>2015-05-02T15:57:24Z</time>
      </trkpt>
      <trkpt lat="45.50268" lon="5.33519">
        <ele>553.1126</ele>
        <time>2015-05-02T15:57:29Z</time>
      </trkpt>
      <trkpt lat="45.50274" lon="5.33515">
        <ele>553.1126</ele>
        <time>2015-05-02T15:57:34Z</time>
      </trkpt>
      <trkpt lat="45.50282" lon="5.33511">
        <ele>551.4792</ele>
        <time>2015-05-02T15:57:39Z</time>
      </trkpt>
      <trkpt lat="45.50288" lon="5.33506">
        <ele>551.4792</ele>
        <time>2015-05-02T15:57:44Z</time>
      </trkpt>
      <trkpt lat="45.50294" lon="5.33501">
        <ele>549.60583</ele>
        <time>2015-05-02T15:57:49Z</time>
      </trkpt>
      <trkpt lat="45.503" lon="5.33492">
        <ele>549.60583</ele>
        <time>2015-05-02T15:57:54Z</time>
      </trkpt>
      <trkpt lat="45.50307" lon="5.33486">
        <ele>547.7858</ele>
        <time>2015-05-02T15:57:59Z</time>
      </trkpt>
      <trkpt lat="45.50314" lon="5.33479">
        <ele>547.7858</ele>
        <time>2015-05-02T15:58:04Z</time>
      </trkpt>
      <trkpt lat="45.5032" lon="5.33472">
        <ele>546.0457</ele>
        <time>2015-05-02T15:58:09Z</time>
      </trkpt>
      <trkpt lat="45.50327" lon="5.33466">
        <ele>546.0457</ele>
        <time>2015-05-02T15:58:14Z</time>
      </trkpt>
      <trkpt lat="45.50334" lon="5.33462">
        <ele>544.1505</ele>
        <time>2015-05-02T15:58:19Z</time>
      </trkpt>
      <trkpt lat="45.50339" lon="5.33457">
        <ele>544.1505</ele>
        <time>2015-05-02T15:58:24Z</time>
      </trkpt>
      <trkpt lat="45.5034" lon="5.33456">
        <ele>544.1505</ele>
        <time>2015-05-02T15:58:29Z</time>
      </trkpt>
      <trkpt lat="45.50346" lon="5.33452">
        <ele>542.315</ele>
        <time>2015-05-02T15:58:34Z</time>
      </trkpt>
      <trkpt lat="45.50352" lon="5.33446">
        <ele>542.315</ele>
        <time>2015-05-02T15:58:39Z</time>
      </trkpt>
      <trkpt lat="45.50358" lon="5.33439">
        <ele>540.421</ele>
        <time>2015-05-02T15:58:44Z</time>
      </trkpt>
      <trkpt lat="45.50365" lon="5.3343">
        <ele>540.421</ele>
        <time>2015-05-02T15:58:49Z</time>
      </trkpt>
      <trkpt lat="45.50371" lon="5.33424">
        <ele>538.6187</ele>
        <time>2015-05-02T15:58:54Z</time>
      </trkpt>
      <trkpt lat="45.50379" lon="5.33424">
        <ele>538.6187</ele>
        <time>2015-05-02T15:58:59Z</time>
      </trkpt>
      <trkpt lat="45.50385" lon="5.33431">
        <ele>537.19086</ele>
        <time>2015-05-02T15:59:04Z</time>
      </trkpt>
      <trkpt lat="45.50388" lon="5.3344">
        <ele>537.19086</ele>
        <time>2015-05-02T15:59:09Z</time>
      </trkpt>
      <trkpt lat="45.5039" lon="5.3345">
        <ele>535.6489</ele>
        <time>2015-05-02T15:59:14Z</time>
      </trkpt>
      <trkpt lat="45.50392" lon="5.33459">
        <ele>535.6489</ele>
        <time>2015-05-02T15:59:19Z</time>
      </trkpt>
      <trkpt lat="45.50397" lon="5.33472">
        <ele>534.2181</ele>
        <time>2015-05-02T15:59:25Z</time>
      </trkpt>
      <trkpt lat="45.504" lon="5.33483">
        <ele>534.2181</ele>
        <time>2015-05-02T15:59:31Z</time>
      </trkpt>
      <trkpt lat="45.50401" lon="5.33492">
        <ele>533.0487</ele>
        <time>2015-05-02T15:59:34Z</time>
      </trkpt>
      <trkpt lat="45.50404" lon="5.33503">
        <ele>533.0487</ele>
        <time>2015-05-02T15:59:41Z</time>
      </trkpt>
      <trkpt lat="45.50407" lon="5.33513">
        <ele>532.0634</ele>
        <time>2015-05-02T15:59:45Z</time>
      </trkpt>
      <trkpt lat="45.50411" lon="5.33523">
        <ele>532.0634</ele>
        <time>2015-05-02T15:59:49Z</time>
      </trkpt>
      <trkpt lat="45.50415" lon="5.33535">
        <ele>531.6797</ele>
        <time>2015-05-02T15:59:54Z</time>
      </trkpt>
      <trkpt lat="45.50417" lon="5.33544">
        <ele>531.6797</ele>
        <time>2015-05-02T15:59:59Z</time>
      </trkpt>
      <trkpt lat="45.50419" lon="5.33554">
        <ele>530.85614</ele>
        <time>2015-05-02T16:00:04Z</time>
      </trkpt>
      <trkpt lat="45.50421" lon="5.33565">
        <ele>530.85614</ele>
        <time>2015-05-02T16:00:09Z</time>
      </trkpt>
      <trkpt lat="45.50423" lon="5.33575">
        <ele>530.4303</ele>
        <time>2015-05-02T16:00:14Z</time>
      </trkpt>
      <trkpt lat="45.50426" lon="5.33587">
        <ele>530.4303</ele>
        <time>2015-05-02T16:00:19Z</time>
      </trkpt>
      <trkpt lat="45.50429" lon="5.33598">
        <ele>530.4999</ele>
        <time>2015-05-02T16:00:24Z</time>
      </trkpt>
      <trkpt lat="45.50432" lon="5.33609">
        <ele>530.4999</ele>
        <time>2015-05-02T16:00:29Z</time>
      </trkpt>
      <trkpt lat="45.50435" lon="5.33622">
        <ele>530.44775</ele>
        <time>2015-05-02T16:00:34Z</time>
      </trkpt>
      <trkpt lat="45.50437" lon="5.33633">
        <ele>530.44775</ele>
        <time>2015-05-02T16:00:39Z</time>
      </trkpt>
      <trkpt lat="45.50437" lon="5.33644">
        <ele>530.1061</ele>
        <time>2015-05-02T16:00:44Z</time>
      </trkpt>
      <trkpt lat="45.50436" lon="5.33654">
        <ele>530.1061</ele>
        <time>2015-05-02T16:00:49Z</time>
      </trkpt>
      <trkpt lat="45.50436" lon="5.33666">
        <ele>529.89655</ele>
        <time>2015-05-02T16:00:54Z</time>
      </trkpt>
      <trkpt lat="45.50436" lon="5.33677">
        <ele>529.89655</ele>
        <time>2015-05-02T16:00:59Z</time>
      </trkpt>
      <trkpt lat="45.50437" lon="5.33689">
        <ele>530.1808</ele>
        <time>2015-05-02T16:01:04Z</time>
      </trkpt>
      <trkpt lat="45.50439" lon="5.33701">
        <ele>530.1808</ele>
        <time>2015-05-02T16:01:09Z</time>
      </trkpt>
      <trkpt lat="45.5044" lon="5.33712">
        <ele>531.07623</ele>
        <time>2015-05-02T16:01:14Z</time>
      </trkpt>
      <trkpt lat="45.50441" lon="5.33725">
        <ele>532.0993</ele>
        <time>2015-05-02T16:01:19Z</time>
      </trkpt>
      <trkpt lat="45.50441" lon="5.33736">
        <ele>532.0993</ele>
        <time>2015-05-02T16:01:24Z</time>
      </trkpt>
      <trkpt lat="45.50442" lon="5.33748">
        <ele>533.30585</ele>
        <time>2015-05-02T16:01:29Z</time>
      </trkpt>
      <trkpt lat="45.50442" lon="5.33758">
        <ele>533.30585</ele>
        <time>2015-05-02T16:01:34Z</time>
      </trkpt>
      <trkpt lat="45.50442" lon="5.3377">
        <ele>534.41595</ele>
        <time>2015-05-02T16:01:39Z</time>
      </trkpt>
      <trkpt lat="45.50442" lon="5.33781">
        <ele>534.41595</ele>
        <time>2015-05-02T16:01:44Z</time>
      </trkpt>
      <trkpt lat="45.50446" lon="5.33793">
        <ele>535.9199</ele>
        <time>2015-05-02T16:01:49Z</time>
      </trkpt>
      <trkpt lat="45.50449" lon="5.33801">
        <ele>535.9199</ele>
        <time>2015-05-02T16:01:54Z</time>
      </trkpt>
      <trkpt lat="45.50452" lon="5.3381">
        <ele>537.44946</ele>
        <time>2015-05-02T16:01:59Z</time>
      </trkpt>
      <trkpt lat="45.50455" lon="5.3382">
        <ele>537.44946</ele>
        <time>2015-05-02T16:02:04Z</time>
      </trkpt>
      <trkpt lat="45.5046" lon="5.33829">
        <ele>539.15356</ele>
        <time>2015-05-02T16:02:09Z</time>
      </trkpt>
      <trkpt lat="45.50463" lon="5.33837">
        <ele>539.15356</ele>
        <time>2015-05-02T16:02:14Z</time>
      </trkpt>
      <trkpt lat="45.50467" lon="5.33846">
        <ele>540.824</ele>
        <time>2015-05-02T16:02:19Z</time>
      </trkpt>
      <trkpt lat="45.50471" lon="5.33857">
        <ele>542.91644</ele>
        <time>2015-05-02T16:02:24Z</time>
      </trkpt>
      <trkpt lat="45.50472" lon="5.33868">
        <ele>542.91644</ele>
        <time>2015-05-02T16:02:29Z</time>
      </trkpt>
      <trkpt lat="45.50473" lon="5.33879">
        <ele>544.93005</ele>
        <time>2015-05-02T16:02:34Z</time>
      </trkpt>
      <trkpt lat="45.50473" lon="5.33889">
        <ele>544.93005</ele>
        <time>2015-05-02T16:02:39Z</time>
      </trkpt>
      <trkpt lat="45.50473" lon="5.33902">
        <ele>546.6603</ele>
        <time>2015-05-02T16:02:44Z</time>
      </trkpt>
      <trkpt lat="45.50475" lon="5.33914">
        <ele>546.6603</ele>
        <time>2015-05-02T16:02:49Z</time>
      </trkpt>
      <trkpt lat="45.50479" lon="5.33937">
        <ele>548.596</ele>
        <time>2015-05-02T16:02:54Z</time>
      </trkpt>
      <trkpt lat="45.50483" lon="5.33972">
        <ele>550.3253</ele>
        <time>2015-05-02T16:02:59Z</time>
      </trkpt>
      <trkpt lat="45.50489" lon="5.34">
        <ele>551.76965</ele>
        <time>2015-05-02T16:03:04Z</time>
      </trkpt>
      <trkpt lat="45.50492" lon="5.34011">
        <ele>551.76965</ele>
        <time>2015-05-02T16:03:09Z</time>
      </trkpt>
      <trkpt lat="45.50498" lon="5.34035">
        <ele>553.0017</ele>
        <time>2015-05-02T16:03:14Z</time>
      </trkpt>
      <trkpt lat="45.50506" lon="5.34069">
        <ele>554.1758</ele>
        <time>2015-05-02T16:03:19Z</time>
      </trkpt>
      <trkpt lat="45.5052" lon="5.34101">
        <ele>555.4643</ele>
        <time>2015-05-02T16:03:24Z</time>
      </trkpt>
      <trkpt lat="45.50529" lon="5.34137">
        <ele>556.8105</ele>
        <time>2015-05-02T16:03:29Z</time>
      </trkpt>
      <trkpt lat="45.50535" lon="5.34169">
        <ele>558.3494</ele>
        <time>2015-05-02T16:03:34Z</time>
      </trkpt>
      <trkpt lat="45.50523" lon="5.34192">
        <ele>560.22015</ele>
        <time>2015-05-02T16:03:39Z</time>
      </trkpt>
      <trkpt lat="45.50498" lon="5.34202">
        <ele>562.3346</ele>
        <time>2015-05-02T16:03:44Z</time>
      </trkpt>
      <trkpt lat="45.50482" lon="5.34223">
        <ele>564.5676</ele>
        <time>2015-05-02T16:03:49Z</time>
      </trkpt>
      <trkpt lat="45.50488" lon="5.34268">
        <ele>567.61</ele>
        <time>2015-05-02T16:03:54Z</time>
      </trkpt>
      <trkpt lat="45.50488" lon="5.34313">
        <ele>570.8749</ele>
        <time>2015-05-02T16:03:59Z</time>
      </trkpt>
      <trkpt lat="45.50486" lon="5.34343">
        <ele>573.2273</ele>
        <time>2015-05-02T16:04:04Z</time>
      </trkpt>
      <trkpt lat="45.50498" lon="5.34406">
        <ele>575.1315</ele>
        <time>2015-05-02T16:04:09Z</time>
      </trkpt>
      <trkpt lat="45.50508" lon="5.34449">
        <ele>577.0912</ele>
        <time>2015-05-02T16:04:14Z</time>
      </trkpt>
      <trkpt lat="45.50511" lon="5.34494">
        <ele>579.0834</ele>
        <time>2015-05-02T16:04:19Z</time>
      </trkpt>
      <trkpt lat="45.50511" lon="5.34526">
        <ele>580.8993</ele>
        <time>2015-05-02T16:04:25Z</time>
      </trkpt>
      <trkpt lat="45.50514" lon="5.34585">
        <ele>582.9949</ele>
        <time>2015-05-02T16:04:30Z</time>
      </trkpt>
      <trkpt lat="45.50508" lon="5.34626">
        <ele>585.17224</ele>
        <time>2015-05-02T16:04:36Z</time>
      </trkpt>
      <trkpt lat="45.50504" lon="5.34665">
        <ele>587.0752</ele>
        <time>2015-05-02T16:04:39Z</time>
      </trkpt>
      <trkpt lat="45.50505" lon="5.34703">
        <ele>588.66284</ele>
        <time>2015-05-02T16:04:46Z</time>
      </trkpt>
      <trkpt lat="45.50512" lon="5.34739">
        <ele>589.99927</ele>
        <time>2015-05-02T16:04:51Z</time>
      </trkpt>
      <trkpt lat="45.50518" lon="5.34767">
        <ele>591.00073</ele>
        <time>2015-05-02T16:04:54Z</time>
      </trkpt>
      <trkpt lat="45.50523" lon="5.34786">
        <ele>591.7347</ele>
        <time>2015-05-02T16:04:59Z</time>
      </trkpt>
      <trkpt lat="45.50529" lon="5.34797">
        <ele>591.97656</ele>
        <time>2015-05-02T16:05:04Z</time>
      </trkpt>
      <trkpt lat="45.50536" lon="5.34808">
        <ele>592.4131</ele>
        <time>2015-05-02T16:05:10Z</time>
      </trkpt>
      <trkpt lat="45.50542" lon="5.34816">
        <ele>592.4131</ele>
        <time>2015-05-02T16:05:15Z</time>
      </trkpt>
      <trkpt lat="45.50543" lon="5.34829">
        <ele>592.8013</ele>
        <time>2015-05-02T16:05:19Z</time>
      </trkpt>
      <trkpt lat="45.50544" lon="5.34837">
        <ele>592.8013</ele>
        <time>2015-05-02T16:05:24Z</time>
      </trkpt>
      <trkpt lat="45.50546" lon="5.34848">
        <ele>593.0025</ele>
        <time>2015-05-02T16:05:29Z</time>
      </trkpt>
      <trkpt lat="45.50549" lon="5.3486">
        <ele>593.0025</ele>
        <time>2015-05-02T16:05:34Z</time>
      </trkpt>
      <trkpt lat="45.50552" lon="5.34869">
        <ele>593.35034</ele>
        <time>2015-05-02T16:05:39Z</time>
      </trkpt>
      <trkpt lat="45.50555" lon="5.3488">
        <ele>593.35034</ele>
        <time>2015-05-02T16:05:44Z</time>
      </trkpt>
      <trkpt lat="45.50558" lon="5.34891">
        <ele>593.6202</ele>
        <time>2015-05-02T16:05:49Z</time>
      </trkpt>
      <trkpt lat="45.50559" lon="5.34899">
        <ele>593.6202</ele>
        <time>2015-05-02T16:05:54Z</time>
      </trkpt>
      <trkpt lat="45.50559" lon="5.34904">
        <ele>593.2007</ele>
        <time>2015-05-02T16:05:59Z</time>
      </trkpt>
      <trkpt lat="45.50555" lon="5.34909">
        <ele>593.2007</ele>
        <time>2015-05-02T16:06:04Z</time>
      </trkpt>
      <trkpt lat="45.50551" lon="5.34912">
        <ele>592.21924</ele>
        <time>2015-05-02T16:06:09Z</time>
      </trkpt>
      <trkpt lat="45.5055" lon="5.34919">
        <ele>592.21924</ele>
        <time>2015-05-02T16:06:14Z</time>
      </trkpt>
      <trkpt lat="45.50544" lon="5.34933">
        <ele>589.9164</ele>
        <time>2015-05-02T16:06:19Z</time>
      </trkpt>
      <trkpt lat="45.50541" lon="5.34944">
        <ele>589.9164</ele>
        <time>2015-05-02T16:06:24Z</time>
      </trkpt>
      <trkpt lat="45.5054" lon="5.34955">
        <ele>586.8891</ele>
        <time>2015-05-02T16:06:29Z</time>
      </trkpt>
      <trkpt lat="45.50535" lon="5.34961">
        <ele>586.8891</ele>
        <time>2015-05-02T16:06:34Z</time>
      </trkpt>
      <trkpt lat="45.50532" lon="5.34969">
        <ele>584.125</ele>
        <time>2015-05-02T16:06:39Z</time>
      </trkpt>
      <trkpt lat="45.50529" lon="5.34976">
        <ele>584.125</ele>
        <time>2015-05-02T16:06:44Z</time>
      </trkpt>
      <trkpt lat="45.50528" lon="5.34989">
        <ele>581.6304</ele>
        <time>2015-05-02T16:06:49Z</time>
      </trkpt>
      <trkpt lat="45.50526" lon="5.35005">
        <ele>580.02985</ele>
        <time>2015-05-02T16:06:54Z</time>
      </trkpt>
      <trkpt lat="45.50523" lon="5.3502">
        <ele>579.28</ele>
        <time>2015-05-02T16:06:59Z</time>
      </trkpt>
      <trkpt lat="45.50517" lon="5.35031">
        <ele>579.0067</ele>
        <time>2015-05-02T16:07:04Z</time>
      </trkpt>
      <trkpt lat="45.50513" lon="5.35042">
        <ele>579.0067</ele>
        <time>2015-05-02T16:07:09Z</time>
      </trkpt>
      <trkpt lat="45.50511" lon="5.35057">
        <ele>579.09216</ele>
        <time>2015-05-02T16:07:14Z</time>
      </trkpt>
      <trkpt lat="45.50507" lon="5.3507">
        <ele>579.3976</ele>
        <time>2015-05-02T16:07:19Z</time>
      </trkpt>
      <trkpt lat="45.50492" lon="5.3511">
        <ele>580.8454</ele>
        <time>2015-05-02T16:07:24Z</time>
      </trkpt>
      <trkpt lat="45.50475" lon="5.3515">
        <ele>582.7452</ele>
        <time>2015-05-02T16:07:29Z</time>
      </trkpt>
      <trkpt lat="45.50482" lon="5.35186">
        <ele>584.7151</ele>
        <time>2015-05-02T16:07:34Z</time>
      </trkpt>
      <trkpt lat="45.50487" lon="5.35226">
        <ele>586.7182</ele>
        <time>2015-05-02T16:07:39Z</time>
      </trkpt>
      <trkpt lat="45.50488" lon="5.35267">
        <ele>588.76324</ele>
        <time>2015-05-02T16:07:44Z</time>
      </trkpt>
      <trkpt lat="45.50483" lon="5.35319">
        <ele>590.81506</ele>
        <time>2015-05-02T16:07:49Z</time>
      </trkpt>
      <trkpt lat="45.50485" lon="5.35363">
        <ele>592.9417</ele>
        <time>2015-05-02T16:07:54Z</time>
      </trkpt>
      <trkpt lat="45.50484" lon="5.354">
        <ele>595.1629</ele>
        <time>2015-05-02T16:07:59Z</time>
      </trkpt>
      <trkpt lat="45.50476" lon="5.35435">
        <ele>597.17957</ele>
        <time>2015-05-02T16:08:04Z</time>
      </trkpt>
      <trkpt lat="45.50463" lon="5.35473">
        <ele>599.1762</ele>
        <time>2015-05-02T16:08:09Z</time>
      </trkpt>
      <trkpt lat="45.50452" lon="5.35509">
        <ele>601.0502</ele>
        <time>2015-05-02T16:08:14Z</time>
      </trkpt>
      <trkpt lat="45.50442" lon="5.35546">
        <ele>602.7498</ele>
        <time>2015-05-02T16:08:19Z</time>
      </trkpt>
      <trkpt lat="45.50437" lon="5.35575">
        <ele>604.4008</ele>
        <time>2015-05-02T16:08:24Z</time>
      </trkpt>
      <trkpt lat="45.50436" lon="5.35589">
        <ele>605.83154</ele>
        <time>2015-05-02T16:08:29Z</time>
      </trkpt>
      <trkpt lat="45.50437" lon="5.356">
        <ele>605.83154</ele>
        <time>2015-05-02T16:08:34Z</time>
      </trkpt>
      <trkpt lat="45.50438" lon="5.3561">
        <ele>606.9125</ele>
        <time>2015-05-02T16:08:39Z</time>
      </trkpt>
      <trkpt lat="45.50439" lon="5.35622">
        <ele>606.9125</ele>
        <time>2015-05-02T16:08:44Z</time>
      </trkpt>
      <trkpt lat="45.50443" lon="5.35635">
        <ele>608.07214</ele>
        <time>2015-05-02T16:08:49Z</time>
      </trkpt>
      <trkpt lat="45.50444" lon="5.35649">
        <ele>609.39044</ele>
        <time>2015-05-02T16:08:54Z</time>
      </trkpt>
      <trkpt lat="45.50445" lon="5.35664">
        <ele>610.5375</ele>
        <time>2015-05-02T16:08:59Z</time>
      </trkpt>
      <trkpt lat="45.50444" lon="5.35675">
        <ele>610.5375</ele>
        <time>2015-05-02T16:09:04Z</time>
      </trkpt>
      <trkpt lat="45.50445" lon="5.35686">
        <ele>611.30896</ele>
        <time>2015-05-02T16:09:09Z</time>
      </trkpt>
      <trkpt lat="45.50446" lon="5.35702">
        <ele>611.76166</ele>
        <time>2015-05-02T16:09:16Z</time>
      </trkpt>
      <trkpt lat="45.50448" lon="5.35711">
        <ele>611.76166</ele>
        <time>2015-05-02T16:09:20Z</time>
      </trkpt>
      <trkpt lat="45.50451" lon="5.3572">
        <ele>612.15094</ele>
        <time>2015-05-02T16:09:24Z</time>
      </trkpt>
      <trkpt lat="45.50453" lon="5.35733">
        <ele>612.483</ele>
        <time>2015-05-02T16:09:29Z</time>
      </trkpt>
      <trkpt lat="45.50455" lon="5.35741">
        <ele>612.483</ele>
        <time>2015-05-02T16:09:34Z</time>
      </trkpt>
      <trkpt lat="45.50458" lon="5.35756">
        <ele>613.196</ele>
        <time>2015-05-02T16:09:39Z</time>
      </trkpt>
      <trkpt lat="45.50459" lon="5.35766">
        <ele>613.196</ele>
        <time>2015-05-02T16:09:44Z</time>
      </trkpt>
      <trkpt lat="45.5046" lon="5.35776">
        <ele>613.58527</ele>
        <time>2015-05-02T16:09:49Z</time>
      </trkpt>
      <trkpt lat="45.50461" lon="5.35786">
        <ele>613.58527</ele>
        <time>2015-05-02T16:09:54Z</time>
      </trkpt>
      <trkpt lat="45.5046" lon="5.35797">
        <ele>613.5897</ele>
        <time>2015-05-02T16:09:59Z</time>
      </trkpt>
      <trkpt lat="45.50461" lon="5.35807">
        <ele>613.5897</ele>
        <time>2015-05-02T16:10:04Z</time>
      </trkpt>
      <trkpt lat="45.50463" lon="5.35817">
        <ele>613.4709</ele>
        <time>2015-05-02T16:10:09Z</time>
      </trkpt>
      <trkpt lat="45.50467" lon="5.35827">
        <ele>613.4709</ele>
        <time>2015-05-02T16:10:14Z</time>
      </trkpt>
      <trkpt lat="45.50474" lon="5.35835">
        <ele>613.12537</ele>
        <time>2015-05-02T16:10:19Z</time>
      </trkpt>
      <trkpt lat="45.50486" lon="5.35843">
        <ele>612.44385</ele>
        <time>2015-05-02T16:10:24Z</time>
      </trkpt>
      <trkpt lat="45.50493" lon="5.35848">
        <ele>612.44385</ele>
        <time>2015-05-02T16:10:29Z</time>
      </trkpt>
      <trkpt lat="45.50498" lon="5.35856">
        <ele>611.8158</ele>
        <time>2015-05-02T16:10:34Z</time>
      </trkpt>
      <trkpt lat="45.50502" lon="5.35865">
        <ele>611.8158</ele>
        <time>2015-05-02T16:10:39Z</time>
      </trkpt>
      <trkpt lat="45.505" lon="5.35875">
        <ele>610.9245</ele>
        <time>2015-05-02T16:10:44Z</time>
      </trkpt>
      <trkpt lat="45.50499" lon="5.35888">
        <ele>610.5005</ele>
        <time>2015-05-02T16:10:49Z</time>
      </trkpt>
      <trkpt lat="45.50498" lon="5.35898">
        <ele>610.5005</ele>
        <time>2015-05-02T16:10:54Z</time>
      </trkpt>
      <trkpt lat="45.50497" lon="5.35908">
        <ele>609.95105</ele>
        <time>2015-05-02T16:10:59Z</time>
      </trkpt>
      <trkpt lat="45.50496" lon="5.35918">
        <ele>609.95105</ele>
        <time>2015-05-02T16:11:04Z</time>
      </trkpt>
      <trkpt lat="45.50496" lon="5.3593">
        <ele>609.4191</ele>
        <time>2015-05-02T16:11:09Z</time>
      </trkpt>
      <trkpt lat="45.50495" lon="5.35942">
        <ele>609.4191</ele>
        <time>2015-05-02T16:11:14Z</time>
      </trkpt>
      <trkpt lat="45.50494" lon="5.35954">
        <ele>608.90717</ele>
        <time>2015-05-02T16:11:19Z</time>
      </trkpt>
      <trkpt lat="45.50493" lon="5.35965">
        <ele>608.90717</ele>
        <time>2015-05-02T16:11:24Z</time>
      </trkpt>
      <trkpt lat="45.50492" lon="5.35976">
        <ele>608.3886</ele>
        <time>2015-05-02T16:11:29Z</time>
      </trkpt>
      <trkpt lat="45.50491" lon="5.35986">
        <ele>608.3886</ele>
        <time>2015-05-02T16:11:34Z</time>
      </trkpt>
      <trkpt lat="45.50489" lon="5.35996">
        <ele>607.89636</ele>
        <time>2015-05-02T16:11:39Z</time>
      </trkpt>
      <trkpt lat="45.50488" lon="5.36008">
        <ele>607.89636</ele>
        <time>2015-05-02T16:11:44Z</time>
      </trkpt>
      <trkpt lat="45.50489" lon="5.3602">
        <ele>607.40326</ele>
        <time>2015-05-02T16:11:49Z</time>
      </trkpt>
      <trkpt lat="45.50488" lon="5.36031">
        <ele>607.40326</ele>
        <time>2015-05-02T16:11:54Z</time>
      </trkpt>
      <trkpt lat="45.50486" lon="5.36042">
        <ele>606.6964</ele>
        <time>2015-05-02T16:11:59Z</time>
      </trkpt>
      <trkpt lat="45.50486" lon="5.36054">
        <ele>606.6964</ele>
        <time>2015-05-02T16:12:04Z</time>
      </trkpt>
      <trkpt lat="45.50491" lon="5.36065">
        <ele>606.127</ele>
        <time>2015-05-02T16:12:09Z</time>
      </trkpt>
      <trkpt lat="45.50498" lon="5.36073">
        <ele>605.58734</ele>
        <time>2015-05-02T16:12:14Z</time>
      </trkpt>
      <trkpt lat="45.50502" lon="5.36082">
        <ele>605.58734</ele>
        <time>2015-05-02T16:12:19Z</time>
      </trkpt>
      <trkpt lat="45.50504" lon="5.36092">
        <ele>604.5742</ele>
        <time>2015-05-02T16:12:24Z</time>
      </trkpt>
      <trkpt lat="45.50506" lon="5.36103">
        <ele>604.5742</ele>
        <time>2015-05-02T16:12:29Z</time>
      </trkpt>
      <trkpt lat="45.50508" lon="5.36114">
        <ele>603.732</ele>
        <time>2015-05-02T16:12:34Z</time>
      </trkpt>
      <trkpt lat="45.50508" lon="5.36126">
        <ele>603.732</ele>
        <time>2015-05-02T16:12:39Z</time>
      </trkpt>
      <trkpt lat="45.50508" lon="5.36137">
        <ele>602.8358</ele>
        <time>2015-05-02T16:12:44Z</time>
      </trkpt>
      <trkpt lat="45.5051" lon="5.36149">
        <ele>602.8358</ele>
        <time>2015-05-02T16:12:49Z</time>
      </trkpt>
      <trkpt lat="45.50509" lon="5.3616">
        <ele>601.98004</ele>
        <time>2015-05-02T16:12:54Z</time>
      </trkpt>
      <trkpt lat="45.50509" lon="5.36173">
        <ele>601.98004</ele>
        <time>2015-05-02T16:12:59Z</time>
      </trkpt>
      <trkpt lat="45.50508" lon="5.36184">
        <ele>601.1077</ele>
        <time>2015-05-02T16:13:04Z</time>
      </trkpt>
      <trkpt lat="45.50508" lon="5.36194">
        <ele>601.1077</ele>
        <time>2015-05-02T16:13:09Z</time>
      </trkpt>
      <trkpt lat="45.50509" lon="5.36205">
        <ele>600.5839</ele>
        <time>2015-05-02T16:13:14Z</time>
      </trkpt>
      <trkpt lat="45.50508" lon="5.36215">
        <ele>600.5839</ele>
        <time>2015-05-02T16:13:19Z</time>
      </trkpt>
      <trkpt lat="45.50507" lon="5.36229">
        <ele>600.16943</ele>
        <time>2015-05-02T16:13:24Z</time>
      </trkpt>
      <trkpt lat="45.50506" lon="5.3624">
        <ele>600.16943</ele>
        <time>2015-05-02T16:13:29Z</time>
      </trkpt>
      <trkpt lat="45.50505" lon="5.36253">
        <ele>599.8726</ele>
        <time>2015-05-02T16:13:34Z</time>
      </trkpt>
      <trkpt lat="45.50503" lon="5.36265">
        <ele>599.8726</ele>
        <time>2015-05-02T16:13:39Z</time>
      </trkpt>
      <trkpt lat="45.50502" lon="5.36277">
        <ele>599.58563</ele>
        <time>2015-05-02T16:13:44Z</time>
      </trkpt>
      <trkpt lat="45.50503" lon="5.36291">
        <ele>599.5542</ele>
        <time>2015-05-02T16:13:49Z</time>
      </trkpt>
      <trkpt lat="45.50502" lon="5.36303">
        <ele>599.5542</ele>
        <time>2015-05-02T16:13:54Z</time>
      </trkpt>
      <trkpt lat="45.505" lon="5.36314">
        <ele>599.24146</ele>
        <time>2015-05-02T16:13:59Z</time>
      </trkpt>
      <trkpt lat="45.505" lon="5.36325">
        <ele>599.24146</ele>
        <time>2015-05-02T16:14:04Z</time>
      </trkpt>
      <trkpt lat="45.50498" lon="5.36336">
        <ele>599.05853</ele>
        <time>2015-05-02T16:14:09Z</time>
      </trkpt>
      <trkpt lat="45.50497" lon="5.36348">
        <ele>599.05853</ele>
        <time>2015-05-02T16:14:14Z</time>
      </trkpt>
      <trkpt lat="45.50496" lon="5.36358">
        <ele>598.6652</ele>
        <time>2015-05-02T16:14:19Z</time>
      </trkpt>
      <trkpt lat="45.50495" lon="5.36368">
        <ele>598.6652</ele>
        <time>2015-05-02T16:14:24Z</time>
      </trkpt>
      <trkpt lat="45.50494" lon="5.36379">
        <ele>598.0497</ele>
        <time>2015-05-02T16:14:29Z</time>
      </trkpt>
      <trkpt lat="45.50493" lon="5.3639">
        <ele>598.0497</ele>
        <time>2015-05-02T16:14:34Z</time>
      </trkpt>
      <trkpt lat="45.50492" lon="5.364">
        <ele>597.33093</ele>
        <time>2015-05-02T16:14:39Z</time>
      </trkpt>
      <trkpt lat="45.50492" lon="5.36412">
        <ele>597.33093</ele>
        <time>2015-05-02T16:14:44Z</time>
      </trkpt>
      <trkpt lat="45.50493" lon="5.36423">
        <ele>596.82135</ele>
        <time>2015-05-02T16:14:49Z</time>
      </trkpt>
      <trkpt lat="45.50492" lon="5.36433">
        <ele>596.82135</ele>
        <time>2015-05-02T16:14:54Z</time>
      </trkpt>
      <trkpt lat="45.50492" lon="5.36443">
        <ele>596.1612</ele>
        <time>2015-05-02T16:14:59Z</time>
      </trkpt>
      <trkpt lat="45.50493" lon="5.36452">
        <ele>596.1612</ele>
        <time>2015-05-02T16:15:04Z</time>
      </trkpt>
      <trkpt lat="45.50495" lon="5.36452">
        <ele>596.1612</ele>
        <time>2015-05-02T16:15:09Z</time>
      </trkpt>
      <trkpt lat="45.50495" lon="5.36461">
        <ele>595.72345</ele>
        <time>2015-05-02T16:15:14Z</time>
      </trkpt>
      <trkpt lat="45.50495" lon="5.36472">
        <ele>595.72345</ele>
        <time>2015-05-02T16:15:19Z</time>
      </trkpt>
      <trkpt lat="45.50494" lon="5.36484">
        <ele>595.3633</ele>
        <time>2015-05-02T16:15:24Z</time>
      </trkpt>
      <trkpt lat="45.50492" lon="5.36495">
        <ele>595.3633</ele>
        <time>2015-05-02T16:15:29Z</time>
      </trkpt>
      <trkpt lat="45.5049" lon="5.36505">
        <ele>594.8019</ele>
        <time>2015-05-02T16:15:34Z</time>
      </trkpt>
      <trkpt lat="45.50486" lon="5.36516">
        <ele>594.8019</ele>
        <time>2015-05-02T16:15:39Z</time>
      </trkpt>
      <trkpt lat="45.50484" lon="5.36527">
        <ele>594.0265</ele>
        <time>2015-05-02T16:15:44Z</time>
      </trkpt>
      <trkpt lat="45.50482" lon="5.3654">
        <ele>594.0265</ele>
        <time>2015-05-02T16:15:49Z</time>
      </trkpt>
      <trkpt lat="45.50479" lon="5.36553">
        <ele>593.50134</ele>
        <time>2015-05-02T16:15:54Z</time>
      </trkpt>
      <trkpt lat="45.50476" lon="5.3657">
        <ele>593.2235</ele>
        <time>2015-05-02T16:16:01Z</time>
      </trkpt>
      <trkpt lat="45.50473" lon="5.36576">
        <ele>593.2235</ele>
        <time>2015-05-02T16:16:05Z</time>
      </trkpt>
      <trkpt lat="45.50471" lon="5.36587">
        <ele>592.80035</ele>
        <time>2015-05-02T16:16:10Z</time>
      </trkpt>
      <trkpt lat="45.50466" lon="5.36593">
        <ele>592.80035</ele>
        <time>2015-05-02T16:16:14Z</time>
      </trkpt>
      <trkpt lat="45.50464" lon="5.36605">
        <ele>592.1278</ele>
        <time>2015-05-02T16:16:19Z</time>
      </trkpt>
      <trkpt lat="45.50463" lon="5.36615">
        <ele>592.1278</ele>
        <time>2015-05-02T16:16:24Z</time>
      </trkpt>
      <trkpt lat="45.50462" lon="5.36629">
        <ele>591.8307</ele>
        <time>2015-05-02T16:16:29Z</time>
      </trkpt>
      <trkpt lat="45.50462" lon="5.36642">
        <ele>591.7374</ele>
        <time>2015-05-02T16:16:34Z</time>
      </trkpt>
      <trkpt lat="45.50461" lon="5.36655">
        <ele>591.7749</ele>
        <time>2015-05-02T16:16:39Z</time>
      </trkpt>
      <trkpt lat="45.5046" lon="5.36668">
        <ele>591.9325</ele>
        <time>2015-05-02T16:16:44Z</time>
      </trkpt>
      <trkpt lat="45.50459" lon="5.36681">
        <ele>591.9325</ele>
        <time>2015-05-02T16:16:49Z</time>
      </trkpt>
      <trkpt lat="45.50457" lon="5.36692">
        <ele>592.2721</ele>
        <time>2015-05-02T16:16:54Z</time>
      </trkpt>
      <trkpt lat="45.50453" lon="5.36703">
        <ele>592.2721</ele>
        <time>2015-05-02T16:16:59Z</time>
      </trkpt>
      <trkpt lat="45.50449" lon="5.36712">
        <ele>592.50476</ele>
        <time>2015-05-02T16:17:04Z</time>
      </trkpt>
      <trkpt lat="45.50445" lon="5.36721">
        <ele>592.50476</ele>
        <time>2015-05-02T16:17:09Z</time>
      </trkpt>
      <trkpt lat="45.5044" lon="5.3673">
        <ele>592.6366</ele>
        <time>2015-05-02T16:17:14Z</time>
      </trkpt>
      <trkpt lat="45.50436" lon="5.3674">
        <ele>592.6366</ele>
        <time>2015-05-02T16:17:19Z</time>
      </trkpt>
      <trkpt lat="45.50428" lon="5.36745">
        <ele>592.93317</ele>
        <time>2015-05-02T16:17:24Z</time>
      </trkpt>
      <trkpt lat="45.50419" lon="5.36748">
        <ele>593.1931</ele>
        <time>2015-05-02T16:17:29Z</time>
      </trkpt>
      <trkpt lat="45.50412" lon="5.36751">
        <ele>593.1931</ele>
        <time>2015-05-02T16:17:34Z</time>
      </trkpt>
      <trkpt lat="45.50404" lon="5.36753">
        <ele>593.3166</ele>
        <time>2015-05-02T16:17:39Z</time>
      </trkpt>
      <trkpt lat="45.50397" lon="5.36755">
        <ele>593.3166</ele>
        <time>2015-05-02T16:17:44Z</time>
      </trkpt>
      <trkpt lat="45.50388" lon="5.36756">
        <ele>593.3699</ele>
        <time>2015-05-02T16:17:49Z</time>
      </trkpt>
      <trkpt lat="45.5038" lon="5.36756">
        <ele>593.3699</ele>
        <time>2015-05-02T16:17:54Z</time>
      </trkpt>
      <trkpt lat="45.50373" lon="5.36757">
        <ele>593.357</ele>
        <time>2015-05-02T16:17:59Z</time>
      </trkpt>
      <trkpt lat="45.50366" lon="5.36757">
        <ele>593.357</ele>
        <time>2015-05-02T16:18:04Z</time>
      </trkpt>
      <trkpt lat="45.50359" lon="5.3676">
        <ele>593.008</ele>
        <time>2015-05-02T16:18:09Z</time>
      </trkpt>
      <trkpt lat="45.50352" lon="5.36766">
        <ele>593.008</ele>
        <time>2015-05-02T16:18:14Z</time>
      </trkpt>
      <trkpt lat="45.50347" lon="5.36775">
        <ele>592.57806</ele>
        <time>2015-05-02T16:18:20Z</time>
      </trkpt>
      <trkpt lat="45.50343" lon="5.36781">
        <ele>592.57806</ele>
        <time>2015-05-02T16:18:25Z</time>
      </trkpt>
      <trkpt lat="45.5034" lon="5.36784">
        <ele>592.1311</ele>
        <time>2015-05-02T16:18:29Z</time>
      </trkpt>
      <trkpt lat="45.50336" lon="5.3679">
        <ele>592.1311</ele>
        <time>2015-05-02T16:18:35Z</time>
      </trkpt>
      <trkpt lat="45.50333" lon="5.36795">
        <ele>592.0289</ele>
        <time>2015-05-02T16:18:39Z</time>
      </trkpt>
      <trkpt lat="45.50324" lon="5.36802">
        <ele>592.0724</ele>
        <time>2015-05-02T16:18:44Z</time>
      </trkpt>
      <trkpt lat="45.50314" lon="5.36803">
        <ele>592.2643</ele>
        <time>2015-05-02T16:18:50Z</time>
      </trkpt>
      <trkpt lat="45.50307" lon="5.36802">
        <ele>592.2643</ele>
        <time>2015-05-02T16:18:55Z</time>
      </trkpt>
      <trkpt lat="45.50302" lon="5.36808">
        <ele>592.4913</ele>
        <time>2015-05-02T16:18:59Z</time>
      </trkpt>
      <trkpt lat="45.50301" lon="5.36819">
        <ele>592.4913</ele>
        <time>2015-05-02T16:19:04Z</time>
      </trkpt>
      <trkpt lat="45.503" lon="5.36828">
        <ele>592.80676</ele>
        <time>2015-05-02T16:19:09Z</time>
      </trkpt>
      <trkpt lat="45.503" lon="5.36837">
        <ele>592.80676</ele>
        <time>2015-05-02T16:19:14Z</time>
      </trkpt>
      <trkpt lat="45.50299" lon="5.36847">
        <ele>592.9431</ele>
        <time>2015-05-02T16:19:19Z</time>
      </trkpt>
      <trkpt lat="45.50298" lon="5.36856">
        <ele>592.9431</ele>
        <time>2015-05-02T16:19:24Z</time>
      </trkpt>
      <trkpt lat="45.50297" lon="5.36866">
        <ele>592.76807</ele>
        <time>2015-05-02T16:19:29Z</time>
      </trkpt>
      <trkpt lat="45.50297" lon="5.36878">
        <ele>592.76807</ele>
        <time>2015-05-02T16:19:34Z</time>
      </trkpt>
      <trkpt lat="45.50295" lon="5.36889">
        <ele>592.2896</ele>
        <time>2015-05-02T16:19:39Z</time>
      </trkpt>
      <trkpt lat="45.50295" lon="5.36898">
        <ele>592.2896</ele>
        <time>2015-05-02T16:19:44Z</time>
      </trkpt>
      <trkpt lat="45.50294" lon="5.36909">
        <ele>591.44403</ele>
        <time>2015-05-02T16:19:49Z</time>
      </trkpt>
      <trkpt lat="45.50294" lon="5.3691">
        <ele>591.44403</ele>
        <time>2015-05-02T16:19:54Z</time>
      </trkpt>
      <trkpt lat="45.50293" lon="5.36917">
        <ele>591.44403</ele>
        <time>2015-05-02T16:19:59Z</time>
      </trkpt>
      <trkpt lat="45.50291" lon="5.36928">
        <ele>590.7499</ele>
        <time>2015-05-02T16:20:04Z</time>
      </trkpt>
      <trkpt lat="45.50289" lon="5.3694">
        <ele>590.7499</ele>
        <time>2015-05-02T16:20:09Z</time>
      </trkpt>
      <trkpt lat="45.50288" lon="5.36947">
        <ele>589.86554</ele>
        <time>2015-05-02T16:20:14Z</time>
      </trkpt>
      <trkpt lat="45.50288" lon="5.36948">
        <ele>589.86554</ele>
        <time>2015-05-02T16:20:19Z</time>
      </trkpt>
      <trkpt lat="45.50287" lon="5.36959">
        <ele>589.86554</ele>
        <time>2015-05-02T16:20:24Z</time>
      </trkpt>
      <trkpt lat="45.50286" lon="5.36969">
        <ele>588.9941</ele>
        <time>2015-05-02T16:20:29Z</time>
      </trkpt>
      <trkpt lat="45.50283" lon="5.36978">
        <ele>588.9941</ele>
        <time>2015-05-02T16:20:34Z</time>
      </trkpt>
      <trkpt lat="45.50279" lon="5.36985">
        <ele>587.4876</ele>
        <time>2015-05-02T16:20:39Z</time>
      </trkpt>
      <trkpt lat="45.50276" lon="5.36995">
        <ele>587.4876</ele>
        <time>2015-05-02T16:20:44Z</time>
      </trkpt>
      <trkpt lat="45.50271" lon="5.37004">
        <ele>585.85736</ele>
        <time>2015-05-02T16:20:49Z</time>
      </trkpt>
      <trkpt lat="45.50267" lon="5.37014">
        <ele>585.85736</ele>
        <time>2015-05-02T16:20:54Z</time>
      </trkpt>
      <trkpt lat="45.50262" lon="5.37023">
        <ele>584.2025</ele>
        <time>2015-05-02T16:20:59Z</time>
      </trkpt>
      <trkpt lat="45.50257" lon="5.37032">
        <ele>584.2025</ele>
        <time>2015-05-02T16:21:04Z</time>
      </trkpt>
      <trkpt lat="45.50253" lon="5.37041">
        <ele>582.48553</ele>
        <time>2015-05-02T16:21:09Z</time>
      </trkpt>
      <trkpt lat="45.50249" lon="5.37049">
        <ele>582.48553</ele>
        <time>2015-05-02T16:21:14Z</time>
      </trkpt>
      <trkpt lat="45.50246" lon="5.37058">
        <ele>580.5563</ele>
        <time>2015-05-02T16:21:19Z</time>
      </trkpt>
      <trkpt lat="45.50243" lon="5.37067">
        <ele>580.5563</ele>
        <time>2015-05-02T16:21:24Z</time>
      </trkpt>
      <trkpt lat="45.5024" lon="5.37077">
        <ele>578.6366</ele>
        <time>2015-05-02T16:21:29Z</time>
      </trkpt>
      <trkpt lat="45.50238" lon="5.3709">
        <ele>578.6366</ele>
        <time>2015-05-02T16:21:34Z</time>
      </trkpt>
      <trkpt lat="45.50238" lon="5.37092">
        <ele>577.1913</ele>
        <time>2015-05-02T16:21:39Z</time>
      </trkpt>
      <trkpt lat="45.50238" lon="5.37092">
        <ele>577.1913</ele>
        <time>2015-05-02T16:21:44Z</time>
      </trkpt>
      <trkpt lat="45.50238" lon="5.37097">
        <ele>577.1913</ele>
        <time>2015-05-02T16:21:49Z</time>
      </trkpt>
      <trkpt lat="45.50236" lon="5.37104">
        <ele>577.1913</ele>
        <time>2015-05-02T16:21:54Z</time>
      </trkpt>
      <trkpt lat="45.50233" lon="5.37117">
        <ele>575.69855</ele>
        <time>2015-05-02T16:21:59Z</time>
      </trkpt>
      <trkpt lat="45.5023" lon="5.37128">
        <ele>575.69855</ele>
        <time>2015-05-02T16:22:04Z</time>
      </trkpt>
      <trkpt lat="45.50228" lon="5.37141">
        <ele>574.3955</ele>
        <time>2015-05-02T16:22:09Z</time>
      </trkpt>
      <trkpt lat="45.50226" lon="5.37149">
        <ele>574.3955</ele>
        <time>2015-05-02T16:22:14Z</time>
      </trkpt>
      <trkpt lat="45.50224" lon="5.3716">
        <ele>573.1554</ele>
        <time>2015-05-02T16:22:19Z</time>
      </trkpt>
      <trkpt lat="45.50221" lon="5.37171">
        <ele>573.1554</ele>
        <time>2015-05-02T16:22:24Z</time>
      </trkpt>
      <trkpt lat="45.5022" lon="5.3718">
        <ele>571.8749</ele>
        <time>2015-05-02T16:22:29Z</time>
      </trkpt>
      <trkpt lat="45.50217" lon="5.37189">
        <ele>571.8749</ele>
        <time>2015-05-02T16:22:34Z</time>
      </trkpt>
      <trkpt lat="45.50217" lon="5.37201">
        <ele>570.81866</ele>
        <time>2015-05-02T16:22:39Z</time>
      </trkpt>
      <trkpt lat="45.50215" lon="5.37212">
        <ele>570.81866</ele>
        <time>2015-05-02T16:22:44Z</time>
      </trkpt>
      <trkpt lat="45.50214" lon="5.37221">
        <ele>569.85657</ele>
        <time>2015-05-02T16:22:49Z</time>
      </trkpt>
      <trkpt lat="45.50211" lon="5.37231">
        <ele>569.85657</ele>
        <time>2015-05-02T16:22:54Z</time>
      </trkpt>
      <trkpt lat="45.5021" lon="5.37243">
        <ele>568.9683</ele>
        <time>2015-05-02T16:22:59Z</time>
      </trkpt>
      <trkpt lat="45.50207" lon="5.37254">
        <ele>568.9683</ele>
        <time>2015-05-02T16:23:04Z</time>
      </trkpt>
      <trkpt lat="45.50204" lon="5.37263">
        <ele>568.0343</ele>
        <time>2015-05-02T16:23:09Z</time>
      </trkpt>
      <trkpt lat="45.50203" lon="5.37274">
        <ele>568.0343</ele>
        <time>2015-05-02T16:23:14Z</time>
      </trkpt>
      <trkpt lat="45.50199" lon="5.37281">
        <ele>566.84265</ele>
        <time>2015-05-02T16:23:19Z</time>
      </trkpt>
      <trkpt lat="45.50199" lon="5.3729">
        <ele>566.84265</ele>
        <time>2015-05-02T16:23:24Z</time>
      </trkpt>
      <trkpt lat="45.50203" lon="5.37294">
        <ele>565.44275</ele>
        <time>2015-05-02T16:23:29Z</time>
      </trkpt>
      <trkpt lat="45.50209" lon="5.37297">
        <ele>565.44275</ele>
        <time>2015-05-02T16:23:34Z</time>
      </trkpt>
      <trkpt lat="45.50215" lon="5.37301">
        <ele>563.66473</ele>
        <time>2015-05-02T16:23:39Z</time>
      </trkpt>
      <trkpt lat="45.50221" lon="5.37303">
        <ele>563.66473</ele>
        <time>2015-05-02T16:23:44Z</time>
      </trkpt>
      <trkpt lat="45.50226" lon="5.37307">
        <ele>561.97186</ele>
        <time>2015-05-02T16:23:49Z</time>
      </trkpt>
      <trkpt lat="45.50233" lon="5.37308">
        <ele>561.97186</ele>
        <time>2015-05-02T16:23:54Z</time>
      </trkpt>
      <trkpt lat="45.50241" lon="5.37311">
        <ele>560.7499</ele>
        <time>2015-05-02T16:23:59Z</time>
      </trkpt>
      <trkpt lat="45.5025" lon="5.37314">
        <ele>560.7499</ele>
        <time>2015-05-02T16:24:04Z</time>
      </trkpt>
      <trkpt lat="45.50258" lon="5.37316">
        <ele>559.6053</ele>
        <time>2015-05-02T16:24:09Z</time>
      </trkpt>
      <trkpt lat="45.50266" lon="5.3732">
        <ele>559.6053</ele>
        <time>2015-05-02T16:24:14Z</time>
      </trkpt>
      <trkpt lat="45.50272" lon="5.37324">
        <ele>558.01483</ele>
        <time>2015-05-02T16:24:19Z</time>
      </trkpt>
      <trkpt lat="45.50279" lon="5.37327">
        <ele>558.01483</ele>
        <time>2015-05-02T16:24:24Z</time>
      </trkpt>
      <trkpt lat="45.50288" lon="5.37331">
        <ele>556.2874</ele>
        <time>2015-05-02T16:24:29Z</time>
      </trkpt>
      <trkpt lat="45.50296" lon="5.37334">
        <ele>556.2874</ele>
        <time>2015-05-02T16:24:34Z</time>
      </trkpt>
      <trkpt lat="45.50305" lon="5.37336">
        <ele>555.06976</ele>
        <time>2015-05-02T16:24:39Z</time>
      </trkpt>
      <trkpt lat="45.50309" lon="5.37338">
        <ele>555.06976</ele>
        <time>2015-05-02T16:24:44Z</time>
      </trkpt>
      <trkpt lat="45.50316" lon="5.37341">
        <ele>553.9222</ele>
        <time>2015-05-02T16:24:49Z</time>
      </trkpt>
      <trkpt lat="45.50324" lon="5.37343">
        <ele>553.9222</ele>
        <time>2015-05-02T16:24:54Z</time>
      </trkpt>
      <trkpt lat="45.50331" lon="5.37345">
        <ele>553.15735</ele>
        <time>2015-05-02T16:24:59Z</time>
      </trkpt>
      <trkpt lat="45.50339" lon="5.37348">
        <ele>553.15735</ele>
        <time>2015-05-02T16:25:04Z</time>
      </trkpt>
      <trkpt lat="45.50346" lon="5.37353">
        <ele>552.22815</ele>
        <time>2015-05-02T16:25:09Z</time>
      </trkpt>
      <trkpt lat="45.50352" lon="5.37354">
        <ele>552.22815</ele>
        <time>2015-05-02T16:25:14Z</time>
      </trkpt>
      <trkpt lat="45.5036" lon="5.37357">
        <ele>551.4926</ele>
        <time>2015-05-02T16:25:19Z</time>
      </trkpt>
      <trkpt lat="45.50368" lon="5.3736">
        <ele>551.4926</ele>
        <time>2015-05-02T16:25:24Z</time>
      </trkpt>
      <trkpt lat="45.50376" lon="5.37364">
        <ele>551.1234</ele>
        <time>2015-05-02T16:25:29Z</time>
      </trkpt>
      <trkpt lat="45.50383" lon="5.37367">
        <ele>551.1234</ele>
        <time>2015-05-02T16:25:34Z</time>
      </trkpt>
      <trkpt lat="45.5039" lon="5.3737">
        <ele>551.1353</ele>
        <time>2015-05-02T16:25:39Z</time>
      </trkpt>
      <trkpt lat="45.50395" lon="5.37374">
        <ele>551.1353</ele>
        <time>2015-05-02T16:25:44Z</time>
      </trkpt>
      <trkpt lat="45.50402" lon="5.37376">
        <ele>550.9068</ele>
        <time>2015-05-02T16:25:49Z</time>
      </trkpt>
      <trkpt lat="45.5041" lon="5.37379">
        <ele>550.9068</ele>
        <time>2015-05-02T16:25:54Z</time>
      </trkpt>
      <trkpt lat="45.50417" lon="5.37382">
        <ele>550.8138</ele>
        <time>2015-05-02T16:25:59Z</time>
      </trkpt>
      <trkpt lat="45.50425" lon="5.37385">
        <ele>550.8138</ele>
        <time>2015-05-02T16:26:04Z</time>
      </trkpt>
      <trkpt lat="45.50433" lon="5.37387">
        <ele>550.94476</ele>
        <time>2015-05-02T16:26:09Z</time>
      </trkpt>
      <trkpt lat="45.5044" lon="5.3739">
        <ele>550.94476</ele>
        <time>2015-05-02T16:26:14Z</time>
      </trkpt>
      <trkpt lat="45.50448" lon="5.37394">
        <ele>551.0785</ele>
        <time>2015-05-02T16:26:19Z</time>
      </trkpt>
      <trkpt lat="45.50455" lon="5.37397">
        <ele>551.0785</ele>
        <time>2015-05-02T16:26:24Z</time>
      </trkpt>
      <trkpt lat="45.50463" lon="5.37399">
        <ele>550.9811</ele>
        <time>2015-05-02T16:26:29Z</time>
      </trkpt>
      <trkpt lat="45.50469" lon="5.37401">
        <ele>550.9811</ele>
        <time>2015-05-02T16:26:34Z</time>
      </trkpt>
      <trkpt lat="45.50473" lon="5.37404">
        <ele>551.27234</ele>
        <time>2015-05-02T16:26:39Z</time>
      </trkpt>
      <trkpt lat="45.50476" lon="5.37413">
        <ele>551.27234</ele>
        <time>2015-05-02T16:26:44Z</time>
      </trkpt>
      <trkpt lat="45.50478" lon="5.37423">
        <ele>551.1997</ele>
        <time>2015-05-02T16:26:49Z</time>
      </trkpt>
      <trkpt lat="45.50479" lon="5.37435">
        <ele>551.1997</ele>
        <time>2015-05-02T16:26:54Z</time>
      </trkpt>
      <trkpt lat="45.5048" lon="5.37447">
        <ele>551.17645</ele>
        <time>2015-05-02T16:26:59Z</time>
      </trkpt>
      <trkpt lat="45.50484" lon="5.37461">
        <ele>551.2973</ele>
        <time>2015-05-02T16:27:04Z</time>
      </trkpt>
      <trkpt lat="45.50486" lon="5.37473">
        <ele>551.2973</ele>
        <time>2015-05-02T16:27:09Z</time>
      </trkpt>
      <trkpt lat="45.50488" lon="5.37487">
        <ele>551.5775</ele>
        <time>2015-05-02T16:27:14Z</time>
      </trkpt>
      <trkpt lat="45.50491" lon="5.37498">
        <ele>551.5775</ele>
        <time>2015-05-02T16:27:19Z</time>
      </trkpt>
      <trkpt lat="45.50496" lon="5.37508">
        <ele>552.0165</ele>
        <time>2015-05-02T16:27:24Z</time>
      </trkpt>
      <trkpt lat="45.50499" lon="5.37515">
        <ele>552.0165</ele>
        <time>2015-05-02T16:27:29Z</time>
      </trkpt>
      <trkpt lat="45.50504" lon="5.3752">
        <ele>552.35376</ele>
        <time>2015-05-02T16:27:34Z</time>
      </trkpt>
      <trkpt lat="45.50509" lon="5.37529">
        <ele>552.35376</ele>
        <time>2015-05-02T16:27:39Z</time>
      </trkpt>
      <trkpt lat="45.50514" lon="5.37536">
        <ele>552.78076</ele>
        <time>2015-05-02T16:27:44Z</time>
      </trkpt>
      <trkpt lat="45.50521" lon="5.37542">
        <ele>552.78076</ele>
        <time>2015-05-02T16:27:50Z</time>
      </trkpt>
      <trkpt lat="45.50527" lon="5.37552">
        <ele>553.4025</ele>
        <time>2015-05-02T16:27:54Z</time>
      </trkpt>
      <trkpt lat="45.50532" lon="5.37559">
        <ele>553.4025</ele>
        <time>2015-05-02T16:27:59Z</time>
      </trkpt>
      <trkpt lat="45.50538" lon="5.37568">
        <ele>554.01337</ele>
        <time>2015-05-02T16:28:04Z</time>
      </trkpt>
      <trkpt lat="45.50543" lon="5.37578">
        <ele>554.01337</ele>
        <time>2015-05-02T16:28:09Z</time>
      </trkpt>
      <trkpt lat="45.50546" lon="5.37588">
        <ele>554.6101</ele>
        <time>2015-05-02T16:28:14Z</time>
      </trkpt>
      <trkpt lat="45.50548" lon="5.376">
        <ele>554.6101</ele>
        <time>2015-05-02T16:28:19Z</time>
      </trkpt>
      <trkpt lat="45.50549" lon="5.37611">
        <ele>555.33405</ele>
        <time>2015-05-02T16:28:24Z</time>
      </trkpt>
      <trkpt lat="45.5055" lon="5.37622">
        <ele>555.33405</ele>
        <time>2015-05-02T16:28:29Z</time>
      </trkpt>
      <trkpt lat="45.50549" lon="5.37632">
        <ele>556.18604</ele>
        <time>2015-05-02T16:28:34Z</time>
      </trkpt>
      <trkpt lat="45.50549" lon="5.37643">
        <ele>556.18604</ele>
        <time>2015-05-02T16:28:39Z</time>
      </trkpt>
      <trkpt lat="45.50549" lon="5.37656">
        <ele>557.29645</ele>
        <time>2015-05-02T16:28:44Z</time>
      </trkpt>
      <trkpt lat="45.50553" lon="5.37666">
        <ele>557.29645</ele>
        <time>2015-05-02T16:28:49Z</time>
      </trkpt>
      <trkpt lat="45.50558" lon="5.37674">
        <ele>558.3386</ele>
        <time>2015-05-02T16:28:54Z</time>
      </trkpt>
      <trkpt lat="45.50563" lon="5.37683">
        <ele>558.3386</ele>
        <time>2015-05-02T16:28:59Z</time>
      </trkpt>
      <trkpt lat="45.50568" lon="5.37692">
        <ele>559.529</ele>
        <time>2015-05-02T16:29:04Z</time>
      </trkpt>
      <trkpt lat="45.50571" lon="5.37702">
        <ele>559.529</ele>
        <time>2015-05-02T16:29:09Z</time>
      </trkpt>
      <trkpt lat="45.50574" lon="5.37711">
        <ele>560.7796</ele>
        <time>2015-05-02T16:29:14Z</time>
      </trkpt>
      <trkpt lat="45.50574" lon="5.37722">
        <ele>560.7796</ele>
        <time>2015-05-02T16:29:19Z</time>
      </trkpt>
      <trkpt lat="45.50573" lon="5.37733">
        <ele>562.4412</ele>
        <time>2015-05-02T16:29:24Z</time>
      </trkpt>
      <trkpt lat="45.5057" lon="5.37743">
        <ele>562.4412</ele>
        <time>2015-05-02T16:29:29Z</time>
      </trkpt>
      <trkpt lat="45.50568" lon="5.37749">
        <ele>564.002</ele>
        <time>2015-05-02T16:29:34Z</time>
      </trkpt>
      <trkpt lat="45.50562" lon="5.37761">
        <ele>565.50684</ele>
        <time>2015-05-02T16:29:39Z</time>
      </trkpt>
      <trkpt lat="45.50558" lon="5.37773">
        <ele>566.83923</ele>
        <time>2015-05-02T16:29:44Z</time>
      </trkpt>
      <trkpt lat="45.50555" lon="5.37784">
        <ele>566.83923</ele>
        <time>2015-05-02T16:29:49Z</time>
      </trkpt>
      <trkpt lat="45.5055" lon="5.37793">
        <ele>567.8629</ele>
        <time>2015-05-02T16:29:54Z</time>
      </trkpt>
      <trkpt lat="45.50548" lon="5.37807">
        <ele>569.2165</ele>
        <time>2015-05-02T16:29:59Z</time>
      </trkpt>
      <trkpt lat="45.50545" lon="5.37821">
        <ele>570.8136</ele>
        <time>2015-05-02T16:30:04Z</time>
      </trkpt>
      <trkpt lat="45.50544" lon="5.37834">
        <ele>570.8136</ele>
        <time>2015-05-02T16:30:09Z</time>
      </trkpt>
      <trkpt lat="45.50541" lon="5.37843">
        <ele>572.3719</ele>
        <time>2015-05-02T16:30:14Z</time>
      </trkpt>
      <trkpt lat="45.50536" lon="5.37851">
        <ele>572.3719</ele>
        <time>2015-05-02T16:30:19Z</time>
      </trkpt>
      <trkpt lat="45.50532" lon="5.37858">
        <ele>573.0247</ele>
        <time>2015-05-02T16:30:24Z</time>
      </trkpt>
      <trkpt lat="45.50528" lon="5.37867">
        <ele>573.0247</ele>
        <time>2015-05-02T16:30:29Z</time>
      </trkpt>
      <trkpt lat="45.50525" lon="5.37876">
        <ele>573.1824</ele>
        <time>2015-05-02T16:30:34Z</time>
      </trkpt>
      <trkpt lat="45.50522" lon="5.37886">
        <ele>573.1824</ele>
        <time>2015-05-02T16:30:39Z</time>
      </trkpt>
      <trkpt lat="45.5052" lon="5.37896">
        <ele>572.9095</ele>
        <time>2015-05-02T16:30:44Z</time>
      </trkpt>
      <trkpt lat="45.50521" lon="5.37903">
        <ele>572.9095</ele>
        <time>2015-05-02T16:30:49Z</time>
      </trkpt>
      <trkpt lat="45.5052" lon="5.37907">
        <ele>572.9095</ele>
        <time>2015-05-02T16:30:54Z</time>
      </trkpt>
      <trkpt lat="45.50521" lon="5.37906">
        <ele>572.9095</ele>
        <time>2015-05-02T16:30:59Z</time>
      </trkpt>
      <trkpt lat="45.50521" lon="5.37905">
        <ele>572.74286</ele>
        <time>2015-05-02T16:31:04Z</time>
      </trkpt>
      <trkpt lat="45.50519" lon="5.37906">
        <ele>572.74286</ele>
        <time>2015-05-02T16:31:09Z</time>
      </trkpt>
      <trkpt lat="45.50521" lon="5.37922">
        <ele>572.4736</ele>
        <time>2015-05-02T16:31:15Z</time>
      </trkpt>
      <trkpt lat="45.50521" lon="5.37932">
        <ele>572.4736</ele>
        <time>2015-05-02T16:31:19Z</time>
      </trkpt>
      <trkpt lat="45.50521" lon="5.37941">
        <ele>572.2399</ele>
        <time>2015-05-02T16:31:24Z</time>
      </trkpt>
      <trkpt lat="45.50522" lon="5.37951">
        <ele>572.2399</ele>
        <time>2015-05-02T16:31:29Z</time>
      </trkpt>
      <trkpt lat="45.50526" lon="5.3796">
        <ele>571.55023</ele>
        <time>2015-05-02T16:31:34Z</time>
      </trkpt>
      <trkpt lat="45.5053" lon="5.3797">
        <ele>571.55023</ele>
        <time>2015-05-02T16:31:39Z</time>
      </trkpt>
      <trkpt lat="45.50533" lon="5.37979">
        <ele>570.6711</ele>
        <time>2015-05-02T16:31:44Z</time>
      </trkpt>
      <trkpt lat="45.50536" lon="5.3799">
        <ele>570.6711</ele>
        <time>2015-05-02T16:31:49Z</time>
      </trkpt>
      <trkpt lat="45.50539" lon="5.38001">
        <ele>569.7347</ele>
        <time>2015-05-02T16:31:54Z</time>
      </trkpt>
      <trkpt lat="45.50542" lon="5.38012">
        <ele>569.7347</ele>
        <time>2015-05-02T16:31:59Z</time>
      </trkpt>
      <trkpt lat="45.50543" lon="5.38022">
        <ele>568.734</ele>
        <time>2015-05-02T16:32:04Z</time>
      </trkpt>
      <trkpt lat="45.50545" lon="5.38033">
        <ele>568.734</ele>
        <time>2015-05-02T16:32:09Z</time>
      </trkpt>
      <trkpt lat="45.50548" lon="5.38045">
        <ele>567.8502</ele>
        <time>2015-05-02T16:32:14Z</time>
      </trkpt>
      <trkpt lat="45.50551" lon="5.38055">
        <ele>567.8502</ele>
        <time>2015-05-02T16:32:19Z</time>
      </trkpt>
      <trkpt lat="45.50554" lon="5.38065">
        <ele>566.9626</ele>
        <time>2015-05-02T16:32:24Z</time>
      </trkpt>
      <trkpt lat="45.50556" lon="5.38074">
        <ele>566.9626</ele>
        <time>2015-05-02T16:32:29Z</time>
      </trkpt>
      <trkpt lat="45.50559" lon="5.38086">
        <ele>566.0314</ele>
        <time>2015-05-02T16:32:34Z</time>
      </trkpt>
      <trkpt lat="45.50562" lon="5.38096">
        <ele>566.0314</ele>
        <time>2015-05-02T16:32:39Z</time>
      </trkpt>
      <trkpt lat="45.50563" lon="5.38107">
        <ele>565.00555</ele>
        <time>2015-05-02T16:32:44Z</time>
      </trkpt>
      <trkpt lat="45.50565" lon="5.38118">
        <ele>565.00555</ele>
        <time>2015-05-02T16:32:49Z</time>
      </trkpt>
      <trkpt lat="45.50567" lon="5.38128">
        <ele>563.96765</ele>
        <time>2015-05-02T16:32:54Z</time>
      </trkpt>
      <trkpt lat="45.50571" lon="5.38139">
        <ele>563.96765</ele>
        <time>2015-05-02T16:32:59Z</time>
      </trkpt>
      <trkpt lat="45.50575" lon="5.38148">
        <ele>563.0087</ele>
        <time>2015-05-02T16:33:04Z</time>
      </trkpt>
      <trkpt lat="45.50576" lon="5.38158">
        <ele>563.0087</ele>
        <time>2015-05-02T16:33:09Z</time>
      </trkpt>
      <trkpt lat="45.50578" lon="5.38169">
        <ele>561.93896</ele>
        <time>2015-05-02T16:33:14Z</time>
      </trkpt>
      <trkpt lat="45.50581" lon="5.3818">
        <ele>561.93896</ele>
        <time>2015-05-02T16:33:19Z</time>
      </trkpt>
      <trkpt lat="45.50583" lon="5.38191">
        <ele>560.8135</ele>
        <time>2015-05-02T16:33:24Z</time>
      </trkpt>
      <trkpt lat="45.50586" lon="5.38204">
        <ele>559.84186</ele>
        <time>2015-05-02T16:33:30Z</time>
      </trkpt>
      <trkpt lat="45.50589" lon="5.38217">
        <ele>559.0018</ele>
        <time>2015-05-02T16:33:36Z</time>
      </trkpt>
      <trkpt lat="45.50591" lon="5.38225">
        <ele>559.0018</ele>
        <time>2015-05-02T16:33:40Z</time>
      </trkpt>
      <trkpt lat="45.50593" lon="5.38236">
        <ele>558.272</ele>
        <time>2015-05-02T16:33:45Z</time>
      </trkpt>
      <trkpt lat="45.50596" lon="5.38247">
        <ele>558.272</ele>
        <time>2015-05-02T16:33:50Z</time>
      </trkpt>
      <trkpt lat="45.50598" lon="5.38259">
        <ele>557.5028</ele>
        <time>2015-05-02T16:33:55Z</time>
      </trkpt>
      <trkpt lat="45.506" lon="5.38268">
        <ele>557.5028</ele>
        <time>2015-05-02T16:33:59Z</time>
      </trkpt>
      <trkpt lat="45.50602" lon="5.38275">
        <ele>556.75745</ele>
        <time>2015-05-02T16:34:04Z</time>
      </trkpt>
      <trkpt lat="45.50601" lon="5.38274">
        <ele>556.75745</ele>
        <time>2015-05-02T16:34:09Z</time>
      </trkpt>
      <trkpt lat="45.506" lon="5.38274">
        <ele>556.75745</ele>
        <time>2015-05-02T16:34:14Z</time>
      </trkpt>
      <trkpt lat="45.50603" lon="5.38277">
        <ele>556.75745</ele>
        <time>2015-05-02T16:34:19Z</time>
      </trkpt>
      <trkpt lat="45.50607" lon="5.38277">
        <ele>556.75745</ele>
        <time>2015-05-02T16:34:24Z</time>
      </trkpt>
      <trkpt lat="45.50609" lon="5.38277">
        <ele>555.7915</ele>
        <time>2015-05-02T16:34:29Z</time>
      </trkpt>
      <trkpt lat="45.50617" lon="5.38283">
        <ele>555.7915</ele>
        <time>2015-05-02T16:34:34Z</time>
      </trkpt>
      <trkpt lat="45.50638" lon="5.38303">
        <ele>555.14307</ele>
        <time>2015-05-02T16:34:39Z</time>
      </trkpt>
      <trkpt lat="45.50661" lon="5.38327">
        <ele>554.7908</ele>
        <time>2015-05-02T16:34:44Z</time>
      </trkpt>
      <trkpt lat="45.50687" lon="5.38352">
        <ele>554.84375</ele>
        <time>2015-05-02T16:34:49Z</time>
      </trkpt>
      <trkpt lat="45.50713" lon="5.38378">
        <ele>555.1137</ele>
        <time>2015-05-02T16:34:54Z</time>
      </trkpt>
      <trkpt lat="45.50737" lon="5.38402">
        <ele>555.52625</ele>
        <time>2015-05-02T16:34:59Z</time>
      </trkpt>
      <trkpt lat="45.50758" lon="5.38423">
        <ele>555.94</ele>
        <time>2015-05-02T16:35:04Z</time>
      </trkpt>
      <trkpt lat="45.50774" lon="5.38436">
        <ele>556.3248</ele>
        <time>2015-05-02T16:35:09Z</time>
      </trkpt>
      <trkpt lat="45.50783" lon="5.38442">
        <ele>556.7538</ele>
        <time>2015-05-02T16:35:14Z</time>
      </trkpt>
      <trkpt lat="45.5079" lon="5.38447">
        <ele>556.7538</ele>
        <time>2015-05-02T16:35:19Z</time>
      </trkpt>
      <trkpt lat="45.50799" lon="5.38451">
        <ele>556.8763</ele>
        <time>2015-05-02T16:35:24Z</time>
      </trkpt>
      <trkpt lat="45.50808" lon="5.38454">
        <ele>556.8763</ele>
        <time>2015-05-02T16:35:29Z</time>
      </trkpt>
      <trkpt lat="45.50816" lon="5.38457">
        <ele>556.8585</ele>
        <time>2015-05-02T16:35:34Z</time>
      </trkpt>
      <trkpt lat="45.50824" lon="5.38462">
        <ele>556.8585</ele>
        <time>2015-05-02T16:35:39Z</time>
      </trkpt>
      <trkpt lat="45.50826" lon="5.38471">
        <ele>556.97</ele>
        <time>2015-05-02T16:35:44Z</time>
      </trkpt>
      <trkpt lat="45.50824" lon="5.38483">
        <ele>556.97</ele>
        <time>2015-05-02T16:35:49Z</time>
      </trkpt>
      <trkpt lat="45.50823" lon="5.38494">
        <ele>557.08527</ele>
        <time>2015-05-02T16:35:54Z</time>
      </trkpt>
      <trkpt lat="45.50822" lon="5.38506">
        <ele>557.08527</ele>
        <time>2015-05-02T16:35:59Z</time>
      </trkpt>
      <trkpt lat="45.50821" lon="5.38518">
        <ele>556.9731</ele>
        <time>2015-05-02T16:36:04Z</time>
      </trkpt>
      <trkpt lat="45.50821" lon="5.3853">
        <ele>556.9731</ele>
        <time>2015-05-02T16:36:09Z</time>
      </trkpt>
      <trkpt lat="45.5082" lon="5.38541">
        <ele>556.7366</ele>
        <time>2015-05-02T16:36:14Z</time>
      </trkpt>
      <trkpt lat="45.50819" lon="5.3855">
        <ele>556.7366</ele>
        <time>2015-05-02T16:36:19Z</time>
      </trkpt>
      <trkpt lat="45.50816" lon="5.38558">
        <ele>556.68787</ele>
        <time>2015-05-02T16:36:24Z</time>
      </trkpt>
      <trkpt lat="45.5081" lon="5.38562">
        <ele>556.68787</ele>
        <time>2015-05-02T16:36:29Z</time>
      </trkpt>
      <trkpt lat="45.50802" lon="5.38565">
        <ele>556.3807</ele>
        <time>2015-05-02T16:36:34Z</time>
      </trkpt>
      <trkpt lat="45.5078" lon="5.38577">
        <ele>556.3822</ele>
        <time>2015-05-02T16:36:39Z</time>
      </trkpt>
      <trkpt lat="45.50763" lon="5.38591">
        <ele>556.53973</ele>
        <time>2015-05-02T16:36:44Z</time>
      </trkpt>
      <trkpt lat="45.50758" lon="5.38596">
        <ele>556.53973</ele>
        <time>2015-05-02T16:36:49Z</time>
      </trkpt>
      <trkpt lat="45.50752" lon="5.38602">
        <ele>556.5672</ele>
        <time>2015-05-02T16:36:54Z</time>
      </trkpt>
      <trkpt lat="45.50745" lon="5.38609">
        <ele>556.5672</ele>
        <time>2015-05-02T16:36:59Z</time>
      </trkpt>
      <trkpt lat="45.50738" lon="5.38617">
        <ele>556.2864</ele>
        <time>2015-05-02T16:37:04Z</time>
      </trkpt>
      <trkpt lat="45.50731" lon="5.38626">
        <ele>555.9365</ele>
        <time>2015-05-02T16:37:09Z</time>
      </trkpt>
      <trkpt lat="45.50725" lon="5.38636">
        <ele>555.6818</ele>
        <time>2015-05-02T16:37:14Z</time>
      </trkpt>
      <trkpt lat="45.50719" lon="5.38645">
        <ele>555.6818</ele>
        <time>2015-05-02T16:37:19Z</time>
      </trkpt>
      <trkpt lat="45.50712" lon="5.38652">
        <ele>555.4725</ele>
        <time>2015-05-02T16:37:24Z</time>
      </trkpt>
      <trkpt lat="45.50704" lon="5.38661">
        <ele>555.1324</ele>
        <time>2015-05-02T16:37:29Z</time>
      </trkpt>
      <trkpt lat="45.50698" lon="5.38667">
        <ele>555.1324</ele>
        <time>2015-05-02T16:37:34Z</time>
      </trkpt>
      <trkpt lat="45.50696" lon="5.38672">
        <ele>553.93677</ele>
        <time>2015-05-02T16:37:39Z</time>
      </trkpt>
      <trkpt lat="45.50686" lon="5.38675">
        <ele>553.19073</ele>
        <time>2015-05-02T16:37:44Z</time>
      </trkpt>
      <trkpt lat="45.50677" lon="5.38677">
        <ele>553.19073</ele>
        <time>2015-05-02T16:37:49Z</time>
      </trkpt>
      <trkpt lat="45.50669" lon="5.38677">
        <ele>551.9262</ele>
        <time>2015-05-02T16:37:54Z</time>
      </trkpt>
      <trkpt lat="45.50663" lon="5.38679">
        <ele>551.9262</ele>
        <time>2015-05-02T16:37:59Z</time>
      </trkpt>
      <trkpt lat="45.50655" lon="5.38683">
        <ele>550.80414</ele>
        <time>2015-05-02T16:38:04Z</time>
      </trkpt>
      <trkpt lat="45.50655" lon="5.38687">
        <ele>550.80414</ele>
        <time>2015-05-02T16:38:09Z</time>
      </trkpt>
      <trkpt lat="45.50655" lon="5.38693">
        <ele>550.80414</ele>
        <time>2015-05-02T16:38:14Z</time>
      </trkpt>
      <trkpt lat="45.50662" lon="5.38706">
        <ele>549.9464</ele>
        <time>2015-05-02T16:38:19Z</time>
      </trkpt>
      <trkpt lat="45.50666" lon="5.38714">
        <ele>549.9464</ele>
        <time>2015-05-02T16:38:24Z</time>
      </trkpt>
      <trkpt lat="45.50674" lon="5.38721">
        <ele>548.2258</ele>
        <time>2015-05-02T16:38:29Z</time>
      </trkpt>
      <trkpt lat="45.50678" lon="5.38728">
        <ele>548.2258</ele>
        <time>2015-05-02T16:38:34Z</time>
      </trkpt>
      <trkpt lat="45.50683" lon="5.38734">
        <ele>545.9982</ele>
        <time>2015-05-02T16:38:39Z</time>
      </trkpt>
      <trkpt lat="45.50689" lon="5.38742">
        <ele>545.9982</ele>
        <time>2015-05-02T16:38:44Z</time>
      </trkpt>
      <trkpt lat="45.50697" lon="5.38754">
        <ele>543.47955</ele>
        <time>2015-05-02T16:38:49Z</time>
      </trkpt>
      <trkpt lat="45.50704" lon="5.38765">
        <ele>541.2883</ele>
        <time>2015-05-02T16:38:54Z</time>
      </trkpt>
      <trkpt lat="45.50711" lon="5.38773">
        <ele>541.2883</ele>
        <time>2015-05-02T16:38:59Z</time>
      </trkpt>
      <trkpt lat="45.50716" lon="5.3878">
        <ele>539.2907</ele>
        <time>2015-05-02T16:39:04Z</time>
      </trkpt>
      <trkpt lat="45.50721" lon="5.38789">
        <ele>539.2907</ele>
        <time>2015-05-02T16:39:09Z</time>
      </trkpt>
      <trkpt lat="45.50724" lon="5.38799">
        <ele>537.00165</ele>
        <time>2015-05-02T16:39:14Z</time>
      </trkpt>
      <trkpt lat="45.50728" lon="5.3881">
        <ele>537.00165</ele>
        <time>2015-05-02T16:39:19Z</time>
      </trkpt>
      <trkpt lat="45.50724" lon="5.38823">
        <ele>535.11096</ele>
        <time>2015-05-02T16:39:24Z</time>
      </trkpt>
      <trkpt lat="45.50721" lon="5.38834">
        <ele>535.11096</ele>
        <time>2015-05-02T16:39:29Z</time>
      </trkpt>
      <trkpt lat="45.50717" lon="5.38846">
        <ele>533.23346</ele>
        <time>2015-05-02T16:39:34Z</time>
      </trkpt>
      <trkpt lat="45.50715" lon="5.38857">
        <ele>533.23346</ele>
        <time>2015-05-02T16:39:39Z</time>
      </trkpt>
      <trkpt lat="45.50711" lon="5.38866">
        <ele>531.6316</ele>
        <time>2015-05-02T16:39:44Z</time>
      </trkpt>
      <trkpt lat="45.50708" lon="5.38874">
        <ele>531.6316</ele>
        <time>2015-05-02T16:39:49Z</time>
      </trkpt>
      <trkpt lat="45.50705" lon="5.38885">
        <ele>530.00024</ele>
        <time>2015-05-02T16:39:54Z</time>
      </trkpt>
      <trkpt lat="45.50702" lon="5.38894">
        <ele>530.00024</ele>
        <time>2015-05-02T16:39:59Z</time>
      </trkpt>
      <trkpt lat="45.50698" lon="5.38905">
        <ele>528.7915</ele>
        <time>2015-05-02T16:40:04Z</time>
      </trkpt>
      <trkpt lat="45.50694" lon="5.38915">
        <ele>528.7915</ele>
        <time>2015-05-02T16:40:09Z</time>
      </trkpt>
      <trkpt lat="45.5069" lon="5.38926">
        <ele>527.3422</ele>
        <time>2015-05-02T16:40:14Z</time>
      </trkpt>
      <trkpt lat="45.50689" lon="5.3893">
        <ele>527.3422</ele>
        <time>2015-05-02T16:40:20Z</time>
      </trkpt>
      <trkpt lat="45.50682" lon="5.38954">
        <ele>525.1537</ele>
        <time>2015-05-02T16:40:25Z</time>
      </trkpt>
      <trkpt lat="45.50679" lon="5.38963">
        <ele>525.1537</ele>
        <time>2015-05-02T16:40:30Z</time>
      </trkpt>
      <trkpt lat="45.50675" lon="5.38975">
        <ele>523.0917</ele>
        <time>2015-05-02T16:40:37Z</time>
      </trkpt>
      <trkpt lat="45.50672" lon="5.38982">
        <ele>523.0917</ele>
        <time>2015-05-02T16:40:39Z</time>
      </trkpt>
      <trkpt lat="45.50671" lon="5.38989">
        <ele>521.2518</ele>
        <time>2015-05-02T16:40:44Z</time>
      </trkpt>
      <trkpt lat="45.50669" lon="5.38995">
        <ele>521.2518</ele>
        <time>2015-05-02T16:40:50Z</time>
      </trkpt>
      <trkpt lat="45.50667" lon="5.39006">
        <ele>519.79376</ele>
        <time>2015-05-02T16:40:55Z</time>
      </trkpt>
      <trkpt lat="45.50663" lon="5.39016">
        <ele>519.79376</ele>
        <time>2015-05-02T16:41:00Z</time>
      </trkpt>
      <trkpt lat="45.50658" lon="5.39026">
        <ele>517.7982</ele>
        <time>2015-05-02T16:41:05Z</time>
      </trkpt>
      <trkpt lat="45.50654" lon="5.39034">
        <ele>517.7982</ele>
        <time>2015-05-02T16:41:09Z</time>
      </trkpt>
      <trkpt lat="45.50654" lon="5.3904">
        <ele>515.52423</ele>
        <time>2015-05-02T16:41:15Z</time>
      </trkpt>
      <trkpt lat="45.50653" lon="5.3904">
        <ele>515.52423</ele>
        <time>2015-05-02T16:41:20Z</time>
      </trkpt>
      <trkpt lat="45.50652" lon="5.39041">
        <ele>515.52423</ele>
        <time>2015-05-02T16:41:25Z</time>
      </trkpt>
      <trkpt lat="45.5065" lon="5.39046">
        <ele>515.52423</ele>
        <time>2015-05-02T16:41:29Z</time>
      </trkpt>
      <trkpt lat="45.50655" lon="5.39057">
        <ele>513.27014</ele>
        <time>2015-05-02T16:41:35Z</time>
      </trkpt>
      <trkpt lat="45.50659" lon="5.39062">
        <ele>513.27014</ele>
        <time>2015-05-02T16:41:39Z</time>
      </trkpt>
      <trkpt lat="45.50664" lon="5.39065">
        <ele>511.24008</ele>
        <time>2015-05-02T16:41:45Z</time>
      </trkpt>
      <trkpt lat="45.50667" lon="5.39068">
        <ele>511.24008</ele>
        <time>2015-05-02T16:41:49Z</time>
      </trkpt>
      <trkpt lat="45.50675" lon="5.39073">
        <ele>509.16144</ele>
        <time>2015-05-02T16:41:55Z</time>
      </trkpt>
      <trkpt lat="45.50682" lon="5.39078">
        <ele>509.16144</ele>
        <time>2015-05-02T16:42:00Z</time>
      </trkpt>
      <trkpt lat="45.50688" lon="5.39083">
        <ele>507.19946</ele>
        <time>2015-05-02T16:42:05Z</time>
      </trkpt>
      <trkpt lat="45.50693" lon="5.39087">
        <ele>507.19946</ele>
        <time>2015-05-02T16:42:09Z</time>
      </trkpt>
      <trkpt lat="45.50705" lon="5.39094">
        <ele>505.43475</ele>
        <time>2015-05-02T16:42:15Z</time>
      </trkpt>
      <trkpt lat="45.5071" lon="5.39098">
        <ele>505.43475</ele>
        <time>2015-05-02T16:42:20Z</time>
      </trkpt>
      <trkpt lat="45.50716" lon="5.39105">
        <ele>503.97015</ele>
        <time>2015-05-02T16:42:25Z</time>
      </trkpt>
      <trkpt lat="45.50718" lon="5.39115">
        <ele>503.97015</ele>
        <time>2015-05-02T16:42:30Z</time>
      </trkpt>
      <trkpt lat="45.50718" lon="5.39127">
        <ele>502.69827</ele>
        <time>2015-05-02T16:42:35Z</time>
      </trkpt>
      <trkpt lat="45.50718" lon="5.39136">
        <ele>502.69827</ele>
        <time>2015-05-02T16:42:40Z</time>
      </trkpt>
      <trkpt lat="45.50717" lon="5.39146">
        <ele>501.61975</ele>
        <time>2015-05-02T16:42:44Z</time>
      </trkpt>
      <trkpt lat="45.50716" lon="5.39158">
        <ele>501.61975</ele>
        <time>2015-05-02T16:42:49Z</time>
      </trkpt>
      <trkpt lat="45.50716" lon="5.39169">
        <ele>500.96518</ele>
        <time>2015-05-02T16:42:54Z</time>
      </trkpt>
      <trkpt lat="45.50715" lon="5.3918">
        <ele>500.96518</ele>
        <time>2015-05-02T16:42:59Z</time>
      </trkpt>
      <trkpt lat="45.50713" lon="5.39188">
        <ele>500.09668</ele>
        <time>2015-05-02T16:43:04Z</time>
      </trkpt>
      <trkpt lat="45.50712" lon="5.39198">
        <ele>500.09668</ele>
        <time>2015-05-02T16:43:09Z</time>
      </trkpt>
      <trkpt lat="45.50709" lon="5.39207">
        <ele>498.95685</ele>
        <time>2015-05-02T16:43:14Z</time>
      </trkpt>
      <trkpt lat="45.50706" lon="5.39218">
        <ele>498.95685</ele>
        <time>2015-05-02T16:43:19Z</time>
      </trkpt>
      <trkpt lat="45.50707" lon="5.3923">
        <ele>497.8104</ele>
        <time>2015-05-02T16:43:24Z</time>
      </trkpt>
      <trkpt lat="45.50706" lon="5.39241">
        <ele>497.8104</ele>
        <time>2015-05-02T16:43:29Z</time>
      </trkpt>
      <trkpt lat="45.50706" lon="5.39251">
        <ele>496.4268</ele>
        <time>2015-05-02T16:43:34Z</time>
      </trkpt>
      <trkpt lat="45.50704" lon="5.3926">
        <ele>496.4268</ele>
        <time>2015-05-02T16:43:39Z</time>
      </trkpt>
      <trkpt lat="45.50699" lon="5.39267">
        <ele>494.78052</ele>
        <time>2015-05-02T16:43:44Z</time>
      </trkpt>
      <trkpt lat="45.50696" lon="5.39274">
        <ele>494.78052</ele>
        <time>2015-05-02T16:43:49Z</time>
      </trkpt>
      <trkpt lat="45.5069" lon="5.39277">
        <ele>493.3097</ele>
        <time>2015-05-02T16:43:54Z</time>
      </trkpt>
      <trkpt lat="45.50684" lon="5.39279">
        <ele>493.3097</ele>
        <time>2015-05-02T16:43:59Z</time>
      </trkpt>
      <trkpt lat="45.50677" lon="5.39285">
        <ele>491.5262</ele>
        <time>2015-05-02T16:44:04Z</time>
      </trkpt>
      <trkpt lat="45.5067" lon="5.39292">
        <ele>491.5262</ele>
        <time>2015-05-02T16:44:09Z</time>
      </trkpt>
      <trkpt lat="45.50666" lon="5.39298">
        <ele>489.901</ele>
        <time>2015-05-02T16:44:14Z</time>
      </trkpt>
      <trkpt lat="45.50662" lon="5.39306">
        <ele>489.901</ele>
        <time>2015-05-02T16:44:19Z</time>
      </trkpt>
      <trkpt lat="45.50657" lon="5.39311">
        <ele>488.8843</ele>
        <time>2015-05-02T16:44:24Z</time>
      </trkpt>
      <trkpt lat="45.50653" lon="5.39317">
        <ele>488.8843</ele>
        <time>2015-05-02T16:44:29Z</time>
      </trkpt>
      <trkpt lat="45.50647" lon="5.3933">
        <ele>487.83948</ele>
        <time>2015-05-02T16:44:34Z</time>
      </trkpt>
      <trkpt lat="45.50642" lon="5.39339">
        <ele>487.83948</ele>
        <time>2015-05-02T16:44:39Z</time>
      </trkpt>
      <trkpt lat="45.50641" lon="5.39345">
        <ele>486.6811</ele>
        <time>2015-05-02T16:44:44Z</time>
      </trkpt>
      <trkpt lat="45.50641" lon="5.39346">
        <ele>486.6811</ele>
        <time>2015-05-02T16:44:49Z</time>
      </trkpt>
      <trkpt lat="45.50637" lon="5.39347">
        <ele>486.6811</ele>
        <time>2015-05-02T16:44:55Z</time>
      </trkpt>
      <trkpt lat="45.50636" lon="5.39354">
        <ele>485.41675</ele>
        <time>2015-05-02T16:45:00Z</time>
      </trkpt>
      <trkpt lat="45.50634" lon="5.39364">
        <ele>485.41675</ele>
        <time>2015-05-02T16:45:06Z</time>
      </trkpt>
      <trkpt lat="45.50633" lon="5.39374">
        <ele>483.66464</ele>
        <time>2015-05-02T16:45:09Z</time>
      </trkpt>
      <trkpt lat="45.50627" lon="5.39389">
        <ele>481.82175</ele>
        <time>2015-05-02T16:45:16Z</time>
      </trkpt>
      <trkpt lat="45.50624" lon="5.39395">
        <ele>481.82175</ele>
        <time>2015-05-02T16:45:19Z</time>
      </trkpt>
      <trkpt lat="45.5062" lon="5.39409">
        <ele>480.14078</ele>
        <time>2015-05-02T16:45:25Z</time>
      </trkpt>
      <trkpt lat="45.50616" lon="5.39419">
        <ele>480.14078</ele>
        <time>2015-05-02T16:45:30Z</time>
      </trkpt>
      <trkpt lat="45.50612" lon="5.39427">
        <ele>478.43753</ele>
        <time>2015-05-02T16:45:34Z</time>
      </trkpt>
      <trkpt lat="45.50607" lon="5.3944">
        <ele>476.916</ele>
        <time>2015-05-02T16:45:40Z</time>
      </trkpt>
      <trkpt lat="45.50603" lon="5.3945">
        <ele>476.916</ele>
        <time>2015-05-02T16:45:44Z</time>
      </trkpt>
      <trkpt lat="45.506" lon="5.39457">
        <ele>475.24588</ele>
        <time>2015-05-02T16:45:49Z</time>
      </trkpt>
      <trkpt lat="45.50598" lon="5.39465">
        <ele>475.24588</ele>
        <time>2015-05-02T16:45:54Z</time>
      </trkpt>
      <trkpt lat="45.50597" lon="5.39475">
        <ele>473.4386</ele>
        <time>2015-05-02T16:45:59Z</time>
      </trkpt>
      <trkpt lat="45.50594" lon="5.39484">
        <ele>473.4386</ele>
        <time>2015-05-02T16:46:04Z</time>
      </trkpt>
      <trkpt lat="45.50592" lon="5.39492">
        <ele>471.56265</ele>
        <time>2015-05-02T16:46:09Z</time>
      </trkpt>
      <trkpt lat="45.50588" lon="5.395">
        <ele>471.56265</ele>
        <time>2015-05-02T16:46:14Z</time>
      </trkpt>
      <trkpt lat="45.50585" lon="5.39511">
        <ele>469.75385</ele>
        <time>2015-05-02T16:46:19Z</time>
      </trkpt>
      <trkpt lat="45.50582" lon="5.3952">
        <ele>469.75385</ele>
        <time>2015-05-02T16:46:24Z</time>
      </trkpt>
      <trkpt lat="45.5058" lon="5.39522">
        <ele>468.10886</ele>
        <time>2015-05-02T16:46:29Z</time>
      </trkpt>
      <trkpt lat="45.50578" lon="5.39524">
        <ele>468.10886</ele>
        <time>2015-05-02T16:46:34Z</time>
      </trkpt>
      <trkpt lat="45.50572" lon="5.39528">
        <ele>466.58716</ele>
        <time>2015-05-02T16:46:39Z</time>
      </trkpt>
      <trkpt lat="45.50563" lon="5.39532">
        <ele>465.2949</ele>
        <time>2015-05-02T16:46:44Z</time>
      </trkpt>
      <trkpt lat="45.50554" lon="5.39535">
        <ele>464.20004</ele>
        <time>2015-05-02T16:46:49Z</time>
      </trkpt>
      <trkpt lat="45.50549" lon="5.39542">
        <ele>464.20004</ele>
        <time>2015-05-02T16:46:54Z</time>
      </trkpt>
      <trkpt lat="45.50552" lon="5.39545">
        <ele>462.9265</ele>
        <time>2015-05-02T16:46:59Z</time>
      </trkpt>
      <trkpt lat="45.50558" lon="5.39551">
        <ele>462.9265</ele>
        <time>2015-05-02T16:47:04Z</time>
      </trkpt>
      <trkpt lat="45.50564" lon="5.39557">
        <ele>461.34253</ele>
        <time>2015-05-02T16:47:09Z</time>
      </trkpt>
      <trkpt lat="45.50571" lon="5.39566">
        <ele>459.7735</ele>
        <time>2015-05-02T16:47:14Z</time>
      </trkpt>
      <trkpt lat="45.50574" lon="5.39574">
        <ele>459.7735</ele>
        <time>2015-05-02T16:47:19Z</time>
      </trkpt>
      <trkpt lat="45.50575" lon="5.39576">
        <ele>459.7735</ele>
        <time>2015-05-02T16:47:24Z</time>
      </trkpt>
      <trkpt lat="45.50583" lon="5.39582">
        <ele>458.4489</ele>
        <time>2015-05-02T16:47:29Z</time>
      </trkpt>
      <trkpt lat="45.50604" lon="5.39597">
        <ele>457.206</ele>
        <time>2015-05-02T16:47:34Z</time>
      </trkpt>
      <trkpt lat="45.50623" lon="5.3961">
        <ele>456.06656</ele>
        <time>2015-05-02T16:47:39Z</time>
      </trkpt>
      <trkpt lat="45.50641" lon="5.39631">
        <ele>455.1371</ele>
        <time>2015-05-02T16:47:44Z</time>
      </trkpt>
      <trkpt lat="45.50636" lon="5.39667">
        <ele>454.6885</ele>
        <time>2015-05-02T16:47:50Z</time>
      </trkpt>
      <trkpt lat="45.5062" lon="5.39699">
        <ele>454.55267</ele>
        <time>2015-05-02T16:47:55Z</time>
      </trkpt>
      <trkpt lat="45.50604" lon="5.39726">
        <ele>454.48636</ele>
        <time>2015-05-02T16:48:00Z</time>
      </trkpt>
      <trkpt lat="45.50584" lon="5.3976">
        <ele>454.86935</ele>
        <time>2015-05-02T16:48:04Z</time>
      </trkpt>
      <trkpt lat="45.50571" lon="5.39783">
        <ele>455.36063</ele>
        <time>2015-05-02T16:48:09Z</time>
      </trkpt>
      <trkpt lat="45.50554" lon="5.39803">
        <ele>455.788</ele>
        <time>2015-05-02T16:48:14Z</time>
      </trkpt>
      <trkpt lat="45.50549" lon="5.39811">
        <ele>455.788</ele>
        <time>2015-05-02T16:48:19Z</time>
      </trkpt>
      <trkpt lat="45.50543" lon="5.39818">
        <ele>455.93457</ele>
        <time>2015-05-02T16:48:24Z</time>
      </trkpt>
      <trkpt lat="45.50536" lon="5.39826">
        <ele>455.93457</ele>
        <time>2015-05-02T16:48:29Z</time>
      </trkpt>
      <trkpt lat="45.5053" lon="5.39834">
        <ele>456.1046</ele>
        <time>2015-05-02T16:48:34Z</time>
      </trkpt>
      <trkpt lat="45.50515" lon="5.39855">
        <ele>456.14774</ele>
        <time>2015-05-02T16:48:39Z</time>
      </trkpt>
      <trkpt lat="45.50496" lon="5.39879">
        <ele>456.05475</ele>
        <time>2015-05-02T16:48:44Z</time>
      </trkpt>
      <trkpt lat="45.50486" lon="5.39888">
        <ele>455.9905</ele>
        <time>2015-05-02T16:48:49Z</time>
      </trkpt>
      <trkpt lat="45.50478" lon="5.39884">
        <ele>455.9905</ele>
        <time>2015-05-02T16:48:54Z</time>
      </trkpt>
      <trkpt lat="45.50471" lon="5.39876">
        <ele>455.83405</ele>
        <time>2015-05-02T16:48:59Z</time>
      </trkpt>
      <trkpt lat="45.50465" lon="5.39866">
        <ele>455.6753</ele>
        <time>2015-05-02T16:49:04Z</time>
      </trkpt>
      <trkpt lat="45.5046" lon="5.39856">
        <ele>455.6753</ele>
        <time>2015-05-02T16:49:09Z</time>
      </trkpt>
      <trkpt lat="45.50454" lon="5.39847">
        <ele>455.48248</ele>
        <time>2015-05-02T16:49:14Z</time>
      </trkpt>
      <trkpt lat="45.50449" lon="5.39837">
        <ele>455.48248</ele>
        <time>2015-05-02T16:49:19Z</time>
      </trkpt>
      <trkpt lat="45.50444" lon="5.39827">
        <ele>455.3993</ele>
        <time>2015-05-02T16:49:24Z</time>
      </trkpt>
      <trkpt lat="45.5044" lon="5.39818">
        <ele>455.3993</ele>
        <time>2015-05-02T16:49:29Z</time>
      </trkpt>
      <trkpt lat="45.50435" lon="5.39808">
        <ele>455.06863</ele>
        <time>2015-05-02T16:49:34Z</time>
      </trkpt>
      <trkpt lat="45.50431" lon="5.39798">
        <ele>455.06863</ele>
        <time>2015-05-02T16:49:39Z</time>
      </trkpt>
      <trkpt lat="45.50426" lon="5.3979">
        <ele>454.6937</ele>
        <time>2015-05-02T16:49:44Z</time>
      </trkpt>
      <trkpt lat="45.50421" lon="5.3978">
        <ele>454.6937</ele>
        <time>2015-05-02T16:49:49Z</time>
      </trkpt>
      <trkpt lat="45.50416" lon="5.39771">
        <ele>454.49182</ele>
        <time>2015-05-02T16:49:54Z</time>
      </trkpt>
      <trkpt lat="45.50412" lon="5.39762">
        <ele>454.49182</ele>
        <time>2015-05-02T16:49:59Z</time>
      </trkpt>
      <trkpt lat="45.50407" lon="5.39752">
        <ele>454.26047</ele>
        <time>2015-05-02T16:50:04Z</time>
      </trkpt>
      <trkpt lat="45.50399" lon="5.39742">
        <ele>454.27325</ele>
        <time>2015-05-02T16:50:10Z</time>
      </trkpt>
      <trkpt lat="45.50395" lon="5.39736">
        <ele>454.27325</ele>
        <time>2015-05-02T16:50:14Z</time>
      </trkpt>
      <trkpt lat="45.50388" lon="5.39725">
        <ele>454.43738</ele>
        <time>2015-05-02T16:50:20Z</time>
      </trkpt>
      <trkpt lat="45.50383" lon="5.39718">
        <ele>454.43738</ele>
        <time>2015-05-02T16:50:25Z</time>
      </trkpt>
      <trkpt lat="45.50378" lon="5.39709">
        <ele>454.3638</ele>
        <time>2015-05-02T16:50:30Z</time>
      </trkpt>
      <trkpt lat="45.50373" lon="5.39696">
        <ele>454.05316</ele>
        <time>2015-05-02T16:50:35Z</time>
      </trkpt>
      <trkpt lat="45.5037" lon="5.39691">
        <ele>454.05316</ele>
        <time>2015-05-02T16:50:39Z</time>
      </trkpt>
      <trkpt lat="45.50365" lon="5.39679">
        <ele>453.82388</ele>
        <time>2015-05-02T16:50:45Z</time>
      </trkpt>
      <trkpt lat="45.50362" lon="5.39671">
        <ele>453.82388</ele>
        <time>2015-05-02T16:50:49Z</time>
      </trkpt>
      <trkpt lat="45.50358" lon="5.39659">
        <ele>453.98517</ele>
        <time>2015-05-02T16:50:55Z</time>
      </trkpt>
      <trkpt lat="45.50355" lon="5.39648">
        <ele>453.98517</ele>
        <time>2015-05-02T16:51:00Z</time>
      </trkpt>
      <trkpt lat="45.50352" lon="5.39637">
        <ele>454.2895</ele>
        <time>2015-05-02T16:51:05Z</time>
      </trkpt>
      <trkpt lat="45.50349" lon="5.39628">
        <ele>454.2895</ele>
        <time>2015-05-02T16:51:10Z</time>
      </trkpt>
      <trkpt lat="45.50346" lon="5.39619">
        <ele>454.89612</ele>
        <time>2015-05-02T16:51:15Z</time>
      </trkpt>
      <trkpt lat="45.50343" lon="5.39609">
        <ele>454.89612</ele>
        <time>2015-05-02T16:51:19Z</time>
      </trkpt>
      <trkpt lat="45.5034" lon="5.39592">
        <ele>455.1594</ele>
        <time>2015-05-02T16:51:26Z</time>
      </trkpt>
      <trkpt lat="45.50339" lon="5.39586">
        <ele>455.1594</ele>
        <time>2015-05-02T16:51:29Z</time>
      </trkpt>
      <trkpt lat="45.50337" lon="5.39574">
        <ele>455.33237</ele>
        <time>2015-05-02T16:51:35Z</time>
      </trkpt>
      <trkpt lat="45.50329" lon="5.39576">
        <ele>455.33237</ele>
        <time>2015-05-02T16:51:40Z</time>
      </trkpt>
      <trkpt lat="45.50321" lon="5.39581">
        <ele>455.4337</ele>
        <time>2015-05-02T16:51:45Z</time>
      </trkpt>
      <trkpt lat="45.50312" lon="5.39585">
        <ele>455.50977</ele>
        <time>2015-05-02T16:51:51Z</time>
      </trkpt>
      <trkpt lat="45.50304" lon="5.39588">
        <ele>455.50977</ele>
        <time>2015-05-02T16:51:55Z</time>
      </trkpt>
      <trkpt lat="45.50294" lon="5.3959">
        <ele>455.51733</ele>
        <time>2015-05-02T16:51:59Z</time>
      </trkpt>
      <trkpt lat="45.5029" lon="5.39588">
        <ele>455.51733</ele>
        <time>2015-05-02T16:52:05Z</time>
      </trkpt>
      <trkpt lat="45.50289" lon="5.39587">
        <ele>455.51733</ele>
        <time>2015-05-02T16:52:10Z</time>
      </trkpt>
      <trkpt lat="45.50289" lon="5.39588">
        <ele>455.51733</ele>
        <time>2015-05-02T16:52:15Z</time>
      </trkpt>
      <trkpt lat="45.5029" lon="5.39589">
        <ele>455.51733</ele>
        <time>2015-05-02T16:52:20Z</time>
      </trkpt>
      <trkpt lat="45.50289" lon="5.3959">
        <ele>455.51733</ele>
        <time>2015-05-02T16:52:25Z</time>
      </trkpt>
      <trkpt lat="45.50289" lon="5.39592">
        <ele>455.3589</ele>
        <time>2015-05-02T16:52:30Z</time>
      </trkpt>
      <trkpt lat="45.50289" lon="5.39592">
        <ele>455.3589</ele>
        <time>2015-05-02T16:52:34Z</time>
      </trkpt>
      <trkpt lat="45.50289" lon="5.39592">
        <ele>455.3589</ele>
        <time>2015-05-02T16:52:40Z</time>
      </trkpt>
      <trkpt lat="45.5029" lon="5.39592">
        <ele>455.3589</ele>
        <time>2015-05-02T16:52:45Z</time>
      </trkpt>
      <trkpt lat="45.5029" lon="5.39592">
        <ele>455.3589</ele>
        <time>2015-05-02T16:52:49Z</time>
      </trkpt>
      <trkpt lat="45.5029" lon="5.39591">
        <ele>455.3589</ele>
        <time>2015-05-02T16:52:55Z</time>
      </trkpt>
      <trkpt lat="45.50286" lon="5.39586">
        <ele>455.3589</ele>
        <time>2015-05-02T16:53:00Z</time>
      </trkpt>
      <trkpt lat="45.50285" lon="5.39581">
        <ele>455.30502</ele>
        <time>2015-05-02T16:53:04Z</time>
      </trkpt>
      <trkpt lat="45.50283" lon="5.39571">
        <ele>455.30502</ele>
        <time>2015-05-02T16:53:10Z</time>
      </trkpt>
      <trkpt lat="45.50282" lon="5.39563">
        <ele>455.67822</ele>
        <time>2015-05-02T16:53:15Z</time>
      </trkpt>
      <trkpt lat="45.50281" lon="5.39555">
        <ele>455.67822</ele>
        <time>2015-05-02T16:53:20Z</time>
      </trkpt>
      <trkpt lat="45.50276" lon="5.39551">
        <ele>454.70102</ele>
        <time>2015-05-02T16:53:25Z</time>
      </trkpt>
      <trkpt lat="45.50276" lon="5.39557">
        <ele>454.70102</ele>
        <time>2015-05-02T16:53:30Z</time>
      </trkpt>
      <trkpt lat="45.50275" lon="5.39565">
        <ele>453.88644</ele>
        <time>2015-05-02T16:53:35Z</time>
      </trkpt>
      <trkpt lat="45.50274" lon="5.39575">
        <ele>453.88644</ele>
        <time>2015-05-02T16:53:40Z</time>
      </trkpt>
      <trkpt lat="45.50274" lon="5.39587">
        <ele>453.5551</ele>
        <time>2015-05-02T16:53:45Z</time>
      </trkpt>
      <trkpt lat="45.50274" lon="5.39597">
        <ele>453.5551</ele>
        <time>2015-05-02T16:53:50Z</time>
      </trkpt>
      <trkpt lat="45.50274" lon="5.39606">
        <ele>453.59937</ele>
        <time>2015-05-02T16:53:55Z</time>
      </trkpt>
      <trkpt lat="45.50275" lon="5.39617">
        <ele>453.59937</ele>
        <time>2015-05-02T16:54:00Z</time>
      </trkpt>
      <trkpt lat="45.50276" lon="5.39623">
        <ele>453.4284</ele>
        <time>2015-05-02T16:54:05Z</time>
      </trkpt>
      <trkpt lat="45.50275" lon="5.39633">
        <ele>453.4284</ele>
        <time>2015-05-02T16:54:09Z</time>
      </trkpt>
      <trkpt lat="45.50276" lon="5.39642">
        <ele>452.9135</ele>
        <time>2015-05-02T16:54:16Z</time>
      </trkpt>
      <trkpt lat="45.50277" lon="5.39649">
        <ele>452.9135</ele>
        <time>2015-05-02T16:54:20Z</time>
      </trkpt>
      <trkpt lat="45.50278" lon="5.39652">
        <ele>452.9135</ele>
        <time>2015-05-02T16:54:25Z</time>
      </trkpt>
      <trkpt lat="45.50278" lon="5.39654">
        <ele>452.9135</ele>
        <time>2015-05-02T16:54:29Z</time>
      </trkpt>
      <trkpt lat="45.50281" lon="5.3967">
        <ele>452.4984</ele>
        <time>2015-05-02T16:54:34Z</time>
      </trkpt>
      <trkpt lat="45.50284" lon="5.3968">
        <ele>452.4984</ele>
        <time>2015-05-02T16:54:39Z</time>
      </trkpt>
      <trkpt lat="45.50286" lon="5.39689">
        <ele>452.30585</ele>
        <time>2015-05-02T16:54:44Z</time>
      </trkpt>
      <trkpt lat="45.50289" lon="5.39699">
        <ele>452.30585</ele>
        <time>2015-05-02T16:54:49Z</time>
      </trkpt>
      <trkpt lat="45.50292" lon="5.39707">
        <ele>451.91568</ele>
        <time>2015-05-02T16:54:54Z</time>
      </trkpt>
      <trkpt lat="45.50297" lon="5.39716">
        <ele>451.91568</ele>
        <time>2015-05-02T16:54:59Z</time>
      </trkpt>
      <trkpt lat="45.503" lon="5.39726">
        <ele>451.80396</ele>
        <time>2015-05-02T16:55:05Z</time>
      </trkpt>
      <trkpt lat="45.503" lon="5.39734">
        <ele>451.80396</ele>
        <time>2015-05-02T16:55:10Z</time>
      </trkpt>
      <trkpt lat="45.50304" lon="5.39741">
        <ele>451.34457</ele>
        <time>2015-05-02T16:55:15Z</time>
      </trkpt>
      <trkpt lat="45.50306" lon="5.39749">
        <ele>451.34457</ele>
        <time>2015-05-02T16:55:19Z</time>
      </trkpt>
      <trkpt lat="45.50309" lon="5.39761">
        <ele>451.11133</ele>
        <time>2015-05-02T16:55:25Z</time>
      </trkpt>
      <trkpt lat="45.50313" lon="5.39769">
        <ele>451.11133</ele>
        <time>2015-05-02T16:55:29Z</time>
      </trkpt>
      <trkpt lat="45.50316" lon="5.39777">
        <ele>451.15973</ele>
        <time>2015-05-02T16:55:35Z</time>
      </trkpt>
      <trkpt lat="45.50321" lon="5.39785">
        <ele>451.15973</ele>
        <time>2015-05-02T16:55:40Z</time>
      </trkpt>
      <trkpt lat="45.50322" lon="5.39798">
        <ele>450.70453</ele>
        <time>2015-05-02T16:55:45Z</time>
      </trkpt>
      <trkpt lat="45.50323" lon="5.39804">
        <ele>450.70453</ele>
        <time>2015-05-02T16:55:49Z</time>
      </trkpt>
      <trkpt lat="45.50331" lon="5.39812">
        <ele>449.7979</ele>
        <time>2015-05-02T16:55:54Z</time>
      </trkpt>
      <trkpt lat="45.50337" lon="5.39819">
        <ele>449.7979</ele>
        <time>2015-05-02T16:55:59Z</time>
      </trkpt>
      <trkpt lat="45.50342" lon="5.39827">
        <ele>448.54706</ele>
        <time>2015-05-02T16:56:04Z</time>
      </trkpt>
      <trkpt lat="45.50348" lon="5.39833">
        <ele>448.54706</ele>
        <time>2015-05-02T16:56:09Z</time>
      </trkpt>
      <trkpt lat="45.50354" lon="5.39841">
        <ele>447.55673</ele>
        <time>2015-05-02T16:56:14Z</time>
      </trkpt>
      <trkpt lat="45.50358" lon="5.39848">
        <ele>447.55673</ele>
        <time>2015-05-02T16:56:19Z</time>
      </trkpt>
      <trkpt lat="45.50364" lon="5.39849">
        <ele>446.7812</ele>
        <time>2015-05-02T16:56:24Z</time>
      </trkpt>
      <trkpt lat="45.50368" lon="5.39855">
        <ele>446.7812</ele>
        <time>2015-05-02T16:56:29Z</time>
      </trkpt>
      <trkpt lat="45.50372" lon="5.39861">
        <ele>445.9614</ele>
        <time>2015-05-02T16:56:34Z</time>
      </trkpt>
      <trkpt lat="45.50381" lon="5.39866">
        <ele>445.77972</ele>
        <time>2015-05-02T16:56:39Z</time>
      </trkpt>
      <trkpt lat="45.50382" lon="5.39869">
        <ele>445.77972</ele>
        <time>2015-05-02T16:56:44Z</time>
      </trkpt>
      <trkpt lat="45.50387" lon="5.39879">
        <ele>445.84335</ele>
        <time>2015-05-02T16:56:49Z</time>
      </trkpt>
      <trkpt lat="45.50393" lon="5.39882">
        <ele>445.84335</ele>
        <time>2015-05-02T16:56:54Z</time>
      </trkpt>
      <trkpt lat="45.50398" lon="5.39883">
        <ele>446.23453</ele>
        <time>2015-05-02T16:56:59Z</time>
      </trkpt>
      <trkpt lat="45.50402" lon="5.39888">
        <ele>446.23453</ele>
        <time>2015-05-02T16:57:04Z</time>
      </trkpt>
      <trkpt lat="45.50407" lon="5.39894">
        <ele>446.6537</ele>
        <time>2015-05-02T16:57:09Z</time>
      </trkpt>
      <trkpt lat="45.5041" lon="5.39899">
        <ele>446.6537</ele>
        <time>2015-05-02T16:57:14Z</time>
      </trkpt>
      <trkpt lat="45.50418" lon="5.39903">
        <ele>447.35654</ele>
        <time>2015-05-02T16:57:19Z</time>
      </trkpt>
      <trkpt lat="45.50428" lon="5.39909">
        <ele>447.9594</ele>
        <time>2015-05-02T16:57:24Z</time>
      </trkpt>
      <trkpt lat="45.50433" lon="5.39918">
        <ele>447.9594</ele>
        <time>2015-05-02T16:57:29Z</time>
      </trkpt>
      <trkpt lat="45.50437" lon="5.39921">
        <ele>448.38104</ele>
        <time>2015-05-02T16:57:34Z</time>
      </trkpt>
      <trkpt lat="45.50442" lon="5.39927">
        <ele>448.38104</ele>
        <time>2015-05-02T16:57:39Z</time>
      </trkpt>
      <trkpt lat="45.50445" lon="5.3993">
        <ele>449.28156</ele>
        <time>2015-05-02T16:57:44Z</time>
      </trkpt>
      <trkpt lat="45.50445" lon="5.3993">
        <ele>449.28156</ele>
        <time>2015-05-02T16:57:49Z</time>
      </trkpt>
      <trkpt lat="45.50445" lon="5.39931">
        <ele>449.28156</ele>
        <time>2015-05-02T16:57:54Z</time>
      </trkpt>
      <trkpt lat="45.50443" lon="5.39932">
        <ele>449.28156</ele>
        <time>2015-05-02T16:57:59Z</time>
      </trkpt>
      <trkpt lat="45.50441" lon="5.39936">
        <ele>449.28156</ele>
        <time>2015-05-02T16:58:04Z</time>
      </trkpt>
      <trkpt lat="45.50441" lon="5.39939">
        <ele>449.28156</ele>
        <time>2015-05-02T16:58:09Z</time>
      </trkpt>
      <trkpt lat="45.50441" lon="5.3994">
        <ele>449.6428</ele>
        <time>2015-05-02T16:58:14Z</time>
      </trkpt>
    </trkseg>
  </trk>
</gpx>